<?xml version="1.0" encoding="UTF-8" standalone="no" ?>
<gpx xmlns="http://www.topografix.com/GPX/1/1" xmlns:xsi="http://www.w3.org/2001/XMLSchema-instance" xsi:schemaLocation="http://www.topografix.com/GPX/1/1 http://www.topografix.com/GPX/1/1/gpx.xsd" version="1.1" creator="VisuGPX - https://www.visugpx.com">
  <metadata>
    <name>Buzet 06 2024</name>
  </metadata>
  <trk>
    <name><![CDATA[VTT]]></name>
    <extensions>
      <line xmlns="http://www.topografix.com/GPX/gpx_style/0/2">
        <color>ff0000</color>
        <width>4</width>
          <extensions>
            <sens>1</sens>
          </extensions>
      </line>
    </extensions>
    <trkseg>
      <trkpt lat="43.65573" lon="1.44587">
        <ele>134</ele>
        <time>2024-06-01T14:58:45+02:00</time>
      </trkpt>
      <trkpt lat="43.65521" lon="1.44588">
        <ele>134.10059</ele>
        <time>2024-06-01T14:58:47+02:00</time>
      </trkpt>
      <trkpt lat="43.65524" lon="1.44589">
        <ele>134.10059</ele>
        <time>2024-06-01T14:58:54+02:00</time>
      </trkpt>
      <trkpt lat="43.65524" lon="1.4459">
        <ele>134.10059</ele>
        <time>2024-06-01T14:58:57+02:00</time>
      </trkpt>
      <trkpt lat="43.65524" lon="1.4459">
        <ele>134.10059</ele>
        <time>2024-06-01T14:59:07+02:00</time>
      </trkpt>
      <trkpt lat="43.65524" lon="1.4459">
        <ele>134.10059</ele>
        <time>2024-06-01T14:59:09+02:00</time>
      </trkpt>
      <trkpt lat="43.65525" lon="1.44589">
        <ele>134.10059</ele>
        <time>2024-06-01T14:59:17+02:00</time>
      </trkpt>
      <trkpt lat="43.65525" lon="1.44589">
        <ele>134.10059</ele>
        <time>2024-06-01T14:59:19+02:00</time>
      </trkpt>
      <trkpt lat="43.65524" lon="1.44589">
        <ele>134.10059</ele>
        <time>2024-06-01T14:59:27+02:00</time>
      </trkpt>
      <trkpt lat="43.65524" lon="1.4459">
        <ele>134.10059</ele>
        <time>2024-06-01T14:59:30+02:00</time>
      </trkpt>
      <trkpt lat="43.65525" lon="1.4459">
        <ele>134.10059</ele>
        <time>2024-06-01T14:59:37+02:00</time>
      </trkpt>
      <trkpt lat="43.65525" lon="1.4459">
        <ele>134.10059</ele>
        <time>2024-06-01T14:59:38+02:00</time>
      </trkpt>
      <trkpt lat="43.65525" lon="1.44589">
        <ele>134.10059</ele>
        <time>2024-06-01T14:59:46+02:00</time>
      </trkpt>
      <trkpt lat="43.65525" lon="1.44589">
        <ele>134.10059</ele>
        <time>2024-06-01T14:59:47+02:00</time>
      </trkpt>
      <trkpt lat="43.65525" lon="1.44589">
        <ele>134.10059</ele>
        <time>2024-06-01T14:59:56+02:00</time>
      </trkpt>
      <trkpt lat="43.65525" lon="1.44589">
        <ele>134.10059</ele>
        <time>2024-06-01T14:59:57+02:00</time>
      </trkpt>
      <trkpt lat="43.65525" lon="1.44589">
        <ele>134.10059</ele>
        <time>2024-06-01T15:00:07+02:00</time>
      </trkpt>
      <trkpt lat="43.65524" lon="1.44589">
        <ele>134.10059</ele>
        <time>2024-06-01T15:00:12+02:00</time>
      </trkpt>
      <trkpt lat="43.65524" lon="1.44589">
        <ele>134.10059</ele>
        <time>2024-06-01T15:00:18+02:00</time>
      </trkpt>
      <trkpt lat="43.65524" lon="1.44589">
        <ele>134.10059</ele>
        <time>2024-06-01T15:00:22+02:00</time>
      </trkpt>
      <trkpt lat="43.65524" lon="1.44589">
        <ele>134.10059</ele>
        <time>2024-06-01T15:00:28+02:00</time>
      </trkpt>
      <trkpt lat="43.65524" lon="1.44589">
        <ele>134.10059</ele>
        <time>2024-06-01T15:00:29+02:00</time>
      </trkpt>
      <trkpt lat="43.65524" lon="1.44589">
        <ele>134.10059</ele>
        <time>2024-06-01T15:00:33+02:00</time>
      </trkpt>
      <trkpt lat="43.65524" lon="1.44589">
        <ele>134.10059</ele>
        <time>2024-06-01T15:00:34+02:00</time>
      </trkpt>
      <trkpt lat="43.65524" lon="1.44589">
        <ele>134.10059</ele>
        <time>2024-06-01T15:00:38+02:00</time>
      </trkpt>
      <trkpt lat="43.65524" lon="1.44589">
        <ele>134.10059</ele>
        <time>2024-06-01T15:00:39+02:00</time>
      </trkpt>
      <trkpt lat="43.65524" lon="1.44589">
        <ele>134.10059</ele>
        <time>2024-06-01T15:00:43+02:00</time>
      </trkpt>
      <trkpt lat="43.65524" lon="1.44589">
        <ele>134.10059</ele>
        <time>2024-06-01T15:00:44+02:00</time>
      </trkpt>
      <trkpt lat="43.65524" lon="1.44589">
        <ele>134.10059</ele>
        <time>2024-06-01T15:00:48+02:00</time>
      </trkpt>
      <trkpt lat="43.65524" lon="1.44589">
        <ele>134.10059</ele>
        <time>2024-06-01T15:00:49+02:00</time>
      </trkpt>
      <trkpt lat="43.65524" lon="1.44589">
        <ele>134.10059</ele>
        <time>2024-06-01T15:00:53+02:00</time>
      </trkpt>
      <trkpt lat="43.65524" lon="1.44589">
        <ele>134.10059</ele>
        <time>2024-06-01T15:00:54+02:00</time>
      </trkpt>
      <trkpt lat="43.65524" lon="1.4459">
        <ele>134.10059</ele>
        <time>2024-06-01T15:00:58+02:00</time>
      </trkpt>
      <trkpt lat="43.65525" lon="1.4459">
        <ele>134.2998</ele>
        <time>2024-06-01T15:00:59+02:00</time>
      </trkpt>
      <trkpt lat="43.65533" lon="1.44594">
        <ele>134.2998</ele>
        <time>2024-06-01T15:01:03+02:00</time>
      </trkpt>
      <trkpt lat="43.65535" lon="1.44595">
        <ele>134.2998</ele>
        <time>2024-06-01T15:01:04+02:00</time>
      </trkpt>
      <trkpt lat="43.6554" lon="1.44603">
        <ele>134.40039</ele>
        <time>2024-06-01T15:01:08+02:00</time>
      </trkpt>
      <trkpt lat="43.65542" lon="1.44607">
        <ele>134.40039</ele>
        <time>2024-06-01T15:01:09+02:00</time>
      </trkpt>
      <trkpt lat="43.65558" lon="1.44618">
        <ele>134.60059</ele>
        <time>2024-06-01T15:01:13+02:00</time>
      </trkpt>
      <trkpt lat="43.65562" lon="1.4462">
        <ele>134.60059</ele>
        <time>2024-06-01T15:01:14+02:00</time>
      </trkpt>
      <trkpt lat="43.65578" lon="1.4463">
        <ele>134.60059</ele>
        <time>2024-06-01T15:01:18+02:00</time>
      </trkpt>
      <trkpt lat="43.65582" lon="1.44632">
        <ele>134.60059</ele>
        <time>2024-06-01T15:01:19+02:00</time>
      </trkpt>
      <trkpt lat="43.65596" lon="1.4464">
        <ele>134.60059</ele>
        <time>2024-06-01T15:01:23+02:00</time>
      </trkpt>
      <trkpt lat="43.65599" lon="1.44641">
        <ele>134.60059</ele>
        <time>2024-06-01T15:01:24+02:00</time>
      </trkpt>
      <trkpt lat="43.65609" lon="1.4465">
        <ele>134.60059</ele>
        <time>2024-06-01T15:01:28+02:00</time>
      </trkpt>
      <trkpt lat="43.6561" lon="1.44654">
        <ele>134.7002</ele>
        <time>2024-06-01T15:01:29+02:00</time>
      </trkpt>
      <trkpt lat="43.65606" lon="1.44669">
        <ele>134.90039</ele>
        <time>2024-06-01T15:01:33+02:00</time>
      </trkpt>
      <trkpt lat="43.65604" lon="1.44673">
        <ele>134.90039</ele>
        <time>2024-06-01T15:01:34+02:00</time>
      </trkpt>
      <trkpt lat="43.65602" lon="1.44676">
        <ele>134.90039</ele>
        <time>2024-06-01T15:01:38+02:00</time>
      </trkpt>
      <trkpt lat="43.65602" lon="1.44676">
        <ele>134.90039</ele>
        <time>2024-06-01T15:01:39+02:00</time>
      </trkpt>
      <trkpt lat="43.65602" lon="1.44675">
        <ele>134.90039</ele>
        <time>2024-06-01T15:01:43+02:00</time>
      </trkpt>
      <trkpt lat="43.65602" lon="1.44675">
        <ele>134.90039</ele>
        <time>2024-06-01T15:01:44+02:00</time>
      </trkpt>
      <trkpt lat="43.65602" lon="1.44674">
        <ele>134.90039</ele>
        <time>2024-06-01T15:01:48+02:00</time>
      </trkpt>
      <trkpt lat="43.65602" lon="1.44674">
        <ele>134.90039</ele>
        <time>2024-06-01T15:01:49+02:00</time>
      </trkpt>
      <trkpt lat="43.65602" lon="1.44674">
        <ele>134.90039</ele>
        <time>2024-06-01T15:01:53+02:00</time>
      </trkpt>
      <trkpt lat="43.65602" lon="1.44674">
        <ele>134.90039</ele>
        <time>2024-06-01T15:01:54+02:00</time>
      </trkpt>
      <trkpt lat="43.65602" lon="1.44674">
        <ele>134.90039</ele>
        <time>2024-06-01T15:01:58+02:00</time>
      </trkpt>
      <trkpt lat="43.65602" lon="1.44674">
        <ele>134.90039</ele>
        <time>2024-06-01T15:01:59+02:00</time>
      </trkpt>
      <trkpt lat="43.65603" lon="1.44675">
        <ele>134.90039</ele>
        <time>2024-06-01T15:02:03+02:00</time>
      </trkpt>
      <trkpt lat="43.65603" lon="1.44675">
        <ele>134.90039</ele>
        <time>2024-06-01T15:02:04+02:00</time>
      </trkpt>
      <trkpt lat="43.65603" lon="1.44675">
        <ele>134.90039</ele>
        <time>2024-06-01T15:02:08+02:00</time>
      </trkpt>
      <trkpt lat="43.65603" lon="1.44675">
        <ele>134.90039</ele>
        <time>2024-06-01T15:02:09+02:00</time>
      </trkpt>
      <trkpt lat="43.65603" lon="1.44675">
        <ele>134.90039</ele>
        <time>2024-06-01T15:02:13+02:00</time>
      </trkpt>
      <trkpt lat="43.65602" lon="1.44676">
        <ele>134.90039</ele>
        <time>2024-06-01T15:02:14+02:00</time>
      </trkpt>
      <trkpt lat="43.65595" lon="1.44688">
        <ele>135</ele>
        <time>2024-06-01T15:02:18+02:00</time>
      </trkpt>
      <trkpt lat="43.65592" lon="1.44694">
        <ele>135</ele>
        <time>2024-06-01T15:02:19+02:00</time>
      </trkpt>
      <trkpt lat="43.65583" lon="1.44711">
        <ele>135.10059</ele>
        <time>2024-06-01T15:02:23+02:00</time>
      </trkpt>
      <trkpt lat="43.65581" lon="1.44716">
        <ele>135.10059</ele>
        <time>2024-06-01T15:02:24+02:00</time>
      </trkpt>
      <trkpt lat="43.65571" lon="1.44737">
        <ele>135.10059</ele>
        <time>2024-06-01T15:02:28+02:00</time>
      </trkpt>
      <trkpt lat="43.65568" lon="1.44742">
        <ele>135.2002</ele>
        <time>2024-06-01T15:02:29+02:00</time>
      </trkpt>
      <trkpt lat="43.65556" lon="1.44765">
        <ele>135.2002</ele>
        <time>2024-06-01T15:02:33+02:00</time>
      </trkpt>
      <trkpt lat="43.65553" lon="1.4477">
        <ele>135.2002</ele>
        <time>2024-06-01T15:02:34+02:00</time>
      </trkpt>
      <trkpt lat="43.65542" lon="1.44793">
        <ele>135.2002</ele>
        <time>2024-06-01T15:02:38+02:00</time>
      </trkpt>
      <trkpt lat="43.65539" lon="1.44799">
        <ele>135.10059</ele>
        <time>2024-06-01T15:02:39+02:00</time>
      </trkpt>
      <trkpt lat="43.65524" lon="1.44818">
        <ele>135.10059</ele>
        <time>2024-06-01T15:02:43+02:00</time>
      </trkpt>
      <trkpt lat="43.6552" lon="1.44824">
        <ele>135</ele>
        <time>2024-06-01T15:02:44+02:00</time>
      </trkpt>
      <trkpt lat="43.65509" lon="1.44851">
        <ele>134.90039</ele>
        <time>2024-06-01T15:02:48+02:00</time>
      </trkpt>
      <trkpt lat="43.65507" lon="1.44858">
        <ele>135</ele>
        <time>2024-06-01T15:02:49+02:00</time>
      </trkpt>
      <trkpt lat="43.65494" lon="1.44888">
        <ele>135.7998</ele>
        <time>2024-06-01T15:02:53+02:00</time>
      </trkpt>
      <trkpt lat="43.65491" lon="1.44895">
        <ele>136.10059</ele>
        <time>2024-06-01T15:02:54+02:00</time>
      </trkpt>
      <trkpt lat="43.65478" lon="1.44924">
        <ele>137.7998</ele>
        <time>2024-06-01T15:02:58+02:00</time>
      </trkpt>
      <trkpt lat="43.65477" lon="1.44933">
        <ele>138.5</ele>
        <time>2024-06-01T15:02:59+02:00</time>
      </trkpt>
      <trkpt lat="43.65487" lon="1.44959">
        <ele>137.7998</ele>
        <time>2024-06-01T15:03:03+02:00</time>
      </trkpt>
      <trkpt lat="43.65492" lon="1.44966">
        <ele>137.2998</ele>
        <time>2024-06-01T15:03:04+02:00</time>
      </trkpt>
      <trkpt lat="43.6551" lon="1.4499">
        <ele>135.40039</ele>
        <time>2024-06-01T15:03:08+02:00</time>
      </trkpt>
      <trkpt lat="43.65514" lon="1.44995">
        <ele>135.40039</ele>
        <time>2024-06-01T15:03:09+02:00</time>
      </trkpt>
      <trkpt lat="43.65529" lon="1.45016">
        <ele>134.7998</ele>
        <time>2024-06-01T15:03:13+02:00</time>
      </trkpt>
      <trkpt lat="43.65531" lon="1.45022">
        <ele>134.7998</ele>
        <time>2024-06-01T15:03:14+02:00</time>
      </trkpt>
      <trkpt lat="43.65547" lon="1.45041">
        <ele>134.7002</ele>
        <time>2024-06-01T15:03:18+02:00</time>
      </trkpt>
      <trkpt lat="43.65551" lon="1.45046">
        <ele>134.7002</ele>
        <time>2024-06-01T15:03:19+02:00</time>
      </trkpt>
      <trkpt lat="43.65565" lon="1.45069">
        <ele>134.7002</ele>
        <time>2024-06-01T15:03:23+02:00</time>
      </trkpt>
      <trkpt lat="43.65566" lon="1.45074">
        <ele>134.7002</ele>
        <time>2024-06-01T15:03:24+02:00</time>
      </trkpt>
      <trkpt lat="43.65579" lon="1.45087">
        <ele>134.60059</ele>
        <time>2024-06-01T15:03:28+02:00</time>
      </trkpt>
      <trkpt lat="43.65582" lon="1.45092">
        <ele>134.5</ele>
        <time>2024-06-01T15:03:29+02:00</time>
      </trkpt>
      <trkpt lat="43.65596" lon="1.4511">
        <ele>134.10059</ele>
        <time>2024-06-01T15:03:33+02:00</time>
      </trkpt>
      <trkpt lat="43.65599" lon="1.45115">
        <ele>134</ele>
        <time>2024-06-01T15:03:34+02:00</time>
      </trkpt>
      <trkpt lat="43.65601" lon="1.45126">
        <ele>133.90039</ele>
        <time>2024-06-01T15:03:38+02:00</time>
      </trkpt>
      <trkpt lat="43.65599" lon="1.45128">
        <ele>133.90039</ele>
        <time>2024-06-01T15:03:39+02:00</time>
      </trkpt>
      <trkpt lat="43.6559" lon="1.45128">
        <ele>134</ele>
        <time>2024-06-01T15:03:43+02:00</time>
      </trkpt>
      <trkpt lat="43.65587" lon="1.45128">
        <ele>134.10059</ele>
        <time>2024-06-01T15:03:44+02:00</time>
      </trkpt>
      <trkpt lat="43.65572" lon="1.4514">
        <ele>134.2998</ele>
        <time>2024-06-01T15:03:48+02:00</time>
      </trkpt>
      <trkpt lat="43.65568" lon="1.45143">
        <ele>134.40039</ele>
        <time>2024-06-01T15:03:49+02:00</time>
      </trkpt>
      <trkpt lat="43.6555" lon="1.45155">
        <ele>134.7002</ele>
        <time>2024-06-01T15:03:53+02:00</time>
      </trkpt>
      <trkpt lat="43.65545" lon="1.45158">
        <ele>134.90039</ele>
        <time>2024-06-01T15:03:54+02:00</time>
      </trkpt>
      <trkpt lat="43.65526" lon="1.4517">
        <ele>135.2998</ele>
        <time>2024-06-01T15:03:58+02:00</time>
      </trkpt>
      <trkpt lat="43.65521" lon="1.45174">
        <ele>135.2998</ele>
        <time>2024-06-01T15:03:59+02:00</time>
      </trkpt>
      <trkpt lat="43.655" lon="1.45188">
        <ele>136</ele>
        <time>2024-06-01T15:04:03+02:00</time>
      </trkpt>
      <trkpt lat="43.65494" lon="1.45191">
        <ele>136</ele>
        <time>2024-06-01T15:04:04+02:00</time>
      </trkpt>
      <trkpt lat="43.65475" lon="1.45206">
        <ele>136.2998</ele>
        <time>2024-06-01T15:04:08+02:00</time>
      </trkpt>
      <trkpt lat="43.6547" lon="1.45211">
        <ele>136.40039</ele>
        <time>2024-06-01T15:04:09+02:00</time>
      </trkpt>
      <trkpt lat="43.6545" lon="1.45226">
        <ele>136.2998</ele>
        <time>2024-06-01T15:04:13+02:00</time>
      </trkpt>
      <trkpt lat="43.65445" lon="1.4523">
        <ele>136.2002</ele>
        <time>2024-06-01T15:04:14+02:00</time>
      </trkpt>
      <trkpt lat="43.65422" lon="1.45238">
        <ele>136</ele>
        <time>2024-06-01T15:04:18+02:00</time>
      </trkpt>
      <trkpt lat="43.65417" lon="1.4524">
        <ele>136</ele>
        <time>2024-06-01T15:04:19+02:00</time>
      </trkpt>
      <trkpt lat="43.654" lon="1.45252">
        <ele>135.7998</ele>
        <time>2024-06-01T15:04:23+02:00</time>
      </trkpt>
      <trkpt lat="43.65396" lon="1.45257">
        <ele>135.7998</ele>
        <time>2024-06-01T15:04:24+02:00</time>
      </trkpt>
      <trkpt lat="43.65378" lon="1.45284">
        <ele>135.5</ele>
        <time>2024-06-01T15:04:28+02:00</time>
      </trkpt>
      <trkpt lat="43.65374" lon="1.4529">
        <ele>135.40039</ele>
        <time>2024-06-01T15:04:29+02:00</time>
      </trkpt>
      <trkpt lat="43.65376" lon="1.45301">
        <ele>135.2998</ele>
        <time>2024-06-01T15:04:33+02:00</time>
      </trkpt>
      <trkpt lat="43.65379" lon="1.45304">
        <ele>135.2002</ele>
        <time>2024-06-01T15:04:34+02:00</time>
      </trkpt>
      <trkpt lat="43.65393" lon="1.45323">
        <ele>135.10059</ele>
        <time>2024-06-01T15:04:38+02:00</time>
      </trkpt>
      <trkpt lat="43.65397" lon="1.45328">
        <ele>135.10059</ele>
        <time>2024-06-01T15:04:39+02:00</time>
      </trkpt>
      <trkpt lat="43.6541" lon="1.45347">
        <ele>135</ele>
        <time>2024-06-01T15:04:43+02:00</time>
      </trkpt>
      <trkpt lat="43.65413" lon="1.45351">
        <ele>135</ele>
        <time>2024-06-01T15:04:44+02:00</time>
      </trkpt>
      <trkpt lat="43.65425" lon="1.45354">
        <ele>134.90039</ele>
        <time>2024-06-01T15:04:48+02:00</time>
      </trkpt>
      <trkpt lat="43.65426" lon="1.45353">
        <ele>134.90039</ele>
        <time>2024-06-01T15:04:49+02:00</time>
      </trkpt>
      <trkpt lat="43.65432" lon="1.45352">
        <ele>134.90039</ele>
        <time>2024-06-01T15:04:53+02:00</time>
      </trkpt>
      <trkpt lat="43.65433" lon="1.45352">
        <ele>134.90039</ele>
        <time>2024-06-01T15:04:54+02:00</time>
      </trkpt>
      <trkpt lat="43.65434" lon="1.45353">
        <ele>134.7998</ele>
        <time>2024-06-01T15:04:58+02:00</time>
      </trkpt>
      <trkpt lat="43.65436" lon="1.45354">
        <ele>134.7998</ele>
        <time>2024-06-01T15:04:59+02:00</time>
      </trkpt>
      <trkpt lat="43.65442" lon="1.45363">
        <ele>134.7002</ele>
        <time>2024-06-01T15:05:03+02:00</time>
      </trkpt>
      <trkpt lat="43.65444" lon="1.45367">
        <ele>134.7002</ele>
        <time>2024-06-01T15:05:04+02:00</time>
      </trkpt>
      <trkpt lat="43.65461" lon="1.45372">
        <ele>134.2002</ele>
        <time>2024-06-01T15:05:08+02:00</time>
      </trkpt>
      <trkpt lat="43.65466" lon="1.45374">
        <ele>134.10059</ele>
        <time>2024-06-01T15:05:09+02:00</time>
      </trkpt>
      <trkpt lat="43.65485" lon="1.45381">
        <ele>133.60059</ele>
        <time>2024-06-01T15:05:13+02:00</time>
      </trkpt>
      <trkpt lat="43.6549" lon="1.45383">
        <ele>133.60059</ele>
        <time>2024-06-01T15:05:14+02:00</time>
      </trkpt>
      <trkpt lat="43.6551" lon="1.4539">
        <ele>133.2998</ele>
        <time>2024-06-01T15:05:18+02:00</time>
      </trkpt>
      <trkpt lat="43.65515" lon="1.45392">
        <ele>133.2998</ele>
        <time>2024-06-01T15:05:19+02:00</time>
      </trkpt>
      <trkpt lat="43.65537" lon="1.454">
        <ele>133.2998</ele>
        <time>2024-06-01T15:05:23+02:00</time>
      </trkpt>
      <trkpt lat="43.65543" lon="1.45402">
        <ele>133.2998</ele>
        <time>2024-06-01T15:05:24+02:00</time>
      </trkpt>
      <trkpt lat="43.65566" lon="1.4541">
        <ele>133.2998</ele>
        <time>2024-06-01T15:05:28+02:00</time>
      </trkpt>
      <trkpt lat="43.65571" lon="1.45412">
        <ele>133.2998</ele>
        <time>2024-06-01T15:05:29+02:00</time>
      </trkpt>
      <trkpt lat="43.65594" lon="1.4542">
        <ele>133.40039</ele>
        <time>2024-06-01T15:05:33+02:00</time>
      </trkpt>
      <trkpt lat="43.656" lon="1.45422">
        <ele>133.40039</ele>
        <time>2024-06-01T15:05:34+02:00</time>
      </trkpt>
      <trkpt lat="43.65623" lon="1.45429">
        <ele>133.60059</ele>
        <time>2024-06-01T15:05:38+02:00</time>
      </trkpt>
      <trkpt lat="43.65628" lon="1.45432">
        <ele>133.7002</ele>
        <time>2024-06-01T15:05:39+02:00</time>
      </trkpt>
      <trkpt lat="43.6565" lon="1.45443">
        <ele>133.7998</ele>
        <time>2024-06-01T15:05:43+02:00</time>
      </trkpt>
      <trkpt lat="43.65656" lon="1.45445">
        <ele>133.90039</ele>
        <time>2024-06-01T15:05:44+02:00</time>
      </trkpt>
      <trkpt lat="43.65678" lon="1.45455">
        <ele>134.2002</ele>
        <time>2024-06-01T15:05:48+02:00</time>
      </trkpt>
      <trkpt lat="43.65683" lon="1.45457">
        <ele>134.2002</ele>
        <time>2024-06-01T15:05:49+02:00</time>
      </trkpt>
      <trkpt lat="43.65705" lon="1.45466">
        <ele>134.5</ele>
        <time>2024-06-01T15:05:53+02:00</time>
      </trkpt>
      <trkpt lat="43.6571" lon="1.45468">
        <ele>134.7002</ele>
        <time>2024-06-01T15:05:54+02:00</time>
      </trkpt>
      <trkpt lat="43.65731" lon="1.45476">
        <ele>135.2002</ele>
        <time>2024-06-01T15:05:58+02:00</time>
      </trkpt>
      <trkpt lat="43.65736" lon="1.45477">
        <ele>135.2002</ele>
        <time>2024-06-01T15:05:59+02:00</time>
      </trkpt>
      <trkpt lat="43.6576" lon="1.45481">
        <ele>135.5</ele>
        <time>2024-06-01T15:06:03+02:00</time>
      </trkpt>
      <trkpt lat="43.65766" lon="1.45484">
        <ele>135.7002</ele>
        <time>2024-06-01T15:06:04+02:00</time>
      </trkpt>
      <trkpt lat="43.65788" lon="1.45488">
        <ele>135.7002</ele>
        <time>2024-06-01T15:06:08+02:00</time>
      </trkpt>
      <trkpt lat="43.65793" lon="1.4549">
        <ele>135.7002</ele>
        <time>2024-06-01T15:06:09+02:00</time>
      </trkpt>
      <trkpt lat="43.65814" lon="1.45495">
        <ele>135.7002</ele>
        <time>2024-06-01T15:06:13+02:00</time>
      </trkpt>
      <trkpt lat="43.65819" lon="1.45493">
        <ele>135.60059</ele>
        <time>2024-06-01T15:06:14+02:00</time>
      </trkpt>
      <trkpt lat="43.65843" lon="1.45484">
        <ele>135.40039</ele>
        <time>2024-06-01T15:06:18+02:00</time>
      </trkpt>
      <trkpt lat="43.65848" lon="1.45482">
        <ele>135.40039</ele>
        <time>2024-06-01T15:06:19+02:00</time>
      </trkpt>
      <trkpt lat="43.65872" lon="1.45475">
        <ele>135</ele>
        <time>2024-06-01T15:06:23+02:00</time>
      </trkpt>
      <trkpt lat="43.65878" lon="1.45475">
        <ele>134.90039</ele>
        <time>2024-06-01T15:06:24+02:00</time>
      </trkpt>
      <trkpt lat="43.65899" lon="1.45474">
        <ele>134.90039</ele>
        <time>2024-06-01T15:06:28+02:00</time>
      </trkpt>
      <trkpt lat="43.65904" lon="1.45473">
        <ele>134.7998</ele>
        <time>2024-06-01T15:06:29+02:00</time>
      </trkpt>
      <trkpt lat="43.65923" lon="1.45465">
        <ele>135.10059</ele>
        <time>2024-06-01T15:06:33+02:00</time>
      </trkpt>
      <trkpt lat="43.65927" lon="1.45462">
        <ele>135.10059</ele>
        <time>2024-06-01T15:06:34+02:00</time>
      </trkpt>
      <trkpt lat="43.65943" lon="1.45454">
        <ele>135.60059</ele>
        <time>2024-06-01T15:06:38+02:00</time>
      </trkpt>
      <trkpt lat="43.65946" lon="1.45452">
        <ele>135.60059</ele>
        <time>2024-06-01T15:06:39+02:00</time>
      </trkpt>
      <trkpt lat="43.65962" lon="1.45452">
        <ele>136</ele>
        <time>2024-06-01T15:06:43+02:00</time>
      </trkpt>
      <trkpt lat="43.65967" lon="1.45455">
        <ele>136</ele>
        <time>2024-06-01T15:06:44+02:00</time>
      </trkpt>
      <trkpt lat="43.65987" lon="1.45472">
        <ele>136</ele>
        <time>2024-06-01T15:06:48+02:00</time>
      </trkpt>
      <trkpt lat="43.65992" lon="1.45476">
        <ele>135.90039</ele>
        <time>2024-06-01T15:06:49+02:00</time>
      </trkpt>
      <trkpt lat="43.66014" lon="1.45491">
        <ele>135.7998</ele>
        <time>2024-06-01T15:06:53+02:00</time>
      </trkpt>
      <trkpt lat="43.66019" lon="1.45496">
        <ele>135.60059</ele>
        <time>2024-06-01T15:06:54+02:00</time>
      </trkpt>
      <trkpt lat="43.66038" lon="1.45516">
        <ele>135.2002</ele>
        <time>2024-06-01T15:06:58+02:00</time>
      </trkpt>
      <trkpt lat="43.66041" lon="1.45519">
        <ele>135</ele>
        <time>2024-06-01T15:06:59+02:00</time>
      </trkpt>
      <trkpt lat="43.66055" lon="1.45527">
        <ele>134.7002</ele>
        <time>2024-06-01T15:07:03+02:00</time>
      </trkpt>
      <trkpt lat="43.66059" lon="1.45529">
        <ele>134.7002</ele>
        <time>2024-06-01T15:07:04+02:00</time>
      </trkpt>
      <trkpt lat="43.66075" lon="1.45535">
        <ele>134.40039</ele>
        <time>2024-06-01T15:07:08+02:00</time>
      </trkpt>
      <trkpt lat="43.6608" lon="1.45534">
        <ele>134.40039</ele>
        <time>2024-06-01T15:07:09+02:00</time>
      </trkpt>
      <trkpt lat="43.661" lon="1.45535">
        <ele>133.90039</ele>
        <time>2024-06-01T15:07:13+02:00</time>
      </trkpt>
      <trkpt lat="43.66105" lon="1.45539">
        <ele>133.7002</ele>
        <time>2024-06-01T15:07:14+02:00</time>
      </trkpt>
      <trkpt lat="43.66121" lon="1.4555">
        <ele>133.2002</ele>
        <time>2024-06-01T15:07:18+02:00</time>
      </trkpt>
      <trkpt lat="43.66125" lon="1.45553">
        <ele>132.7002</ele>
        <time>2024-06-01T15:07:19+02:00</time>
      </trkpt>
      <trkpt lat="43.66142" lon="1.45569">
        <ele>131.40039</ele>
        <time>2024-06-01T15:07:23+02:00</time>
      </trkpt>
      <trkpt lat="43.66146" lon="1.45573">
        <ele>131.40039</ele>
        <time>2024-06-01T15:07:24+02:00</time>
      </trkpt>
      <trkpt lat="43.66162" lon="1.45588">
        <ele>130.40039</ele>
        <time>2024-06-01T15:07:28+02:00</time>
      </trkpt>
      <trkpt lat="43.66167" lon="1.45592">
        <ele>130.10059</ele>
        <time>2024-06-01T15:07:29+02:00</time>
      </trkpt>
      <trkpt lat="43.66184" lon="1.45617">
        <ele>129.7002</ele>
        <time>2024-06-01T15:07:33+02:00</time>
      </trkpt>
      <trkpt lat="43.66189" lon="1.45623">
        <ele>129.60059</ele>
        <time>2024-06-01T15:07:34+02:00</time>
      </trkpt>
      <trkpt lat="43.6621" lon="1.45632">
        <ele>129.2002</ele>
        <time>2024-06-01T15:07:38+02:00</time>
      </trkpt>
      <trkpt lat="43.66215" lon="1.45627">
        <ele>129.2002</ele>
        <time>2024-06-01T15:07:39+02:00</time>
      </trkpt>
      <trkpt lat="43.66225" lon="1.45588">
        <ele>128.7998</ele>
        <time>2024-06-01T15:07:43+02:00</time>
      </trkpt>
      <trkpt lat="43.66227" lon="1.45578">
        <ele>128.90039</ele>
        <time>2024-06-01T15:07:44+02:00</time>
      </trkpt>
      <trkpt lat="43.66236" lon="1.45543">
        <ele>129.2998</ele>
        <time>2024-06-01T15:07:48+02:00</time>
      </trkpt>
      <trkpt lat="43.66238" lon="1.45534">
        <ele>129.40039</ele>
        <time>2024-06-01T15:07:49+02:00</time>
      </trkpt>
      <trkpt lat="43.66248" lon="1.45499">
        <ele>130</ele>
        <time>2024-06-01T15:07:53+02:00</time>
      </trkpt>
      <trkpt lat="43.6625" lon="1.45491">
        <ele>130.10059</ele>
        <time>2024-06-01T15:07:54+02:00</time>
      </trkpt>
      <trkpt lat="43.6626" lon="1.45457">
        <ele>130.2002</ele>
        <time>2024-06-01T15:07:58+02:00</time>
      </trkpt>
      <trkpt lat="43.66262" lon="1.45449">
        <ele>130.2002</ele>
        <time>2024-06-01T15:07:59+02:00</time>
      </trkpt>
      <trkpt lat="43.66271" lon="1.45414">
        <ele>130.10059</ele>
        <time>2024-06-01T15:08:03+02:00</time>
      </trkpt>
      <trkpt lat="43.66273" lon="1.45405">
        <ele>130</ele>
        <time>2024-06-01T15:08:04+02:00</time>
      </trkpt>
      <trkpt lat="43.66283" lon="1.45373">
        <ele>129.90039</ele>
        <time>2024-06-01T15:08:08+02:00</time>
      </trkpt>
      <trkpt lat="43.66287" lon="1.45365">
        <ele>129.90039</ele>
        <time>2024-06-01T15:08:09+02:00</time>
      </trkpt>
      <trkpt lat="43.66298" lon="1.45335">
        <ele>129.7998</ele>
        <time>2024-06-01T15:08:13+02:00</time>
      </trkpt>
      <trkpt lat="43.66301" lon="1.45328">
        <ele>129.7998</ele>
        <time>2024-06-01T15:08:14+02:00</time>
      </trkpt>
      <trkpt lat="43.66315" lon="1.45302">
        <ele>129.90039</ele>
        <time>2024-06-01T15:08:18+02:00</time>
      </trkpt>
      <trkpt lat="43.66319" lon="1.45295">
        <ele>129.90039</ele>
        <time>2024-06-01T15:08:19+02:00</time>
      </trkpt>
      <trkpt lat="43.66332" lon="1.45267">
        <ele>130.10059</ele>
        <time>2024-06-01T15:08:23+02:00</time>
      </trkpt>
      <trkpt lat="43.66334" lon="1.4526">
        <ele>130</ele>
        <time>2024-06-01T15:08:24+02:00</time>
      </trkpt>
      <trkpt lat="43.66351" lon="1.45228">
        <ele>129.90039</ele>
        <time>2024-06-01T15:08:28+02:00</time>
      </trkpt>
      <trkpt lat="43.66354" lon="1.45219">
        <ele>129.90039</ele>
        <time>2024-06-01T15:08:29+02:00</time>
      </trkpt>
      <trkpt lat="43.66362" lon="1.45187">
        <ele>129.90039</ele>
        <time>2024-06-01T15:08:33+02:00</time>
      </trkpt>
      <trkpt lat="43.66365" lon="1.45178">
        <ele>130</ele>
        <time>2024-06-01T15:08:34+02:00</time>
      </trkpt>
      <trkpt lat="43.66363" lon="1.45155">
        <ele>131.10059</ele>
        <time>2024-06-01T15:08:38+02:00</time>
      </trkpt>
      <trkpt lat="43.66365" lon="1.45152">
        <ele>131.10059</ele>
        <time>2024-06-01T15:08:39+02:00</time>
      </trkpt>
      <trkpt lat="43.66377" lon="1.45126">
        <ele>131.10059</ele>
        <time>2024-06-01T15:08:43+02:00</time>
      </trkpt>
      <trkpt lat="43.6638" lon="1.45119">
        <ele>131.10059</ele>
        <time>2024-06-01T15:08:44+02:00</time>
      </trkpt>
      <trkpt lat="43.66393" lon="1.45089">
        <ele>130.60059</ele>
        <time>2024-06-01T15:08:48+02:00</time>
      </trkpt>
      <trkpt lat="43.66396" lon="1.4508">
        <ele>130.60059</ele>
        <time>2024-06-01T15:08:49+02:00</time>
      </trkpt>
      <trkpt lat="43.66404" lon="1.45047">
        <ele>131</ele>
        <time>2024-06-01T15:08:53+02:00</time>
      </trkpt>
      <trkpt lat="43.66408" lon="1.4504">
        <ele>131.2002</ele>
        <time>2024-06-01T15:08:54+02:00</time>
      </trkpt>
      <trkpt lat="43.66415" lon="1.45009">
        <ele>131.5</ele>
        <time>2024-06-01T15:08:58+02:00</time>
      </trkpt>
      <trkpt lat="43.66416" lon="1.45002">
        <ele>131.60059</ele>
        <time>2024-06-01T15:08:59+02:00</time>
      </trkpt>
      <trkpt lat="43.66422" lon="1.44968">
        <ele>131.2998</ele>
        <time>2024-06-01T15:09:03+02:00</time>
      </trkpt>
      <trkpt lat="43.66424" lon="1.4496">
        <ele>131.2998</ele>
        <time>2024-06-01T15:09:04+02:00</time>
      </trkpt>
      <trkpt lat="43.66436" lon="1.44926">
        <ele>131</ele>
        <time>2024-06-01T15:09:08+02:00</time>
      </trkpt>
      <trkpt lat="43.66437" lon="1.44917">
        <ele>131</ele>
        <time>2024-06-01T15:09:09+02:00</time>
      </trkpt>
      <trkpt lat="43.66452" lon="1.44886">
        <ele>130.2998</ele>
        <time>2024-06-01T15:09:13+02:00</time>
      </trkpt>
      <trkpt lat="43.66454" lon="1.44878">
        <ele>130.40039</ele>
        <time>2024-06-01T15:09:14+02:00</time>
      </trkpt>
      <trkpt lat="43.66459" lon="1.44848">
        <ele>130.40039</ele>
        <time>2024-06-01T15:09:18+02:00</time>
      </trkpt>
      <trkpt lat="43.66461" lon="1.44841">
        <ele>130.40039</ele>
        <time>2024-06-01T15:09:19+02:00</time>
      </trkpt>
      <trkpt lat="43.66474" lon="1.4481">
        <ele>130.5</ele>
        <time>2024-06-01T15:09:23+02:00</time>
      </trkpt>
      <trkpt lat="43.66477" lon="1.44803">
        <ele>130.40039</ele>
        <time>2024-06-01T15:09:24+02:00</time>
      </trkpt>
      <trkpt lat="43.66491" lon="1.44772">
        <ele>130.2002</ele>
        <time>2024-06-01T15:09:28+02:00</time>
      </trkpt>
      <trkpt lat="43.66494" lon="1.44764">
        <ele>130.2002</ele>
        <time>2024-06-01T15:09:29+02:00</time>
      </trkpt>
      <trkpt lat="43.66504" lon="1.44736">
        <ele>129.7998</ele>
        <time>2024-06-01T15:09:33+02:00</time>
      </trkpt>
      <trkpt lat="43.66507" lon="1.44727">
        <ele>129.90039</ele>
        <time>2024-06-01T15:09:34+02:00</time>
      </trkpt>
      <trkpt lat="43.66519" lon="1.44708">
        <ele>129.7002</ele>
        <time>2024-06-01T15:09:38+02:00</time>
      </trkpt>
      <trkpt lat="43.66522" lon="1.44711">
        <ele>129.5</ele>
        <time>2024-06-01T15:09:39+02:00</time>
      </trkpt>
      <trkpt lat="43.6654" lon="1.44724">
        <ele>129.40039</ele>
        <time>2024-06-01T15:09:43+02:00</time>
      </trkpt>
      <trkpt lat="43.66547" lon="1.44728">
        <ele>129.5</ele>
        <time>2024-06-01T15:09:44+02:00</time>
      </trkpt>
      <trkpt lat="43.66569" lon="1.44754">
        <ele>129.7998</ele>
        <time>2024-06-01T15:09:48+02:00</time>
      </trkpt>
      <trkpt lat="43.66574" lon="1.44761">
        <ele>129.7998</ele>
        <time>2024-06-01T15:09:49+02:00</time>
      </trkpt>
      <trkpt lat="43.66594" lon="1.44792">
        <ele>129.60059</ele>
        <time>2024-06-01T15:09:53+02:00</time>
      </trkpt>
      <trkpt lat="43.66599" lon="1.44799">
        <ele>129.40039</ele>
        <time>2024-06-01T15:09:54+02:00</time>
      </trkpt>
      <trkpt lat="43.66617" lon="1.44828">
        <ele>129.2002</ele>
        <time>2024-06-01T15:09:58+02:00</time>
      </trkpt>
      <trkpt lat="43.66622" lon="1.44835">
        <ele>129.10059</ele>
        <time>2024-06-01T15:09:59+02:00</time>
      </trkpt>
      <trkpt lat="43.66642" lon="1.44857">
        <ele>129.2998</ele>
        <time>2024-06-01T15:10:03+02:00</time>
      </trkpt>
      <trkpt lat="43.66648" lon="1.4486">
        <ele>129.2998</ele>
        <time>2024-06-01T15:10:04+02:00</time>
      </trkpt>
      <trkpt lat="43.66676" lon="1.4486">
        <ele>129.60059</ele>
        <time>2024-06-01T15:10:08+02:00</time>
      </trkpt>
      <trkpt lat="43.66682" lon="1.44858">
        <ele>129.7002</ele>
        <time>2024-06-01T15:10:09+02:00</time>
      </trkpt>
      <trkpt lat="43.66707" lon="1.44844">
        <ele>130.10059</ele>
        <time>2024-06-01T15:10:13+02:00</time>
      </trkpt>
      <trkpt lat="43.66712" lon="1.44839">
        <ele>130.2002</ele>
        <time>2024-06-01T15:10:14+02:00</time>
      </trkpt>
      <trkpt lat="43.66735" lon="1.44819">
        <ele>130.60059</ele>
        <time>2024-06-01T15:10:18+02:00</time>
      </trkpt>
      <trkpt lat="43.66741" lon="1.44817">
        <ele>130.60059</ele>
        <time>2024-06-01T15:10:19+02:00</time>
      </trkpt>
      <trkpt lat="43.66753" lon="1.44824">
        <ele>130.60059</ele>
        <time>2024-06-01T15:10:21+02:00</time>
      </trkpt>
      <trkpt lat="43.6676" lon="1.44842">
        <ele>130.40039</ele>
        <time>2024-06-01T15:10:23+02:00</time>
      </trkpt>
      <trkpt lat="43.6676" lon="1.44853">
        <ele>130.40039</ele>
        <time>2024-06-01T15:10:24+02:00</time>
      </trkpt>
      <trkpt lat="43.66773" lon="1.44886">
        <ele>130.10059</ele>
        <time>2024-06-01T15:10:28+02:00</time>
      </trkpt>
      <trkpt lat="43.66779" lon="1.44892">
        <ele>130</ele>
        <time>2024-06-01T15:10:29+02:00</time>
      </trkpt>
      <trkpt lat="43.66808" lon="1.44911">
        <ele>129.7998</ele>
        <time>2024-06-01T15:10:34+02:00</time>
      </trkpt>
      <trkpt lat="43.66814" lon="1.44913">
        <ele>129.7998</ele>
        <time>2024-06-01T15:10:35+02:00</time>
      </trkpt>
      <trkpt lat="43.66838" lon="1.44922">
        <ele>129.7998</ele>
        <time>2024-06-01T15:10:39+02:00</time>
      </trkpt>
      <trkpt lat="43.66844" lon="1.44924">
        <ele>129.7998</ele>
        <time>2024-06-01T15:10:40+02:00</time>
      </trkpt>
      <trkpt lat="43.6687" lon="1.4493">
        <ele>129.7002</ele>
        <time>2024-06-01T15:10:44+02:00</time>
      </trkpt>
      <trkpt lat="43.66876" lon="1.44932">
        <ele>129.7002</ele>
        <time>2024-06-01T15:10:45+02:00</time>
      </trkpt>
      <trkpt lat="43.66902" lon="1.44938">
        <ele>129.7002</ele>
        <time>2024-06-01T15:10:49+02:00</time>
      </trkpt>
      <trkpt lat="43.66908" lon="1.4494">
        <ele>129.7002</ele>
        <time>2024-06-01T15:10:50+02:00</time>
      </trkpt>
      <trkpt lat="43.66931" lon="1.44957">
        <ele>129.60059</ele>
        <time>2024-06-01T15:10:54+02:00</time>
      </trkpt>
      <trkpt lat="43.66935" lon="1.44965">
        <ele>129.5</ele>
        <time>2024-06-01T15:10:55+02:00</time>
      </trkpt>
      <trkpt lat="43.66946" lon="1.44998">
        <ele>129.40039</ele>
        <time>2024-06-01T15:10:59+02:00</time>
      </trkpt>
      <trkpt lat="43.66949" lon="1.45006">
        <ele>129.40039</ele>
        <time>2024-06-01T15:11:00+02:00</time>
      </trkpt>
      <trkpt lat="43.66961" lon="1.45038">
        <ele>129.60059</ele>
        <time>2024-06-01T15:11:04+02:00</time>
      </trkpt>
      <trkpt lat="43.66964" lon="1.45045">
        <ele>129.60059</ele>
        <time>2024-06-01T15:11:05+02:00</time>
      </trkpt>
      <trkpt lat="43.66979" lon="1.45074">
        <ele>129.7998</ele>
        <time>2024-06-01T15:11:09+02:00</time>
      </trkpt>
      <trkpt lat="43.66983" lon="1.45081">
        <ele>129.90039</ele>
        <time>2024-06-01T15:11:10+02:00</time>
      </trkpt>
      <trkpt lat="43.66997" lon="1.45108">
        <ele>130.10059</ele>
        <time>2024-06-01T15:11:14+02:00</time>
      </trkpt>
      <trkpt lat="43.67" lon="1.45115">
        <ele>130.2002</ele>
        <time>2024-06-01T15:11:15+02:00</time>
      </trkpt>
      <trkpt lat="43.67014" lon="1.45144">
        <ele>130.40039</ele>
        <time>2024-06-01T15:11:19+02:00</time>
      </trkpt>
      <trkpt lat="43.67016" lon="1.45152">
        <ele>130.40039</ele>
        <time>2024-06-01T15:11:20+02:00</time>
      </trkpt>
      <trkpt lat="43.67024" lon="1.45165">
        <ele>130.7002</ele>
        <time>2024-06-01T15:11:22+02:00</time>
      </trkpt>
      <trkpt lat="43.67036" lon="1.45162">
        <ele>131</ele>
        <time>2024-06-01T15:11:24+02:00</time>
      </trkpt>
      <trkpt lat="43.67041" lon="1.45157">
        <ele>131</ele>
        <time>2024-06-01T15:11:25+02:00</time>
      </trkpt>
      <trkpt lat="43.67064" lon="1.45139">
        <ele>131.7002</ele>
        <time>2024-06-01T15:11:29+02:00</time>
      </trkpt>
      <trkpt lat="43.6707" lon="1.45139">
        <ele>131.7998</ele>
        <time>2024-06-01T15:11:30+02:00</time>
      </trkpt>
      <trkpt lat="43.67086" lon="1.45164">
        <ele>132.2002</ele>
        <time>2024-06-01T15:11:34+02:00</time>
      </trkpt>
      <trkpt lat="43.67089" lon="1.45171">
        <ele>132.10059</ele>
        <time>2024-06-01T15:11:35+02:00</time>
      </trkpt>
      <trkpt lat="43.67107" lon="1.45206">
        <ele>131.90039</ele>
        <time>2024-06-01T15:11:40+02:00</time>
      </trkpt>
      <trkpt lat="43.6711" lon="1.45211">
        <ele>131.7002</ele>
        <time>2024-06-01T15:11:41+02:00</time>
      </trkpt>
      <trkpt lat="43.6712" lon="1.45226">
        <ele>131.2998</ele>
        <time>2024-06-01T15:11:45+02:00</time>
      </trkpt>
      <trkpt lat="43.67121" lon="1.45232">
        <ele>131.2998</ele>
        <time>2024-06-01T15:11:46+02:00</time>
      </trkpt>
      <trkpt lat="43.67133" lon="1.45257">
        <ele>130.7998</ele>
        <time>2024-06-01T15:11:50+02:00</time>
      </trkpt>
      <trkpt lat="43.67136" lon="1.45263">
        <ele>130.7998</ele>
        <time>2024-06-01T15:11:51+02:00</time>
      </trkpt>
      <trkpt lat="43.67147" lon="1.45285">
        <ele>130.7998</ele>
        <time>2024-06-01T15:11:55+02:00</time>
      </trkpt>
      <trkpt lat="43.6715" lon="1.45291">
        <ele>130.90039</ele>
        <time>2024-06-01T15:11:56+02:00</time>
      </trkpt>
      <trkpt lat="43.6716" lon="1.45311">
        <ele>131.10059</ele>
        <time>2024-06-01T15:12:00+02:00</time>
      </trkpt>
      <trkpt lat="43.67161" lon="1.45315">
        <ele>131.10059</ele>
        <time>2024-06-01T15:12:01+02:00</time>
      </trkpt>
      <trkpt lat="43.67167" lon="1.45329">
        <ele>131.10059</ele>
        <time>2024-06-01T15:12:05+02:00</time>
      </trkpt>
      <trkpt lat="43.6717" lon="1.45333">
        <ele>131.10059</ele>
        <time>2024-06-01T15:12:06+02:00</time>
      </trkpt>
      <trkpt lat="43.67178" lon="1.45349">
        <ele>131.10059</ele>
        <time>2024-06-01T15:12:10+02:00</time>
      </trkpt>
      <trkpt lat="43.67179" lon="1.45353">
        <ele>131.2998</ele>
        <time>2024-06-01T15:12:11+02:00</time>
      </trkpt>
      <trkpt lat="43.67187" lon="1.45369">
        <ele>131.2002</ele>
        <time>2024-06-01T15:12:15+02:00</time>
      </trkpt>
      <trkpt lat="43.67189" lon="1.45372">
        <ele>131.10059</ele>
        <time>2024-06-01T15:12:16+02:00</time>
      </trkpt>
      <trkpt lat="43.67196" lon="1.45381">
        <ele>131.2002</ele>
        <time>2024-06-01T15:12:21+02:00</time>
      </trkpt>
      <trkpt lat="43.67198" lon="1.45381">
        <ele>131.2998</ele>
        <time>2024-06-01T15:12:22+02:00</time>
      </trkpt>
      <trkpt lat="43.67204" lon="1.45378">
        <ele>131.60059</ele>
        <time>2024-06-01T15:12:26+02:00</time>
      </trkpt>
      <trkpt lat="43.67205" lon="1.45378">
        <ele>131.60059</ele>
        <time>2024-06-01T15:12:27+02:00</time>
      </trkpt>
      <trkpt lat="43.67212" lon="1.45373">
        <ele>131.7998</ele>
        <time>2024-06-01T15:12:31+02:00</time>
      </trkpt>
      <trkpt lat="43.67214" lon="1.45371">
        <ele>131.90039</ele>
        <time>2024-06-01T15:12:32+02:00</time>
      </trkpt>
      <trkpt lat="43.67228" lon="1.45359">
        <ele>132.40039</ele>
        <time>2024-06-01T15:12:36+02:00</time>
      </trkpt>
      <trkpt lat="43.67232" lon="1.45358">
        <ele>132.60059</ele>
        <time>2024-06-01T15:12:37+02:00</time>
      </trkpt>
      <trkpt lat="43.67247" lon="1.4535">
        <ele>133.2998</ele>
        <time>2024-06-01T15:12:41+02:00</time>
      </trkpt>
      <trkpt lat="43.6725" lon="1.45347">
        <ele>133.2998</ele>
        <time>2024-06-01T15:12:42+02:00</time>
      </trkpt>
      <trkpt lat="43.67262" lon="1.4534">
        <ele>133.60059</ele>
        <time>2024-06-01T15:12:46+02:00</time>
      </trkpt>
      <trkpt lat="43.67265" lon="1.45339">
        <ele>133.60059</ele>
        <time>2024-06-01T15:12:47+02:00</time>
      </trkpt>
      <trkpt lat="43.67277" lon="1.45326">
        <ele>133.7998</ele>
        <time>2024-06-01T15:12:51+02:00</time>
      </trkpt>
      <trkpt lat="43.67281" lon="1.45322">
        <ele>133.7998</ele>
        <time>2024-06-01T15:12:52+02:00</time>
      </trkpt>
      <trkpt lat="43.67298" lon="1.4531">
        <ele>133.7002</ele>
        <time>2024-06-01T15:12:56+02:00</time>
      </trkpt>
      <trkpt lat="43.67303" lon="1.45308">
        <ele>133.7002</ele>
        <time>2024-06-01T15:12:57+02:00</time>
      </trkpt>
      <trkpt lat="43.67323" lon="1.453">
        <ele>133.60059</ele>
        <time>2024-06-01T15:13:01+02:00</time>
      </trkpt>
      <trkpt lat="43.67329" lon="1.453">
        <ele>133.60059</ele>
        <time>2024-06-01T15:13:02+02:00</time>
      </trkpt>
      <trkpt lat="43.6735" lon="1.45305">
        <ele>133.60059</ele>
        <time>2024-06-01T15:13:06+02:00</time>
      </trkpt>
      <trkpt lat="43.67355" lon="1.45307">
        <ele>133.60059</ele>
        <time>2024-06-01T15:13:07+02:00</time>
      </trkpt>
      <trkpt lat="43.67379" lon="1.45309">
        <ele>133.5</ele>
        <time>2024-06-01T15:13:11+02:00</time>
      </trkpt>
      <trkpt lat="43.67385" lon="1.45307">
        <ele>133.5</ele>
        <time>2024-06-01T15:13:12+02:00</time>
      </trkpt>
      <trkpt lat="43.67408" lon="1.45295">
        <ele>133.2998</ele>
        <time>2024-06-01T15:13:16+02:00</time>
      </trkpt>
      <trkpt lat="43.67413" lon="1.45292">
        <ele>133.10059</ele>
        <time>2024-06-01T15:13:17+02:00</time>
      </trkpt>
      <trkpt lat="43.67435" lon="1.45286">
        <ele>133.2002</ele>
        <time>2024-06-01T15:13:21+02:00</time>
      </trkpt>
      <trkpt lat="43.67439" lon="1.45292">
        <ele>133.2002</ele>
        <time>2024-06-01T15:13:22+02:00</time>
      </trkpt>
      <trkpt lat="43.6745" lon="1.45324">
        <ele>133.7998</ele>
        <time>2024-06-01T15:13:26+02:00</time>
      </trkpt>
      <trkpt lat="43.67453" lon="1.45331">
        <ele>133.7998</ele>
        <time>2024-06-01T15:13:27+02:00</time>
      </trkpt>
      <trkpt lat="43.6747" lon="1.45363">
        <ele>133.7002</ele>
        <time>2024-06-01T15:13:32+02:00</time>
      </trkpt>
      <trkpt lat="43.67473" lon="1.45369">
        <ele>133.7002</ele>
        <time>2024-06-01T15:13:33+02:00</time>
      </trkpt>
      <trkpt lat="43.67492" lon="1.45386">
        <ele>133.40039</ele>
        <time>2024-06-01T15:13:37+02:00</time>
      </trkpt>
      <trkpt lat="43.67497" lon="1.45388">
        <ele>133.40039</ele>
        <time>2024-06-01T15:13:38+02:00</time>
      </trkpt>
      <trkpt lat="43.67516" lon="1.4537">
        <ele>133.5</ele>
        <time>2024-06-01T15:13:42+02:00</time>
      </trkpt>
      <trkpt lat="43.67521" lon="1.45364">
        <ele>133.5</ele>
        <time>2024-06-01T15:13:43+02:00</time>
      </trkpt>
      <trkpt lat="43.67539" lon="1.45346">
        <ele>133.7002</ele>
        <time>2024-06-01T15:13:47+02:00</time>
      </trkpt>
      <trkpt lat="43.67544" lon="1.45344">
        <ele>133.7998</ele>
        <time>2024-06-01T15:13:48+02:00</time>
      </trkpt>
      <trkpt lat="43.67562" lon="1.45333">
        <ele>133.7998</ele>
        <time>2024-06-01T15:13:52+02:00</time>
      </trkpt>
      <trkpt lat="43.67568" lon="1.4533">
        <ele>133.7998</ele>
        <time>2024-06-01T15:13:53+02:00</time>
      </trkpt>
      <trkpt lat="43.67591" lon="1.45316">
        <ele>133.60059</ele>
        <time>2024-06-01T15:13:57+02:00</time>
      </trkpt>
      <trkpt lat="43.67596" lon="1.45313">
        <ele>133.60059</ele>
        <time>2024-06-01T15:13:58+02:00</time>
      </trkpt>
      <trkpt lat="43.67614" lon="1.4531">
        <ele>133.60059</ele>
        <time>2024-06-01T15:14:02+02:00</time>
      </trkpt>
      <trkpt lat="43.67617" lon="1.45313">
        <ele>133.7002</ele>
        <time>2024-06-01T15:14:03+02:00</time>
      </trkpt>
      <trkpt lat="43.67631" lon="1.45314">
        <ele>133.7002</ele>
        <time>2024-06-01T15:14:07+02:00</time>
      </trkpt>
      <trkpt lat="43.67636" lon="1.45314">
        <ele>133.7998</ele>
        <time>2024-06-01T15:14:08+02:00</time>
      </trkpt>
      <trkpt lat="43.67652" lon="1.45309">
        <ele>133.60059</ele>
        <time>2024-06-01T15:14:12+02:00</time>
      </trkpt>
      <trkpt lat="43.67656" lon="1.45311">
        <ele>133.60059</ele>
        <time>2024-06-01T15:14:13+02:00</time>
      </trkpt>
      <trkpt lat="43.67675" lon="1.45319">
        <ele>133.60059</ele>
        <time>2024-06-01T15:14:17+02:00</time>
      </trkpt>
      <trkpt lat="43.6768" lon="1.4532">
        <ele>133.60059</ele>
        <time>2024-06-01T15:14:18+02:00</time>
      </trkpt>
      <trkpt lat="43.677" lon="1.45323">
        <ele>133.40039</ele>
        <time>2024-06-01T15:14:22+02:00</time>
      </trkpt>
      <trkpt lat="43.67704" lon="1.45325">
        <ele>133.40039</ele>
        <time>2024-06-01T15:14:23+02:00</time>
      </trkpt>
      <trkpt lat="43.6772" lon="1.45335">
        <ele>133.40039</ele>
        <time>2024-06-01T15:14:27+02:00</time>
      </trkpt>
      <trkpt lat="43.67726" lon="1.45339">
        <ele>133.5</ele>
        <time>2024-06-01T15:14:28+02:00</time>
      </trkpt>
      <trkpt lat="43.67744" lon="1.45354">
        <ele>133.7002</ele>
        <time>2024-06-01T15:14:32+02:00</time>
      </trkpt>
      <trkpt lat="43.67749" lon="1.45358">
        <ele>133.90039</ele>
        <time>2024-06-01T15:14:33+02:00</time>
      </trkpt>
      <trkpt lat="43.67768" lon="1.4537">
        <ele>134.2002</ele>
        <time>2024-06-01T15:14:37+02:00</time>
      </trkpt>
      <trkpt lat="43.67772" lon="1.45373">
        <ele>134.40039</ele>
        <time>2024-06-01T15:14:38+02:00</time>
      </trkpt>
      <trkpt lat="43.67788" lon="1.45388">
        <ele>134.7998</ele>
        <time>2024-06-01T15:14:42+02:00</time>
      </trkpt>
      <trkpt lat="43.67793" lon="1.45392">
        <ele>135</ele>
        <time>2024-06-01T15:14:43+02:00</time>
      </trkpt>
      <trkpt lat="43.67807" lon="1.45402">
        <ele>135.40039</ele>
        <time>2024-06-01T15:14:47+02:00</time>
      </trkpt>
      <trkpt lat="43.67811" lon="1.45404">
        <ele>135.40039</ele>
        <time>2024-06-01T15:14:48+02:00</time>
      </trkpt>
      <trkpt lat="43.67828" lon="1.45417">
        <ele>135.7002</ele>
        <time>2024-06-01T15:14:52+02:00</time>
      </trkpt>
      <trkpt lat="43.67832" lon="1.4542">
        <ele>135.7002</ele>
        <time>2024-06-01T15:14:53+02:00</time>
      </trkpt>
      <trkpt lat="43.67847" lon="1.45434">
        <ele>135.7998</ele>
        <time>2024-06-01T15:14:57+02:00</time>
      </trkpt>
      <trkpt lat="43.6785" lon="1.45435">
        <ele>135.7998</ele>
        <time>2024-06-01T15:14:58+02:00</time>
      </trkpt>
      <trkpt lat="43.67863" lon="1.45433">
        <ele>135.7002</ele>
        <time>2024-06-01T15:15:02+02:00</time>
      </trkpt>
      <trkpt lat="43.67867" lon="1.4543">
        <ele>135.60059</ele>
        <time>2024-06-01T15:15:03+02:00</time>
      </trkpt>
      <trkpt lat="43.67883" lon="1.45417">
        <ele>135.40039</ele>
        <time>2024-06-01T15:15:07+02:00</time>
      </trkpt>
      <trkpt lat="43.67887" lon="1.45413">
        <ele>135.2002</ele>
        <time>2024-06-01T15:15:08+02:00</time>
      </trkpt>
      <trkpt lat="43.67909" lon="1.45395">
        <ele>135</ele>
        <time>2024-06-01T15:15:13+02:00</time>
      </trkpt>
      <trkpt lat="43.67913" lon="1.45393">
        <ele>135.10059</ele>
        <time>2024-06-01T15:15:14+02:00</time>
      </trkpt>
      <trkpt lat="43.67929" lon="1.45391">
        <ele>135.2998</ele>
        <time>2024-06-01T15:15:18+02:00</time>
      </trkpt>
      <trkpt lat="43.67935" lon="1.45388">
        <ele>135.2998</ele>
        <time>2024-06-01T15:15:19+02:00</time>
      </trkpt>
      <trkpt lat="43.67963" lon="1.45371">
        <ele>136.10059</ele>
        <time>2024-06-01T15:15:24+02:00</time>
      </trkpt>
      <trkpt lat="43.67969" lon="1.45368">
        <ele>136.2998</ele>
        <time>2024-06-01T15:15:25+02:00</time>
      </trkpt>
      <trkpt lat="43.67989" lon="1.45352">
        <ele>136.60059</ele>
        <time>2024-06-01T15:15:29+02:00</time>
      </trkpt>
      <trkpt lat="43.67995" lon="1.45348">
        <ele>136.7002</ele>
        <time>2024-06-01T15:15:30+02:00</time>
      </trkpt>
      <trkpt lat="43.68016" lon="1.45333">
        <ele>136.60059</ele>
        <time>2024-06-01T15:15:34+02:00</time>
      </trkpt>
      <trkpt lat="43.68021" lon="1.45329">
        <ele>136.60059</ele>
        <time>2024-06-01T15:15:35+02:00</time>
      </trkpt>
      <trkpt lat="43.68042" lon="1.45313">
        <ele>136.2998</ele>
        <time>2024-06-01T15:15:39+02:00</time>
      </trkpt>
      <trkpt lat="43.68047" lon="1.45309">
        <ele>136.2002</ele>
        <time>2024-06-01T15:15:40+02:00</time>
      </trkpt>
      <trkpt lat="43.68067" lon="1.4529">
        <ele>135.7002</ele>
        <time>2024-06-01T15:15:44+02:00</time>
      </trkpt>
      <trkpt lat="43.68072" lon="1.45286">
        <ele>135.7002</ele>
        <time>2024-06-01T15:15:45+02:00</time>
      </trkpt>
      <trkpt lat="43.68097" lon="1.45264">
        <ele>135.40039</ele>
        <time>2024-06-01T15:15:50+02:00</time>
      </trkpt>
      <trkpt lat="43.68103" lon="1.45259">
        <ele>135.2998</ele>
        <time>2024-06-01T15:15:51+02:00</time>
      </trkpt>
      <trkpt lat="43.68122" lon="1.45241">
        <ele>135.2998</ele>
        <time>2024-06-01T15:15:55+02:00</time>
      </trkpt>
      <trkpt lat="43.68127" lon="1.45237">
        <ele>135.40039</ele>
        <time>2024-06-01T15:15:56+02:00</time>
      </trkpt>
      <trkpt lat="43.68146" lon="1.45219">
        <ele>135.2002</ele>
        <time>2024-06-01T15:16:00+02:00</time>
      </trkpt>
      <trkpt lat="43.68151" lon="1.45215">
        <ele>135</ele>
        <time>2024-06-01T15:16:01+02:00</time>
      </trkpt>
      <trkpt lat="43.68169" lon="1.45206">
        <ele>134.7002</ele>
        <time>2024-06-01T15:16:05+02:00</time>
      </trkpt>
      <trkpt lat="43.68172" lon="1.45213">
        <ele>134.7998</ele>
        <time>2024-06-01T15:16:06+02:00</time>
      </trkpt>
      <trkpt lat="43.68177" lon="1.45247">
        <ele>135.2998</ele>
        <time>2024-06-01T15:16:10+02:00</time>
      </trkpt>
      <trkpt lat="43.68179" lon="1.45254">
        <ele>135.2998</ele>
        <time>2024-06-01T15:16:11+02:00</time>
      </trkpt>
      <trkpt lat="43.68187" lon="1.45284">
        <ele>135.40039</ele>
        <time>2024-06-01T15:16:15+02:00</time>
      </trkpt>
      <trkpt lat="43.68189" lon="1.45292">
        <ele>135.40039</ele>
        <time>2024-06-01T15:16:16+02:00</time>
      </trkpt>
      <trkpt lat="43.68196" lon="1.45322">
        <ele>135.60059</ele>
        <time>2024-06-01T15:16:20+02:00</time>
      </trkpt>
      <trkpt lat="43.68198" lon="1.45329">
        <ele>135.60059</ele>
        <time>2024-06-01T15:16:21+02:00</time>
      </trkpt>
      <trkpt lat="43.68205" lon="1.45358">
        <ele>135.7002</ele>
        <time>2024-06-01T15:16:25+02:00</time>
      </trkpt>
      <trkpt lat="43.68207" lon="1.45366">
        <ele>135.7002</ele>
        <time>2024-06-01T15:16:26+02:00</time>
      </trkpt>
      <trkpt lat="43.68214" lon="1.45394">
        <ele>135.7002</ele>
        <time>2024-06-01T15:16:30+02:00</time>
      </trkpt>
      <trkpt lat="43.68216" lon="1.45401">
        <ele>135.60059</ele>
        <time>2024-06-01T15:16:31+02:00</time>
      </trkpt>
      <trkpt lat="43.68224" lon="1.4543">
        <ele>135.5</ele>
        <time>2024-06-01T15:16:35+02:00</time>
      </trkpt>
      <trkpt lat="43.68226" lon="1.45437">
        <ele>135.5</ele>
        <time>2024-06-01T15:16:36+02:00</time>
      </trkpt>
      <trkpt lat="43.68236" lon="1.45466">
        <ele>135.2998</ele>
        <time>2024-06-01T15:16:40+02:00</time>
      </trkpt>
      <trkpt lat="43.68238" lon="1.45474">
        <ele>135.2998</ele>
        <time>2024-06-01T15:16:41+02:00</time>
      </trkpt>
      <trkpt lat="43.68248" lon="1.45504">
        <ele>135.2998</ele>
        <time>2024-06-01T15:16:45+02:00</time>
      </trkpt>
      <trkpt lat="43.6825" lon="1.45511">
        <ele>135.40039</ele>
        <time>2024-06-01T15:16:46+02:00</time>
      </trkpt>
      <trkpt lat="43.68258" lon="1.45542">
        <ele>135.7002</ele>
        <time>2024-06-01T15:16:50+02:00</time>
      </trkpt>
      <trkpt lat="43.6826" lon="1.4555">
        <ele>135.7998</ele>
        <time>2024-06-01T15:16:51+02:00</time>
      </trkpt>
      <trkpt lat="43.68267" lon="1.45581">
        <ele>136.2998</ele>
        <time>2024-06-01T15:16:55+02:00</time>
      </trkpt>
      <trkpt lat="43.68269" lon="1.45587">
        <ele>136.5</ele>
        <time>2024-06-01T15:16:56+02:00</time>
      </trkpt>
      <trkpt lat="43.68272" lon="1.45601">
        <ele>136.7002</ele>
        <time>2024-06-01T15:17:00+02:00</time>
      </trkpt>
      <trkpt lat="43.68272" lon="1.45602">
        <ele>136.7002</ele>
        <time>2024-06-01T15:17:01+02:00</time>
      </trkpt>
      <trkpt lat="43.68274" lon="1.45614">
        <ele>137</ele>
        <time>2024-06-01T15:17:05+02:00</time>
      </trkpt>
      <trkpt lat="43.68275" lon="1.4562">
        <ele>137</ele>
        <time>2024-06-01T15:17:06+02:00</time>
      </trkpt>
      <trkpt lat="43.6828" lon="1.45649">
        <ele>137.60059</ele>
        <time>2024-06-01T15:17:10+02:00</time>
      </trkpt>
      <trkpt lat="43.68281" lon="1.45657">
        <ele>137.7998</ele>
        <time>2024-06-01T15:17:11+02:00</time>
      </trkpt>
      <trkpt lat="43.68283" lon="1.45686">
        <ele>138.10059</ele>
        <time>2024-06-01T15:17:15+02:00</time>
      </trkpt>
      <trkpt lat="43.68283" lon="1.45693">
        <ele>138.2002</ele>
        <time>2024-06-01T15:17:16+02:00</time>
      </trkpt>
      <trkpt lat="43.68281" lon="1.45724">
        <ele>138.7002</ele>
        <time>2024-06-01T15:17:20+02:00</time>
      </trkpt>
      <trkpt lat="43.68281" lon="1.45731">
        <ele>138.7002</ele>
        <time>2024-06-01T15:17:21+02:00</time>
      </trkpt>
      <trkpt lat="43.68279" lon="1.4576">
        <ele>139.2002</ele>
        <time>2024-06-01T15:17:25+02:00</time>
      </trkpt>
      <trkpt lat="43.68278" lon="1.45767">
        <ele>139.2998</ele>
        <time>2024-06-01T15:17:26+02:00</time>
      </trkpt>
      <trkpt lat="43.68277" lon="1.45797">
        <ele>139.7998</ele>
        <time>2024-06-01T15:17:30+02:00</time>
      </trkpt>
      <trkpt lat="43.68277" lon="1.45804">
        <ele>139.90039</ele>
        <time>2024-06-01T15:17:31+02:00</time>
      </trkpt>
      <trkpt lat="43.68275" lon="1.45834">
        <ele>140.40039</ele>
        <time>2024-06-01T15:17:35+02:00</time>
      </trkpt>
      <trkpt lat="43.68274" lon="1.45841">
        <ele>140.60059</ele>
        <time>2024-06-01T15:17:36+02:00</time>
      </trkpt>
      <trkpt lat="43.68273" lon="1.45864">
        <ele>141.2002</ele>
        <time>2024-06-01T15:17:40+02:00</time>
      </trkpt>
      <trkpt lat="43.68273" lon="1.45869">
        <ele>141.40039</ele>
        <time>2024-06-01T15:17:41+02:00</time>
      </trkpt>
      <trkpt lat="43.68274" lon="1.45886">
        <ele>141.60059</ele>
        <time>2024-06-01T15:17:45+02:00</time>
      </trkpt>
      <trkpt lat="43.68275" lon="1.4589">
        <ele>141.90039</ele>
        <time>2024-06-01T15:17:46+02:00</time>
      </trkpt>
      <trkpt lat="43.68273" lon="1.45899">
        <ele>142.2002</ele>
        <time>2024-06-01T15:17:50+02:00</time>
      </trkpt>
      <trkpt lat="43.68272" lon="1.45901">
        <ele>142.2002</ele>
        <time>2024-06-01T15:17:51+02:00</time>
      </trkpt>
      <trkpt lat="43.68269" lon="1.45919">
        <ele>142.90039</ele>
        <time>2024-06-01T15:17:55+02:00</time>
      </trkpt>
      <trkpt lat="43.68269" lon="1.45924">
        <ele>143.2998</ele>
        <time>2024-06-01T15:17:56+02:00</time>
      </trkpt>
      <trkpt lat="43.68266" lon="1.45947">
        <ele>144.90039</ele>
        <time>2024-06-01T15:18:00+02:00</time>
      </trkpt>
      <trkpt lat="43.68265" lon="1.45953">
        <ele>144.90039</ele>
        <time>2024-06-01T15:18:01+02:00</time>
      </trkpt>
      <trkpt lat="43.68264" lon="1.45976">
        <ele>146.40039</ele>
        <time>2024-06-01T15:18:05+02:00</time>
      </trkpt>
      <trkpt lat="43.68264" lon="1.45982">
        <ele>146.7998</ele>
        <time>2024-06-01T15:18:06+02:00</time>
      </trkpt>
      <trkpt lat="43.68266" lon="1.46005">
        <ele>147.60059</ele>
        <time>2024-06-01T15:18:10+02:00</time>
      </trkpt>
      <trkpt lat="43.68268" lon="1.46011">
        <ele>148</ele>
        <time>2024-06-01T15:18:11+02:00</time>
      </trkpt>
      <trkpt lat="43.68273" lon="1.4603">
        <ele>148.5</ele>
        <time>2024-06-01T15:18:15+02:00</time>
      </trkpt>
      <trkpt lat="43.68275" lon="1.46035">
        <ele>148.7998</ele>
        <time>2024-06-01T15:18:16+02:00</time>
      </trkpt>
      <trkpt lat="43.68279" lon="1.46054">
        <ele>149.2002</ele>
        <time>2024-06-01T15:18:20+02:00</time>
      </trkpt>
      <trkpt lat="43.6828" lon="1.46059">
        <ele>149.5</ele>
        <time>2024-06-01T15:18:21+02:00</time>
      </trkpt>
      <trkpt lat="43.68281" lon="1.4608">
        <ele>150</ele>
        <time>2024-06-01T15:18:25+02:00</time>
      </trkpt>
      <trkpt lat="43.68281" lon="1.46085">
        <ele>150.2998</ele>
        <time>2024-06-01T15:18:26+02:00</time>
      </trkpt>
      <trkpt lat="43.68283" lon="1.46106">
        <ele>150.7002</ele>
        <time>2024-06-01T15:18:30+02:00</time>
      </trkpt>
      <trkpt lat="43.68283" lon="1.46111">
        <ele>150.90039</ele>
        <time>2024-06-01T15:18:31+02:00</time>
      </trkpt>
      <trkpt lat="43.68286" lon="1.46129">
        <ele>150.90039</ele>
        <time>2024-06-01T15:18:35+02:00</time>
      </trkpt>
      <trkpt lat="43.68288" lon="1.46133">
        <ele>150.90039</ele>
        <time>2024-06-01T15:18:36+02:00</time>
      </trkpt>
      <trkpt lat="43.68284" lon="1.46149">
        <ele>151</ele>
        <time>2024-06-01T15:18:40+02:00</time>
      </trkpt>
      <trkpt lat="43.68283" lon="1.46155">
        <ele>151.2998</ele>
        <time>2024-06-01T15:18:41+02:00</time>
      </trkpt>
      <trkpt lat="43.68279" lon="1.4618">
        <ele>151.2998</ele>
        <time>2024-06-01T15:18:45+02:00</time>
      </trkpt>
      <trkpt lat="43.68277" lon="1.46186">
        <ele>151.60059</ele>
        <time>2024-06-01T15:18:46+02:00</time>
      </trkpt>
      <trkpt lat="43.68269" lon="1.46212">
        <ele>151.90039</ele>
        <time>2024-06-01T15:18:50+02:00</time>
      </trkpt>
      <trkpt lat="43.68266" lon="1.46218">
        <ele>151.90039</ele>
        <time>2024-06-01T15:18:51+02:00</time>
      </trkpt>
      <trkpt lat="43.68258" lon="1.46246">
        <ele>152.40039</ele>
        <time>2024-06-01T15:18:55+02:00</time>
      </trkpt>
      <trkpt lat="43.68255" lon="1.46253">
        <ele>152.40039</ele>
        <time>2024-06-01T15:18:56+02:00</time>
      </trkpt>
      <trkpt lat="43.68245" lon="1.4628">
        <ele>152.7998</ele>
        <time>2024-06-01T15:19:00+02:00</time>
      </trkpt>
      <trkpt lat="43.68242" lon="1.46287">
        <ele>152.7002</ele>
        <time>2024-06-01T15:19:01+02:00</time>
      </trkpt>
      <trkpt lat="43.68231" lon="1.46307">
        <ele>152.90039</ele>
        <time>2024-06-01T15:19:05+02:00</time>
      </trkpt>
      <trkpt lat="43.68229" lon="1.4631">
        <ele>152.90039</ele>
        <time>2024-06-01T15:19:06+02:00</time>
      </trkpt>
      <trkpt lat="43.68221" lon="1.46324">
        <ele>153.2002</ele>
        <time>2024-06-01T15:19:10+02:00</time>
      </trkpt>
      <trkpt lat="43.68218" lon="1.46329">
        <ele>153.2002</ele>
        <time>2024-06-01T15:19:11+02:00</time>
      </trkpt>
      <trkpt lat="43.68202" lon="1.46351">
        <ele>153.7002</ele>
        <time>2024-06-01T15:19:15+02:00</time>
      </trkpt>
      <trkpt lat="43.68198" lon="1.46356">
        <ele>153.7002</ele>
        <time>2024-06-01T15:19:16+02:00</time>
      </trkpt>
      <trkpt lat="43.68186" lon="1.4638">
        <ele>154.10059</ele>
        <time>2024-06-01T15:19:20+02:00</time>
      </trkpt>
      <trkpt lat="43.68189" lon="1.46385">
        <ele>154.2002</ele>
        <time>2024-06-01T15:19:21+02:00</time>
      </trkpt>
      <trkpt lat="43.68216" lon="1.46398">
        <ele>154.40039</ele>
        <time>2024-06-01T15:19:25+02:00</time>
      </trkpt>
      <trkpt lat="43.68223" lon="1.46402">
        <ele>154.5</ele>
        <time>2024-06-01T15:19:26+02:00</time>
      </trkpt>
      <trkpt lat="43.68249" lon="1.46419">
        <ele>155.10059</ele>
        <time>2024-06-01T15:19:30+02:00</time>
      </trkpt>
      <trkpt lat="43.68255" lon="1.46422">
        <ele>155.40039</ele>
        <time>2024-06-01T15:19:31+02:00</time>
      </trkpt>
      <trkpt lat="43.68276" lon="1.46432">
        <ele>157.10059</ele>
        <time>2024-06-01T15:19:35+02:00</time>
      </trkpt>
      <trkpt lat="43.6828" lon="1.46433">
        <ele>157.7002</ele>
        <time>2024-06-01T15:19:36+02:00</time>
      </trkpt>
      <trkpt lat="43.68296" lon="1.46441">
        <ele>160.40039</ele>
        <time>2024-06-01T15:19:40+02:00</time>
      </trkpt>
      <trkpt lat="43.68299" lon="1.46443">
        <ele>160.40039</ele>
        <time>2024-06-01T15:19:41+02:00</time>
      </trkpt>
      <trkpt lat="43.68314" lon="1.46453">
        <ele>162.5</ele>
        <time>2024-06-01T15:19:45+02:00</time>
      </trkpt>
      <trkpt lat="43.68317" lon="1.46455">
        <ele>163.7998</ele>
        <time>2024-06-01T15:19:46+02:00</time>
      </trkpt>
      <trkpt lat="43.6833" lon="1.46464">
        <ele>165.60059</ele>
        <time>2024-06-01T15:19:50+02:00</time>
      </trkpt>
      <trkpt lat="43.68333" lon="1.46467">
        <ele>165.60059</ele>
        <time>2024-06-01T15:19:51+02:00</time>
      </trkpt>
      <trkpt lat="43.68345" lon="1.46475">
        <ele>168.10059</ele>
        <time>2024-06-01T15:19:55+02:00</time>
      </trkpt>
      <trkpt lat="43.68349" lon="1.46478">
        <ele>168.10059</ele>
        <time>2024-06-01T15:19:56+02:00</time>
      </trkpt>
      <trkpt lat="43.68357" lon="1.46494">
        <ele>169.7002</ele>
        <time>2024-06-01T15:20:00+02:00</time>
      </trkpt>
      <trkpt lat="43.68355" lon="1.46499">
        <ele>170.2998</ele>
        <time>2024-06-01T15:20:01+02:00</time>
      </trkpt>
      <trkpt lat="43.68344" lon="1.46519">
        <ele>170.7998</ele>
        <time>2024-06-01T15:20:05+02:00</time>
      </trkpt>
      <trkpt lat="43.68341" lon="1.46523">
        <ele>171.40039</ele>
        <time>2024-06-01T15:20:06+02:00</time>
      </trkpt>
      <trkpt lat="43.68331" lon="1.46542">
        <ele>171.7002</ele>
        <time>2024-06-01T15:20:10+02:00</time>
      </trkpt>
      <trkpt lat="43.68328" lon="1.46547">
        <ele>171.7002</ele>
        <time>2024-06-01T15:20:11+02:00</time>
      </trkpt>
      <trkpt lat="43.68318" lon="1.46566">
        <ele>172.5</ele>
        <time>2024-06-01T15:20:15+02:00</time>
      </trkpt>
      <trkpt lat="43.68316" lon="1.46572">
        <ele>172.5</ele>
        <time>2024-06-01T15:20:16+02:00</time>
      </trkpt>
      <trkpt lat="43.68308" lon="1.46594">
        <ele>173.40039</ele>
        <time>2024-06-01T15:20:20+02:00</time>
      </trkpt>
      <trkpt lat="43.68306" lon="1.46601">
        <ele>174.10059</ele>
        <time>2024-06-01T15:20:21+02:00</time>
      </trkpt>
      <trkpt lat="43.68299" lon="1.46627">
        <ele>175</ele>
        <time>2024-06-01T15:20:25+02:00</time>
      </trkpt>
      <trkpt lat="43.68298" lon="1.46634">
        <ele>175.5</ele>
        <time>2024-06-01T15:20:26+02:00</time>
      </trkpt>
      <trkpt lat="43.68291" lon="1.46661">
        <ele>176.5</ele>
        <time>2024-06-01T15:20:30+02:00</time>
      </trkpt>
      <trkpt lat="43.68289" lon="1.46668">
        <ele>176.40039</ele>
        <time>2024-06-01T15:20:31+02:00</time>
      </trkpt>
      <trkpt lat="43.68296" lon="1.46692">
        <ele>178.7002</ele>
        <time>2024-06-01T15:20:35+02:00</time>
      </trkpt>
      <trkpt lat="43.683" lon="1.46695">
        <ele>179.2002</ele>
        <time>2024-06-01T15:20:36+02:00</time>
      </trkpt>
      <trkpt lat="43.68314" lon="1.46711">
        <ele>181.10059</ele>
        <time>2024-06-01T15:20:40+02:00</time>
      </trkpt>
      <trkpt lat="43.68317" lon="1.46715">
        <ele>181.5</ele>
        <time>2024-06-01T15:20:41+02:00</time>
      </trkpt>
      <trkpt lat="43.68328" lon="1.46733">
        <ele>182.90039</ele>
        <time>2024-06-01T15:20:45+02:00</time>
      </trkpt>
      <trkpt lat="43.68332" lon="1.46737">
        <ele>183.2998</ele>
        <time>2024-06-01T15:20:46+02:00</time>
      </trkpt>
      <trkpt lat="43.68346" lon="1.46757">
        <ele>184.60059</ele>
        <time>2024-06-01T15:20:50+02:00</time>
      </trkpt>
      <trkpt lat="43.68349" lon="1.46762">
        <ele>184.90039</ele>
        <time>2024-06-01T15:20:51+02:00</time>
      </trkpt>
      <trkpt lat="43.68363" lon="1.46781">
        <ele>186</ele>
        <time>2024-06-01T15:20:55+02:00</time>
      </trkpt>
      <trkpt lat="43.68366" lon="1.46785">
        <ele>186.2002</ele>
        <time>2024-06-01T15:20:56+02:00</time>
      </trkpt>
      <trkpt lat="43.68378" lon="1.46801">
        <ele>187.2998</ele>
        <time>2024-06-01T15:21:00+02:00</time>
      </trkpt>
      <trkpt lat="43.68381" lon="1.46806">
        <ele>187.7002</ele>
        <time>2024-06-01T15:21:01+02:00</time>
      </trkpt>
      <trkpt lat="43.68393" lon="1.46822">
        <ele>188.7002</ele>
        <time>2024-06-01T15:21:05+02:00</time>
      </trkpt>
      <trkpt lat="43.68396" lon="1.46826">
        <ele>189</ele>
        <time>2024-06-01T15:21:06+02:00</time>
      </trkpt>
      <trkpt lat="43.68408" lon="1.46842">
        <ele>190.40039</ele>
        <time>2024-06-01T15:21:10+02:00</time>
      </trkpt>
      <trkpt lat="43.68411" lon="1.46846">
        <ele>190.40039</ele>
        <time>2024-06-01T15:21:11+02:00</time>
      </trkpt>
      <trkpt lat="43.68423" lon="1.46862">
        <ele>191.7002</ele>
        <time>2024-06-01T15:21:15+02:00</time>
      </trkpt>
      <trkpt lat="43.68425" lon="1.46865">
        <ele>192.10059</ele>
        <time>2024-06-01T15:21:16+02:00</time>
      </trkpt>
      <trkpt lat="43.68433" lon="1.46865">
        <ele>192.5</ele>
        <time>2024-06-01T15:21:20+02:00</time>
      </trkpt>
      <trkpt lat="43.68437" lon="1.4686">
        <ele>192.10059</ele>
        <time>2024-06-01T15:21:21+02:00</time>
      </trkpt>
      <trkpt lat="43.6845" lon="1.46838">
        <ele>191</ele>
        <time>2024-06-01T15:21:25+02:00</time>
      </trkpt>
      <trkpt lat="43.68454" lon="1.46832">
        <ele>191.2002</ele>
        <time>2024-06-01T15:21:26+02:00</time>
      </trkpt>
      <trkpt lat="43.68471" lon="1.46807">
        <ele>190</ele>
        <time>2024-06-01T15:21:30+02:00</time>
      </trkpt>
      <trkpt lat="43.68477" lon="1.46803">
        <ele>189.60059</ele>
        <time>2024-06-01T15:21:31+02:00</time>
      </trkpt>
      <trkpt lat="43.68501" lon="1.46799">
        <ele>189.7998</ele>
        <time>2024-06-01T15:21:35+02:00</time>
      </trkpt>
      <trkpt lat="43.68507" lon="1.468">
        <ele>189.7998</ele>
        <time>2024-06-01T15:21:36+02:00</time>
      </trkpt>
      <trkpt lat="43.68527" lon="1.46817">
        <ele>190.5</ele>
        <time>2024-06-01T15:21:40+02:00</time>
      </trkpt>
      <trkpt lat="43.68531" lon="1.46823">
        <ele>190.90039</ele>
        <time>2024-06-01T15:21:41+02:00</time>
      </trkpt>
      <trkpt lat="43.68545" lon="1.46849">
        <ele>191.7002</ele>
        <time>2024-06-01T15:21:45+02:00</time>
      </trkpt>
      <trkpt lat="43.68549" lon="1.46856">
        <ele>191.7002</ele>
        <time>2024-06-01T15:21:46+02:00</time>
      </trkpt>
      <trkpt lat="43.68558" lon="1.46883">
        <ele>192.5</ele>
        <time>2024-06-01T15:21:50+02:00</time>
      </trkpt>
      <trkpt lat="43.68556" lon="1.46891">
        <ele>192.7002</ele>
        <time>2024-06-01T15:21:51+02:00</time>
      </trkpt>
      <trkpt lat="43.68554" lon="1.46921">
        <ele>193.5</ele>
        <time>2024-06-01T15:21:55+02:00</time>
      </trkpt>
      <trkpt lat="43.68562" lon="1.46933">
        <ele>193.2998</ele>
        <time>2024-06-01T15:21:57+02:00</time>
      </trkpt>
      <trkpt lat="43.68583" lon="1.46955">
        <ele>192</ele>
        <time>2024-06-01T15:22:01+02:00</time>
      </trkpt>
      <trkpt lat="43.68589" lon="1.46962">
        <ele>191.60059</ele>
        <time>2024-06-01T15:22:02+02:00</time>
      </trkpt>
      <trkpt lat="43.68608" lon="1.46989">
        <ele>190.40039</ele>
        <time>2024-06-01T15:22:06+02:00</time>
      </trkpt>
      <trkpt lat="43.68613" lon="1.46997">
        <ele>190</ele>
        <time>2024-06-01T15:22:07+02:00</time>
      </trkpt>
      <trkpt lat="43.68635" lon="1.47029">
        <ele>188.90039</ele>
        <time>2024-06-01T15:22:11+02:00</time>
      </trkpt>
      <trkpt lat="43.68641" lon="1.47037">
        <ele>188.5</ele>
        <time>2024-06-01T15:22:12+02:00</time>
      </trkpt>
      <trkpt lat="43.68667" lon="1.47068">
        <ele>187.10059</ele>
        <time>2024-06-01T15:22:16+02:00</time>
      </trkpt>
      <trkpt lat="43.68673" lon="1.47076">
        <ele>186.7998</ele>
        <time>2024-06-01T15:22:17+02:00</time>
      </trkpt>
      <trkpt lat="43.68698" lon="1.47105">
        <ele>185.60059</ele>
        <time>2024-06-01T15:22:21+02:00</time>
      </trkpt>
      <trkpt lat="43.68706" lon="1.47107">
        <ele>185.2002</ele>
        <time>2024-06-01T15:22:22+02:00</time>
      </trkpt>
      <trkpt lat="43.68722" lon="1.47096">
        <ele>184.60059</ele>
        <time>2024-06-01T15:22:24+02:00</time>
      </trkpt>
      <trkpt lat="43.68733" lon="1.47073">
        <ele>183.90039</ele>
        <time>2024-06-01T15:22:26+02:00</time>
      </trkpt>
      <trkpt lat="43.68737" lon="1.47062">
        <ele>183.60059</ele>
        <time>2024-06-01T15:22:27+02:00</time>
      </trkpt>
      <trkpt lat="43.68747" lon="1.47042">
        <ele>183.2998</ele>
        <time>2024-06-01T15:22:29+02:00</time>
      </trkpt>
      <trkpt lat="43.68762" lon="1.47032">
        <ele>182.5</ele>
        <time>2024-06-01T15:22:31+02:00</time>
      </trkpt>
      <trkpt lat="43.68771" lon="1.47032">
        <ele>182.2998</ele>
        <time>2024-06-01T15:22:32+02:00</time>
      </trkpt>
      <trkpt lat="43.68803" lon="1.4706">
        <ele>180.90039</ele>
        <time>2024-06-01T15:22:36+02:00</time>
      </trkpt>
      <trkpt lat="43.6881" lon="1.4707">
        <ele>180.5</ele>
        <time>2024-06-01T15:22:37+02:00</time>
      </trkpt>
      <trkpt lat="43.68835" lon="1.47122">
        <ele>177.7002</ele>
        <time>2024-06-01T15:22:41+02:00</time>
      </trkpt>
      <trkpt lat="43.68844" lon="1.47133">
        <ele>176.90039</ele>
        <time>2024-06-01T15:22:42+02:00</time>
      </trkpt>
      <trkpt lat="43.68879" lon="1.47173">
        <ele>176</ele>
        <time>2024-06-01T15:22:46+02:00</time>
      </trkpt>
      <trkpt lat="43.68886" lon="1.47182">
        <ele>176</ele>
        <time>2024-06-01T15:22:47+02:00</time>
      </trkpt>
      <trkpt lat="43.68907" lon="1.47208">
        <ele>176.7002</ele>
        <time>2024-06-01T15:22:51+02:00</time>
      </trkpt>
      <trkpt lat="43.68912" lon="1.47212">
        <ele>176.90039</ele>
        <time>2024-06-01T15:22:52+02:00</time>
      </trkpt>
      <trkpt lat="43.68928" lon="1.47232">
        <ele>177.2002</ele>
        <time>2024-06-01T15:22:56+02:00</time>
      </trkpt>
      <trkpt lat="43.68932" lon="1.47237">
        <ele>177.2002</ele>
        <time>2024-06-01T15:22:57+02:00</time>
      </trkpt>
      <trkpt lat="43.68941" lon="1.47267">
        <ele>177.2998</ele>
        <time>2024-06-01T15:23:01+02:00</time>
      </trkpt>
      <trkpt lat="43.68941" lon="1.47275">
        <ele>177.40039</ele>
        <time>2024-06-01T15:23:02+02:00</time>
      </trkpt>
      <trkpt lat="43.68929" lon="1.47305">
        <ele>177.7998</ele>
        <time>2024-06-01T15:23:06+02:00</time>
      </trkpt>
      <trkpt lat="43.68925" lon="1.47312">
        <ele>178.2002</ele>
        <time>2024-06-01T15:23:07+02:00</time>
      </trkpt>
      <trkpt lat="43.68912" lon="1.47341">
        <ele>178.7998</ele>
        <time>2024-06-01T15:23:11+02:00</time>
      </trkpt>
      <trkpt lat="43.68909" lon="1.47349">
        <ele>179.2002</ele>
        <time>2024-06-01T15:23:12+02:00</time>
      </trkpt>
      <trkpt lat="43.68902" lon="1.47381">
        <ele>178.90039</ele>
        <time>2024-06-01T15:23:16+02:00</time>
      </trkpt>
      <trkpt lat="43.68904" lon="1.47389">
        <ele>178.40039</ele>
        <time>2024-06-01T15:23:17+02:00</time>
      </trkpt>
      <trkpt lat="43.68927" lon="1.47412">
        <ele>177.2002</ele>
        <time>2024-06-01T15:23:21+02:00</time>
      </trkpt>
      <trkpt lat="43.68932" lon="1.47417">
        <ele>177.10059</ele>
        <time>2024-06-01T15:23:22+02:00</time>
      </trkpt>
      <trkpt lat="43.68941" lon="1.47434">
        <ele>176.7998</ele>
        <time>2024-06-01T15:23:26+02:00</time>
      </trkpt>
      <trkpt lat="43.68944" lon="1.47434">
        <ele>176.7998</ele>
        <time>2024-06-01T15:23:27+02:00</time>
      </trkpt>
      <trkpt lat="43.68957" lon="1.47433">
        <ele>176.2002</ele>
        <time>2024-06-01T15:23:31+02:00</time>
      </trkpt>
      <trkpt lat="43.68961" lon="1.4743">
        <ele>175.7002</ele>
        <time>2024-06-01T15:23:32+02:00</time>
      </trkpt>
      <trkpt lat="43.68984" lon="1.47413">
        <ele>174.2998</ele>
        <time>2024-06-01T15:23:36+02:00</time>
      </trkpt>
      <trkpt lat="43.6899" lon="1.4741">
        <ele>174</ele>
        <time>2024-06-01T15:23:37+02:00</time>
      </trkpt>
      <trkpt lat="43.69021" lon="1.47393">
        <ele>173.10059</ele>
        <time>2024-06-01T15:23:41+02:00</time>
      </trkpt>
      <trkpt lat="43.6903" lon="1.47386">
        <ele>173.2998</ele>
        <time>2024-06-01T15:23:42+02:00</time>
      </trkpt>
      <trkpt lat="43.69053" lon="1.47365">
        <ele>174.5</ele>
        <time>2024-06-01T15:23:46+02:00</time>
      </trkpt>
      <trkpt lat="43.69054" lon="1.47365">
        <ele>174.5</ele>
        <time>2024-06-01T15:23:47+02:00</time>
      </trkpt>
      <trkpt lat="43.69063" lon="1.47377">
        <ele>175.60059</ele>
        <time>2024-06-01T15:23:51+02:00</time>
      </trkpt>
      <trkpt lat="43.69066" lon="1.47383">
        <ele>176.7998</ele>
        <time>2024-06-01T15:23:52+02:00</time>
      </trkpt>
      <trkpt lat="43.69076" lon="1.47402">
        <ele>178.10059</ele>
        <time>2024-06-01T15:23:56+02:00</time>
      </trkpt>
      <trkpt lat="43.69079" lon="1.47406">
        <ele>179</ele>
        <time>2024-06-01T15:23:57+02:00</time>
      </trkpt>
      <trkpt lat="43.6909" lon="1.47426">
        <ele>180</ele>
        <time>2024-06-01T15:24:01+02:00</time>
      </trkpt>
      <trkpt lat="43.69092" lon="1.47431">
        <ele>180.60059</ele>
        <time>2024-06-01T15:24:02+02:00</time>
      </trkpt>
      <trkpt lat="43.69101" lon="1.47452">
        <ele>182.10059</ele>
        <time>2024-06-01T15:24:06+02:00</time>
      </trkpt>
      <trkpt lat="43.69103" lon="1.47457">
        <ele>182.7998</ele>
        <time>2024-06-01T15:24:07+02:00</time>
      </trkpt>
      <trkpt lat="43.6911" lon="1.47479">
        <ele>184.40039</ele>
        <time>2024-06-01T15:24:11+02:00</time>
      </trkpt>
      <trkpt lat="43.69111" lon="1.47485">
        <ele>184.5</ele>
        <time>2024-06-01T15:24:12+02:00</time>
      </trkpt>
      <trkpt lat="43.69117" lon="1.47507">
        <ele>185.40039</ele>
        <time>2024-06-01T15:24:16+02:00</time>
      </trkpt>
      <trkpt lat="43.69119" lon="1.47512">
        <ele>185.40039</ele>
        <time>2024-06-01T15:24:17+02:00</time>
      </trkpt>
      <trkpt lat="43.69124" lon="1.47537">
        <ele>186.2002</ele>
        <time>2024-06-01T15:24:21+02:00</time>
      </trkpt>
      <trkpt lat="43.69126" lon="1.47544">
        <ele>186.2002</ele>
        <time>2024-06-01T15:24:22+02:00</time>
      </trkpt>
      <trkpt lat="43.69132" lon="1.47567">
        <ele>186.7998</ele>
        <time>2024-06-01T15:24:26+02:00</time>
      </trkpt>
      <trkpt lat="43.69134" lon="1.47573">
        <ele>187.2002</ele>
        <time>2024-06-01T15:24:27+02:00</time>
      </trkpt>
      <trkpt lat="43.69142" lon="1.47595">
        <ele>186.90039</ele>
        <time>2024-06-01T15:24:31+02:00</time>
      </trkpt>
      <trkpt lat="43.69144" lon="1.476">
        <ele>186.90039</ele>
        <time>2024-06-01T15:24:32+02:00</time>
      </trkpt>
      <trkpt lat="43.69154" lon="1.4762">
        <ele>186.7002</ele>
        <time>2024-06-01T15:24:36+02:00</time>
      </trkpt>
      <trkpt lat="43.69157" lon="1.47625">
        <ele>186.7002</ele>
        <time>2024-06-01T15:24:37+02:00</time>
      </trkpt>
      <trkpt lat="43.6917" lon="1.47643">
        <ele>186.2002</ele>
        <time>2024-06-01T15:24:41+02:00</time>
      </trkpt>
      <trkpt lat="43.69174" lon="1.47646">
        <ele>185.60059</ele>
        <time>2024-06-01T15:24:42+02:00</time>
      </trkpt>
      <trkpt lat="43.69186" lon="1.47656">
        <ele>185.60059</ele>
        <time>2024-06-01T15:24:46+02:00</time>
      </trkpt>
      <trkpt lat="43.69188" lon="1.47658">
        <ele>185.60059</ele>
        <time>2024-06-01T15:24:47+02:00</time>
      </trkpt>
      <trkpt lat="43.69196" lon="1.47666">
        <ele>185.90039</ele>
        <time>2024-06-01T15:24:51+02:00</time>
      </trkpt>
      <trkpt lat="43.69197" lon="1.47667">
        <ele>185.90039</ele>
        <time>2024-06-01T15:24:52+02:00</time>
      </trkpt>
      <trkpt lat="43.69209" lon="1.47675">
        <ele>186.10059</ele>
        <time>2024-06-01T15:24:56+02:00</time>
      </trkpt>
      <trkpt lat="43.69213" lon="1.47678">
        <ele>186.10059</ele>
        <time>2024-06-01T15:24:57+02:00</time>
      </trkpt>
      <trkpt lat="43.69227" lon="1.47691">
        <ele>186</ele>
        <time>2024-06-01T15:25:01+02:00</time>
      </trkpt>
      <trkpt lat="43.69231" lon="1.47693">
        <ele>186</ele>
        <time>2024-06-01T15:25:02+02:00</time>
      </trkpt>
      <trkpt lat="43.69244" lon="1.47705">
        <ele>186.60059</ele>
        <time>2024-06-01T15:25:06+02:00</time>
      </trkpt>
      <trkpt lat="43.69248" lon="1.47709">
        <ele>186.7002</ele>
        <time>2024-06-01T15:25:07+02:00</time>
      </trkpt>
      <trkpt lat="43.69265" lon="1.47725">
        <ele>188</ele>
        <time>2024-06-01T15:25:11+02:00</time>
      </trkpt>
      <trkpt lat="43.6927" lon="1.4773">
        <ele>188.7998</ele>
        <time>2024-06-01T15:25:12+02:00</time>
      </trkpt>
      <trkpt lat="43.69289" lon="1.47753">
        <ele>189.5</ele>
        <time>2024-06-01T15:25:16+02:00</time>
      </trkpt>
      <trkpt lat="43.69294" lon="1.47759">
        <ele>189.10059</ele>
        <time>2024-06-01T15:25:17+02:00</time>
      </trkpt>
      <trkpt lat="43.69313" lon="1.47778">
        <ele>189.7998</ele>
        <time>2024-06-01T15:25:21+02:00</time>
      </trkpt>
      <trkpt lat="43.69319" lon="1.4778">
        <ele>190.2002</ele>
        <time>2024-06-01T15:25:22+02:00</time>
      </trkpt>
      <trkpt lat="43.69342" lon="1.4778">
        <ele>192.2998</ele>
        <time>2024-06-01T15:25:26+02:00</time>
      </trkpt>
      <trkpt lat="43.69348" lon="1.4778">
        <ele>192.7998</ele>
        <time>2024-06-01T15:25:27+02:00</time>
      </trkpt>
      <trkpt lat="43.69371" lon="1.47779">
        <ele>194.40039</ele>
        <time>2024-06-01T15:25:31+02:00</time>
      </trkpt>
      <trkpt lat="43.69377" lon="1.47778">
        <ele>194.7998</ele>
        <time>2024-06-01T15:25:32+02:00</time>
      </trkpt>
      <trkpt lat="43.69399" lon="1.47778">
        <ele>196.2002</ele>
        <time>2024-06-01T15:25:36+02:00</time>
      </trkpt>
      <trkpt lat="43.69405" lon="1.47778">
        <ele>196.7002</ele>
        <time>2024-06-01T15:25:37+02:00</time>
      </trkpt>
      <trkpt lat="43.69428" lon="1.47778">
        <ele>199.2002</ele>
        <time>2024-06-01T15:25:41+02:00</time>
      </trkpt>
      <trkpt lat="43.69433" lon="1.47779">
        <ele>199.90039</ele>
        <time>2024-06-01T15:25:42+02:00</time>
      </trkpt>
      <trkpt lat="43.6945" lon="1.47762">
        <ele>201.90039</ele>
        <time>2024-06-01T15:25:46+02:00</time>
      </trkpt>
      <trkpt lat="43.69453" lon="1.47755">
        <ele>202</ele>
        <time>2024-06-01T15:25:47+02:00</time>
      </trkpt>
      <trkpt lat="43.69462" lon="1.47729">
        <ele>203</ele>
        <time>2024-06-01T15:25:51+02:00</time>
      </trkpt>
      <trkpt lat="43.69465" lon="1.47722">
        <ele>203.7998</ele>
        <time>2024-06-01T15:25:52+02:00</time>
      </trkpt>
      <trkpt lat="43.69475" lon="1.477">
        <ele>205.10059</ele>
        <time>2024-06-01T15:25:56+02:00</time>
      </trkpt>
      <trkpt lat="43.69478" lon="1.47694">
        <ele>205.2002</ele>
        <time>2024-06-01T15:25:57+02:00</time>
      </trkpt>
      <trkpt lat="43.69487" lon="1.47667">
        <ele>206.2998</ele>
        <time>2024-06-01T15:26:01+02:00</time>
      </trkpt>
      <trkpt lat="43.69489" lon="1.4766">
        <ele>206.40039</ele>
        <time>2024-06-01T15:26:02+02:00</time>
      </trkpt>
      <trkpt lat="43.69493" lon="1.47633">
        <ele>206.5</ele>
        <time>2024-06-01T15:26:06+02:00</time>
      </trkpt>
      <trkpt lat="43.69494" lon="1.47626">
        <ele>206.90039</ele>
        <time>2024-06-01T15:26:07+02:00</time>
      </trkpt>
      <trkpt lat="43.69497" lon="1.476">
        <ele>206.7002</ele>
        <time>2024-06-01T15:26:11+02:00</time>
      </trkpt>
      <trkpt lat="43.69498" lon="1.47593">
        <ele>206.7002</ele>
        <time>2024-06-01T15:26:12+02:00</time>
      </trkpt>
      <trkpt lat="43.69509" lon="1.47567">
        <ele>207</ele>
        <time>2024-06-01T15:26:16+02:00</time>
      </trkpt>
      <trkpt lat="43.69513" lon="1.47561">
        <ele>207.2998</ele>
        <time>2024-06-01T15:26:17+02:00</time>
      </trkpt>
      <trkpt lat="43.69526" lon="1.47542">
        <ele>207.90039</ele>
        <time>2024-06-01T15:26:21+02:00</time>
      </trkpt>
      <trkpt lat="43.69529" lon="1.47537">
        <ele>207.90039</ele>
        <time>2024-06-01T15:26:22+02:00</time>
      </trkpt>
      <trkpt lat="43.69543" lon="1.47519">
        <ele>208.5</ele>
        <time>2024-06-01T15:26:26+02:00</time>
      </trkpt>
      <trkpt lat="43.69545" lon="1.47517">
        <ele>208.7998</ele>
        <time>2024-06-01T15:26:27+02:00</time>
      </trkpt>
      <trkpt lat="43.69554" lon="1.47523">
        <ele>209.10059</ele>
        <time>2024-06-01T15:26:31+02:00</time>
      </trkpt>
      <trkpt lat="43.69559" lon="1.47527">
        <ele>209.2002</ele>
        <time>2024-06-01T15:26:32+02:00</time>
      </trkpt>
      <trkpt lat="43.69577" lon="1.47547">
        <ele>209.5</ele>
        <time>2024-06-01T15:26:36+02:00</time>
      </trkpt>
      <trkpt lat="43.6958" lon="1.47554">
        <ele>209.40039</ele>
        <time>2024-06-01T15:26:37+02:00</time>
      </trkpt>
      <trkpt lat="43.69584" lon="1.47587">
        <ele>209.2998</ele>
        <time>2024-06-01T15:26:41+02:00</time>
      </trkpt>
      <trkpt lat="43.69585" lon="1.47595">
        <ele>209.2002</ele>
        <time>2024-06-01T15:26:42+02:00</time>
      </trkpt>
      <trkpt lat="43.69594" lon="1.47625">
        <ele>209.40039</ele>
        <time>2024-06-01T15:26:46+02:00</time>
      </trkpt>
      <trkpt lat="43.69597" lon="1.47632">
        <ele>209.2998</ele>
        <time>2024-06-01T15:26:47+02:00</time>
      </trkpt>
      <trkpt lat="43.69607" lon="1.47659">
        <ele>209.5</ele>
        <time>2024-06-01T15:26:51+02:00</time>
      </trkpt>
      <trkpt lat="43.6961" lon="1.47666">
        <ele>209.60059</ele>
        <time>2024-06-01T15:26:52+02:00</time>
      </trkpt>
      <trkpt lat="43.69622" lon="1.47693">
        <ele>209.90039</ele>
        <time>2024-06-01T15:26:56+02:00</time>
      </trkpt>
      <trkpt lat="43.69624" lon="1.477">
        <ele>210.10059</ele>
        <time>2024-06-01T15:26:57+02:00</time>
      </trkpt>
      <trkpt lat="43.69636" lon="1.47726">
        <ele>210.40039</ele>
        <time>2024-06-01T15:27:01+02:00</time>
      </trkpt>
      <trkpt lat="43.69639" lon="1.47732">
        <ele>210.60059</ele>
        <time>2024-06-01T15:27:02+02:00</time>
      </trkpt>
      <trkpt lat="43.69644" lon="1.47751">
        <ele>210.7002</ele>
        <time>2024-06-01T15:27:06+02:00</time>
      </trkpt>
      <trkpt lat="43.69644" lon="1.47754">
        <ele>210.7002</ele>
        <time>2024-06-01T15:27:07+02:00</time>
      </trkpt>
      <trkpt lat="43.69651" lon="1.47768">
        <ele>210.7002</ele>
        <time>2024-06-01T15:27:11+02:00</time>
      </trkpt>
      <trkpt lat="43.69655" lon="1.47773">
        <ele>210.7002</ele>
        <time>2024-06-01T15:27:12+02:00</time>
      </trkpt>
      <trkpt lat="43.69674" lon="1.47794">
        <ele>210.5</ele>
        <time>2024-06-01T15:27:16+02:00</time>
      </trkpt>
      <trkpt lat="43.69679" lon="1.47799">
        <ele>210.5</ele>
        <time>2024-06-01T15:27:17+02:00</time>
      </trkpt>
      <trkpt lat="43.69699" lon="1.47821">
        <ele>210.2002</ele>
        <time>2024-06-01T15:27:21+02:00</time>
      </trkpt>
      <trkpt lat="43.69704" lon="1.47826">
        <ele>210.10059</ele>
        <time>2024-06-01T15:27:22+02:00</time>
      </trkpt>
      <trkpt lat="43.69726" lon="1.47839">
        <ele>210.10059</ele>
        <time>2024-06-01T15:27:26+02:00</time>
      </trkpt>
      <trkpt lat="43.69733" lon="1.4784">
        <ele>210</ele>
        <time>2024-06-01T15:27:27+02:00</time>
      </trkpt>
      <trkpt lat="43.69757" lon="1.47838">
        <ele>209.5</ele>
        <time>2024-06-01T15:27:31+02:00</time>
      </trkpt>
      <trkpt lat="43.69763" lon="1.47837">
        <ele>209.2998</ele>
        <time>2024-06-01T15:27:32+02:00</time>
      </trkpt>
      <trkpt lat="43.69791" lon="1.47829">
        <ele>208.7002</ele>
        <time>2024-06-01T15:27:36+02:00</time>
      </trkpt>
      <trkpt lat="43.69798" lon="1.47826">
        <ele>208.40039</ele>
        <time>2024-06-01T15:27:37+02:00</time>
      </trkpt>
      <trkpt lat="43.69826" lon="1.47814">
        <ele>207.7998</ele>
        <time>2024-06-01T15:27:41+02:00</time>
      </trkpt>
      <trkpt lat="43.69832" lon="1.47812">
        <ele>207.5</ele>
        <time>2024-06-01T15:27:42+02:00</time>
      </trkpt>
      <trkpt lat="43.69862" lon="1.47802">
        <ele>206.2002</ele>
        <time>2024-06-01T15:27:46+02:00</time>
      </trkpt>
      <trkpt lat="43.6987" lon="1.478">
        <ele>206.10059</ele>
        <time>2024-06-01T15:27:47+02:00</time>
      </trkpt>
      <trkpt lat="43.69898" lon="1.47773">
        <ele>205.7002</ele>
        <time>2024-06-01T15:27:51+02:00</time>
      </trkpt>
      <trkpt lat="43.69903" lon="1.47765">
        <ele>205.7002</ele>
        <time>2024-06-01T15:27:52+02:00</time>
      </trkpt>
      <trkpt lat="43.69926" lon="1.47731">
        <ele>205.2998</ele>
        <time>2024-06-01T15:27:56+02:00</time>
      </trkpt>
      <trkpt lat="43.69932" lon="1.47722">
        <ele>205</ele>
        <time>2024-06-01T15:27:57+02:00</time>
      </trkpt>
      <trkpt lat="43.69958" lon="1.47686">
        <ele>203.10059</ele>
        <time>2024-06-01T15:28:01+02:00</time>
      </trkpt>
      <trkpt lat="43.69965" lon="1.47676">
        <ele>202.5</ele>
        <time>2024-06-01T15:28:02+02:00</time>
      </trkpt>
      <trkpt lat="43.69994" lon="1.47641">
        <ele>199.7002</ele>
        <time>2024-06-01T15:28:06+02:00</time>
      </trkpt>
      <trkpt lat="43.70001" lon="1.47634">
        <ele>199.40039</ele>
        <time>2024-06-01T15:28:07+02:00</time>
      </trkpt>
      <trkpt lat="43.70036" lon="1.47619">
        <ele>199</ele>
        <time>2024-06-01T15:28:11+02:00</time>
      </trkpt>
      <trkpt lat="43.70045" lon="1.47619">
        <ele>198.90039</ele>
        <time>2024-06-01T15:28:12+02:00</time>
      </trkpt>
      <trkpt lat="43.7008" lon="1.47624">
        <ele>197.5</ele>
        <time>2024-06-01T15:28:16+02:00</time>
      </trkpt>
      <trkpt lat="43.70088" lon="1.47627">
        <ele>197.2998</ele>
        <time>2024-06-01T15:28:17+02:00</time>
      </trkpt>
      <trkpt lat="43.70122" lon="1.47634">
        <ele>196.2002</ele>
        <time>2024-06-01T15:28:21+02:00</time>
      </trkpt>
      <trkpt lat="43.7013" lon="1.47633">
        <ele>196.10059</ele>
        <time>2024-06-01T15:28:22+02:00</time>
      </trkpt>
      <trkpt lat="43.70159" lon="1.47621">
        <ele>197</ele>
        <time>2024-06-01T15:28:26+02:00</time>
      </trkpt>
      <trkpt lat="43.70166" lon="1.47617">
        <ele>197.40039</ele>
        <time>2024-06-01T15:28:27+02:00</time>
      </trkpt>
      <trkpt lat="43.70195" lon="1.47606">
        <ele>197.40039</ele>
        <time>2024-06-01T15:28:31+02:00</time>
      </trkpt>
      <trkpt lat="43.70201" lon="1.47607">
        <ele>197.10059</ele>
        <time>2024-06-01T15:28:32+02:00</time>
      </trkpt>
      <trkpt lat="43.70225" lon="1.47622">
        <ele>195.90039</ele>
        <time>2024-06-01T15:28:36+02:00</time>
      </trkpt>
      <trkpt lat="43.7023" lon="1.47627">
        <ele>195.7002</ele>
        <time>2024-06-01T15:28:37+02:00</time>
      </trkpt>
      <trkpt lat="43.70252" lon="1.47644">
        <ele>194.5</ele>
        <time>2024-06-01T15:28:41+02:00</time>
      </trkpt>
      <trkpt lat="43.70257" lon="1.47649">
        <ele>194.10059</ele>
        <time>2024-06-01T15:28:42+02:00</time>
      </trkpt>
      <trkpt lat="43.70281" lon="1.47665">
        <ele>193.5</ele>
        <time>2024-06-01T15:28:46+02:00</time>
      </trkpt>
      <trkpt lat="43.70287" lon="1.47669">
        <ele>193.60059</ele>
        <time>2024-06-01T15:28:47+02:00</time>
      </trkpt>
      <trkpt lat="43.70312" lon="1.47683">
        <ele>193.2998</ele>
        <time>2024-06-01T15:28:51+02:00</time>
      </trkpt>
      <trkpt lat="43.70319" lon="1.47687">
        <ele>193.2998</ele>
        <time>2024-06-01T15:28:52+02:00</time>
      </trkpt>
      <trkpt lat="43.70349" lon="1.47701">
        <ele>192.10059</ele>
        <time>2024-06-01T15:28:56+02:00</time>
      </trkpt>
      <trkpt lat="43.70357" lon="1.47705">
        <ele>191.2998</ele>
        <time>2024-06-01T15:28:57+02:00</time>
      </trkpt>
      <trkpt lat="43.70386" lon="1.47722">
        <ele>189.10059</ele>
        <time>2024-06-01T15:29:01+02:00</time>
      </trkpt>
      <trkpt lat="43.70393" lon="1.47725">
        <ele>188.5</ele>
        <time>2024-06-01T15:29:02+02:00</time>
      </trkpt>
      <trkpt lat="43.70422" lon="1.47739">
        <ele>187.2998</ele>
        <time>2024-06-01T15:29:06+02:00</time>
      </trkpt>
      <trkpt lat="43.70429" lon="1.47742">
        <ele>187.10059</ele>
        <time>2024-06-01T15:29:07+02:00</time>
      </trkpt>
      <trkpt lat="43.70456" lon="1.47756">
        <ele>186.5</ele>
        <time>2024-06-01T15:29:11+02:00</time>
      </trkpt>
      <trkpt lat="43.70463" lon="1.47759">
        <ele>186.2002</ele>
        <time>2024-06-01T15:29:12+02:00</time>
      </trkpt>
      <trkpt lat="43.70485" lon="1.47775">
        <ele>185.7998</ele>
        <time>2024-06-01T15:29:16+02:00</time>
      </trkpt>
      <trkpt lat="43.70489" lon="1.47783">
        <ele>185.7002</ele>
        <time>2024-06-01T15:29:17+02:00</time>
      </trkpt>
      <trkpt lat="43.70499" lon="1.47809">
        <ele>185.40039</ele>
        <time>2024-06-01T15:29:21+02:00</time>
      </trkpt>
      <trkpt lat="43.70501" lon="1.47814">
        <ele>185.40039</ele>
        <time>2024-06-01T15:29:22+02:00</time>
      </trkpt>
      <trkpt lat="43.70511" lon="1.47842">
        <ele>185.2002</ele>
        <time>2024-06-01T15:29:26+02:00</time>
      </trkpt>
      <trkpt lat="43.70515" lon="1.4785">
        <ele>185.10059</ele>
        <time>2024-06-01T15:29:27+02:00</time>
      </trkpt>
      <trkpt lat="43.70528" lon="1.47881">
        <ele>184.90039</ele>
        <time>2024-06-01T15:29:31+02:00</time>
      </trkpt>
      <trkpt lat="43.70532" lon="1.47889">
        <ele>184.7998</ele>
        <time>2024-06-01T15:29:32+02:00</time>
      </trkpt>
      <trkpt lat="43.70545" lon="1.47919">
        <ele>184.60059</ele>
        <time>2024-06-01T15:29:36+02:00</time>
      </trkpt>
      <trkpt lat="43.70548" lon="1.47926">
        <ele>184.60059</ele>
        <time>2024-06-01T15:29:37+02:00</time>
      </trkpt>
      <trkpt lat="43.70561" lon="1.47957">
        <ele>184.2998</ele>
        <time>2024-06-01T15:29:41+02:00</time>
      </trkpt>
      <trkpt lat="43.70565" lon="1.47964">
        <ele>184.2002</ele>
        <time>2024-06-01T15:29:42+02:00</time>
      </trkpt>
      <trkpt lat="43.7058" lon="1.47993">
        <ele>184.90039</ele>
        <time>2024-06-01T15:29:46+02:00</time>
      </trkpt>
      <trkpt lat="43.70583" lon="1.48">
        <ele>184.90039</ele>
        <time>2024-06-01T15:29:47+02:00</time>
      </trkpt>
      <trkpt lat="43.70587" lon="1.48007">
        <ele>185.2998</ele>
        <time>2024-06-01T15:29:51+02:00</time>
      </trkpt>
      <trkpt lat="43.70587" lon="1.48006">
        <ele>185.2002</ele>
        <time>2024-06-01T15:29:52+02:00</time>
      </trkpt>
      <trkpt lat="43.70586" lon="1.48006">
        <ele>185.2002</ele>
        <time>2024-06-01T15:29:56+02:00</time>
      </trkpt>
      <trkpt lat="43.70586" lon="1.48006">
        <ele>185.2002</ele>
        <time>2024-06-01T15:29:57+02:00</time>
      </trkpt>
      <trkpt lat="43.70586" lon="1.48006">
        <ele>185.2002</ele>
        <time>2024-06-01T15:30:01+02:00</time>
      </trkpt>
      <trkpt lat="43.70586" lon="1.48006">
        <ele>185.2002</ele>
        <time>2024-06-01T15:30:02+02:00</time>
      </trkpt>
      <trkpt lat="43.70586" lon="1.48006">
        <ele>185.2002</ele>
        <time>2024-06-01T15:30:06+02:00</time>
      </trkpt>
      <trkpt lat="43.70586" lon="1.48006">
        <ele>185.2002</ele>
        <time>2024-06-01T15:30:07+02:00</time>
      </trkpt>
      <trkpt lat="43.70586" lon="1.48006">
        <ele>185.2002</ele>
        <time>2024-06-01T15:30:17+02:00</time>
      </trkpt>
      <trkpt lat="43.70586" lon="1.48006">
        <ele>185.2002</ele>
        <time>2024-06-01T15:30:19+02:00</time>
      </trkpt>
      <trkpt lat="43.70586" lon="1.48006">
        <ele>185.2002</ele>
        <time>2024-06-01T15:30:23+02:00</time>
      </trkpt>
      <trkpt lat="43.70586" lon="1.48006">
        <ele>185.2002</ele>
        <time>2024-06-01T15:30:24+02:00</time>
      </trkpt>
      <trkpt lat="43.70586" lon="1.48006">
        <ele>185.2002</ele>
        <time>2024-06-01T15:30:28+02:00</time>
      </trkpt>
      <trkpt lat="43.70586" lon="1.48006">
        <ele>185.2002</ele>
        <time>2024-06-01T15:30:29+02:00</time>
      </trkpt>
      <trkpt lat="43.7059" lon="1.48013">
        <ele>185.2998</ele>
        <time>2024-06-01T15:30:33+02:00</time>
      </trkpt>
      <trkpt lat="43.70592" lon="1.48016">
        <ele>185.2998</ele>
        <time>2024-06-01T15:30:34+02:00</time>
      </trkpt>
      <trkpt lat="43.70602" lon="1.48036">
        <ele>186</ele>
        <time>2024-06-01T15:30:38+02:00</time>
      </trkpt>
      <trkpt lat="43.70606" lon="1.48042">
        <ele>186.2998</ele>
        <time>2024-06-01T15:30:39+02:00</time>
      </trkpt>
      <trkpt lat="43.7062" lon="1.48067">
        <ele>186.60059</ele>
        <time>2024-06-01T15:30:43+02:00</time>
      </trkpt>
      <trkpt lat="43.70623" lon="1.48074">
        <ele>186.7002</ele>
        <time>2024-06-01T15:30:44+02:00</time>
      </trkpt>
      <trkpt lat="43.70638" lon="1.48099">
        <ele>186.7002</ele>
        <time>2024-06-01T15:30:48+02:00</time>
      </trkpt>
      <trkpt lat="43.70642" lon="1.48105">
        <ele>186.7002</ele>
        <time>2024-06-01T15:30:49+02:00</time>
      </trkpt>
      <trkpt lat="43.70654" lon="1.48129">
        <ele>186.2998</ele>
        <time>2024-06-01T15:30:53+02:00</time>
      </trkpt>
      <trkpt lat="43.70658" lon="1.48135">
        <ele>186.2002</ele>
        <time>2024-06-01T15:30:54+02:00</time>
      </trkpt>
      <trkpt lat="43.70675" lon="1.48157">
        <ele>185.7998</ele>
        <time>2024-06-01T15:30:58+02:00</time>
      </trkpt>
      <trkpt lat="43.70679" lon="1.48162">
        <ele>185.7002</ele>
        <time>2024-06-01T15:30:59+02:00</time>
      </trkpt>
      <trkpt lat="43.70699" lon="1.4818">
        <ele>185.40039</ele>
        <time>2024-06-01T15:31:03+02:00</time>
      </trkpt>
      <trkpt lat="43.70704" lon="1.48184">
        <ele>185.40039</ele>
        <time>2024-06-01T15:31:04+02:00</time>
      </trkpt>
      <trkpt lat="43.70726" lon="1.48198">
        <ele>185.2998</ele>
        <time>2024-06-01T15:31:08+02:00</time>
      </trkpt>
      <trkpt lat="43.70732" lon="1.48201">
        <ele>185.2998</ele>
        <time>2024-06-01T15:31:09+02:00</time>
      </trkpt>
      <trkpt lat="43.70754" lon="1.48213">
        <ele>185.40039</ele>
        <time>2024-06-01T15:31:13+02:00</time>
      </trkpt>
      <trkpt lat="43.7076" lon="1.48217">
        <ele>185.5</ele>
        <time>2024-06-01T15:31:14+02:00</time>
      </trkpt>
      <trkpt lat="43.70781" lon="1.48232">
        <ele>185.5</ele>
        <time>2024-06-01T15:31:18+02:00</time>
      </trkpt>
      <trkpt lat="43.70787" lon="1.48235">
        <ele>185.60059</ele>
        <time>2024-06-01T15:31:19+02:00</time>
      </trkpt>
      <trkpt lat="43.7081" lon="1.48251">
        <ele>185.7002</ele>
        <time>2024-06-01T15:31:23+02:00</time>
      </trkpt>
      <trkpt lat="43.70815" lon="1.48255">
        <ele>185.7002</ele>
        <time>2024-06-01T15:31:24+02:00</time>
      </trkpt>
      <trkpt lat="43.70837" lon="1.48271">
        <ele>185.7002</ele>
        <time>2024-06-01T15:31:28+02:00</time>
      </trkpt>
      <trkpt lat="43.70843" lon="1.48275">
        <ele>185.7002</ele>
        <time>2024-06-01T15:31:29+02:00</time>
      </trkpt>
      <trkpt lat="43.70865" lon="1.48289">
        <ele>185.40039</ele>
        <time>2024-06-01T15:31:33+02:00</time>
      </trkpt>
      <trkpt lat="43.7087" lon="1.48293">
        <ele>185.40039</ele>
        <time>2024-06-01T15:31:34+02:00</time>
      </trkpt>
      <trkpt lat="43.70892" lon="1.48309">
        <ele>185.10059</ele>
        <time>2024-06-01T15:31:38+02:00</time>
      </trkpt>
      <trkpt lat="43.70897" lon="1.48313">
        <ele>185.10059</ele>
        <time>2024-06-01T15:31:39+02:00</time>
      </trkpt>
      <trkpt lat="43.70918" lon="1.48327">
        <ele>185.10059</ele>
        <time>2024-06-01T15:31:43+02:00</time>
      </trkpt>
      <trkpt lat="43.70924" lon="1.48331">
        <ele>185</ele>
        <time>2024-06-01T15:31:44+02:00</time>
      </trkpt>
      <trkpt lat="43.70945" lon="1.48347">
        <ele>185.10059</ele>
        <time>2024-06-01T15:31:48+02:00</time>
      </trkpt>
      <trkpt lat="43.70949" lon="1.48352">
        <ele>185.2002</ele>
        <time>2024-06-01T15:31:49+02:00</time>
      </trkpt>
      <trkpt lat="43.70966" lon="1.48368">
        <ele>185.40039</ele>
        <time>2024-06-01T15:31:53+02:00</time>
      </trkpt>
      <trkpt lat="43.7097" lon="1.48373">
        <ele>185.40039</ele>
        <time>2024-06-01T15:31:54+02:00</time>
      </trkpt>
      <trkpt lat="43.7099" lon="1.48393">
        <ele>185.7002</ele>
        <time>2024-06-01T15:31:58+02:00</time>
      </trkpt>
      <trkpt lat="43.70995" lon="1.48398">
        <ele>185.7002</ele>
        <time>2024-06-01T15:31:59+02:00</time>
      </trkpt>
      <trkpt lat="43.71011" lon="1.48416">
        <ele>185.90039</ele>
        <time>2024-06-01T15:32:03+02:00</time>
      </trkpt>
      <trkpt lat="43.71013" lon="1.48419">
        <ele>186</ele>
        <time>2024-06-01T15:32:04+02:00</time>
      </trkpt>
      <trkpt lat="43.71016" lon="1.48423">
        <ele>186</ele>
        <time>2024-06-01T15:32:08+02:00</time>
      </trkpt>
      <trkpt lat="43.71016" lon="1.48423">
        <ele>186</ele>
        <time>2024-06-01T15:32:09+02:00</time>
      </trkpt>
      <trkpt lat="43.71022" lon="1.48427">
        <ele>186.10059</ele>
        <time>2024-06-01T15:32:13+02:00</time>
      </trkpt>
      <trkpt lat="43.71025" lon="1.48429">
        <ele>186.10059</ele>
        <time>2024-06-01T15:32:14+02:00</time>
      </trkpt>
      <trkpt lat="43.71037" lon="1.48444">
        <ele>186.2002</ele>
        <time>2024-06-01T15:32:18+02:00</time>
      </trkpt>
      <trkpt lat="43.71041" lon="1.4845">
        <ele>186.40039</ele>
        <time>2024-06-01T15:32:19+02:00</time>
      </trkpt>
      <trkpt lat="43.71062" lon="1.48474">
        <ele>187.2002</ele>
        <time>2024-06-01T15:32:23+02:00</time>
      </trkpt>
      <trkpt lat="43.71067" lon="1.48481">
        <ele>187.5</ele>
        <time>2024-06-01T15:32:24+02:00</time>
      </trkpt>
      <trkpt lat="43.71086" lon="1.48503">
        <ele>188</ele>
        <time>2024-06-01T15:32:28+02:00</time>
      </trkpt>
      <trkpt lat="43.7109" lon="1.48508">
        <ele>188.2998</ele>
        <time>2024-06-01T15:32:29+02:00</time>
      </trkpt>
      <trkpt lat="43.71106" lon="1.48528">
        <ele>188.60059</ele>
        <time>2024-06-01T15:32:33+02:00</time>
      </trkpt>
      <trkpt lat="43.71111" lon="1.48532">
        <ele>188.7998</ele>
        <time>2024-06-01T15:32:34+02:00</time>
      </trkpt>
      <trkpt lat="43.71127" lon="1.48549">
        <ele>189</ele>
        <time>2024-06-01T15:32:38+02:00</time>
      </trkpt>
      <trkpt lat="43.7113" lon="1.48554">
        <ele>189</ele>
        <time>2024-06-01T15:32:39+02:00</time>
      </trkpt>
      <trkpt lat="43.71145" lon="1.48572">
        <ele>189.10059</ele>
        <time>2024-06-01T15:32:43+02:00</time>
      </trkpt>
      <trkpt lat="43.71149" lon="1.48577">
        <ele>189.10059</ele>
        <time>2024-06-01T15:32:44+02:00</time>
      </trkpt>
      <trkpt lat="43.71165" lon="1.48595">
        <ele>189.10059</ele>
        <time>2024-06-01T15:32:48+02:00</time>
      </trkpt>
      <trkpt lat="43.71169" lon="1.486">
        <ele>189.10059</ele>
        <time>2024-06-01T15:32:49+02:00</time>
      </trkpt>
      <trkpt lat="43.71183" lon="1.48625">
        <ele>189.10059</ele>
        <time>2024-06-01T15:32:53+02:00</time>
      </trkpt>
      <trkpt lat="43.71186" lon="1.48631">
        <ele>189.10059</ele>
        <time>2024-06-01T15:32:54+02:00</time>
      </trkpt>
      <trkpt lat="43.71202" lon="1.48657">
        <ele>189.10059</ele>
        <time>2024-06-01T15:32:58+02:00</time>
      </trkpt>
      <trkpt lat="43.71206" lon="1.48663">
        <ele>189</ele>
        <time>2024-06-01T15:32:59+02:00</time>
      </trkpt>
      <trkpt lat="43.71221" lon="1.48688">
        <ele>188.90039</ele>
        <time>2024-06-01T15:33:03+02:00</time>
      </trkpt>
      <trkpt lat="43.71225" lon="1.48695">
        <ele>188.90039</ele>
        <time>2024-06-01T15:33:04+02:00</time>
      </trkpt>
      <trkpt lat="43.7124" lon="1.4872">
        <ele>188.7998</ele>
        <time>2024-06-01T15:33:08+02:00</time>
      </trkpt>
      <trkpt lat="43.71244" lon="1.48727">
        <ele>188.7998</ele>
        <time>2024-06-01T15:33:09+02:00</time>
      </trkpt>
      <trkpt lat="43.71259" lon="1.48754">
        <ele>188.5</ele>
        <time>2024-06-01T15:33:13+02:00</time>
      </trkpt>
      <trkpt lat="43.71262" lon="1.4876">
        <ele>188.40039</ele>
        <time>2024-06-01T15:33:14+02:00</time>
      </trkpt>
      <trkpt lat="43.71278" lon="1.48788">
        <ele>188</ele>
        <time>2024-06-01T15:33:18+02:00</time>
      </trkpt>
      <trkpt lat="43.71282" lon="1.48795">
        <ele>187.90039</ele>
        <time>2024-06-01T15:33:19+02:00</time>
      </trkpt>
      <trkpt lat="43.71297" lon="1.48824">
        <ele>187.5</ele>
        <time>2024-06-01T15:33:23+02:00</time>
      </trkpt>
      <trkpt lat="43.71301" lon="1.48831">
        <ele>187.5</ele>
        <time>2024-06-01T15:33:24+02:00</time>
      </trkpt>
      <trkpt lat="43.71316" lon="1.48861">
        <ele>187.60059</ele>
        <time>2024-06-01T15:33:28+02:00</time>
      </trkpt>
      <trkpt lat="43.71319" lon="1.48867">
        <ele>187.7002</ele>
        <time>2024-06-01T15:33:29+02:00</time>
      </trkpt>
      <trkpt lat="43.71334" lon="1.48893">
        <ele>188.10059</ele>
        <time>2024-06-01T15:33:33+02:00</time>
      </trkpt>
      <trkpt lat="43.71337" lon="1.48901">
        <ele>188.40039</ele>
        <time>2024-06-01T15:33:34+02:00</time>
      </trkpt>
      <trkpt lat="43.71351" lon="1.48928">
        <ele>189.40039</ele>
        <time>2024-06-01T15:33:38+02:00</time>
      </trkpt>
      <trkpt lat="43.71354" lon="1.48935">
        <ele>189.60059</ele>
        <time>2024-06-01T15:33:39+02:00</time>
      </trkpt>
      <trkpt lat="43.71363" lon="1.48965">
        <ele>190.5</ele>
        <time>2024-06-01T15:33:43+02:00</time>
      </trkpt>
      <trkpt lat="43.71365" lon="1.48972">
        <ele>190.60059</ele>
        <time>2024-06-01T15:33:44+02:00</time>
      </trkpt>
      <trkpt lat="43.71375" lon="1.49004">
        <ele>191</ele>
        <time>2024-06-01T15:33:48+02:00</time>
      </trkpt>
      <trkpt lat="43.71378" lon="1.49011">
        <ele>191</ele>
        <time>2024-06-01T15:33:49+02:00</time>
      </trkpt>
      <trkpt lat="43.71394" lon="1.49042">
        <ele>191.10059</ele>
        <time>2024-06-01T15:33:53+02:00</time>
      </trkpt>
      <trkpt lat="43.714" lon="1.49049">
        <ele>191</ele>
        <time>2024-06-01T15:33:54+02:00</time>
      </trkpt>
      <trkpt lat="43.71422" lon="1.49079">
        <ele>190.60059</ele>
        <time>2024-06-01T15:33:58+02:00</time>
      </trkpt>
      <trkpt lat="43.71428" lon="1.49087">
        <ele>190.40039</ele>
        <time>2024-06-01T15:33:59+02:00</time>
      </trkpt>
      <trkpt lat="43.71452" lon="1.49119">
        <ele>188.90039</ele>
        <time>2024-06-01T15:34:03+02:00</time>
      </trkpt>
      <trkpt lat="43.71458" lon="1.49128">
        <ele>188.40039</ele>
        <time>2024-06-01T15:34:04+02:00</time>
      </trkpt>
      <trkpt lat="43.71483" lon="1.49165">
        <ele>186.60059</ele>
        <time>2024-06-01T15:34:08+02:00</time>
      </trkpt>
      <trkpt lat="43.71489" lon="1.49175">
        <ele>186.2998</ele>
        <time>2024-06-01T15:34:09+02:00</time>
      </trkpt>
      <trkpt lat="43.7151" lon="1.49216">
        <ele>185.7998</ele>
        <time>2024-06-01T15:34:13+02:00</time>
      </trkpt>
      <trkpt lat="43.71514" lon="1.49226">
        <ele>185.7998</ele>
        <time>2024-06-01T15:34:14+02:00</time>
      </trkpt>
      <trkpt lat="43.71531" lon="1.49265">
        <ele>186.10059</ele>
        <time>2024-06-01T15:34:18+02:00</time>
      </trkpt>
      <trkpt lat="43.71535" lon="1.49275">
        <ele>185.90039</ele>
        <time>2024-06-01T15:34:19+02:00</time>
      </trkpt>
      <trkpt lat="43.71551" lon="1.49314">
        <ele>184.10059</ele>
        <time>2024-06-01T15:34:23+02:00</time>
      </trkpt>
      <trkpt lat="43.71555" lon="1.49322">
        <ele>183.60059</ele>
        <time>2024-06-01T15:34:24+02:00</time>
      </trkpt>
      <trkpt lat="43.7157" lon="1.49354">
        <ele>180.90039</ele>
        <time>2024-06-01T15:34:28+02:00</time>
      </trkpt>
      <trkpt lat="43.71574" lon="1.49362">
        <ele>181.2002</ele>
        <time>2024-06-01T15:34:29+02:00</time>
      </trkpt>
      <trkpt lat="43.71588" lon="1.49392">
        <ele>178.7002</ele>
        <time>2024-06-01T15:34:33+02:00</time>
      </trkpt>
      <trkpt lat="43.71591" lon="1.494">
        <ele>178.2002</ele>
        <time>2024-06-01T15:34:34+02:00</time>
      </trkpt>
      <trkpt lat="43.71598" lon="1.49433">
        <ele>176</ele>
        <time>2024-06-01T15:34:38+02:00</time>
      </trkpt>
      <trkpt lat="43.71599" lon="1.49442">
        <ele>175.5</ele>
        <time>2024-06-01T15:34:39+02:00</time>
      </trkpt>
      <trkpt lat="43.71599" lon="1.49486">
        <ele>173.10059</ele>
        <time>2024-06-01T15:34:43+02:00</time>
      </trkpt>
      <trkpt lat="43.71599" lon="1.49498">
        <ele>172.7002</ele>
        <time>2024-06-01T15:34:44+02:00</time>
      </trkpt>
      <trkpt lat="43.71599" lon="1.49552">
        <ele>169.40039</ele>
        <time>2024-06-01T15:34:48+02:00</time>
      </trkpt>
      <trkpt lat="43.71598" lon="1.49567">
        <ele>168.7998</ele>
        <time>2024-06-01T15:34:49+02:00</time>
      </trkpt>
      <trkpt lat="43.71595" lon="1.49632">
        <ele>163.40039</ele>
        <time>2024-06-01T15:34:53+02:00</time>
      </trkpt>
      <trkpt lat="43.71595" lon="1.49649">
        <ele>162</ele>
        <time>2024-06-01T15:34:54+02:00</time>
      </trkpt>
      <trkpt lat="43.716" lon="1.49716">
        <ele>156.90039</ele>
        <time>2024-06-01T15:34:58+02:00</time>
      </trkpt>
      <trkpt lat="43.71604" lon="1.49731">
        <ele>156.40039</ele>
        <time>2024-06-01T15:34:59+02:00</time>
      </trkpt>
      <trkpt lat="43.71616" lon="1.4979">
        <ele>153</ele>
        <time>2024-06-01T15:35:03+02:00</time>
      </trkpt>
      <trkpt lat="43.71617" lon="1.49805">
        <ele>152.40039</ele>
        <time>2024-06-01T15:35:04+02:00</time>
      </trkpt>
      <trkpt lat="43.71625" lon="1.49859">
        <ele>150.90039</ele>
        <time>2024-06-01T15:35:08+02:00</time>
      </trkpt>
      <trkpt lat="43.71627" lon="1.49872">
        <ele>150.5</ele>
        <time>2024-06-01T15:35:09+02:00</time>
      </trkpt>
      <trkpt lat="43.71633" lon="1.49924">
        <ele>149.10059</ele>
        <time>2024-06-01T15:35:13+02:00</time>
      </trkpt>
      <trkpt lat="43.71634" lon="1.49936">
        <ele>149</ele>
        <time>2024-06-01T15:35:14+02:00</time>
      </trkpt>
      <trkpt lat="43.7164" lon="1.49984">
        <ele>148.2002</ele>
        <time>2024-06-01T15:35:18+02:00</time>
      </trkpt>
      <trkpt lat="43.71643" lon="1.49995">
        <ele>148.2002</ele>
        <time>2024-06-01T15:35:19+02:00</time>
      </trkpt>
      <trkpt lat="43.71665" lon="1.50027">
        <ele>148.2998</ele>
        <time>2024-06-01T15:35:23+02:00</time>
      </trkpt>
      <trkpt lat="43.71672" lon="1.50031">
        <ele>148.5</ele>
        <time>2024-06-01T15:35:24+02:00</time>
      </trkpt>
      <trkpt lat="43.71702" lon="1.50041">
        <ele>148.2998</ele>
        <time>2024-06-01T15:35:28+02:00</time>
      </trkpt>
      <trkpt lat="43.7171" lon="1.50044">
        <ele>148.2998</ele>
        <time>2024-06-01T15:35:29+02:00</time>
      </trkpt>
      <trkpt lat="43.71749" lon="1.50064">
        <ele>147.60059</ele>
        <time>2024-06-01T15:35:35+02:00</time>
      </trkpt>
      <trkpt lat="43.71776" lon="1.50094">
        <ele>146.60059</ele>
        <time>2024-06-01T15:35:40+02:00</time>
      </trkpt>
      <trkpt lat="43.7182" lon="1.50163">
        <ele>144.7998</ele>
        <time>2024-06-01T15:35:50+02:00</time>
      </trkpt>
      <trkpt lat="43.71843" lon="1.50196">
        <ele>144</ele>
        <time>2024-06-01T15:35:55+02:00</time>
      </trkpt>
      <trkpt lat="43.71874" lon="1.50241">
        <ele>142.5</ele>
        <time>2024-06-01T15:36:02+02:00</time>
      </trkpt>
      <trkpt lat="43.71884" lon="1.50254">
        <ele>142.10059</ele>
        <time>2024-06-01T15:36:04+02:00</time>
      </trkpt>
      <trkpt lat="43.71921" lon="1.50269">
        <ele>139.90039</ele>
        <time>2024-06-01T15:36:10+02:00</time>
      </trkpt>
      <trkpt lat="43.71934" lon="1.50269">
        <ele>139.40039</ele>
        <time>2024-06-01T15:36:12+02:00</time>
      </trkpt>
      <trkpt lat="43.71959" lon="1.50268">
        <ele>139.10059</ele>
        <time>2024-06-01T15:36:18+02:00</time>
      </trkpt>
      <trkpt lat="43.71959" lon="1.50276">
        <ele>138.7998</ele>
        <time>2024-06-01T15:36:20+02:00</time>
      </trkpt>
      <trkpt lat="43.71951" lon="1.50312">
        <ele>137.90039</ele>
        <time>2024-06-01T15:36:26+02:00</time>
      </trkpt>
      <trkpt lat="43.71948" lon="1.50328">
        <ele>137.7002</ele>
        <time>2024-06-01T15:36:28+02:00</time>
      </trkpt>
      <trkpt lat="43.71937" lon="1.5039">
        <ele>137.5</ele>
        <time>2024-06-01T15:36:36+02:00</time>
      </trkpt>
      <trkpt lat="43.71928" lon="1.50432">
        <ele>137.5</ele>
        <time>2024-06-01T15:36:41+02:00</time>
      </trkpt>
      <trkpt lat="43.71928" lon="1.50517">
        <ele>136.7002</ele>
        <time>2024-06-01T15:36:51+02:00</time>
      </trkpt>
      <trkpt lat="43.71945" lon="1.50554">
        <ele>135.90039</ele>
        <time>2024-06-01T15:36:56+02:00</time>
      </trkpt>
      <trkpt lat="43.71949" lon="1.50563">
        <ele>135.7998</ele>
        <time>2024-06-01T15:37:02+02:00</time>
      </trkpt>
      <trkpt lat="43.71949" lon="1.50562">
        <ele>135.7998</ele>
        <time>2024-06-01T15:37:06+02:00</time>
      </trkpt>
      <trkpt lat="43.71949" lon="1.50562">
        <ele>135.7998</ele>
        <time>2024-06-01T15:37:12+02:00</time>
      </trkpt>
      <trkpt lat="43.71949" lon="1.50562">
        <ele>135.7998</ele>
        <time>2024-06-01T15:37:13+02:00</time>
      </trkpt>
      <trkpt lat="43.71949" lon="1.50562">
        <ele>135.7998</ele>
        <time>2024-06-01T15:37:17+02:00</time>
      </trkpt>
      <trkpt lat="43.71949" lon="1.50562">
        <ele>135.7998</ele>
        <time>2024-06-01T15:37:18+02:00</time>
      </trkpt>
      <trkpt lat="43.71949" lon="1.50563">
        <ele>135.7998</ele>
        <time>2024-06-01T15:37:24+02:00</time>
      </trkpt>
      <trkpt lat="43.71949" lon="1.50563">
        <ele>135.7998</ele>
        <time>2024-06-01T15:37:25+02:00</time>
      </trkpt>
      <trkpt lat="43.71949" lon="1.50563">
        <ele>135.7998</ele>
        <time>2024-06-01T15:37:29+02:00</time>
      </trkpt>
      <trkpt lat="43.71949" lon="1.50563">
        <ele>135.7998</ele>
        <time>2024-06-01T15:37:30+02:00</time>
      </trkpt>
      <trkpt lat="43.71949" lon="1.50563">
        <ele>135.7998</ele>
        <time>2024-06-01T15:37:34+02:00</time>
      </trkpt>
      <trkpt lat="43.71949" lon="1.50563">
        <ele>135.7998</ele>
        <time>2024-06-01T15:37:35+02:00</time>
      </trkpt>
      <trkpt lat="43.71948" lon="1.50563">
        <ele>135.7998</ele>
        <time>2024-06-01T15:37:39+02:00</time>
      </trkpt>
      <trkpt lat="43.71948" lon="1.50563">
        <ele>135.7998</ele>
        <time>2024-06-01T15:37:40+02:00</time>
      </trkpt>
      <trkpt lat="43.71948" lon="1.50563">
        <ele>135.7998</ele>
        <time>2024-06-01T15:37:44+02:00</time>
      </trkpt>
      <trkpt lat="43.71948" lon="1.50563">
        <ele>135.7998</ele>
        <time>2024-06-01T15:37:45+02:00</time>
      </trkpt>
      <trkpt lat="43.71948" lon="1.50563">
        <ele>135.7998</ele>
        <time>2024-06-01T15:37:53+02:00</time>
      </trkpt>
      <trkpt lat="43.71948" lon="1.50563">
        <ele>135.7998</ele>
        <time>2024-06-01T15:37:54+02:00</time>
      </trkpt>
      <trkpt lat="43.71948" lon="1.50563">
        <ele>135.7998</ele>
        <time>2024-06-01T15:37:59+02:00</time>
      </trkpt>
      <trkpt lat="43.71948" lon="1.50563">
        <ele>135.7998</ele>
        <time>2024-06-01T15:38:00+02:00</time>
      </trkpt>
      <trkpt lat="43.71948" lon="1.50563">
        <ele>135.7998</ele>
        <time>2024-06-01T15:38:04+02:00</time>
      </trkpt>
      <trkpt lat="43.71948" lon="1.50563">
        <ele>135.7998</ele>
        <time>2024-06-01T15:38:05+02:00</time>
      </trkpt>
      <trkpt lat="43.71949" lon="1.50564">
        <ele>135.7998</ele>
        <time>2024-06-01T15:38:09+02:00</time>
      </trkpt>
      <trkpt lat="43.7195" lon="1.50565">
        <ele>135.7998</ele>
        <time>2024-06-01T15:38:10+02:00</time>
      </trkpt>
      <trkpt lat="43.71958" lon="1.50576">
        <ele>135.5</ele>
        <time>2024-06-01T15:38:14+02:00</time>
      </trkpt>
      <trkpt lat="43.7196" lon="1.5058">
        <ele>135.5</ele>
        <time>2024-06-01T15:38:15+02:00</time>
      </trkpt>
      <trkpt lat="43.71975" lon="1.506">
        <ele>135.40039</ele>
        <time>2024-06-01T15:38:19+02:00</time>
      </trkpt>
      <trkpt lat="43.7198" lon="1.50605">
        <ele>135.2998</ele>
        <time>2024-06-01T15:38:20+02:00</time>
      </trkpt>
      <trkpt lat="43.71998" lon="1.50625">
        <ele>135.10059</ele>
        <time>2024-06-01T15:38:24+02:00</time>
      </trkpt>
      <trkpt lat="43.72002" lon="1.5063">
        <ele>135</ele>
        <time>2024-06-01T15:38:25+02:00</time>
      </trkpt>
      <trkpt lat="43.72023" lon="1.50649">
        <ele>134.7998</ele>
        <time>2024-06-01T15:38:29+02:00</time>
      </trkpt>
      <trkpt lat="43.72028" lon="1.50654">
        <ele>134.7002</ele>
        <time>2024-06-01T15:38:30+02:00</time>
      </trkpt>
      <trkpt lat="43.72049" lon="1.50671">
        <ele>134.40039</ele>
        <time>2024-06-01T15:38:34+02:00</time>
      </trkpt>
      <trkpt lat="43.72055" lon="1.50675">
        <ele>134.40039</ele>
        <time>2024-06-01T15:38:35+02:00</time>
      </trkpt>
      <trkpt lat="43.72077" lon="1.50692">
        <ele>134.2002</ele>
        <time>2024-06-01T15:38:39+02:00</time>
      </trkpt>
      <trkpt lat="43.72083" lon="1.50697">
        <ele>134.10059</ele>
        <time>2024-06-01T15:38:40+02:00</time>
      </trkpt>
      <trkpt lat="43.72105" lon="1.50718">
        <ele>134.10059</ele>
        <time>2024-06-01T15:38:44+02:00</time>
      </trkpt>
      <trkpt lat="43.7211" lon="1.50723">
        <ele>134.10059</ele>
        <time>2024-06-01T15:38:45+02:00</time>
      </trkpt>
      <trkpt lat="43.7213" lon="1.50747">
        <ele>134.10059</ele>
        <time>2024-06-01T15:38:49+02:00</time>
      </trkpt>
      <trkpt lat="43.72134" lon="1.50754">
        <ele>134.10059</ele>
        <time>2024-06-01T15:38:50+02:00</time>
      </trkpt>
      <trkpt lat="43.72153" lon="1.50779">
        <ele>133.7002</ele>
        <time>2024-06-01T15:38:54+02:00</time>
      </trkpt>
      <trkpt lat="43.72157" lon="1.50785">
        <ele>133.60059</ele>
        <time>2024-06-01T15:38:55+02:00</time>
      </trkpt>
      <trkpt lat="43.72175" lon="1.5081">
        <ele>133</ele>
        <time>2024-06-01T15:38:59+02:00</time>
      </trkpt>
      <trkpt lat="43.7218" lon="1.50816">
        <ele>132.90039</ele>
        <time>2024-06-01T15:39:00+02:00</time>
      </trkpt>
      <trkpt lat="43.722" lon="1.50838">
        <ele>132.40039</ele>
        <time>2024-06-01T15:39:04+02:00</time>
      </trkpt>
      <trkpt lat="43.72205" lon="1.50844">
        <ele>132.2998</ele>
        <time>2024-06-01T15:39:05+02:00</time>
      </trkpt>
      <trkpt lat="43.72226" lon="1.50864">
        <ele>132.2002</ele>
        <time>2024-06-01T15:39:09+02:00</time>
      </trkpt>
      <trkpt lat="43.72231" lon="1.50868">
        <ele>132.2998</ele>
        <time>2024-06-01T15:39:10+02:00</time>
      </trkpt>
      <trkpt lat="43.72252" lon="1.50888">
        <ele>132.5</ele>
        <time>2024-06-01T15:39:14+02:00</time>
      </trkpt>
      <trkpt lat="43.72257" lon="1.50893">
        <ele>132.7002</ele>
        <time>2024-06-01T15:39:15+02:00</time>
      </trkpt>
      <trkpt lat="43.72278" lon="1.50914">
        <ele>132.90039</ele>
        <time>2024-06-01T15:39:19+02:00</time>
      </trkpt>
      <trkpt lat="43.72284" lon="1.5092">
        <ele>133</ele>
        <time>2024-06-01T15:39:20+02:00</time>
      </trkpt>
      <trkpt lat="43.72301" lon="1.50947">
        <ele>133.10059</ele>
        <time>2024-06-01T15:39:24+02:00</time>
      </trkpt>
      <trkpt lat="43.72304" lon="1.50955">
        <ele>133.10059</ele>
        <time>2024-06-01T15:39:25+02:00</time>
      </trkpt>
      <trkpt lat="43.72319" lon="1.50985">
        <ele>133.10059</ele>
        <time>2024-06-01T15:39:29+02:00</time>
      </trkpt>
      <trkpt lat="43.72322" lon="1.50993">
        <ele>133.10059</ele>
        <time>2024-06-01T15:39:30+02:00</time>
      </trkpt>
      <trkpt lat="43.72337" lon="1.51022">
        <ele>133.2998</ele>
        <time>2024-06-01T15:39:34+02:00</time>
      </trkpt>
      <trkpt lat="43.7234" lon="1.51029">
        <ele>133.40039</ele>
        <time>2024-06-01T15:39:35+02:00</time>
      </trkpt>
      <trkpt lat="43.72355" lon="1.51059">
        <ele>133.5</ele>
        <time>2024-06-01T15:39:39+02:00</time>
      </trkpt>
      <trkpt lat="43.72358" lon="1.51066">
        <ele>133.5</ele>
        <time>2024-06-01T15:39:40+02:00</time>
      </trkpt>
      <trkpt lat="43.72373" lon="1.51095">
        <ele>133.40039</ele>
        <time>2024-06-01T15:39:44+02:00</time>
      </trkpt>
      <trkpt lat="43.72376" lon="1.51103">
        <ele>133.40039</ele>
        <time>2024-06-01T15:39:45+02:00</time>
      </trkpt>
      <trkpt lat="43.7239" lon="1.51132">
        <ele>133.2002</ele>
        <time>2024-06-01T15:39:49+02:00</time>
      </trkpt>
      <trkpt lat="43.72394" lon="1.51138">
        <ele>133.2002</ele>
        <time>2024-06-01T15:39:50+02:00</time>
      </trkpt>
      <trkpt lat="43.72404" lon="1.51164">
        <ele>133.10059</ele>
        <time>2024-06-01T15:39:54+02:00</time>
      </trkpt>
      <trkpt lat="43.72407" lon="1.51171">
        <ele>133</ele>
        <time>2024-06-01T15:39:55+02:00</time>
      </trkpt>
      <trkpt lat="43.72421" lon="1.51199">
        <ele>132.7998</ele>
        <time>2024-06-01T15:39:59+02:00</time>
      </trkpt>
      <trkpt lat="43.72424" lon="1.51205">
        <ele>132.7002</ele>
        <time>2024-06-01T15:40:00+02:00</time>
      </trkpt>
      <trkpt lat="43.72437" lon="1.51229">
        <ele>132.5</ele>
        <time>2024-06-01T15:40:04+02:00</time>
      </trkpt>
      <trkpt lat="43.72439" lon="1.51235">
        <ele>132.40039</ele>
        <time>2024-06-01T15:40:05+02:00</time>
      </trkpt>
      <trkpt lat="43.72441" lon="1.51253">
        <ele>132.2002</ele>
        <time>2024-06-01T15:40:09+02:00</time>
      </trkpt>
      <trkpt lat="43.72444" lon="1.51256">
        <ele>132.2002</ele>
        <time>2024-06-01T15:40:10+02:00</time>
      </trkpt>
      <trkpt lat="43.72459" lon="1.51269">
        <ele>131.7998</ele>
        <time>2024-06-01T15:40:14+02:00</time>
      </trkpt>
      <trkpt lat="43.72463" lon="1.51274">
        <ele>131.7998</ele>
        <time>2024-06-01T15:40:15+02:00</time>
      </trkpt>
      <trkpt lat="43.72476" lon="1.51298">
        <ele>131.7998</ele>
        <time>2024-06-01T15:40:19+02:00</time>
      </trkpt>
      <trkpt lat="43.7248" lon="1.51304">
        <ele>131.90039</ele>
        <time>2024-06-01T15:40:20+02:00</time>
      </trkpt>
      <trkpt lat="43.72496" lon="1.51331">
        <ele>132</ele>
        <time>2024-06-01T15:40:24+02:00</time>
      </trkpt>
      <trkpt lat="43.725" lon="1.51338">
        <ele>132</ele>
        <time>2024-06-01T15:40:25+02:00</time>
      </trkpt>
      <trkpt lat="43.72517" lon="1.51369">
        <ele>131.90039</ele>
        <time>2024-06-01T15:40:29+02:00</time>
      </trkpt>
      <trkpt lat="43.72521" lon="1.51377">
        <ele>132</ele>
        <time>2024-06-01T15:40:30+02:00</time>
      </trkpt>
      <trkpt lat="43.72525" lon="1.51394">
        <ele>131.90039</ele>
        <time>2024-06-01T15:40:32+02:00</time>
      </trkpt>
      <trkpt lat="43.72517" lon="1.5141">
        <ele>131.7998</ele>
        <time>2024-06-01T15:40:34+02:00</time>
      </trkpt>
      <trkpt lat="43.7251" lon="1.51416">
        <ele>131.7002</ele>
        <time>2024-06-01T15:40:35+02:00</time>
      </trkpt>
      <trkpt lat="43.72494" lon="1.51447">
        <ele>131.7998</ele>
        <time>2024-06-01T15:40:39+02:00</time>
      </trkpt>
      <trkpt lat="43.72492" lon="1.51455">
        <ele>131.7998</ele>
        <time>2024-06-01T15:40:40+02:00</time>
      </trkpt>
      <trkpt lat="43.72484" lon="1.51489">
        <ele>132.2002</ele>
        <time>2024-06-01T15:40:44+02:00</time>
      </trkpt>
      <trkpt lat="43.72482" lon="1.51498">
        <ele>132.2998</ele>
        <time>2024-06-01T15:40:45+02:00</time>
      </trkpt>
      <trkpt lat="43.72474" lon="1.51528">
        <ele>132.2998</ele>
        <time>2024-06-01T15:40:49+02:00</time>
      </trkpt>
      <trkpt lat="43.72471" lon="1.51536">
        <ele>132.2998</ele>
        <time>2024-06-01T15:40:50+02:00</time>
      </trkpt>
      <trkpt lat="43.72459" lon="1.51567">
        <ele>132.2998</ele>
        <time>2024-06-01T15:40:54+02:00</time>
      </trkpt>
      <trkpt lat="43.72455" lon="1.51574">
        <ele>132.2998</ele>
        <time>2024-06-01T15:40:55+02:00</time>
      </trkpt>
      <trkpt lat="43.72442" lon="1.51605">
        <ele>132.60059</ele>
        <time>2024-06-01T15:40:59+02:00</time>
      </trkpt>
      <trkpt lat="43.7244" lon="1.51613">
        <ele>132.7002</ele>
        <time>2024-06-01T15:41:00+02:00</time>
      </trkpt>
      <trkpt lat="43.72437" lon="1.51648">
        <ele>133.10059</ele>
        <time>2024-06-01T15:41:04+02:00</time>
      </trkpt>
      <trkpt lat="43.72437" lon="1.51657">
        <ele>133.2002</ele>
        <time>2024-06-01T15:41:05+02:00</time>
      </trkpt>
      <trkpt lat="43.72438" lon="1.51692">
        <ele>133.5</ele>
        <time>2024-06-01T15:41:09+02:00</time>
      </trkpt>
      <trkpt lat="43.72438" lon="1.51701">
        <ele>133.60059</ele>
        <time>2024-06-01T15:41:10+02:00</time>
      </trkpt>
      <trkpt lat="43.7244" lon="1.51737">
        <ele>133.90039</ele>
        <time>2024-06-01T15:41:14+02:00</time>
      </trkpt>
      <trkpt lat="43.7244" lon="1.51746">
        <ele>134</ele>
        <time>2024-06-01T15:41:15+02:00</time>
      </trkpt>
      <trkpt lat="43.7244" lon="1.51782">
        <ele>134.40039</ele>
        <time>2024-06-01T15:41:19+02:00</time>
      </trkpt>
      <trkpt lat="43.72442" lon="1.51789">
        <ele>134.7002</ele>
        <time>2024-06-01T15:41:20+02:00</time>
      </trkpt>
      <trkpt lat="43.72461" lon="1.51808">
        <ele>135.2998</ele>
        <time>2024-06-01T15:41:24+02:00</time>
      </trkpt>
      <trkpt lat="43.72466" lon="1.5181">
        <ele>135.60059</ele>
        <time>2024-06-01T15:41:25+02:00</time>
      </trkpt>
      <trkpt lat="43.72483" lon="1.51824">
        <ele>136</ele>
        <time>2024-06-01T15:41:29+02:00</time>
      </trkpt>
      <trkpt lat="43.72486" lon="1.51828">
        <ele>136.2002</ele>
        <time>2024-06-01T15:41:30+02:00</time>
      </trkpt>
      <trkpt lat="43.72501" lon="1.51841">
        <ele>136.5</ele>
        <time>2024-06-01T15:41:34+02:00</time>
      </trkpt>
      <trkpt lat="43.72505" lon="1.51844">
        <ele>136.7002</ele>
        <time>2024-06-01T15:41:35+02:00</time>
      </trkpt>
      <trkpt lat="43.7252" lon="1.51856">
        <ele>137</ele>
        <time>2024-06-01T15:41:39+02:00</time>
      </trkpt>
      <trkpt lat="43.72524" lon="1.51859">
        <ele>137.10059</ele>
        <time>2024-06-01T15:41:40+02:00</time>
      </trkpt>
      <trkpt lat="43.72538" lon="1.51872">
        <ele>137.40039</ele>
        <time>2024-06-01T15:41:44+02:00</time>
      </trkpt>
      <trkpt lat="43.72542" lon="1.51875">
        <ele>137.5</ele>
        <time>2024-06-01T15:41:45+02:00</time>
      </trkpt>
      <trkpt lat="43.72556" lon="1.51889">
        <ele>137.90039</ele>
        <time>2024-06-01T15:41:49+02:00</time>
      </trkpt>
      <trkpt lat="43.72559" lon="1.51893">
        <ele>138.10059</ele>
        <time>2024-06-01T15:41:50+02:00</time>
      </trkpt>
      <trkpt lat="43.72571" lon="1.51907">
        <ele>138.5</ele>
        <time>2024-06-01T15:41:54+02:00</time>
      </trkpt>
      <trkpt lat="43.72573" lon="1.5191">
        <ele>138.7002</ele>
        <time>2024-06-01T15:41:55+02:00</time>
      </trkpt>
      <trkpt lat="43.72584" lon="1.51925">
        <ele>139.5</ele>
        <time>2024-06-01T15:41:59+02:00</time>
      </trkpt>
      <trkpt lat="43.72587" lon="1.51929">
        <ele>139.60059</ele>
        <time>2024-06-01T15:42:00+02:00</time>
      </trkpt>
      <trkpt lat="43.72596" lon="1.51944">
        <ele>140.2998</ele>
        <time>2024-06-01T15:42:04+02:00</time>
      </trkpt>
      <trkpt lat="43.72599" lon="1.51948">
        <ele>140.5</ele>
        <time>2024-06-01T15:42:05+02:00</time>
      </trkpt>
      <trkpt lat="43.72608" lon="1.51964">
        <ele>141.40039</ele>
        <time>2024-06-01T15:42:09+02:00</time>
      </trkpt>
      <trkpt lat="43.72611" lon="1.51968">
        <ele>141.40039</ele>
        <time>2024-06-01T15:42:10+02:00</time>
      </trkpt>
      <trkpt lat="43.72621" lon="1.51983">
        <ele>142.2002</ele>
        <time>2024-06-01T15:42:14+02:00</time>
      </trkpt>
      <trkpt lat="43.72623" lon="1.51987">
        <ele>142.2002</ele>
        <time>2024-06-01T15:42:15+02:00</time>
      </trkpt>
      <trkpt lat="43.72634" lon="1.52002">
        <ele>143</ele>
        <time>2024-06-01T15:42:19+02:00</time>
      </trkpt>
      <trkpt lat="43.72636" lon="1.52005">
        <ele>143</ele>
        <time>2024-06-01T15:42:20+02:00</time>
      </trkpt>
      <trkpt lat="43.72647" lon="1.52019">
        <ele>143.7002</ele>
        <time>2024-06-01T15:42:24+02:00</time>
      </trkpt>
      <trkpt lat="43.7265" lon="1.52023">
        <ele>143.7002</ele>
        <time>2024-06-01T15:42:25+02:00</time>
      </trkpt>
      <trkpt lat="43.72661" lon="1.52037">
        <ele>144.2002</ele>
        <time>2024-06-01T15:42:29+02:00</time>
      </trkpt>
      <trkpt lat="43.72664" lon="1.5204">
        <ele>144.2002</ele>
        <time>2024-06-01T15:42:30+02:00</time>
      </trkpt>
      <trkpt lat="43.72675" lon="1.52053">
        <ele>144.40039</ele>
        <time>2024-06-01T15:42:34+02:00</time>
      </trkpt>
      <trkpt lat="43.72678" lon="1.52056">
        <ele>144.7002</ele>
        <time>2024-06-01T15:42:35+02:00</time>
      </trkpt>
      <trkpt lat="43.7269" lon="1.52069">
        <ele>144.60059</ele>
        <time>2024-06-01T15:42:39+02:00</time>
      </trkpt>
      <trkpt lat="43.72693" lon="1.52073">
        <ele>144.60059</ele>
        <time>2024-06-01T15:42:40+02:00</time>
      </trkpt>
      <trkpt lat="43.72704" lon="1.52085">
        <ele>144.2002</ele>
        <time>2024-06-01T15:42:44+02:00</time>
      </trkpt>
      <trkpt lat="43.72707" lon="1.52088">
        <ele>144.5</ele>
        <time>2024-06-01T15:42:45+02:00</time>
      </trkpt>
      <trkpt lat="43.72719" lon="1.521">
        <ele>144.2002</ele>
        <time>2024-06-01T15:42:49+02:00</time>
      </trkpt>
      <trkpt lat="43.72721" lon="1.52103">
        <ele>144</ele>
        <time>2024-06-01T15:42:50+02:00</time>
      </trkpt>
      <trkpt lat="43.72731" lon="1.52113">
        <ele>143.7998</ele>
        <time>2024-06-01T15:42:54+02:00</time>
      </trkpt>
      <trkpt lat="43.72733" lon="1.52114">
        <ele>144</ele>
        <time>2024-06-01T15:42:55+02:00</time>
      </trkpt>
      <trkpt lat="43.72732" lon="1.52113">
        <ele>143.7998</ele>
        <time>2024-06-01T15:42:59+02:00</time>
      </trkpt>
      <trkpt lat="43.72732" lon="1.52113">
        <ele>143.7998</ele>
        <time>2024-06-01T15:43:00+02:00</time>
      </trkpt>
      <trkpt lat="43.72732" lon="1.52113">
        <ele>143.7998</ele>
        <time>2024-06-01T15:43:04+02:00</time>
      </trkpt>
      <trkpt lat="43.72732" lon="1.52113">
        <ele>143.7998</ele>
        <time>2024-06-01T15:43:05+02:00</time>
      </trkpt>
      <trkpt lat="43.72732" lon="1.52113">
        <ele>143.7998</ele>
        <time>2024-06-01T15:43:09+02:00</time>
      </trkpt>
      <trkpt lat="43.72732" lon="1.52113">
        <ele>143.7998</ele>
        <time>2024-06-01T15:43:10+02:00</time>
      </trkpt>
      <trkpt lat="43.72732" lon="1.52113">
        <ele>143.7998</ele>
        <time>2024-06-01T15:43:14+02:00</time>
      </trkpt>
      <trkpt lat="43.72732" lon="1.52113">
        <ele>143.7998</ele>
        <time>2024-06-01T15:43:15+02:00</time>
      </trkpt>
      <trkpt lat="43.72732" lon="1.52113">
        <ele>143.7998</ele>
        <time>2024-06-01T15:43:19+02:00</time>
      </trkpt>
      <trkpt lat="43.72732" lon="1.52113">
        <ele>143.7998</ele>
        <time>2024-06-01T15:43:20+02:00</time>
      </trkpt>
      <trkpt lat="43.72732" lon="1.52113">
        <ele>143.7998</ele>
        <time>2024-06-01T15:43:24+02:00</time>
      </trkpt>
      <trkpt lat="43.72732" lon="1.52113">
        <ele>143.7998</ele>
        <time>2024-06-01T15:43:25+02:00</time>
      </trkpt>
      <trkpt lat="43.72732" lon="1.52113">
        <ele>143.7998</ele>
        <time>2024-06-01T15:43:29+02:00</time>
      </trkpt>
      <trkpt lat="43.72732" lon="1.52113">
        <ele>143.7998</ele>
        <time>2024-06-01T15:43:30+02:00</time>
      </trkpt>
      <trkpt lat="43.72735" lon="1.52117">
        <ele>144</ele>
        <time>2024-06-01T15:43:34+02:00</time>
      </trkpt>
      <trkpt lat="43.72737" lon="1.52118">
        <ele>143.60059</ele>
        <time>2024-06-01T15:43:35+02:00</time>
      </trkpt>
      <trkpt lat="43.72747" lon="1.52129">
        <ele>143.60059</ele>
        <time>2024-06-01T15:43:39+02:00</time>
      </trkpt>
      <trkpt lat="43.72751" lon="1.52133">
        <ele>143.60059</ele>
        <time>2024-06-01T15:43:40+02:00</time>
      </trkpt>
      <trkpt lat="43.72766" lon="1.52151">
        <ele>143.2998</ele>
        <time>2024-06-01T15:43:44+02:00</time>
      </trkpt>
      <trkpt lat="43.7277" lon="1.52156">
        <ele>143</ele>
        <time>2024-06-01T15:43:45+02:00</time>
      </trkpt>
      <trkpt lat="43.72786" lon="1.52184">
        <ele>142.10059</ele>
        <time>2024-06-01T15:43:49+02:00</time>
      </trkpt>
      <trkpt lat="43.72789" lon="1.52192">
        <ele>141.90039</ele>
        <time>2024-06-01T15:43:50+02:00</time>
      </trkpt>
      <trkpt lat="43.72805" lon="1.5222">
        <ele>141.10059</ele>
        <time>2024-06-01T15:43:54+02:00</time>
      </trkpt>
      <trkpt lat="43.7281" lon="1.52225">
        <ele>141.10059</ele>
        <time>2024-06-01T15:43:55+02:00</time>
      </trkpt>
      <trkpt lat="43.72833" lon="1.52239">
        <ele>141.2998</ele>
        <time>2024-06-01T15:43:59+02:00</time>
      </trkpt>
      <trkpt lat="43.72838" lon="1.52242">
        <ele>141.40039</ele>
        <time>2024-06-01T15:44:00+02:00</time>
      </trkpt>
      <trkpt lat="43.72856" lon="1.52253">
        <ele>141.5</ele>
        <time>2024-06-01T15:44:04+02:00</time>
      </trkpt>
      <trkpt lat="43.72859" lon="1.52255">
        <ele>141.60059</ele>
        <time>2024-06-01T15:44:05+02:00</time>
      </trkpt>
      <trkpt lat="43.72871" lon="1.5226">
        <ele>141.7998</ele>
        <time>2024-06-01T15:44:09+02:00</time>
      </trkpt>
      <trkpt lat="43.72875" lon="1.5226">
        <ele>141.7998</ele>
        <time>2024-06-01T15:44:10+02:00</time>
      </trkpt>
      <trkpt lat="43.72886" lon="1.52258">
        <ele>141.7998</ele>
        <time>2024-06-01T15:44:14+02:00</time>
      </trkpt>
      <trkpt lat="43.72887" lon="1.52259">
        <ele>141.90039</ele>
        <time>2024-06-01T15:44:15+02:00</time>
      </trkpt>
      <trkpt lat="43.72893" lon="1.52259">
        <ele>141.90039</ele>
        <time>2024-06-01T15:44:19+02:00</time>
      </trkpt>
      <trkpt lat="43.72895" lon="1.5226">
        <ele>141.90039</ele>
        <time>2024-06-01T15:44:20+02:00</time>
      </trkpt>
      <trkpt lat="43.72902" lon="1.52259">
        <ele>141.90039</ele>
        <time>2024-06-01T15:44:24+02:00</time>
      </trkpt>
      <trkpt lat="43.72904" lon="1.52259">
        <ele>141.90039</ele>
        <time>2024-06-01T15:44:25+02:00</time>
      </trkpt>
      <trkpt lat="43.72911" lon="1.52257">
        <ele>142</ele>
        <time>2024-06-01T15:44:29+02:00</time>
      </trkpt>
      <trkpt lat="43.72913" lon="1.52257">
        <ele>142.10059</ele>
        <time>2024-06-01T15:44:30+02:00</time>
      </trkpt>
      <trkpt lat="43.72921" lon="1.52255">
        <ele>142.2998</ele>
        <time>2024-06-01T15:44:34+02:00</time>
      </trkpt>
      <trkpt lat="43.72923" lon="1.52255">
        <ele>142.2998</ele>
        <time>2024-06-01T15:44:35+02:00</time>
      </trkpt>
      <trkpt lat="43.7293" lon="1.52253">
        <ele>142.2002</ele>
        <time>2024-06-01T15:44:39+02:00</time>
      </trkpt>
      <trkpt lat="43.72932" lon="1.52253">
        <ele>142.2002</ele>
        <time>2024-06-01T15:44:40+02:00</time>
      </trkpt>
      <trkpt lat="43.7294" lon="1.5225">
        <ele>142.10059</ele>
        <time>2024-06-01T15:44:44+02:00</time>
      </trkpt>
      <trkpt lat="43.72942" lon="1.52249">
        <ele>142.10059</ele>
        <time>2024-06-01T15:44:45+02:00</time>
      </trkpt>
      <trkpt lat="43.7295" lon="1.52248">
        <ele>142.2002</ele>
        <time>2024-06-01T15:44:49+02:00</time>
      </trkpt>
      <trkpt lat="43.72952" lon="1.52248">
        <ele>142.2002</ele>
        <time>2024-06-01T15:44:50+02:00</time>
      </trkpt>
      <trkpt lat="43.7296" lon="1.52245">
        <ele>142.40039</ele>
        <time>2024-06-01T15:44:54+02:00</time>
      </trkpt>
      <trkpt lat="43.72962" lon="1.52245">
        <ele>142.40039</ele>
        <time>2024-06-01T15:44:55+02:00</time>
      </trkpt>
      <trkpt lat="43.72969" lon="1.52242">
        <ele>142.5</ele>
        <time>2024-06-01T15:44:59+02:00</time>
      </trkpt>
      <trkpt lat="43.72971" lon="1.52241">
        <ele>142.5</ele>
        <time>2024-06-01T15:45:00+02:00</time>
      </trkpt>
      <trkpt lat="43.72979" lon="1.52236">
        <ele>142.7002</ele>
        <time>2024-06-01T15:45:04+02:00</time>
      </trkpt>
      <trkpt lat="43.72981" lon="1.52235">
        <ele>142.7002</ele>
        <time>2024-06-01T15:45:05+02:00</time>
      </trkpt>
      <trkpt lat="43.72991" lon="1.5223">
        <ele>142.7002</ele>
        <time>2024-06-01T15:45:09+02:00</time>
      </trkpt>
      <trkpt lat="43.72994" lon="1.52229">
        <ele>143</ele>
        <time>2024-06-01T15:45:10+02:00</time>
      </trkpt>
      <trkpt lat="43.73005" lon="1.52228">
        <ele>143.2002</ele>
        <time>2024-06-01T15:45:14+02:00</time>
      </trkpt>
      <trkpt lat="43.73008" lon="1.52229">
        <ele>143.2002</ele>
        <time>2024-06-01T15:45:15+02:00</time>
      </trkpt>
      <trkpt lat="43.73019" lon="1.52235">
        <ele>143.2002</ele>
        <time>2024-06-01T15:45:19+02:00</time>
      </trkpt>
      <trkpt lat="43.73022" lon="1.52237">
        <ele>143.2002</ele>
        <time>2024-06-01T15:45:20+02:00</time>
      </trkpt>
      <trkpt lat="43.73034" lon="1.5225">
        <ele>143.2002</ele>
        <time>2024-06-01T15:45:24+02:00</time>
      </trkpt>
      <trkpt lat="43.73037" lon="1.52254">
        <ele>143.40039</ele>
        <time>2024-06-01T15:45:25+02:00</time>
      </trkpt>
      <trkpt lat="43.73049" lon="1.52269">
        <ele>143.7998</ele>
        <time>2024-06-01T15:45:29+02:00</time>
      </trkpt>
      <trkpt lat="43.73052" lon="1.52273">
        <ele>143.7998</ele>
        <time>2024-06-01T15:45:30+02:00</time>
      </trkpt>
      <trkpt lat="43.73065" lon="1.52289">
        <ele>144</ele>
        <time>2024-06-01T15:45:34+02:00</time>
      </trkpt>
      <trkpt lat="43.73068" lon="1.52293">
        <ele>144.10059</ele>
        <time>2024-06-01T15:45:35+02:00</time>
      </trkpt>
      <trkpt lat="43.73079" lon="1.52313">
        <ele>144.2002</ele>
        <time>2024-06-01T15:45:39+02:00</time>
      </trkpt>
      <trkpt lat="43.73082" lon="1.52317">
        <ele>144.2998</ele>
        <time>2024-06-01T15:45:40+02:00</time>
      </trkpt>
      <trkpt lat="43.73095" lon="1.52333">
        <ele>144.5</ele>
        <time>2024-06-01T15:45:44+02:00</time>
      </trkpt>
      <trkpt lat="43.73099" lon="1.52337">
        <ele>144.40039</ele>
        <time>2024-06-01T15:45:45+02:00</time>
      </trkpt>
      <trkpt lat="43.73111" lon="1.52353">
        <ele>144.40039</ele>
        <time>2024-06-01T15:45:49+02:00</time>
      </trkpt>
      <trkpt lat="43.73115" lon="1.52356">
        <ele>144.40039</ele>
        <time>2024-06-01T15:45:50+02:00</time>
      </trkpt>
      <trkpt lat="43.73129" lon="1.52373">
        <ele>144.10059</ele>
        <time>2024-06-01T15:45:54+02:00</time>
      </trkpt>
      <trkpt lat="43.73133" lon="1.52377">
        <ele>144</ele>
        <time>2024-06-01T15:45:55+02:00</time>
      </trkpt>
      <trkpt lat="43.73149" lon="1.52394">
        <ele>143.7998</ele>
        <time>2024-06-01T15:45:59+02:00</time>
      </trkpt>
      <trkpt lat="43.73153" lon="1.52399">
        <ele>143.7998</ele>
        <time>2024-06-01T15:46:00+02:00</time>
      </trkpt>
      <trkpt lat="43.7317" lon="1.52418">
        <ele>143.7998</ele>
        <time>2024-06-01T15:46:04+02:00</time>
      </trkpt>
      <trkpt lat="43.73174" lon="1.52422">
        <ele>143.7998</ele>
        <time>2024-06-01T15:46:05+02:00</time>
      </trkpt>
      <trkpt lat="43.73188" lon="1.52444">
        <ele>144.10059</ele>
        <time>2024-06-01T15:46:09+02:00</time>
      </trkpt>
      <trkpt lat="43.73192" lon="1.5245">
        <ele>144.2998</ele>
        <time>2024-06-01T15:46:10+02:00</time>
      </trkpt>
      <trkpt lat="43.73205" lon="1.52473">
        <ele>144.60059</ele>
        <time>2024-06-01T15:46:14+02:00</time>
      </trkpt>
      <trkpt lat="43.73208" lon="1.52479">
        <ele>144.7002</ele>
        <time>2024-06-01T15:46:15+02:00</time>
      </trkpt>
      <trkpt lat="43.7322" lon="1.52501">
        <ele>145.10059</ele>
        <time>2024-06-01T15:46:19+02:00</time>
      </trkpt>
      <trkpt lat="43.73223" lon="1.52506">
        <ele>145.2998</ele>
        <time>2024-06-01T15:46:20+02:00</time>
      </trkpt>
      <trkpt lat="43.73232" lon="1.52531">
        <ele>145.5</ele>
        <time>2024-06-01T15:46:24+02:00</time>
      </trkpt>
      <trkpt lat="43.73235" lon="1.52538">
        <ele>145.7002</ele>
        <time>2024-06-01T15:46:25+02:00</time>
      </trkpt>
      <trkpt lat="43.73248" lon="1.52565">
        <ele>146.10059</ele>
        <time>2024-06-01T15:46:29+02:00</time>
      </trkpt>
      <trkpt lat="43.7325" lon="1.52572">
        <ele>146.10059</ele>
        <time>2024-06-01T15:46:30+02:00</time>
      </trkpt>
      <trkpt lat="43.73262" lon="1.52599">
        <ele>146.10059</ele>
        <time>2024-06-01T15:46:34+02:00</time>
      </trkpt>
      <trkpt lat="43.73265" lon="1.52606">
        <ele>146.10059</ele>
        <time>2024-06-01T15:46:35+02:00</time>
      </trkpt>
      <trkpt lat="43.73276" lon="1.52634">
        <ele>146.2998</ele>
        <time>2024-06-01T15:46:39+02:00</time>
      </trkpt>
      <trkpt lat="43.73278" lon="1.52641">
        <ele>146.7002</ele>
        <time>2024-06-01T15:46:40+02:00</time>
      </trkpt>
      <trkpt lat="43.73288" lon="1.52668">
        <ele>145.90039</ele>
        <time>2024-06-01T15:46:44+02:00</time>
      </trkpt>
      <trkpt lat="43.73291" lon="1.52675">
        <ele>146.40039</ele>
        <time>2024-06-01T15:46:45+02:00</time>
      </trkpt>
      <trkpt lat="43.73303" lon="1.52703">
        <ele>145.5</ele>
        <time>2024-06-01T15:46:49+02:00</time>
      </trkpt>
      <trkpt lat="43.73306" lon="1.5271">
        <ele>146</ele>
        <time>2024-06-01T15:46:50+02:00</time>
      </trkpt>
      <trkpt lat="43.73318" lon="1.52736">
        <ele>145.40039</ele>
        <time>2024-06-01T15:46:54+02:00</time>
      </trkpt>
      <trkpt lat="43.73321" lon="1.52743">
        <ele>145.90039</ele>
        <time>2024-06-01T15:46:55+02:00</time>
      </trkpt>
      <trkpt lat="43.73334" lon="1.52769">
        <ele>145.7002</ele>
        <time>2024-06-01T15:46:59+02:00</time>
      </trkpt>
      <trkpt lat="43.73337" lon="1.52776">
        <ele>145.2998</ele>
        <time>2024-06-01T15:47:00+02:00</time>
      </trkpt>
      <trkpt lat="43.73345" lon="1.52805">
        <ele>144.2998</ele>
        <time>2024-06-01T15:47:04+02:00</time>
      </trkpt>
      <trkpt lat="43.73347" lon="1.52812">
        <ele>144.7998</ele>
        <time>2024-06-01T15:47:05+02:00</time>
      </trkpt>
      <trkpt lat="43.73356" lon="1.5284">
        <ele>144.2998</ele>
        <time>2024-06-01T15:47:09+02:00</time>
      </trkpt>
      <trkpt lat="43.7336" lon="1.52845">
        <ele>144.60059</ele>
        <time>2024-06-01T15:47:10+02:00</time>
      </trkpt>
      <trkpt lat="43.73381" lon="1.52861">
        <ele>145.7998</ele>
        <time>2024-06-01T15:47:14+02:00</time>
      </trkpt>
      <trkpt lat="43.73385" lon="1.52865">
        <ele>146.2002</ele>
        <time>2024-06-01T15:47:15+02:00</time>
      </trkpt>
      <trkpt lat="43.73401" lon="1.52887">
        <ele>146.7002</ele>
        <time>2024-06-01T15:47:19+02:00</time>
      </trkpt>
      <trkpt lat="43.73404" lon="1.52894">
        <ele>146.7998</ele>
        <time>2024-06-01T15:47:20+02:00</time>
      </trkpt>
      <trkpt lat="43.73415" lon="1.52921">
        <ele>146.2002</ele>
        <time>2024-06-01T15:47:24+02:00</time>
      </trkpt>
      <trkpt lat="43.73418" lon="1.52928">
        <ele>145.7998</ele>
        <time>2024-06-01T15:47:25+02:00</time>
      </trkpt>
      <trkpt lat="43.73435" lon="1.52949">
        <ele>145.40039</ele>
        <time>2024-06-01T15:47:29+02:00</time>
      </trkpt>
      <trkpt lat="43.7344" lon="1.52953">
        <ele>144.90039</ele>
        <time>2024-06-01T15:47:30+02:00</time>
      </trkpt>
      <trkpt lat="43.73463" lon="1.52961">
        <ele>144.90039</ele>
        <time>2024-06-01T15:47:34+02:00</time>
      </trkpt>
      <trkpt lat="43.73469" lon="1.52962">
        <ele>145</ele>
        <time>2024-06-01T15:47:35+02:00</time>
      </trkpt>
      <trkpt lat="43.7349" lon="1.52967">
        <ele>146</ele>
        <time>2024-06-01T15:47:39+02:00</time>
      </trkpt>
      <trkpt lat="43.73495" lon="1.52968">
        <ele>147</ele>
        <time>2024-06-01T15:47:40+02:00</time>
      </trkpt>
      <trkpt lat="43.73516" lon="1.52972">
        <ele>148.10059</ele>
        <time>2024-06-01T15:47:44+02:00</time>
      </trkpt>
      <trkpt lat="43.7352" lon="1.52973">
        <ele>148.60059</ele>
        <time>2024-06-01T15:47:45+02:00</time>
      </trkpt>
      <trkpt lat="43.73529" lon="1.52976">
        <ele>149.2002</ele>
        <time>2024-06-01T15:47:49+02:00</time>
      </trkpt>
      <trkpt lat="43.73531" lon="1.52977">
        <ele>149.2002</ele>
        <time>2024-06-01T15:47:50+02:00</time>
      </trkpt>
      <trkpt lat="43.7354" lon="1.52977">
        <ele>149.7998</ele>
        <time>2024-06-01T15:47:54+02:00</time>
      </trkpt>
      <trkpt lat="43.73542" lon="1.52976">
        <ele>149.7998</ele>
        <time>2024-06-01T15:47:55+02:00</time>
      </trkpt>
      <trkpt lat="43.73551" lon="1.52977">
        <ele>150.40039</ele>
        <time>2024-06-01T15:47:59+02:00</time>
      </trkpt>
      <trkpt lat="43.73554" lon="1.52976">
        <ele>150.40039</ele>
        <time>2024-06-01T15:48:00+02:00</time>
      </trkpt>
      <trkpt lat="43.73568" lon="1.52976">
        <ele>151</ele>
        <time>2024-06-01T15:48:04+02:00</time>
      </trkpt>
      <trkpt lat="43.73571" lon="1.52977">
        <ele>151.10059</ele>
        <time>2024-06-01T15:48:05+02:00</time>
      </trkpt>
      <trkpt lat="43.73585" lon="1.5298">
        <ele>151.40039</ele>
        <time>2024-06-01T15:48:09+02:00</time>
      </trkpt>
      <trkpt lat="43.73589" lon="1.52981">
        <ele>151.5</ele>
        <time>2024-06-01T15:48:10+02:00</time>
      </trkpt>
      <trkpt lat="43.73601" lon="1.52981">
        <ele>151.5</ele>
        <time>2024-06-01T15:48:14+02:00</time>
      </trkpt>
      <trkpt lat="43.73602" lon="1.52981">
        <ele>151.5</ele>
        <time>2024-06-01T15:48:15+02:00</time>
      </trkpt>
      <trkpt lat="43.73608" lon="1.52983">
        <ele>151.5</ele>
        <time>2024-06-01T15:48:19+02:00</time>
      </trkpt>
      <trkpt lat="43.73609" lon="1.52983">
        <ele>151.5</ele>
        <time>2024-06-01T15:48:20+02:00</time>
      </trkpt>
      <trkpt lat="43.73617" lon="1.52984">
        <ele>151.5</ele>
        <time>2024-06-01T15:48:24+02:00</time>
      </trkpt>
      <trkpt lat="43.73619" lon="1.52985">
        <ele>151.5</ele>
        <time>2024-06-01T15:48:25+02:00</time>
      </trkpt>
      <trkpt lat="43.73628" lon="1.52986">
        <ele>151.40039</ele>
        <time>2024-06-01T15:48:29+02:00</time>
      </trkpt>
      <trkpt lat="43.7363" lon="1.52986">
        <ele>151.40039</ele>
        <time>2024-06-01T15:48:30+02:00</time>
      </trkpt>
      <trkpt lat="43.73644" lon="1.5299">
        <ele>151.7002</ele>
        <time>2024-06-01T15:48:34+02:00</time>
      </trkpt>
      <trkpt lat="43.73648" lon="1.52991">
        <ele>151.7002</ele>
        <time>2024-06-01T15:48:35+02:00</time>
      </trkpt>
      <trkpt lat="43.73661" lon="1.52997">
        <ele>152.2998</ele>
        <time>2024-06-01T15:48:39+02:00</time>
      </trkpt>
      <trkpt lat="43.73665" lon="1.52999">
        <ele>152.60059</ele>
        <time>2024-06-01T15:48:40+02:00</time>
      </trkpt>
      <trkpt lat="43.73678" lon="1.53003">
        <ele>153</ele>
        <time>2024-06-01T15:48:44+02:00</time>
      </trkpt>
      <trkpt lat="43.7368" lon="1.53004">
        <ele>153</ele>
        <time>2024-06-01T15:48:45+02:00</time>
      </trkpt>
      <trkpt lat="43.73689" lon="1.53006">
        <ele>153.7998</ele>
        <time>2024-06-01T15:48:49+02:00</time>
      </trkpt>
      <trkpt lat="43.73691" lon="1.53007">
        <ele>153.7998</ele>
        <time>2024-06-01T15:48:50+02:00</time>
      </trkpt>
      <trkpt lat="43.73698" lon="1.53014">
        <ele>154.40039</ele>
        <time>2024-06-01T15:48:54+02:00</time>
      </trkpt>
      <trkpt lat="43.737" lon="1.53015">
        <ele>154.90039</ele>
        <time>2024-06-01T15:48:55+02:00</time>
      </trkpt>
      <trkpt lat="43.73711" lon="1.53019">
        <ele>155.40039</ele>
        <time>2024-06-01T15:48:59+02:00</time>
      </trkpt>
      <trkpt lat="43.73714" lon="1.5302">
        <ele>156</ele>
        <time>2024-06-01T15:49:00+02:00</time>
      </trkpt>
      <trkpt lat="43.73726" lon="1.53025">
        <ele>156.7998</ele>
        <time>2024-06-01T15:49:04+02:00</time>
      </trkpt>
      <trkpt lat="43.73729" lon="1.53026">
        <ele>156.7998</ele>
        <time>2024-06-01T15:49:05+02:00</time>
      </trkpt>
      <trkpt lat="43.7374" lon="1.53034">
        <ele>157</ele>
        <time>2024-06-01T15:49:09+02:00</time>
      </trkpt>
      <trkpt lat="43.73743" lon="1.53036">
        <ele>157</ele>
        <time>2024-06-01T15:49:10+02:00</time>
      </trkpt>
      <trkpt lat="43.73755" lon="1.53045">
        <ele>157.2002</ele>
        <time>2024-06-01T15:49:14+02:00</time>
      </trkpt>
      <trkpt lat="43.73758" lon="1.53047">
        <ele>157.5</ele>
        <time>2024-06-01T15:49:15+02:00</time>
      </trkpt>
      <trkpt lat="43.73768" lon="1.53055">
        <ele>157.7998</ele>
        <time>2024-06-01T15:49:19+02:00</time>
      </trkpt>
      <trkpt lat="43.7377" lon="1.53058">
        <ele>158</ele>
        <time>2024-06-01T15:49:20+02:00</time>
      </trkpt>
      <trkpt lat="43.73781" lon="1.53069">
        <ele>158.2002</ele>
        <time>2024-06-01T15:49:24+02:00</time>
      </trkpt>
      <trkpt lat="43.73784" lon="1.53071">
        <ele>157.90039</ele>
        <time>2024-06-01T15:49:25+02:00</time>
      </trkpt>
      <trkpt lat="43.73794" lon="1.53082">
        <ele>157.90039</ele>
        <time>2024-06-01T15:49:29+02:00</time>
      </trkpt>
      <trkpt lat="43.73796" lon="1.53085">
        <ele>157.90039</ele>
        <time>2024-06-01T15:49:30+02:00</time>
      </trkpt>
      <trkpt lat="43.73806" lon="1.53095">
        <ele>157.7002</ele>
        <time>2024-06-01T15:49:34+02:00</time>
      </trkpt>
      <trkpt lat="43.73808" lon="1.53097">
        <ele>157.10059</ele>
        <time>2024-06-01T15:49:35+02:00</time>
      </trkpt>
      <trkpt lat="43.73819" lon="1.53105">
        <ele>157</ele>
        <time>2024-06-01T15:49:39+02:00</time>
      </trkpt>
      <trkpt lat="43.73822" lon="1.53107">
        <ele>157</ele>
        <time>2024-06-01T15:49:40+02:00</time>
      </trkpt>
      <trkpt lat="43.73833" lon="1.53114">
        <ele>156.7002</ele>
        <time>2024-06-01T15:49:44+02:00</time>
      </trkpt>
      <trkpt lat="43.73836" lon="1.53115">
        <ele>156.7002</ele>
        <time>2024-06-01T15:49:45+02:00</time>
      </trkpt>
      <trkpt lat="43.73848" lon="1.53118">
        <ele>156</ele>
        <time>2024-06-01T15:49:49+02:00</time>
      </trkpt>
      <trkpt lat="43.73851" lon="1.53117">
        <ele>155.7002</ele>
        <time>2024-06-01T15:49:50+02:00</time>
      </trkpt>
      <trkpt lat="43.73863" lon="1.53117">
        <ele>155.7002</ele>
        <time>2024-06-01T15:49:54+02:00</time>
      </trkpt>
      <trkpt lat="43.73866" lon="1.53117">
        <ele>155.7002</ele>
        <time>2024-06-01T15:49:55+02:00</time>
      </trkpt>
      <trkpt lat="43.73878" lon="1.5312">
        <ele>155.7998</ele>
        <time>2024-06-01T15:49:59+02:00</time>
      </trkpt>
      <trkpt lat="43.73881" lon="1.53121">
        <ele>155.7998</ele>
        <time>2024-06-01T15:50:00+02:00</time>
      </trkpt>
      <trkpt lat="43.7389" lon="1.53125">
        <ele>156</ele>
        <time>2024-06-01T15:50:04+02:00</time>
      </trkpt>
      <trkpt lat="43.73892" lon="1.53126">
        <ele>156.2998</ele>
        <time>2024-06-01T15:50:05+02:00</time>
      </trkpt>
      <trkpt lat="43.73899" lon="1.53128">
        <ele>156.7998</ele>
        <time>2024-06-01T15:50:09+02:00</time>
      </trkpt>
      <trkpt lat="43.73901" lon="1.53129">
        <ele>156.7998</ele>
        <time>2024-06-01T15:50:10+02:00</time>
      </trkpt>
      <trkpt lat="43.73907" lon="1.53132">
        <ele>157.7002</ele>
        <time>2024-06-01T15:50:14+02:00</time>
      </trkpt>
      <trkpt lat="43.73909" lon="1.53133">
        <ele>157.7002</ele>
        <time>2024-06-01T15:50:15+02:00</time>
      </trkpt>
      <trkpt lat="43.73917" lon="1.53137">
        <ele>158.40039</ele>
        <time>2024-06-01T15:50:19+02:00</time>
      </trkpt>
      <trkpt lat="43.73918" lon="1.53138">
        <ele>159.10059</ele>
        <time>2024-06-01T15:50:20+02:00</time>
      </trkpt>
      <trkpt lat="43.73925" lon="1.53141">
        <ele>160</ele>
        <time>2024-06-01T15:50:24+02:00</time>
      </trkpt>
      <trkpt lat="43.73927" lon="1.53141">
        <ele>160</ele>
        <time>2024-06-01T15:50:25+02:00</time>
      </trkpt>
      <trkpt lat="43.73933" lon="1.53145">
        <ele>160.60059</ele>
        <time>2024-06-01T15:50:29+02:00</time>
      </trkpt>
      <trkpt lat="43.73935" lon="1.53146">
        <ele>161.2998</ele>
        <time>2024-06-01T15:50:30+02:00</time>
      </trkpt>
      <trkpt lat="43.73943" lon="1.53148">
        <ele>162.2998</ele>
        <time>2024-06-01T15:50:34+02:00</time>
      </trkpt>
      <trkpt lat="43.73944" lon="1.53149">
        <ele>162.2998</ele>
        <time>2024-06-01T15:50:35+02:00</time>
      </trkpt>
      <trkpt lat="43.73951" lon="1.53151">
        <ele>163</ele>
        <time>2024-06-01T15:50:39+02:00</time>
      </trkpt>
      <trkpt lat="43.73953" lon="1.53151">
        <ele>163</ele>
        <time>2024-06-01T15:50:40+02:00</time>
      </trkpt>
      <trkpt lat="43.7396" lon="1.53153">
        <ele>163.60059</ele>
        <time>2024-06-01T15:50:44+02:00</time>
      </trkpt>
      <trkpt lat="43.73962" lon="1.53154">
        <ele>164.10059</ele>
        <time>2024-06-01T15:50:45+02:00</time>
      </trkpt>
      <trkpt lat="43.73969" lon="1.53156">
        <ele>164.7998</ele>
        <time>2024-06-01T15:50:49+02:00</time>
      </trkpt>
      <trkpt lat="43.7397" lon="1.53157">
        <ele>164.90039</ele>
        <time>2024-06-01T15:50:50+02:00</time>
      </trkpt>
      <trkpt lat="43.73977" lon="1.53159">
        <ele>165.5</ele>
        <time>2024-06-01T15:50:54+02:00</time>
      </trkpt>
      <trkpt lat="43.73979" lon="1.5316">
        <ele>166.2002</ele>
        <time>2024-06-01T15:50:55+02:00</time>
      </trkpt>
      <trkpt lat="43.73986" lon="1.53161">
        <ele>166.90039</ele>
        <time>2024-06-01T15:50:59+02:00</time>
      </trkpt>
      <trkpt lat="43.73988" lon="1.53161">
        <ele>166.90039</ele>
        <time>2024-06-01T15:51:00+02:00</time>
      </trkpt>
      <trkpt lat="43.73995" lon="1.53164">
        <ele>167.60059</ele>
        <time>2024-06-01T15:51:04+02:00</time>
      </trkpt>
      <trkpt lat="43.73996" lon="1.53165">
        <ele>167.60059</ele>
        <time>2024-06-01T15:51:05+02:00</time>
      </trkpt>
      <trkpt lat="43.74003" lon="1.53165">
        <ele>169.10059</ele>
        <time>2024-06-01T15:51:09+02:00</time>
      </trkpt>
      <trkpt lat="43.74006" lon="1.53165">
        <ele>169.10059</ele>
        <time>2024-06-01T15:51:10+02:00</time>
      </trkpt>
      <trkpt lat="43.74013" lon="1.53166">
        <ele>169.7998</ele>
        <time>2024-06-01T15:51:14+02:00</time>
      </trkpt>
      <trkpt lat="43.74015" lon="1.53166">
        <ele>169.7998</ele>
        <time>2024-06-01T15:51:15+02:00</time>
      </trkpt>
      <trkpt lat="43.74022" lon="1.53167">
        <ele>170.5</ele>
        <time>2024-06-01T15:51:19+02:00</time>
      </trkpt>
      <trkpt lat="43.74024" lon="1.53167">
        <ele>171.2002</ele>
        <time>2024-06-01T15:51:20+02:00</time>
      </trkpt>
      <trkpt lat="43.74031" lon="1.53169">
        <ele>171.90039</ele>
        <time>2024-06-01T15:51:24+02:00</time>
      </trkpt>
      <trkpt lat="43.74033" lon="1.5317">
        <ele>171.90039</ele>
        <time>2024-06-01T15:51:25+02:00</time>
      </trkpt>
      <trkpt lat="43.74041" lon="1.53171">
        <ele>173.40039</ele>
        <time>2024-06-01T15:51:29+02:00</time>
      </trkpt>
      <trkpt lat="43.74043" lon="1.53171">
        <ele>173.40039</ele>
        <time>2024-06-01T15:51:30+02:00</time>
      </trkpt>
      <trkpt lat="43.7405" lon="1.53173">
        <ele>174.2002</ele>
        <time>2024-06-01T15:51:34+02:00</time>
      </trkpt>
      <trkpt lat="43.74051" lon="1.53173">
        <ele>174.2002</ele>
        <time>2024-06-01T15:51:35+02:00</time>
      </trkpt>
      <trkpt lat="43.74058" lon="1.53176">
        <ele>175</ele>
        <time>2024-06-01T15:51:39+02:00</time>
      </trkpt>
      <trkpt lat="43.7406" lon="1.53176">
        <ele>175.90039</ele>
        <time>2024-06-01T15:51:40+02:00</time>
      </trkpt>
      <trkpt lat="43.74067" lon="1.53179">
        <ele>176.7998</ele>
        <time>2024-06-01T15:51:44+02:00</time>
      </trkpt>
      <trkpt lat="43.74068" lon="1.5318">
        <ele>176.7998</ele>
        <time>2024-06-01T15:51:45+02:00</time>
      </trkpt>
      <trkpt lat="43.74075" lon="1.53183">
        <ele>177.7998</ele>
        <time>2024-06-01T15:51:49+02:00</time>
      </trkpt>
      <trkpt lat="43.74076" lon="1.53184">
        <ele>177.7998</ele>
        <time>2024-06-01T15:51:50+02:00</time>
      </trkpt>
      <trkpt lat="43.74083" lon="1.53189">
        <ele>178.7998</ele>
        <time>2024-06-01T15:51:54+02:00</time>
      </trkpt>
      <trkpt lat="43.74084" lon="1.53191">
        <ele>179.7002</ele>
        <time>2024-06-01T15:51:55+02:00</time>
      </trkpt>
      <trkpt lat="43.74091" lon="1.53196">
        <ele>180.60059</ele>
        <time>2024-06-01T15:51:59+02:00</time>
      </trkpt>
      <trkpt lat="43.74092" lon="1.53198">
        <ele>180.60059</ele>
        <time>2024-06-01T15:52:00+02:00</time>
      </trkpt>
      <trkpt lat="43.74098" lon="1.53204">
        <ele>181.60059</ele>
        <time>2024-06-01T15:52:04+02:00</time>
      </trkpt>
      <trkpt lat="43.74099" lon="1.53205">
        <ele>181.60059</ele>
        <time>2024-06-01T15:52:05+02:00</time>
      </trkpt>
      <trkpt lat="43.74106" lon="1.5321">
        <ele>182.7002</ele>
        <time>2024-06-01T15:52:09+02:00</time>
      </trkpt>
      <trkpt lat="43.74107" lon="1.53212">
        <ele>182.7002</ele>
        <time>2024-06-01T15:52:10+02:00</time>
      </trkpt>
      <trkpt lat="43.74114" lon="1.53217">
        <ele>183.90039</ele>
        <time>2024-06-01T15:52:14+02:00</time>
      </trkpt>
      <trkpt lat="43.74116" lon="1.53218">
        <ele>185.10059</ele>
        <time>2024-06-01T15:52:15+02:00</time>
      </trkpt>
      <trkpt lat="43.74122" lon="1.53222">
        <ele>186.2002</ele>
        <time>2024-06-01T15:52:19+02:00</time>
      </trkpt>
      <trkpt lat="43.74124" lon="1.53223">
        <ele>186.2002</ele>
        <time>2024-06-01T15:52:20+02:00</time>
      </trkpt>
      <trkpt lat="43.74131" lon="1.53227">
        <ele>187.5</ele>
        <time>2024-06-01T15:52:24+02:00</time>
      </trkpt>
      <trkpt lat="43.74133" lon="1.53227">
        <ele>187.5</ele>
        <time>2024-06-01T15:52:25+02:00</time>
      </trkpt>
      <trkpt lat="43.7414" lon="1.53229">
        <ele>188.90039</ele>
        <time>2024-06-01T15:52:29+02:00</time>
      </trkpt>
      <trkpt lat="43.74142" lon="1.53229">
        <ele>188.90039</ele>
        <time>2024-06-01T15:52:30+02:00</time>
      </trkpt>
      <trkpt lat="43.74149" lon="1.5323">
        <ele>189.5</ele>
        <time>2024-06-01T15:52:34+02:00</time>
      </trkpt>
      <trkpt lat="43.74151" lon="1.5323">
        <ele>189.5</ele>
        <time>2024-06-01T15:52:35+02:00</time>
      </trkpt>
      <trkpt lat="43.74158" lon="1.53231">
        <ele>190.10059</ele>
        <time>2024-06-01T15:52:39+02:00</time>
      </trkpt>
      <trkpt lat="43.7416" lon="1.53231">
        <ele>190.7002</ele>
        <time>2024-06-01T15:52:40+02:00</time>
      </trkpt>
      <trkpt lat="43.74167" lon="1.53232">
        <ele>191.2998</ele>
        <time>2024-06-01T15:52:44+02:00</time>
      </trkpt>
      <trkpt lat="43.74168" lon="1.53232">
        <ele>191.2998</ele>
        <time>2024-06-01T15:52:45+02:00</time>
      </trkpt>
      <trkpt lat="43.74176" lon="1.53234">
        <ele>192.10059</ele>
        <time>2024-06-01T15:52:49+02:00</time>
      </trkpt>
      <trkpt lat="43.74178" lon="1.53234">
        <ele>192.7002</ele>
        <time>2024-06-01T15:52:50+02:00</time>
      </trkpt>
      <trkpt lat="43.74185" lon="1.53235">
        <ele>193.10059</ele>
        <time>2024-06-01T15:52:54+02:00</time>
      </trkpt>
      <trkpt lat="43.74187" lon="1.53235">
        <ele>193.10059</ele>
        <time>2024-06-01T15:52:55+02:00</time>
      </trkpt>
      <trkpt lat="43.74195" lon="1.53237">
        <ele>193.60059</ele>
        <time>2024-06-01T15:52:59+02:00</time>
      </trkpt>
      <trkpt lat="43.74196" lon="1.53238">
        <ele>194</ele>
        <time>2024-06-01T15:53:00+02:00</time>
      </trkpt>
      <trkpt lat="43.74203" lon="1.53244">
        <ele>194.5</ele>
        <time>2024-06-01T15:53:04+02:00</time>
      </trkpt>
      <trkpt lat="43.74206" lon="1.53246">
        <ele>194.5</ele>
        <time>2024-06-01T15:53:05+02:00</time>
      </trkpt>
      <trkpt lat="43.74216" lon="1.53255">
        <ele>195.2998</ele>
        <time>2024-06-01T15:53:09+02:00</time>
      </trkpt>
      <trkpt lat="43.7422" lon="1.53258">
        <ele>195.2998</ele>
        <time>2024-06-01T15:53:10+02:00</time>
      </trkpt>
      <trkpt lat="43.74233" lon="1.53271">
        <ele>196.7002</ele>
        <time>2024-06-01T15:53:14+02:00</time>
      </trkpt>
      <trkpt lat="43.74237" lon="1.53274">
        <ele>196.7002</ele>
        <time>2024-06-01T15:53:15+02:00</time>
      </trkpt>
      <trkpt lat="43.74251" lon="1.53285">
        <ele>197.7002</ele>
        <time>2024-06-01T15:53:19+02:00</time>
      </trkpt>
      <trkpt lat="43.74255" lon="1.53288">
        <ele>197.7998</ele>
        <time>2024-06-01T15:53:20+02:00</time>
      </trkpt>
      <trkpt lat="43.74269" lon="1.53296">
        <ele>198.40039</ele>
        <time>2024-06-01T15:53:24+02:00</time>
      </trkpt>
      <trkpt lat="43.74272" lon="1.53297">
        <ele>198.5</ele>
        <time>2024-06-01T15:53:25+02:00</time>
      </trkpt>
      <trkpt lat="43.74285" lon="1.53304">
        <ele>198.90039</ele>
        <time>2024-06-01T15:53:29+02:00</time>
      </trkpt>
      <trkpt lat="43.74288" lon="1.53305">
        <ele>198.90039</ele>
        <time>2024-06-01T15:53:30+02:00</time>
      </trkpt>
      <trkpt lat="43.74301" lon="1.53312">
        <ele>199.60059</ele>
        <time>2024-06-01T15:53:34+02:00</time>
      </trkpt>
      <trkpt lat="43.74305" lon="1.53313">
        <ele>199.60059</ele>
        <time>2024-06-01T15:53:35+02:00</time>
      </trkpt>
      <trkpt lat="43.74317" lon="1.5332">
        <ele>200.2998</ele>
        <time>2024-06-01T15:53:39+02:00</time>
      </trkpt>
      <trkpt lat="43.7432" lon="1.53321">
        <ele>200.40039</ele>
        <time>2024-06-01T15:53:40+02:00</time>
      </trkpt>
      <trkpt lat="43.7433" lon="1.53328">
        <ele>200.7002</ele>
        <time>2024-06-01T15:53:44+02:00</time>
      </trkpt>
      <trkpt lat="43.74333" lon="1.5333">
        <ele>200.7998</ele>
        <time>2024-06-01T15:53:45+02:00</time>
      </trkpt>
      <trkpt lat="43.74344" lon="1.53336">
        <ele>200.7998</ele>
        <time>2024-06-01T15:53:49+02:00</time>
      </trkpt>
      <trkpt lat="43.74347" lon="1.53338">
        <ele>201</ele>
        <time>2024-06-01T15:53:50+02:00</time>
      </trkpt>
      <trkpt lat="43.7436" lon="1.53347">
        <ele>201.10059</ele>
        <time>2024-06-01T15:53:54+02:00</time>
      </trkpt>
      <trkpt lat="43.74364" lon="1.53349">
        <ele>201.2002</ele>
        <time>2024-06-01T15:53:55+02:00</time>
      </trkpt>
      <trkpt lat="43.74379" lon="1.53359">
        <ele>201.2998</ele>
        <time>2024-06-01T15:53:59+02:00</time>
      </trkpt>
      <trkpt lat="43.74384" lon="1.53362">
        <ele>201.2998</ele>
        <time>2024-06-01T15:54:00+02:00</time>
      </trkpt>
      <trkpt lat="43.74401" lon="1.53374">
        <ele>201.10059</ele>
        <time>2024-06-01T15:54:04+02:00</time>
      </trkpt>
      <trkpt lat="43.74406" lon="1.53377">
        <ele>201.10059</ele>
        <time>2024-06-01T15:54:05+02:00</time>
      </trkpt>
      <trkpt lat="43.74423" lon="1.5339">
        <ele>201</ele>
        <time>2024-06-01T15:54:09+02:00</time>
      </trkpt>
      <trkpt lat="43.74427" lon="1.53393">
        <ele>201.10059</ele>
        <time>2024-06-01T15:54:10+02:00</time>
      </trkpt>
      <trkpt lat="43.74441" lon="1.53406">
        <ele>201</ele>
        <time>2024-06-01T15:54:14+02:00</time>
      </trkpt>
      <trkpt lat="43.74445" lon="1.53409">
        <ele>201.2002</ele>
        <time>2024-06-01T15:54:15+02:00</time>
      </trkpt>
      <trkpt lat="43.74458" lon="1.53421">
        <ele>201.40039</ele>
        <time>2024-06-01T15:54:19+02:00</time>
      </trkpt>
      <trkpt lat="43.74462" lon="1.53424">
        <ele>201.40039</ele>
        <time>2024-06-01T15:54:20+02:00</time>
      </trkpt>
      <trkpt lat="43.74476" lon="1.53439">
        <ele>202.10059</ele>
        <time>2024-06-01T15:54:24+02:00</time>
      </trkpt>
      <trkpt lat="43.74479" lon="1.53443">
        <ele>202.10059</ele>
        <time>2024-06-01T15:54:25+02:00</time>
      </trkpt>
      <trkpt lat="43.74493" lon="1.53456">
        <ele>202.7002</ele>
        <time>2024-06-01T15:54:29+02:00</time>
      </trkpt>
      <trkpt lat="43.74497" lon="1.5346">
        <ele>203.10059</ele>
        <time>2024-06-01T15:54:30+02:00</time>
      </trkpt>
      <trkpt lat="43.7451" lon="1.53473">
        <ele>203.90039</ele>
        <time>2024-06-01T15:54:34+02:00</time>
      </trkpt>
      <trkpt lat="43.74513" lon="1.53476">
        <ele>204.40039</ele>
        <time>2024-06-01T15:54:35+02:00</time>
      </trkpt>
      <trkpt lat="43.74524" lon="1.53489">
        <ele>204.7998</ele>
        <time>2024-06-01T15:54:39+02:00</time>
      </trkpt>
      <trkpt lat="43.74527" lon="1.53492">
        <ele>205</ele>
        <time>2024-06-01T15:54:40+02:00</time>
      </trkpt>
      <trkpt lat="43.74539" lon="1.53504">
        <ele>205.2002</ele>
        <time>2024-06-01T15:54:44+02:00</time>
      </trkpt>
      <trkpt lat="43.74542" lon="1.53507">
        <ele>205.2002</ele>
        <time>2024-06-01T15:54:45+02:00</time>
      </trkpt>
      <trkpt lat="43.74552" lon="1.53517">
        <ele>204.60059</ele>
        <time>2024-06-01T15:54:49+02:00</time>
      </trkpt>
      <trkpt lat="43.74555" lon="1.53519">
        <ele>204.60059</ele>
        <time>2024-06-01T15:54:50+02:00</time>
      </trkpt>
      <trkpt lat="43.74565" lon="1.53526">
        <ele>204.10059</ele>
        <time>2024-06-01T15:54:54+02:00</time>
      </trkpt>
      <trkpt lat="43.74568" lon="1.53528">
        <ele>204.10059</ele>
        <time>2024-06-01T15:54:55+02:00</time>
      </trkpt>
      <trkpt lat="43.7458" lon="1.53533">
        <ele>204.10059</ele>
        <time>2024-06-01T15:54:59+02:00</time>
      </trkpt>
      <trkpt lat="43.74583" lon="1.53534">
        <ele>203.5</ele>
        <time>2024-06-01T15:55:00+02:00</time>
      </trkpt>
      <trkpt lat="43.74595" lon="1.5354">
        <ele>203.60059</ele>
        <time>2024-06-01T15:55:04+02:00</time>
      </trkpt>
      <trkpt lat="43.74598" lon="1.53541">
        <ele>203.60059</ele>
        <time>2024-06-01T15:55:05+02:00</time>
      </trkpt>
      <trkpt lat="43.74609" lon="1.53548">
        <ele>203.10059</ele>
        <time>2024-06-01T15:55:09+02:00</time>
      </trkpt>
      <trkpt lat="43.74612" lon="1.53549">
        <ele>203.2998</ele>
        <time>2024-06-01T15:55:10+02:00</time>
      </trkpt>
      <trkpt lat="43.74623" lon="1.53556">
        <ele>202.7998</ele>
        <time>2024-06-01T15:55:14+02:00</time>
      </trkpt>
      <trkpt lat="43.74625" lon="1.53557">
        <ele>203.2002</ele>
        <time>2024-06-01T15:55:15+02:00</time>
      </trkpt>
      <trkpt lat="43.74636" lon="1.53564">
        <ele>203.2002</ele>
        <time>2024-06-01T15:55:19+02:00</time>
      </trkpt>
      <trkpt lat="43.74639" lon="1.53566">
        <ele>203.2002</ele>
        <time>2024-06-01T15:55:20+02:00</time>
      </trkpt>
      <trkpt lat="43.7465" lon="1.53574">
        <ele>202.7998</ele>
        <time>2024-06-01T15:55:24+02:00</time>
      </trkpt>
      <trkpt lat="43.74652" lon="1.53576">
        <ele>202.7998</ele>
        <time>2024-06-01T15:55:25+02:00</time>
      </trkpt>
      <trkpt lat="43.74665" lon="1.53587">
        <ele>202.2998</ele>
        <time>2024-06-01T15:55:29+02:00</time>
      </trkpt>
      <trkpt lat="43.7467" lon="1.53589">
        <ele>202.7998</ele>
        <time>2024-06-01T15:55:30+02:00</time>
      </trkpt>
      <trkpt lat="43.74695" lon="1.53595">
        <ele>204.40039</ele>
        <time>2024-06-01T15:55:34+02:00</time>
      </trkpt>
      <trkpt lat="43.74703" lon="1.53595">
        <ele>204.7002</ele>
        <time>2024-06-01T15:55:35+02:00</time>
      </trkpt>
      <trkpt lat="43.74733" lon="1.53599">
        <ele>207.7998</ele>
        <time>2024-06-01T15:55:39+02:00</time>
      </trkpt>
      <trkpt lat="43.7474" lon="1.53602">
        <ele>208.60059</ele>
        <time>2024-06-01T15:55:40+02:00</time>
      </trkpt>
      <trkpt lat="43.7476" lon="1.53631">
        <ele>211.10059</ele>
        <time>2024-06-01T15:55:44+02:00</time>
      </trkpt>
      <trkpt lat="43.74763" lon="1.53637">
        <ele>211.7998</ele>
        <time>2024-06-01T15:55:45+02:00</time>
      </trkpt>
      <trkpt lat="43.74777" lon="1.5366">
        <ele>213.2002</ele>
        <time>2024-06-01T15:55:49+02:00</time>
      </trkpt>
      <trkpt lat="43.74779" lon="1.53664">
        <ele>214.10059</ele>
        <time>2024-06-01T15:55:50+02:00</time>
      </trkpt>
      <trkpt lat="43.7479" lon="1.53676">
        <ele>215.10059</ele>
        <time>2024-06-01T15:55:54+02:00</time>
      </trkpt>
      <trkpt lat="43.74793" lon="1.5368">
        <ele>216.10059</ele>
        <time>2024-06-01T15:55:55+02:00</time>
      </trkpt>
      <trkpt lat="43.74804" lon="1.53692">
        <ele>217.60059</ele>
        <time>2024-06-01T15:55:59+02:00</time>
      </trkpt>
      <trkpt lat="43.74807" lon="1.53695">
        <ele>217.60059</ele>
        <time>2024-06-01T15:56:00+02:00</time>
      </trkpt>
      <trkpt lat="43.74818" lon="1.53707">
        <ele>218.60059</ele>
        <time>2024-06-01T15:56:04+02:00</time>
      </trkpt>
      <trkpt lat="43.7482" lon="1.5371">
        <ele>218.60059</ele>
        <time>2024-06-01T15:56:05+02:00</time>
      </trkpt>
      <trkpt lat="43.74831" lon="1.53721">
        <ele>219.2002</ele>
        <time>2024-06-01T15:56:09+02:00</time>
      </trkpt>
      <trkpt lat="43.74834" lon="1.53724">
        <ele>219.2998</ele>
        <time>2024-06-01T15:56:10+02:00</time>
      </trkpt>
      <trkpt lat="43.74845" lon="1.53736">
        <ele>219.60059</ele>
        <time>2024-06-01T15:56:14+02:00</time>
      </trkpt>
      <trkpt lat="43.74847" lon="1.53738">
        <ele>219.60059</ele>
        <time>2024-06-01T15:56:15+02:00</time>
      </trkpt>
      <trkpt lat="43.74854" lon="1.53743">
        <ele>219.7002</ele>
        <time>2024-06-01T15:56:19+02:00</time>
      </trkpt>
      <trkpt lat="43.74856" lon="1.53743">
        <ele>219.7002</ele>
        <time>2024-06-01T15:56:20+02:00</time>
      </trkpt>
      <trkpt lat="43.74863" lon="1.53727">
        <ele>219.60059</ele>
        <time>2024-06-01T15:56:24+02:00</time>
      </trkpt>
      <trkpt lat="43.74863" lon="1.53722">
        <ele>219.5</ele>
        <time>2024-06-01T15:56:25+02:00</time>
      </trkpt>
      <trkpt lat="43.74868" lon="1.537">
        <ele>219.40039</ele>
        <time>2024-06-01T15:56:29+02:00</time>
      </trkpt>
      <trkpt lat="43.74869" lon="1.53694">
        <ele>219.2998</ele>
        <time>2024-06-01T15:56:30+02:00</time>
      </trkpt>
      <trkpt lat="43.74874" lon="1.5367">
        <ele>219.2002</ele>
        <time>2024-06-01T15:56:34+02:00</time>
      </trkpt>
      <trkpt lat="43.74876" lon="1.53664">
        <ele>219.2002</ele>
        <time>2024-06-01T15:56:35+02:00</time>
      </trkpt>
      <trkpt lat="43.74882" lon="1.53638">
        <ele>219</ele>
        <time>2024-06-01T15:56:39+02:00</time>
      </trkpt>
      <trkpt lat="43.74883" lon="1.53631">
        <ele>218.90039</ele>
        <time>2024-06-01T15:56:40+02:00</time>
      </trkpt>
      <trkpt lat="43.74889" lon="1.53604">
        <ele>218.7002</ele>
        <time>2024-06-01T15:56:44+02:00</time>
      </trkpt>
      <trkpt lat="43.7489" lon="1.53596">
        <ele>218.7998</ele>
        <time>2024-06-01T15:56:45+02:00</time>
      </trkpt>
      <trkpt lat="43.74897" lon="1.53567">
        <ele>219.10059</ele>
        <time>2024-06-01T15:56:49+02:00</time>
      </trkpt>
      <trkpt lat="43.74899" lon="1.53559">
        <ele>219.2998</ele>
        <time>2024-06-01T15:56:50+02:00</time>
      </trkpt>
      <trkpt lat="43.74906" lon="1.53529">
        <ele>219.7998</ele>
        <time>2024-06-01T15:56:54+02:00</time>
      </trkpt>
      <trkpt lat="43.74909" lon="1.53521">
        <ele>220</ele>
        <time>2024-06-01T15:56:55+02:00</time>
      </trkpt>
      <trkpt lat="43.74922" lon="1.53491">
        <ele>220.10059</ele>
        <time>2024-06-01T15:56:59+02:00</time>
      </trkpt>
      <trkpt lat="43.74925" lon="1.53484">
        <ele>220.10059</ele>
        <time>2024-06-01T15:57:00+02:00</time>
      </trkpt>
      <trkpt lat="43.74938" lon="1.5346">
        <ele>219.90039</ele>
        <time>2024-06-01T15:57:04+02:00</time>
      </trkpt>
      <trkpt lat="43.7494" lon="1.53459">
        <ele>219.90039</ele>
        <time>2024-06-01T15:57:05+02:00</time>
      </trkpt>
      <trkpt lat="43.74949" lon="1.5348">
        <ele>220</ele>
        <time>2024-06-01T15:57:09+02:00</time>
      </trkpt>
      <trkpt lat="43.74951" lon="1.53488">
        <ele>220</ele>
        <time>2024-06-01T15:57:10+02:00</time>
      </trkpt>
      <trkpt lat="43.74962" lon="1.53518">
        <ele>219.60059</ele>
        <time>2024-06-01T15:57:14+02:00</time>
      </trkpt>
      <trkpt lat="43.74965" lon="1.53526">
        <ele>219.2002</ele>
        <time>2024-06-01T15:57:15+02:00</time>
      </trkpt>
      <trkpt lat="43.74978" lon="1.53561">
        <ele>217.7998</ele>
        <time>2024-06-01T15:57:19+02:00</time>
      </trkpt>
      <trkpt lat="43.74981" lon="1.5357">
        <ele>217.60059</ele>
        <time>2024-06-01T15:57:20+02:00</time>
      </trkpt>
      <trkpt lat="43.74991" lon="1.53602">
        <ele>216.5</ele>
        <time>2024-06-01T15:57:24+02:00</time>
      </trkpt>
      <trkpt lat="43.74994" lon="1.53608">
        <ele>216.40039</ele>
        <time>2024-06-01T15:57:25+02:00</time>
      </trkpt>
      <trkpt lat="43.75002" lon="1.53629">
        <ele>215</ele>
        <time>2024-06-01T15:57:29+02:00</time>
      </trkpt>
      <trkpt lat="43.75005" lon="1.53634">
        <ele>215</ele>
        <time>2024-06-01T15:57:30+02:00</time>
      </trkpt>
      <trkpt lat="43.75017" lon="1.53651">
        <ele>213.60059</ele>
        <time>2024-06-01T15:57:34+02:00</time>
      </trkpt>
      <trkpt lat="43.75019" lon="1.53654">
        <ele>213.60059</ele>
        <time>2024-06-01T15:57:35+02:00</time>
      </trkpt>
      <trkpt lat="43.7503" lon="1.53669">
        <ele>212.10059</ele>
        <time>2024-06-01T15:57:39+02:00</time>
      </trkpt>
      <trkpt lat="43.75034" lon="1.53674">
        <ele>211.2002</ele>
        <time>2024-06-01T15:57:40+02:00</time>
      </trkpt>
      <trkpt lat="43.75048" lon="1.53691">
        <ele>209.2002</ele>
        <time>2024-06-01T15:57:44+02:00</time>
      </trkpt>
      <trkpt lat="43.75053" lon="1.53696">
        <ele>208.2998</ele>
        <time>2024-06-01T15:57:45+02:00</time>
      </trkpt>
      <trkpt lat="43.75072" lon="1.53719">
        <ele>205.10059</ele>
        <time>2024-06-01T15:57:49+02:00</time>
      </trkpt>
      <trkpt lat="43.75077" lon="1.53726">
        <ele>203.90039</ele>
        <time>2024-06-01T15:57:50+02:00</time>
      </trkpt>
      <trkpt lat="43.75101" lon="1.53754">
        <ele>199.60059</ele>
        <time>2024-06-01T15:57:54+02:00</time>
      </trkpt>
      <trkpt lat="43.75108" lon="1.53762">
        <ele>198.60059</ele>
        <time>2024-06-01T15:57:55+02:00</time>
      </trkpt>
      <trkpt lat="43.75135" lon="1.53795">
        <ele>194.90039</ele>
        <time>2024-06-01T15:57:59+02:00</time>
      </trkpt>
      <trkpt lat="43.75141" lon="1.53802">
        <ele>194.2002</ele>
        <time>2024-06-01T15:58:00+02:00</time>
      </trkpt>
      <trkpt lat="43.75165" lon="1.53825">
        <ele>193</ele>
        <time>2024-06-01T15:58:04+02:00</time>
      </trkpt>
      <trkpt lat="43.7517" lon="1.5383">
        <ele>192.90039</ele>
        <time>2024-06-01T15:58:05+02:00</time>
      </trkpt>
      <trkpt lat="43.75192" lon="1.5385">
        <ele>192.2998</ele>
        <time>2024-06-01T15:58:09+02:00</time>
      </trkpt>
      <trkpt lat="43.75199" lon="1.53856">
        <ele>192</ele>
        <time>2024-06-01T15:58:10+02:00</time>
      </trkpt>
      <trkpt lat="43.7523" lon="1.53879">
        <ele>189.7998</ele>
        <time>2024-06-01T15:58:14+02:00</time>
      </trkpt>
      <trkpt lat="43.75237" lon="1.53888">
        <ele>189.10059</ele>
        <time>2024-06-01T15:58:15+02:00</time>
      </trkpt>
      <trkpt lat="43.75257" lon="1.53933">
        <ele>184.60059</ele>
        <time>2024-06-01T15:58:19+02:00</time>
      </trkpt>
      <trkpt lat="43.75263" lon="1.53945">
        <ele>183.2002</ele>
        <time>2024-06-01T15:58:20+02:00</time>
      </trkpt>
      <trkpt lat="43.75282" lon="1.53988">
        <ele>177.10059</ele>
        <time>2024-06-01T15:58:24+02:00</time>
      </trkpt>
      <trkpt lat="43.75285" lon="1.53998">
        <ele>175.5</ele>
        <time>2024-06-01T15:58:25+02:00</time>
      </trkpt>
      <trkpt lat="43.75289" lon="1.5404">
        <ele>171.90039</ele>
        <time>2024-06-01T15:58:29+02:00</time>
      </trkpt>
      <trkpt lat="43.75289" lon="1.54052">
        <ele>170.40039</ele>
        <time>2024-06-01T15:58:30+02:00</time>
      </trkpt>
      <trkpt lat="43.75284" lon="1.54096">
        <ele>167.60059</ele>
        <time>2024-06-01T15:58:34+02:00</time>
      </trkpt>
      <trkpt lat="43.75283" lon="1.54104">
        <ele>167.2002</ele>
        <time>2024-06-01T15:58:35+02:00</time>
      </trkpt>
      <trkpt lat="43.75288" lon="1.54133">
        <ele>166.7998</ele>
        <time>2024-06-01T15:58:39+02:00</time>
      </trkpt>
      <trkpt lat="43.7529" lon="1.54139">
        <ele>166.90039</ele>
        <time>2024-06-01T15:58:40+02:00</time>
      </trkpt>
      <trkpt lat="43.75296" lon="1.54158">
        <ele>167.2002</ele>
        <time>2024-06-01T15:58:44+02:00</time>
      </trkpt>
      <trkpt lat="43.75298" lon="1.54163">
        <ele>167.2998</ele>
        <time>2024-06-01T15:58:45+02:00</time>
      </trkpt>
      <trkpt lat="43.75305" lon="1.54181">
        <ele>167.7998</ele>
        <time>2024-06-01T15:58:49+02:00</time>
      </trkpt>
      <trkpt lat="43.75306" lon="1.54186">
        <ele>167.7998</ele>
        <time>2024-06-01T15:58:50+02:00</time>
      </trkpt>
      <trkpt lat="43.75314" lon="1.54202">
        <ele>168.60059</ele>
        <time>2024-06-01T15:58:54+02:00</time>
      </trkpt>
      <trkpt lat="43.75316" lon="1.54206">
        <ele>169</ele>
        <time>2024-06-01T15:58:55+02:00</time>
      </trkpt>
      <trkpt lat="43.75325" lon="1.54222">
        <ele>170.40039</ele>
        <time>2024-06-01T15:58:59+02:00</time>
      </trkpt>
      <trkpt lat="43.75328" lon="1.54226">
        <ele>170.40039</ele>
        <time>2024-06-01T15:59:00+02:00</time>
      </trkpt>
      <trkpt lat="43.75338" lon="1.54239">
        <ele>172.10059</ele>
        <time>2024-06-01T15:59:04+02:00</time>
      </trkpt>
      <trkpt lat="43.75341" lon="1.54242">
        <ele>172.10059</ele>
        <time>2024-06-01T15:59:05+02:00</time>
      </trkpt>
      <trkpt lat="43.75349" lon="1.54251">
        <ele>173.5</ele>
        <time>2024-06-01T15:59:09+02:00</time>
      </trkpt>
      <trkpt lat="43.75351" lon="1.54253">
        <ele>173.5</ele>
        <time>2024-06-01T15:59:10+02:00</time>
      </trkpt>
      <trkpt lat="43.75356" lon="1.54265">
        <ele>175.10059</ele>
        <time>2024-06-01T15:59:14+02:00</time>
      </trkpt>
      <trkpt lat="43.75356" lon="1.54269">
        <ele>175.10059</ele>
        <time>2024-06-01T15:59:15+02:00</time>
      </trkpt>
      <trkpt lat="43.75353" lon="1.54282">
        <ele>175.7002</ele>
        <time>2024-06-01T15:59:19+02:00</time>
      </trkpt>
      <trkpt lat="43.75353" lon="1.54285">
        <ele>175.7002</ele>
        <time>2024-06-01T15:59:20+02:00</time>
      </trkpt>
      <trkpt lat="43.75351" lon="1.54298">
        <ele>176.2002</ele>
        <time>2024-06-01T15:59:24+02:00</time>
      </trkpt>
      <trkpt lat="43.75351" lon="1.54301">
        <ele>176.7002</ele>
        <time>2024-06-01T15:59:25+02:00</time>
      </trkpt>
      <trkpt lat="43.75348" lon="1.54312">
        <ele>176.60059</ele>
        <time>2024-06-01T15:59:29+02:00</time>
      </trkpt>
      <trkpt lat="43.75347" lon="1.54315">
        <ele>177</ele>
        <time>2024-06-01T15:59:30+02:00</time>
      </trkpt>
      <trkpt lat="43.75343" lon="1.54327">
        <ele>177.5</ele>
        <time>2024-06-01T15:59:34+02:00</time>
      </trkpt>
      <trkpt lat="43.75342" lon="1.54329">
        <ele>177</ele>
        <time>2024-06-01T15:59:35+02:00</time>
      </trkpt>
      <trkpt lat="43.75337" lon="1.54339">
        <ele>177.5</ele>
        <time>2024-06-01T15:59:39+02:00</time>
      </trkpt>
      <trkpt lat="43.75336" lon="1.54342">
        <ele>177.60059</ele>
        <time>2024-06-01T15:59:40+02:00</time>
      </trkpt>
      <trkpt lat="43.75332" lon="1.54352">
        <ele>178.2002</ele>
        <time>2024-06-01T15:59:44+02:00</time>
      </trkpt>
      <trkpt lat="43.75331" lon="1.54354">
        <ele>178.2002</ele>
        <time>2024-06-01T15:59:45+02:00</time>
      </trkpt>
      <trkpt lat="43.75329" lon="1.54358">
        <ele>178.5</ele>
        <time>2024-06-01T15:59:49+02:00</time>
      </trkpt>
      <trkpt lat="43.75328" lon="1.5436">
        <ele>178.5</ele>
        <time>2024-06-01T15:59:50+02:00</time>
      </trkpt>
      <trkpt lat="43.75326" lon="1.54369">
        <ele>178.90039</ele>
        <time>2024-06-01T15:59:54+02:00</time>
      </trkpt>
      <trkpt lat="43.75325" lon="1.54371">
        <ele>178.90039</ele>
        <time>2024-06-01T15:59:55+02:00</time>
      </trkpt>
      <trkpt lat="43.75321" lon="1.54382">
        <ele>179.10059</ele>
        <time>2024-06-01T15:59:59+02:00</time>
      </trkpt>
      <trkpt lat="43.75319" lon="1.54384">
        <ele>179.40039</ele>
        <time>2024-06-01T16:00:00+02:00</time>
      </trkpt>
      <trkpt lat="43.75315" lon="1.54393">
        <ele>179.40039</ele>
        <time>2024-06-01T16:00:04+02:00</time>
      </trkpt>
      <trkpt lat="43.75314" lon="1.54396">
        <ele>179.40039</ele>
        <time>2024-06-01T16:00:05+02:00</time>
      </trkpt>
      <trkpt lat="43.7531" lon="1.54406">
        <ele>179.5</ele>
        <time>2024-06-01T16:00:09+02:00</time>
      </trkpt>
      <trkpt lat="43.75309" lon="1.54409">
        <ele>179.5</ele>
        <time>2024-06-01T16:00:10+02:00</time>
      </trkpt>
      <trkpt lat="43.75304" lon="1.54421">
        <ele>179.7002</ele>
        <time>2024-06-01T16:00:14+02:00</time>
      </trkpt>
      <trkpt lat="43.75303" lon="1.54424">
        <ele>179.7002</ele>
        <time>2024-06-01T16:00:15+02:00</time>
      </trkpt>
      <trkpt lat="43.75298" lon="1.54435">
        <ele>179.7002</ele>
        <time>2024-06-01T16:00:19+02:00</time>
      </trkpt>
      <trkpt lat="43.75297" lon="1.54438">
        <ele>180</ele>
        <time>2024-06-01T16:00:20+02:00</time>
      </trkpt>
      <trkpt lat="43.75292" lon="1.5445">
        <ele>180</ele>
        <time>2024-06-01T16:00:24+02:00</time>
      </trkpt>
      <trkpt lat="43.75292" lon="1.54452">
        <ele>180.2002</ele>
        <time>2024-06-01T16:00:25+02:00</time>
      </trkpt>
      <trkpt lat="43.75291" lon="1.54464">
        <ele>180.40039</ele>
        <time>2024-06-01T16:00:29+02:00</time>
      </trkpt>
      <trkpt lat="43.75291" lon="1.54467">
        <ele>180.40039</ele>
        <time>2024-06-01T16:00:30+02:00</time>
      </trkpt>
      <trkpt lat="43.75292" lon="1.5448">
        <ele>180.7002</ele>
        <time>2024-06-01T16:00:34+02:00</time>
      </trkpt>
      <trkpt lat="43.75292" lon="1.54483">
        <ele>180.7002</ele>
        <time>2024-06-01T16:00:35+02:00</time>
      </trkpt>
      <trkpt lat="43.75294" lon="1.54496">
        <ele>181.2002</ele>
        <time>2024-06-01T16:00:39+02:00</time>
      </trkpt>
      <trkpt lat="43.75294" lon="1.545">
        <ele>181.2002</ele>
        <time>2024-06-01T16:00:40+02:00</time>
      </trkpt>
      <trkpt lat="43.75296" lon="1.54513">
        <ele>181.60059</ele>
        <time>2024-06-01T16:00:44+02:00</time>
      </trkpt>
      <trkpt lat="43.75296" lon="1.54516">
        <ele>181.60059</ele>
        <time>2024-06-01T16:00:45+02:00</time>
      </trkpt>
      <trkpt lat="43.75298" lon="1.54528">
        <ele>181.7002</ele>
        <time>2024-06-01T16:00:49+02:00</time>
      </trkpt>
      <trkpt lat="43.75298" lon="1.54531">
        <ele>181.7998</ele>
        <time>2024-06-01T16:00:50+02:00</time>
      </trkpt>
      <trkpt lat="43.753" lon="1.54545">
        <ele>182.10059</ele>
        <time>2024-06-01T16:00:54+02:00</time>
      </trkpt>
      <trkpt lat="43.753" lon="1.54548">
        <ele>182.2002</ele>
        <time>2024-06-01T16:00:55+02:00</time>
      </trkpt>
      <trkpt lat="43.75302" lon="1.54562">
        <ele>182.2998</ele>
        <time>2024-06-01T16:00:59+02:00</time>
      </trkpt>
      <trkpt lat="43.75302" lon="1.54565">
        <ele>182.40039</ele>
        <time>2024-06-01T16:01:00+02:00</time>
      </trkpt>
      <trkpt lat="43.75304" lon="1.54578">
        <ele>182.5</ele>
        <time>2024-06-01T16:01:04+02:00</time>
      </trkpt>
      <trkpt lat="43.75305" lon="1.54581">
        <ele>182.60059</ele>
        <time>2024-06-01T16:01:05+02:00</time>
      </trkpt>
      <trkpt lat="43.75308" lon="1.54596">
        <ele>182.7002</ele>
        <time>2024-06-01T16:01:09+02:00</time>
      </trkpt>
      <trkpt lat="43.75309" lon="1.546">
        <ele>182.7002</ele>
        <time>2024-06-01T16:01:10+02:00</time>
      </trkpt>
      <trkpt lat="43.75313" lon="1.54616">
        <ele>182.7002</ele>
        <time>2024-06-01T16:01:14+02:00</time>
      </trkpt>
      <trkpt lat="43.75314" lon="1.5462">
        <ele>182.7002</ele>
        <time>2024-06-01T16:01:15+02:00</time>
      </trkpt>
      <trkpt lat="43.7532" lon="1.54636">
        <ele>182</ele>
        <time>2024-06-01T16:01:19+02:00</time>
      </trkpt>
      <trkpt lat="43.75321" lon="1.5464">
        <ele>182</ele>
        <time>2024-06-01T16:01:20+02:00</time>
      </trkpt>
      <trkpt lat="43.75329" lon="1.54655">
        <ele>180.60059</ele>
        <time>2024-06-01T16:01:24+02:00</time>
      </trkpt>
      <trkpt lat="43.75331" lon="1.54659">
        <ele>179.60059</ele>
        <time>2024-06-01T16:01:25+02:00</time>
      </trkpt>
      <trkpt lat="43.75339" lon="1.54674">
        <ele>178.60059</ele>
        <time>2024-06-01T16:01:29+02:00</time>
      </trkpt>
      <trkpt lat="43.75341" lon="1.54679">
        <ele>178.2998</ele>
        <time>2024-06-01T16:01:30+02:00</time>
      </trkpt>
      <trkpt lat="43.75352" lon="1.54702">
        <ele>177.40039</ele>
        <time>2024-06-01T16:01:34+02:00</time>
      </trkpt>
      <trkpt lat="43.75355" lon="1.54707">
        <ele>177.40039</ele>
        <time>2024-06-01T16:01:35+02:00</time>
      </trkpt>
      <trkpt lat="43.75364" lon="1.54728">
        <ele>177.10059</ele>
        <time>2024-06-01T16:01:39+02:00</time>
      </trkpt>
      <trkpt lat="43.75367" lon="1.54733">
        <ele>177.10059</ele>
        <time>2024-06-01T16:01:40+02:00</time>
      </trkpt>
      <trkpt lat="43.7538" lon="1.54747">
        <ele>176.2998</ele>
        <time>2024-06-01T16:01:44+02:00</time>
      </trkpt>
      <trkpt lat="43.75384" lon="1.5475">
        <ele>176.2998</ele>
        <time>2024-06-01T16:01:45+02:00</time>
      </trkpt>
      <trkpt lat="43.75403" lon="1.54761">
        <ele>175.2002</ele>
        <time>2024-06-01T16:01:49+02:00</time>
      </trkpt>
      <trkpt lat="43.75407" lon="1.54764">
        <ele>174.5</ele>
        <time>2024-06-01T16:01:50+02:00</time>
      </trkpt>
      <trkpt lat="43.75424" lon="1.54781">
        <ele>172.60059</ele>
        <time>2024-06-01T16:01:54+02:00</time>
      </trkpt>
      <trkpt lat="43.75428" lon="1.54787">
        <ele>172.60059</ele>
        <time>2024-06-01T16:01:55+02:00</time>
      </trkpt>
      <trkpt lat="43.75442" lon="1.54811">
        <ele>168</ele>
        <time>2024-06-01T16:01:59+02:00</time>
      </trkpt>
      <trkpt lat="43.75446" lon="1.54818">
        <ele>167.10059</ele>
        <time>2024-06-01T16:02:00+02:00</time>
      </trkpt>
      <trkpt lat="43.75459" lon="1.54845">
        <ele>163.40039</ele>
        <time>2024-06-01T16:02:04+02:00</time>
      </trkpt>
      <trkpt lat="43.75462" lon="1.54852">
        <ele>162.2998</ele>
        <time>2024-06-01T16:02:05+02:00</time>
      </trkpt>
      <trkpt lat="43.75472" lon="1.54873">
        <ele>161</ele>
        <time>2024-06-01T16:02:09+02:00</time>
      </trkpt>
      <trkpt lat="43.75474" lon="1.54878">
        <ele>160.10059</ele>
        <time>2024-06-01T16:02:10+02:00</time>
      </trkpt>
      <trkpt lat="43.75479" lon="1.54899">
        <ele>158.7998</ele>
        <time>2024-06-01T16:02:14+02:00</time>
      </trkpt>
      <trkpt lat="43.7548" lon="1.54905">
        <ele>158.5</ele>
        <time>2024-06-01T16:02:15+02:00</time>
      </trkpt>
      <trkpt lat="43.75484" lon="1.54931">
        <ele>157.10059</ele>
        <time>2024-06-01T16:02:19+02:00</time>
      </trkpt>
      <trkpt lat="43.75486" lon="1.54937">
        <ele>156.40039</ele>
        <time>2024-06-01T16:02:20+02:00</time>
      </trkpt>
      <trkpt lat="43.75496" lon="1.54963">
        <ele>155.10059</ele>
        <time>2024-06-01T16:02:24+02:00</time>
      </trkpt>
      <trkpt lat="43.75499" lon="1.54969">
        <ele>154.60059</ele>
        <time>2024-06-01T16:02:25+02:00</time>
      </trkpt>
      <trkpt lat="43.75511" lon="1.54993">
        <ele>153.90039</ele>
        <time>2024-06-01T16:02:29+02:00</time>
      </trkpt>
      <trkpt lat="43.75513" lon="1.54997">
        <ele>153.90039</ele>
        <time>2024-06-01T16:02:30+02:00</time>
      </trkpt>
      <trkpt lat="43.75514" lon="1.55009">
        <ele>153.90039</ele>
        <time>2024-06-01T16:02:34+02:00</time>
      </trkpt>
      <trkpt lat="43.75512" lon="1.55012">
        <ele>154</ele>
        <time>2024-06-01T16:02:35+02:00</time>
      </trkpt>
      <trkpt lat="43.75499" lon="1.55025">
        <ele>154.2002</ele>
        <time>2024-06-01T16:02:39+02:00</time>
      </trkpt>
      <trkpt lat="43.75496" lon="1.55029">
        <ele>154.2998</ele>
        <time>2024-06-01T16:02:40+02:00</time>
      </trkpt>
      <trkpt lat="43.75498" lon="1.55052">
        <ele>154.2998</ele>
        <time>2024-06-01T16:02:44+02:00</time>
      </trkpt>
      <trkpt lat="43.75502" lon="1.55057">
        <ele>154.40039</ele>
        <time>2024-06-01T16:02:45+02:00</time>
      </trkpt>
      <trkpt lat="43.75515" lon="1.55078">
        <ele>154.7002</ele>
        <time>2024-06-01T16:02:49+02:00</time>
      </trkpt>
      <trkpt lat="43.75518" lon="1.55083">
        <ele>154.90039</ele>
        <time>2024-06-01T16:02:50+02:00</time>
      </trkpt>
      <trkpt lat="43.75531" lon="1.55104">
        <ele>156</ele>
        <time>2024-06-01T16:02:54+02:00</time>
      </trkpt>
      <trkpt lat="43.75534" lon="1.5511">
        <ele>156.5</ele>
        <time>2024-06-01T16:02:55+02:00</time>
      </trkpt>
      <trkpt lat="43.75544" lon="1.55128">
        <ele>158.60059</ele>
        <time>2024-06-01T16:02:59+02:00</time>
      </trkpt>
      <trkpt lat="43.75546" lon="1.55132">
        <ele>159.40039</ele>
        <time>2024-06-01T16:03:00+02:00</time>
      </trkpt>
      <trkpt lat="43.75553" lon="1.55148">
        <ele>162.2002</ele>
        <time>2024-06-01T16:03:04+02:00</time>
      </trkpt>
      <trkpt lat="43.75555" lon="1.55152">
        <ele>162.7002</ele>
        <time>2024-06-01T16:03:05+02:00</time>
      </trkpt>
      <trkpt lat="43.75557" lon="1.55167">
        <ele>165.10059</ele>
        <time>2024-06-01T16:03:09+02:00</time>
      </trkpt>
      <trkpt lat="43.75557" lon="1.5517">
        <ele>165.10059</ele>
        <time>2024-06-01T16:03:10+02:00</time>
      </trkpt>
      <trkpt lat="43.75557" lon="1.55186">
        <ele>167.40039</ele>
        <time>2024-06-01T16:03:14+02:00</time>
      </trkpt>
      <trkpt lat="43.75557" lon="1.5519">
        <ele>167.40039</ele>
        <time>2024-06-01T16:03:15+02:00</time>
      </trkpt>
      <trkpt lat="43.75558" lon="1.55204">
        <ele>169.60059</ele>
        <time>2024-06-01T16:03:19+02:00</time>
      </trkpt>
      <trkpt lat="43.75559" lon="1.55208">
        <ele>170.5</ele>
        <time>2024-06-01T16:03:20+02:00</time>
      </trkpt>
      <trkpt lat="43.75564" lon="1.55221">
        <ele>172.10059</ele>
        <time>2024-06-01T16:03:24+02:00</time>
      </trkpt>
      <trkpt lat="43.75565" lon="1.55224">
        <ele>172.10059</ele>
        <time>2024-06-01T16:03:25+02:00</time>
      </trkpt>
      <trkpt lat="43.75571" lon="1.55237">
        <ele>174.40039</ele>
        <time>2024-06-01T16:03:29+02:00</time>
      </trkpt>
      <trkpt lat="43.75573" lon="1.5524">
        <ele>175</ele>
        <time>2024-06-01T16:03:30+02:00</time>
      </trkpt>
      <trkpt lat="43.75578" lon="1.55252">
        <ele>176.10059</ele>
        <time>2024-06-01T16:03:34+02:00</time>
      </trkpt>
      <trkpt lat="43.75579" lon="1.55255">
        <ele>176.60059</ele>
        <time>2024-06-01T16:03:35+02:00</time>
      </trkpt>
      <trkpt lat="43.75584" lon="1.55268">
        <ele>177.40039</ele>
        <time>2024-06-01T16:03:39+02:00</time>
      </trkpt>
      <trkpt lat="43.75585" lon="1.5527">
        <ele>177.7002</ele>
        <time>2024-06-01T16:03:40+02:00</time>
      </trkpt>
      <trkpt lat="43.7559" lon="1.5528">
        <ele>178.10059</ele>
        <time>2024-06-01T16:03:44+02:00</time>
      </trkpt>
      <trkpt lat="43.75591" lon="1.55283">
        <ele>178.40039</ele>
        <time>2024-06-01T16:03:45+02:00</time>
      </trkpt>
      <trkpt lat="43.75596" lon="1.55293">
        <ele>178.7002</ele>
        <time>2024-06-01T16:03:49+02:00</time>
      </trkpt>
      <trkpt lat="43.75598" lon="1.55295">
        <ele>179.2002</ele>
        <time>2024-06-01T16:03:50+02:00</time>
      </trkpt>
      <trkpt lat="43.75603" lon="1.55304">
        <ele>179.40039</ele>
        <time>2024-06-01T16:03:54+02:00</time>
      </trkpt>
      <trkpt lat="43.75604" lon="1.55306">
        <ele>179.60059</ele>
        <time>2024-06-01T16:03:55+02:00</time>
      </trkpt>
      <trkpt lat="43.75612" lon="1.55315">
        <ele>180</ele>
        <time>2024-06-01T16:03:59+02:00</time>
      </trkpt>
      <trkpt lat="43.75613" lon="1.55318">
        <ele>180</ele>
        <time>2024-06-01T16:04:00+02:00</time>
      </trkpt>
      <trkpt lat="43.75619" lon="1.55327">
        <ele>180.5</ele>
        <time>2024-06-01T16:04:04+02:00</time>
      </trkpt>
      <trkpt lat="43.7562" lon="1.5533">
        <ele>180.7998</ele>
        <time>2024-06-01T16:04:05+02:00</time>
      </trkpt>
      <trkpt lat="43.75626" lon="1.55339">
        <ele>181.2002</ele>
        <time>2024-06-01T16:04:09+02:00</time>
      </trkpt>
      <trkpt lat="43.75627" lon="1.55341">
        <ele>181.2002</ele>
        <time>2024-06-01T16:04:10+02:00</time>
      </trkpt>
      <trkpt lat="43.75633" lon="1.5535">
        <ele>181.5</ele>
        <time>2024-06-01T16:04:14+02:00</time>
      </trkpt>
      <trkpt lat="43.75634" lon="1.55352">
        <ele>181.60059</ele>
        <time>2024-06-01T16:04:15+02:00</time>
      </trkpt>
      <trkpt lat="43.7564" lon="1.5536">
        <ele>181.7002</ele>
        <time>2024-06-01T16:04:19+02:00</time>
      </trkpt>
      <trkpt lat="43.75642" lon="1.55362">
        <ele>181.90039</ele>
        <time>2024-06-01T16:04:20+02:00</time>
      </trkpt>
      <trkpt lat="43.75648" lon="1.55372">
        <ele>182</ele>
        <time>2024-06-01T16:04:24+02:00</time>
      </trkpt>
      <trkpt lat="43.75649" lon="1.55374">
        <ele>182</ele>
        <time>2024-06-01T16:04:25+02:00</time>
      </trkpt>
      <trkpt lat="43.75657" lon="1.55385">
        <ele>182.10059</ele>
        <time>2024-06-01T16:04:29+02:00</time>
      </trkpt>
      <trkpt lat="43.75659" lon="1.55388">
        <ele>182.10059</ele>
        <time>2024-06-01T16:04:30+02:00</time>
      </trkpt>
      <trkpt lat="43.75667" lon="1.55398">
        <ele>182.2998</ele>
        <time>2024-06-01T16:04:34+02:00</time>
      </trkpt>
      <trkpt lat="43.75669" lon="1.55401">
        <ele>182.2998</ele>
        <time>2024-06-01T16:04:35+02:00</time>
      </trkpt>
      <trkpt lat="43.75678" lon="1.55414">
        <ele>182.2002</ele>
        <time>2024-06-01T16:04:39+02:00</time>
      </trkpt>
      <trkpt lat="43.7568" lon="1.55417">
        <ele>182.2002</ele>
        <time>2024-06-01T16:04:40+02:00</time>
      </trkpt>
      <trkpt lat="43.75686" lon="1.55433">
        <ele>182.10059</ele>
        <time>2024-06-01T16:04:44+02:00</time>
      </trkpt>
      <trkpt lat="43.75688" lon="1.55438">
        <ele>182.10059</ele>
        <time>2024-06-01T16:04:45+02:00</time>
      </trkpt>
      <trkpt lat="43.75684" lon="1.55458">
        <ele>182.2002</ele>
        <time>2024-06-01T16:04:49+02:00</time>
      </trkpt>
      <trkpt lat="43.7568" lon="1.5546">
        <ele>182.60059</ele>
        <time>2024-06-01T16:04:50+02:00</time>
      </trkpt>
      <trkpt lat="43.75664" lon="1.55467">
        <ele>183.40039</ele>
        <time>2024-06-01T16:04:54+02:00</time>
      </trkpt>
      <trkpt lat="43.75661" lon="1.55469">
        <ele>183.40039</ele>
        <time>2024-06-01T16:04:55+02:00</time>
      </trkpt>
      <trkpt lat="43.75648" lon="1.55481">
        <ele>183.90039</ele>
        <time>2024-06-01T16:04:59+02:00</time>
      </trkpt>
      <trkpt lat="43.75645" lon="1.55484">
        <ele>184.2002</ele>
        <time>2024-06-01T16:05:00+02:00</time>
      </trkpt>
      <trkpt lat="43.75634" lon="1.55498">
        <ele>184.60059</ele>
        <time>2024-06-01T16:05:04+02:00</time>
      </trkpt>
      <trkpt lat="43.75632" lon="1.55501">
        <ele>185</ele>
        <time>2024-06-01T16:05:05+02:00</time>
      </trkpt>
      <trkpt lat="43.75624" lon="1.55515">
        <ele>185.60059</ele>
        <time>2024-06-01T16:05:09+02:00</time>
      </trkpt>
      <trkpt lat="43.75623" lon="1.55519">
        <ele>185.7002</ele>
        <time>2024-06-01T16:05:10+02:00</time>
      </trkpt>
      <trkpt lat="43.75626" lon="1.55534">
        <ele>185.90039</ele>
        <time>2024-06-01T16:05:14+02:00</time>
      </trkpt>
      <trkpt lat="43.7563" lon="1.55538">
        <ele>185.2998</ele>
        <time>2024-06-01T16:05:15+02:00</time>
      </trkpt>
      <trkpt lat="43.75649" lon="1.55564">
        <ele>184.5</ele>
        <time>2024-06-01T16:05:19+02:00</time>
      </trkpt>
      <trkpt lat="43.75654" lon="1.55573">
        <ele>184.2998</ele>
        <time>2024-06-01T16:05:20+02:00</time>
      </trkpt>
      <trkpt lat="43.75677" lon="1.55612">
        <ele>183.40039</ele>
        <time>2024-06-01T16:05:24+02:00</time>
      </trkpt>
      <trkpt lat="43.75686" lon="1.55618">
        <ele>182.7002</ele>
        <time>2024-06-01T16:05:25+02:00</time>
      </trkpt>
      <trkpt lat="43.75729" lon="1.55627">
        <ele>178.7998</ele>
        <time>2024-06-01T16:05:29+02:00</time>
      </trkpt>
      <trkpt lat="43.75739" lon="1.5563">
        <ele>177.90039</ele>
        <time>2024-06-01T16:05:30+02:00</time>
      </trkpt>
      <trkpt lat="43.75777" lon="1.55654">
        <ele>173.5</ele>
        <time>2024-06-01T16:05:34+02:00</time>
      </trkpt>
      <trkpt lat="43.75786" lon="1.5566">
        <ele>173.10059</ele>
        <time>2024-06-01T16:05:35+02:00</time>
      </trkpt>
      <trkpt lat="43.75818" lon="1.55683">
        <ele>171.5</ele>
        <time>2024-06-01T16:05:39+02:00</time>
      </trkpt>
      <trkpt lat="43.75826" lon="1.55689">
        <ele>171.40039</ele>
        <time>2024-06-01T16:05:40+02:00</time>
      </trkpt>
      <trkpt lat="43.75854" lon="1.55708">
        <ele>170.7998</ele>
        <time>2024-06-01T16:05:44+02:00</time>
      </trkpt>
      <trkpt lat="43.75861" lon="1.55713">
        <ele>170.7002</ele>
        <time>2024-06-01T16:05:45+02:00</time>
      </trkpt>
      <trkpt lat="43.75885" lon="1.5573">
        <ele>170.5</ele>
        <time>2024-06-01T16:05:49+02:00</time>
      </trkpt>
      <trkpt lat="43.75891" lon="1.55734">
        <ele>170.5</ele>
        <time>2024-06-01T16:05:50+02:00</time>
      </trkpt>
      <trkpt lat="43.75913" lon="1.5575">
        <ele>170.60059</ele>
        <time>2024-06-01T16:05:54+02:00</time>
      </trkpt>
      <trkpt lat="43.75918" lon="1.55755">
        <ele>170.5</ele>
        <time>2024-06-01T16:05:55+02:00</time>
      </trkpt>
      <trkpt lat="43.75938" lon="1.55772">
        <ele>170.2002</ele>
        <time>2024-06-01T16:05:59+02:00</time>
      </trkpt>
      <trkpt lat="43.75944" lon="1.55777">
        <ele>170.2998</ele>
        <time>2024-06-01T16:06:00+02:00</time>
      </trkpt>
      <trkpt lat="43.75965" lon="1.55795">
        <ele>169.7002</ele>
        <time>2024-06-01T16:06:04+02:00</time>
      </trkpt>
      <trkpt lat="43.7597" lon="1.558">
        <ele>169.60059</ele>
        <time>2024-06-01T16:06:05+02:00</time>
      </trkpt>
      <trkpt lat="43.75992" lon="1.55822">
        <ele>169.10059</ele>
        <time>2024-06-01T16:06:09+02:00</time>
      </trkpt>
      <trkpt lat="43.75998" lon="1.55828">
        <ele>169</ele>
        <time>2024-06-01T16:06:10+02:00</time>
      </trkpt>
      <trkpt lat="43.76014" lon="1.5586">
        <ele>168.5</ele>
        <time>2024-06-01T16:06:14+02:00</time>
      </trkpt>
      <trkpt lat="43.76018" lon="1.55869">
        <ele>168.60059</ele>
        <time>2024-06-01T16:06:15+02:00</time>
      </trkpt>
      <trkpt lat="43.76031" lon="1.55903">
        <ele>168.10059</ele>
        <time>2024-06-01T16:06:19+02:00</time>
      </trkpt>
      <trkpt lat="43.76035" lon="1.55912">
        <ele>168.2002</ele>
        <time>2024-06-01T16:06:20+02:00</time>
      </trkpt>
      <trkpt lat="43.76049" lon="1.55942">
        <ele>168.2002</ele>
        <time>2024-06-01T16:06:24+02:00</time>
      </trkpt>
      <trkpt lat="43.76053" lon="1.55949">
        <ele>168.10059</ele>
        <time>2024-06-01T16:06:25+02:00</time>
      </trkpt>
      <trkpt lat="43.76072" lon="1.55974">
        <ele>167.7998</ele>
        <time>2024-06-01T16:06:29+02:00</time>
      </trkpt>
      <trkpt lat="43.76076" lon="1.5598">
        <ele>167.60059</ele>
        <time>2024-06-01T16:06:30+02:00</time>
      </trkpt>
      <trkpt lat="43.76096" lon="1.56004">
        <ele>167.10059</ele>
        <time>2024-06-01T16:06:34+02:00</time>
      </trkpt>
      <trkpt lat="43.76101" lon="1.5601">
        <ele>167</ele>
        <time>2024-06-01T16:06:35+02:00</time>
      </trkpt>
      <trkpt lat="43.7612" lon="1.56033">
        <ele>166.2998</ele>
        <time>2024-06-01T16:06:39+02:00</time>
      </trkpt>
      <trkpt lat="43.76125" lon="1.56038">
        <ele>166.10059</ele>
        <time>2024-06-01T16:06:40+02:00</time>
      </trkpt>
      <trkpt lat="43.76142" lon="1.56059">
        <ele>165.7998</ele>
        <time>2024-06-01T16:06:44+02:00</time>
      </trkpt>
      <trkpt lat="43.76146" lon="1.56065">
        <ele>165.7002</ele>
        <time>2024-06-01T16:06:45+02:00</time>
      </trkpt>
      <trkpt lat="43.76161" lon="1.56084">
        <ele>165.40039</ele>
        <time>2024-06-01T16:06:49+02:00</time>
      </trkpt>
      <trkpt lat="43.76165" lon="1.56089">
        <ele>165.40039</ele>
        <time>2024-06-01T16:06:50+02:00</time>
      </trkpt>
      <trkpt lat="43.76181" lon="1.56112">
        <ele>165.5</ele>
        <time>2024-06-01T16:06:54+02:00</time>
      </trkpt>
      <trkpt lat="43.76185" lon="1.56118">
        <ele>165.60059</ele>
        <time>2024-06-01T16:06:55+02:00</time>
      </trkpt>
      <trkpt lat="43.76202" lon="1.5614">
        <ele>165.7998</ele>
        <time>2024-06-01T16:06:59+02:00</time>
      </trkpt>
      <trkpt lat="43.76206" lon="1.56144">
        <ele>165.90039</ele>
        <time>2024-06-01T16:07:00+02:00</time>
      </trkpt>
      <trkpt lat="43.76222" lon="1.56164">
        <ele>166</ele>
        <time>2024-06-01T16:07:04+02:00</time>
      </trkpt>
      <trkpt lat="43.76222" lon="1.56172">
        <ele>166</ele>
        <time>2024-06-01T16:07:05+02:00</time>
      </trkpt>
      <trkpt lat="43.7622" lon="1.56201">
        <ele>165.7002</ele>
        <time>2024-06-01T16:07:09+02:00</time>
      </trkpt>
      <trkpt lat="43.7622" lon="1.56209">
        <ele>165.60059</ele>
        <time>2024-06-01T16:07:10+02:00</time>
      </trkpt>
      <trkpt lat="43.76221" lon="1.56238">
        <ele>165.10059</ele>
        <time>2024-06-01T16:07:14+02:00</time>
      </trkpt>
      <trkpt lat="43.76221" lon="1.56245">
        <ele>165.10059</ele>
        <time>2024-06-01T16:07:15+02:00</time>
      </trkpt>
      <trkpt lat="43.76222" lon="1.56274">
        <ele>164.7998</ele>
        <time>2024-06-01T16:07:19+02:00</time>
      </trkpt>
      <trkpt lat="43.76222" lon="1.56282">
        <ele>164.7002</ele>
        <time>2024-06-01T16:07:20+02:00</time>
      </trkpt>
      <trkpt lat="43.76222" lon="1.56311">
        <ele>164.60059</ele>
        <time>2024-06-01T16:07:24+02:00</time>
      </trkpt>
      <trkpt lat="43.76222" lon="1.56317">
        <ele>164.60059</ele>
        <time>2024-06-01T16:07:25+02:00</time>
      </trkpt>
      <trkpt lat="43.7622" lon="1.56341">
        <ele>164.7002</ele>
        <time>2024-06-01T16:07:29+02:00</time>
      </trkpt>
      <trkpt lat="43.7622" lon="1.56348">
        <ele>164.7002</ele>
        <time>2024-06-01T16:07:30+02:00</time>
      </trkpt>
      <trkpt lat="43.7622" lon="1.56375">
        <ele>164.90039</ele>
        <time>2024-06-01T16:07:34+02:00</time>
      </trkpt>
      <trkpt lat="43.7622" lon="1.56382">
        <ele>164.90039</ele>
        <time>2024-06-01T16:07:35+02:00</time>
      </trkpt>
      <trkpt lat="43.76221" lon="1.56409">
        <ele>165.10059</ele>
        <time>2024-06-01T16:07:39+02:00</time>
      </trkpt>
      <trkpt lat="43.76221" lon="1.56416">
        <ele>165.10059</ele>
        <time>2024-06-01T16:07:40+02:00</time>
      </trkpt>
      <trkpt lat="43.76222" lon="1.56442">
        <ele>165</ele>
        <time>2024-06-01T16:07:44+02:00</time>
      </trkpt>
      <trkpt lat="43.76222" lon="1.56449">
        <ele>164.90039</ele>
        <time>2024-06-01T16:07:45+02:00</time>
      </trkpt>
      <trkpt lat="43.76223" lon="1.56476">
        <ele>164.7998</ele>
        <time>2024-06-01T16:07:49+02:00</time>
      </trkpt>
      <trkpt lat="43.76223" lon="1.56482">
        <ele>164.7998</ele>
        <time>2024-06-01T16:07:50+02:00</time>
      </trkpt>
      <trkpt lat="43.76224" lon="1.56511">
        <ele>165.10059</ele>
        <time>2024-06-01T16:07:54+02:00</time>
      </trkpt>
      <trkpt lat="43.76224" lon="1.56518">
        <ele>165.2998</ele>
        <time>2024-06-01T16:07:55+02:00</time>
      </trkpt>
      <trkpt lat="43.76225" lon="1.56549">
        <ele>166.40039</ele>
        <time>2024-06-01T16:07:59+02:00</time>
      </trkpt>
      <trkpt lat="43.76224" lon="1.56556">
        <ele>166.7002</ele>
        <time>2024-06-01T16:08:00+02:00</time>
      </trkpt>
      <trkpt lat="43.7622" lon="1.56585">
        <ele>167.90039</ele>
        <time>2024-06-01T16:08:04+02:00</time>
      </trkpt>
      <trkpt lat="43.76218" lon="1.56591">
        <ele>168.40039</ele>
        <time>2024-06-01T16:08:05+02:00</time>
      </trkpt>
      <trkpt lat="43.76215" lon="1.56607">
        <ele>169.40039</ele>
        <time>2024-06-01T16:08:09+02:00</time>
      </trkpt>
      <trkpt lat="43.76214" lon="1.5661">
        <ele>169.40039</ele>
        <time>2024-06-01T16:08:10+02:00</time>
      </trkpt>
      <trkpt lat="43.76214" lon="1.56614">
        <ele>169.40039</ele>
        <time>2024-06-01T16:08:14+02:00</time>
      </trkpt>
      <trkpt lat="43.76214" lon="1.56615">
        <ele>169.40039</ele>
        <time>2024-06-01T16:08:15+02:00</time>
      </trkpt>
      <trkpt lat="43.76213" lon="1.56619">
        <ele>169.7998</ele>
        <time>2024-06-01T16:08:19+02:00</time>
      </trkpt>
      <trkpt lat="43.76213" lon="1.5662">
        <ele>169.7998</ele>
        <time>2024-06-01T16:08:20+02:00</time>
      </trkpt>
      <trkpt lat="43.76207" lon="1.56626">
        <ele>170.40039</ele>
        <time>2024-06-01T16:08:24+02:00</time>
      </trkpt>
      <trkpt lat="43.76205" lon="1.56629">
        <ele>170.40039</ele>
        <time>2024-06-01T16:08:25+02:00</time>
      </trkpt>
      <trkpt lat="43.76192" lon="1.56635">
        <ele>171</ele>
        <time>2024-06-01T16:08:29+02:00</time>
      </trkpt>
      <trkpt lat="43.76188" lon="1.56636">
        <ele>171.10059</ele>
        <time>2024-06-01T16:08:30+02:00</time>
      </trkpt>
      <trkpt lat="43.76172" lon="1.56641">
        <ele>171.60059</ele>
        <time>2024-06-01T16:08:34+02:00</time>
      </trkpt>
      <trkpt lat="43.76168" lon="1.56643">
        <ele>171.7998</ele>
        <time>2024-06-01T16:08:35+02:00</time>
      </trkpt>
      <trkpt lat="43.76154" lon="1.56656">
        <ele>172.2002</ele>
        <time>2024-06-01T16:08:39+02:00</time>
      </trkpt>
      <trkpt lat="43.76151" lon="1.5666">
        <ele>172.2002</ele>
        <time>2024-06-01T16:08:40+02:00</time>
      </trkpt>
      <trkpt lat="43.76137" lon="1.56669">
        <ele>172.2002</ele>
        <time>2024-06-01T16:08:44+02:00</time>
      </trkpt>
      <trkpt lat="43.76135" lon="1.5667">
        <ele>172.2002</ele>
        <time>2024-06-01T16:08:45+02:00</time>
      </trkpt>
      <trkpt lat="43.76128" lon="1.56677">
        <ele>172.2002</ele>
        <time>2024-06-01T16:08:49+02:00</time>
      </trkpt>
      <trkpt lat="43.76129" lon="1.56681">
        <ele>172.2002</ele>
        <time>2024-06-01T16:08:50+02:00</time>
      </trkpt>
      <trkpt lat="43.76137" lon="1.56697">
        <ele>172.2002</ele>
        <time>2024-06-01T16:08:54+02:00</time>
      </trkpt>
      <trkpt lat="43.76138" lon="1.56701">
        <ele>172.2002</ele>
        <time>2024-06-01T16:08:55+02:00</time>
      </trkpt>
      <trkpt lat="43.76148" lon="1.5672">
        <ele>172.2002</ele>
        <time>2024-06-01T16:08:59+02:00</time>
      </trkpt>
      <trkpt lat="43.7615" lon="1.56726">
        <ele>172.2002</ele>
        <time>2024-06-01T16:09:00+02:00</time>
      </trkpt>
      <trkpt lat="43.76159" lon="1.56745">
        <ele>171.90039</ele>
        <time>2024-06-01T16:09:04+02:00</time>
      </trkpt>
      <trkpt lat="43.76162" lon="1.56749">
        <ele>171.90039</ele>
        <time>2024-06-01T16:09:05+02:00</time>
      </trkpt>
      <trkpt lat="43.76173" lon="1.5677">
        <ele>171.2998</ele>
        <time>2024-06-01T16:09:09+02:00</time>
      </trkpt>
      <trkpt lat="43.76176" lon="1.56777">
        <ele>171.2002</ele>
        <time>2024-06-01T16:09:10+02:00</time>
      </trkpt>
      <trkpt lat="43.76188" lon="1.56804">
        <ele>170.2002</ele>
        <time>2024-06-01T16:09:14+02:00</time>
      </trkpt>
      <trkpt lat="43.76188" lon="1.56811">
        <ele>170.2002</ele>
        <time>2024-06-01T16:09:15+02:00</time>
      </trkpt>
      <trkpt lat="43.76181" lon="1.56835">
        <ele>169.7002</ele>
        <time>2024-06-01T16:09:19+02:00</time>
      </trkpt>
      <trkpt lat="43.76181" lon="1.56841">
        <ele>169.7002</ele>
        <time>2024-06-01T16:09:20+02:00</time>
      </trkpt>
      <trkpt lat="43.76177" lon="1.56865">
        <ele>169.7998</ele>
        <time>2024-06-01T16:09:24+02:00</time>
      </trkpt>
      <trkpt lat="43.76176" lon="1.56871">
        <ele>169.7998</ele>
        <time>2024-06-01T16:09:25+02:00</time>
      </trkpt>
      <trkpt lat="43.76173" lon="1.56888">
        <ele>170</ele>
        <time>2024-06-01T16:09:29+02:00</time>
      </trkpt>
      <trkpt lat="43.76173" lon="1.56889">
        <ele>170</ele>
        <time>2024-06-01T16:09:30+02:00</time>
      </trkpt>
      <trkpt lat="43.76172" lon="1.569">
        <ele>170.2002</ele>
        <time>2024-06-01T16:09:34+02:00</time>
      </trkpt>
      <trkpt lat="43.76172" lon="1.56903">
        <ele>170.2002</ele>
        <time>2024-06-01T16:09:35+02:00</time>
      </trkpt>
      <trkpt lat="43.7617" lon="1.56909">
        <ele>170.40039</ele>
        <time>2024-06-01T16:09:39+02:00</time>
      </trkpt>
      <trkpt lat="43.7617" lon="1.56909">
        <ele>170.40039</ele>
        <time>2024-06-01T16:09:40+02:00</time>
      </trkpt>
      <trkpt lat="43.7617" lon="1.56909">
        <ele>170.40039</ele>
        <time>2024-06-01T16:09:44+02:00</time>
      </trkpt>
      <trkpt lat="43.7617" lon="1.56909">
        <ele>170.40039</ele>
        <time>2024-06-01T16:09:45+02:00</time>
      </trkpt>
      <trkpt lat="43.7617" lon="1.56909">
        <ele>170.40039</ele>
        <time>2024-06-01T16:09:49+02:00</time>
      </trkpt>
      <trkpt lat="43.7617" lon="1.56909">
        <ele>170.40039</ele>
        <time>2024-06-01T16:09:50+02:00</time>
      </trkpt>
      <trkpt lat="43.7617" lon="1.56909">
        <ele>170.40039</ele>
        <time>2024-06-01T16:09:54+02:00</time>
      </trkpt>
      <trkpt lat="43.7617" lon="1.56909">
        <ele>170.40039</ele>
        <time>2024-06-01T16:09:55+02:00</time>
      </trkpt>
      <trkpt lat="43.7617" lon="1.56909">
        <ele>170.40039</ele>
        <time>2024-06-01T16:09:59+02:00</time>
      </trkpt>
      <trkpt lat="43.7617" lon="1.56909">
        <ele>170.40039</ele>
        <time>2024-06-01T16:10:00+02:00</time>
      </trkpt>
      <trkpt lat="43.7617" lon="1.56909">
        <ele>170.40039</ele>
        <time>2024-06-01T16:10:04+02:00</time>
      </trkpt>
      <trkpt lat="43.7617" lon="1.56909">
        <ele>170.40039</ele>
        <time>2024-06-01T16:10:05+02:00</time>
      </trkpt>
      <trkpt lat="43.7617" lon="1.56909">
        <ele>170.40039</ele>
        <time>2024-06-01T16:10:09+02:00</time>
      </trkpt>
      <trkpt lat="43.7617" lon="1.5691">
        <ele>170.40039</ele>
        <time>2024-06-01T16:10:10+02:00</time>
      </trkpt>
      <trkpt lat="43.76175" lon="1.56922">
        <ele>170.40039</ele>
        <time>2024-06-01T16:10:14+02:00</time>
      </trkpt>
      <trkpt lat="43.76176" lon="1.56925">
        <ele>170.60059</ele>
        <time>2024-06-01T16:10:15+02:00</time>
      </trkpt>
      <trkpt lat="43.76179" lon="1.56939">
        <ele>170.7002</ele>
        <time>2024-06-01T16:10:19+02:00</time>
      </trkpt>
      <trkpt lat="43.7618" lon="1.56943">
        <ele>170.7998</ele>
        <time>2024-06-01T16:10:20+02:00</time>
      </trkpt>
      <trkpt lat="43.76181" lon="1.56962">
        <ele>171.10059</ele>
        <time>2024-06-01T16:10:24+02:00</time>
      </trkpt>
      <trkpt lat="43.76182" lon="1.56967">
        <ele>171.2002</ele>
        <time>2024-06-01T16:10:25+02:00</time>
      </trkpt>
      <trkpt lat="43.76183" lon="1.56987">
        <ele>171.40039</ele>
        <time>2024-06-01T16:10:29+02:00</time>
      </trkpt>
      <trkpt lat="43.76183" lon="1.56992">
        <ele>171.40039</ele>
        <time>2024-06-01T16:10:30+02:00</time>
      </trkpt>
      <trkpt lat="43.76183" lon="1.57006">
        <ele>171.5</ele>
        <time>2024-06-01T16:10:34+02:00</time>
      </trkpt>
      <trkpt lat="43.76183" lon="1.5701">
        <ele>171.5</ele>
        <time>2024-06-01T16:10:35+02:00</time>
      </trkpt>
      <trkpt lat="43.76187" lon="1.57024">
        <ele>171.2002</ele>
        <time>2024-06-01T16:10:39+02:00</time>
      </trkpt>
      <trkpt lat="43.7619" lon="1.57025">
        <ele>171.2002</ele>
        <time>2024-06-01T16:10:40+02:00</time>
      </trkpt>
      <trkpt lat="43.76191" lon="1.57035">
        <ele>171.10059</ele>
        <time>2024-06-01T16:11:19+02:00</time>
      </trkpt>
      <trkpt lat="43.76193" lon="1.57038">
        <ele>170.90039</ele>
        <time>2024-06-01T16:11:20+02:00</time>
      </trkpt>
      <trkpt lat="43.76201" lon="1.57053">
        <ele>170.60059</ele>
        <time>2024-06-01T16:11:24+02:00</time>
      </trkpt>
      <trkpt lat="43.76204" lon="1.57058">
        <ele>170.60059</ele>
        <time>2024-06-01T16:11:25+02:00</time>
      </trkpt>
      <trkpt lat="43.76213" lon="1.57073">
        <ele>170.2998</ele>
        <time>2024-06-01T16:11:29+02:00</time>
      </trkpt>
      <trkpt lat="43.76214" lon="1.57074">
        <ele>170.2998</ele>
        <time>2024-06-01T16:11:30+02:00</time>
      </trkpt>
      <trkpt lat="43.76214" lon="1.57077">
        <ele>170.2998</ele>
        <time>2024-06-01T16:11:34+02:00</time>
      </trkpt>
      <trkpt lat="43.76215" lon="1.57079">
        <ele>170.2998</ele>
        <time>2024-06-01T16:11:35+02:00</time>
      </trkpt>
      <trkpt lat="43.76215" lon="1.5708">
        <ele>170.2998</ele>
        <time>2024-06-01T16:11:39+02:00</time>
      </trkpt>
      <trkpt lat="43.76215" lon="1.5708">
        <ele>170.2998</ele>
        <time>2024-06-01T16:11:40+02:00</time>
      </trkpt>
      <trkpt lat="43.76215" lon="1.5708">
        <ele>170.2998</ele>
        <time>2024-06-01T16:11:44+02:00</time>
      </trkpt>
      <trkpt lat="43.76215" lon="1.5708">
        <ele>170.2998</ele>
        <time>2024-06-01T16:11:45+02:00</time>
      </trkpt>
      <trkpt lat="43.76215" lon="1.5708">
        <ele>170.2998</ele>
        <time>2024-06-01T16:11:49+02:00</time>
      </trkpt>
      <trkpt lat="43.76216" lon="1.57081">
        <ele>170.2998</ele>
        <time>2024-06-01T16:11:50+02:00</time>
      </trkpt>
      <trkpt lat="43.76221" lon="1.57089">
        <ele>170.2998</ele>
        <time>2024-06-01T16:11:54+02:00</time>
      </trkpt>
      <trkpt lat="43.76222" lon="1.57092">
        <ele>170.2998</ele>
        <time>2024-06-01T16:11:55+02:00</time>
      </trkpt>
      <trkpt lat="43.76232" lon="1.57102">
        <ele>170.2998</ele>
        <time>2024-06-01T16:11:59+02:00</time>
      </trkpt>
      <trkpt lat="43.76235" lon="1.57104">
        <ele>170.2998</ele>
        <time>2024-06-01T16:12:00+02:00</time>
      </trkpt>
      <trkpt lat="43.76244" lon="1.57115">
        <ele>170.60059</ele>
        <time>2024-06-01T16:12:04+02:00</time>
      </trkpt>
      <trkpt lat="43.76247" lon="1.57117">
        <ele>170.60059</ele>
        <time>2024-06-01T16:12:05+02:00</time>
      </trkpt>
      <trkpt lat="43.76254" lon="1.57129">
        <ele>170.7002</ele>
        <time>2024-06-01T16:12:09+02:00</time>
      </trkpt>
      <trkpt lat="43.76255" lon="1.57133">
        <ele>170.90039</ele>
        <time>2024-06-01T16:12:10+02:00</time>
      </trkpt>
      <trkpt lat="43.76258" lon="1.5715">
        <ele>171.2998</ele>
        <time>2024-06-01T16:12:14+02:00</time>
      </trkpt>
      <trkpt lat="43.76259" lon="1.57154">
        <ele>171.2998</ele>
        <time>2024-06-01T16:12:15+02:00</time>
      </trkpt>
      <trkpt lat="43.76258" lon="1.57167">
        <ele>171.60059</ele>
        <time>2024-06-01T16:12:19+02:00</time>
      </trkpt>
      <trkpt lat="43.76257" lon="1.57169">
        <ele>171.60059</ele>
        <time>2024-06-01T16:12:20+02:00</time>
      </trkpt>
      <trkpt lat="43.76256" lon="1.57175">
        <ele>171.60059</ele>
        <time>2024-06-01T16:12:24+02:00</time>
      </trkpt>
      <trkpt lat="43.76256" lon="1.57177">
        <ele>171.60059</ele>
        <time>2024-06-01T16:12:25+02:00</time>
      </trkpt>
      <trkpt lat="43.76255" lon="1.57182">
        <ele>171.7002</ele>
        <time>2024-06-01T16:12:29+02:00</time>
      </trkpt>
      <trkpt lat="43.76254" lon="1.57183">
        <ele>171.7002</ele>
        <time>2024-06-01T16:12:30+02:00</time>
      </trkpt>
      <trkpt lat="43.76249" lon="1.57189">
        <ele>171.7002</ele>
        <time>2024-06-01T16:12:34+02:00</time>
      </trkpt>
      <trkpt lat="43.76249" lon="1.5719">
        <ele>171.7002</ele>
        <time>2024-06-01T16:12:35+02:00</time>
      </trkpt>
      <trkpt lat="43.76248" lon="1.572">
        <ele>171.60059</ele>
        <time>2024-06-01T16:12:39+02:00</time>
      </trkpt>
      <trkpt lat="43.7625" lon="1.57202">
        <ele>171.60059</ele>
        <time>2024-06-01T16:12:40+02:00</time>
      </trkpt>
      <trkpt lat="43.76262" lon="1.57203">
        <ele>171.5</ele>
        <time>2024-06-01T16:12:44+02:00</time>
      </trkpt>
      <trkpt lat="43.76265" lon="1.57201">
        <ele>171.5</ele>
        <time>2024-06-01T16:12:45+02:00</time>
      </trkpt>
      <trkpt lat="43.76277" lon="1.57197">
        <ele>171.40039</ele>
        <time>2024-06-01T16:12:49+02:00</time>
      </trkpt>
      <trkpt lat="43.76281" lon="1.57196">
        <ele>171.2998</ele>
        <time>2024-06-01T16:12:50+02:00</time>
      </trkpt>
      <trkpt lat="43.76294" lon="1.57192">
        <ele>171.10059</ele>
        <time>2024-06-01T16:12:54+02:00</time>
      </trkpt>
      <trkpt lat="43.76297" lon="1.57191">
        <ele>171.10059</ele>
        <time>2024-06-01T16:12:55+02:00</time>
      </trkpt>
      <trkpt lat="43.76308" lon="1.57189">
        <ele>170.90039</ele>
        <time>2024-06-01T16:12:59+02:00</time>
      </trkpt>
      <trkpt lat="43.76312" lon="1.57189">
        <ele>170.7998</ele>
        <time>2024-06-01T16:13:00+02:00</time>
      </trkpt>
      <trkpt lat="43.76335" lon="1.57187">
        <ele>170.5</ele>
        <time>2024-06-01T16:13:04+02:00</time>
      </trkpt>
      <trkpt lat="43.76341" lon="1.57186">
        <ele>170.2002</ele>
        <time>2024-06-01T16:13:05+02:00</time>
      </trkpt>
      <trkpt lat="43.76366" lon="1.57183">
        <ele>169.60059</ele>
        <time>2024-06-01T16:13:09+02:00</time>
      </trkpt>
      <trkpt lat="43.76372" lon="1.57182">
        <ele>169.2998</ele>
        <time>2024-06-01T16:13:10+02:00</time>
      </trkpt>
      <trkpt lat="43.76398" lon="1.57178">
        <ele>168.2002</ele>
        <time>2024-06-01T16:13:14+02:00</time>
      </trkpt>
      <trkpt lat="43.76404" lon="1.57179">
        <ele>168</ele>
        <time>2024-06-01T16:13:15+02:00</time>
      </trkpt>
      <trkpt lat="43.76424" lon="1.57199">
        <ele>168.10059</ele>
        <time>2024-06-01T16:13:19+02:00</time>
      </trkpt>
      <trkpt lat="43.76428" lon="1.57207">
        <ele>168</ele>
        <time>2024-06-01T16:13:20+02:00</time>
      </trkpt>
      <trkpt lat="43.76443" lon="1.57238">
        <ele>168.2002</ele>
        <time>2024-06-01T16:13:24+02:00</time>
      </trkpt>
      <trkpt lat="43.76448" lon="1.57245">
        <ele>168.10059</ele>
        <time>2024-06-01T16:13:25+02:00</time>
      </trkpt>
      <trkpt lat="43.76465" lon="1.57273">
        <ele>167.40039</ele>
        <time>2024-06-01T16:13:29+02:00</time>
      </trkpt>
      <trkpt lat="43.76469" lon="1.57281">
        <ele>167.2998</ele>
        <time>2024-06-01T16:13:30+02:00</time>
      </trkpt>
      <trkpt lat="43.76483" lon="1.57308">
        <ele>166.60059</ele>
        <time>2024-06-01T16:13:34+02:00</time>
      </trkpt>
      <trkpt lat="43.76484" lon="1.57312">
        <ele>166.2998</ele>
        <time>2024-06-01T16:13:35+02:00</time>
      </trkpt>
      <trkpt lat="43.76471" lon="1.57332">
        <ele>166.90039</ele>
        <time>2024-06-01T16:13:39+02:00</time>
      </trkpt>
      <trkpt lat="43.76466" lon="1.57336">
        <ele>166.90039</ele>
        <time>2024-06-01T16:13:40+02:00</time>
      </trkpt>
      <trkpt lat="43.76453" lon="1.57355">
        <ele>167.5</ele>
        <time>2024-06-01T16:13:44+02:00</time>
      </trkpt>
      <trkpt lat="43.76453" lon="1.57363">
        <ele>167.40039</ele>
        <time>2024-06-01T16:13:45+02:00</time>
      </trkpt>
      <trkpt lat="43.76449" lon="1.57392">
        <ele>167.7002</ele>
        <time>2024-06-01T16:13:49+02:00</time>
      </trkpt>
      <trkpt lat="43.76447" lon="1.574">
        <ele>167.60059</ele>
        <time>2024-06-01T16:13:50+02:00</time>
      </trkpt>
      <trkpt lat="43.7644" lon="1.57431">
        <ele>167.7998</ele>
        <time>2024-06-01T16:13:54+02:00</time>
      </trkpt>
      <trkpt lat="43.76438" lon="1.57438">
        <ele>168</ele>
        <time>2024-06-01T16:13:55+02:00</time>
      </trkpt>
      <trkpt lat="43.76433" lon="1.57468">
        <ele>168.2002</ele>
        <time>2024-06-01T16:13:59+02:00</time>
      </trkpt>
      <trkpt lat="43.76433" lon="1.57475">
        <ele>168.2002</ele>
        <time>2024-06-01T16:14:00+02:00</time>
      </trkpt>
      <trkpt lat="43.76432" lon="1.57505">
        <ele>168.2998</ele>
        <time>2024-06-01T16:14:04+02:00</time>
      </trkpt>
      <trkpt lat="43.76429" lon="1.57512">
        <ele>168.2998</ele>
        <time>2024-06-01T16:14:05+02:00</time>
      </trkpt>
      <trkpt lat="43.76419" lon="1.57538">
        <ele>168.40039</ele>
        <time>2024-06-01T16:14:09+02:00</time>
      </trkpt>
      <trkpt lat="43.76418" lon="1.57546">
        <ele>168.40039</ele>
        <time>2024-06-01T16:14:10+02:00</time>
      </trkpt>
      <trkpt lat="43.76412" lon="1.57578">
        <ele>168.40039</ele>
        <time>2024-06-01T16:14:14+02:00</time>
      </trkpt>
      <trkpt lat="43.76411" lon="1.57586">
        <ele>168.40039</ele>
        <time>2024-06-01T16:14:15+02:00</time>
      </trkpt>
      <trkpt lat="43.76407" lon="1.57613">
        <ele>168.2998</ele>
        <time>2024-06-01T16:14:19+02:00</time>
      </trkpt>
      <trkpt lat="43.76407" lon="1.57621">
        <ele>168.2002</ele>
        <time>2024-06-01T16:14:20+02:00</time>
      </trkpt>
      <trkpt lat="43.76401" lon="1.57651">
        <ele>168.2002</ele>
        <time>2024-06-01T16:14:24+02:00</time>
      </trkpt>
      <trkpt lat="43.764" lon="1.57659">
        <ele>168.10059</ele>
        <time>2024-06-01T16:14:25+02:00</time>
      </trkpt>
      <trkpt lat="43.76398" lon="1.5769">
        <ele>167.7002</ele>
        <time>2024-06-01T16:14:29+02:00</time>
      </trkpt>
      <trkpt lat="43.76397" lon="1.57697">
        <ele>167.60059</ele>
        <time>2024-06-01T16:14:30+02:00</time>
      </trkpt>
      <trkpt lat="43.76393" lon="1.57727">
        <ele>167.60059</ele>
        <time>2024-06-01T16:14:34+02:00</time>
      </trkpt>
      <trkpt lat="43.76391" lon="1.57734">
        <ele>167.5</ele>
        <time>2024-06-01T16:14:35+02:00</time>
      </trkpt>
      <trkpt lat="43.76387" lon="1.57762">
        <ele>167.2998</ele>
        <time>2024-06-01T16:14:39+02:00</time>
      </trkpt>
      <trkpt lat="43.76386" lon="1.57768">
        <ele>167.2002</ele>
        <time>2024-06-01T16:14:40+02:00</time>
      </trkpt>
      <trkpt lat="43.76381" lon="1.57794">
        <ele>167</ele>
        <time>2024-06-01T16:14:44+02:00</time>
      </trkpt>
      <trkpt lat="43.76383" lon="1.57801">
        <ele>166.90039</ele>
        <time>2024-06-01T16:14:45+02:00</time>
      </trkpt>
      <trkpt lat="43.76395" lon="1.57824">
        <ele>166.40039</ele>
        <time>2024-06-01T16:14:49+02:00</time>
      </trkpt>
      <trkpt lat="43.76398" lon="1.5783">
        <ele>166.2002</ele>
        <time>2024-06-01T16:14:50+02:00</time>
      </trkpt>
      <trkpt lat="43.76409" lon="1.57854">
        <ele>166.40039</ele>
        <time>2024-06-01T16:14:54+02:00</time>
      </trkpt>
      <trkpt lat="43.76412" lon="1.5786">
        <ele>166.40039</ele>
        <time>2024-06-01T16:14:55+02:00</time>
      </trkpt>
      <trkpt lat="43.76423" lon="1.57883">
        <ele>167.2998</ele>
        <time>2024-06-01T16:14:59+02:00</time>
      </trkpt>
      <trkpt lat="43.76425" lon="1.57889">
        <ele>167.5</ele>
        <time>2024-06-01T16:15:00+02:00</time>
      </trkpt>
      <trkpt lat="43.76437" lon="1.57912">
        <ele>168.5</ele>
        <time>2024-06-01T16:15:04+02:00</time>
      </trkpt>
      <trkpt lat="43.76441" lon="1.57918">
        <ele>168.60059</ele>
        <time>2024-06-01T16:15:05+02:00</time>
      </trkpt>
      <trkpt lat="43.76453" lon="1.57941">
        <ele>169.2998</ele>
        <time>2024-06-01T16:15:09+02:00</time>
      </trkpt>
      <trkpt lat="43.76455" lon="1.57946">
        <ele>169.2998</ele>
        <time>2024-06-01T16:15:10+02:00</time>
      </trkpt>
      <trkpt lat="43.76463" lon="1.57961">
        <ele>169.2998</ele>
        <time>2024-06-01T16:15:14+02:00</time>
      </trkpt>
      <trkpt lat="43.76465" lon="1.57966">
        <ele>169.40039</ele>
        <time>2024-06-01T16:15:15+02:00</time>
      </trkpt>
      <trkpt lat="43.76476" lon="1.57991">
        <ele>169.40039</ele>
        <time>2024-06-01T16:15:19+02:00</time>
      </trkpt>
      <trkpt lat="43.76478" lon="1.57997">
        <ele>169.40039</ele>
        <time>2024-06-01T16:15:20+02:00</time>
      </trkpt>
      <trkpt lat="43.76488" lon="1.58022">
        <ele>169.5</ele>
        <time>2024-06-01T16:15:24+02:00</time>
      </trkpt>
      <trkpt lat="43.76492" lon="1.58026">
        <ele>169.60059</ele>
        <time>2024-06-01T16:15:25+02:00</time>
      </trkpt>
      <trkpt lat="43.76513" lon="1.58032">
        <ele>169.7002</ele>
        <time>2024-06-01T16:15:29+02:00</time>
      </trkpt>
      <trkpt lat="43.76518" lon="1.58032">
        <ele>169.7002</ele>
        <time>2024-06-01T16:15:30+02:00</time>
      </trkpt>
      <trkpt lat="43.76531" lon="1.58031">
        <ele>169.7002</ele>
        <time>2024-06-01T16:15:34+02:00</time>
      </trkpt>
      <trkpt lat="43.76532" lon="1.5803">
        <ele>169.7002</ele>
        <time>2024-06-01T16:15:35+02:00</time>
      </trkpt>
      <trkpt lat="43.76538" lon="1.58027">
        <ele>169.7998</ele>
        <time>2024-06-01T16:15:39+02:00</time>
      </trkpt>
      <trkpt lat="43.76539" lon="1.58027">
        <ele>169.7998</ele>
        <time>2024-06-01T16:15:40+02:00</time>
      </trkpt>
      <trkpt lat="43.76545" lon="1.58031">
        <ele>169.7998</ele>
        <time>2024-06-01T16:15:44+02:00</time>
      </trkpt>
      <trkpt lat="43.76546" lon="1.58035">
        <ele>169.7998</ele>
        <time>2024-06-01T16:15:45+02:00</time>
      </trkpt>
      <trkpt lat="43.76548" lon="1.58048">
        <ele>169.7002</ele>
        <time>2024-06-01T16:15:49+02:00</time>
      </trkpt>
      <trkpt lat="43.76549" lon="1.58052">
        <ele>169.7002</ele>
        <time>2024-06-01T16:15:50+02:00</time>
      </trkpt>
      <trkpt lat="43.76548" lon="1.58075">
        <ele>169.60059</ele>
        <time>2024-06-01T16:15:54+02:00</time>
      </trkpt>
      <trkpt lat="43.76549" lon="1.5808">
        <ele>169.60059</ele>
        <time>2024-06-01T16:15:55+02:00</time>
      </trkpt>
      <trkpt lat="43.76564" lon="1.58085">
        <ele>169.2002</ele>
        <time>2024-06-01T16:15:59+02:00</time>
      </trkpt>
      <trkpt lat="43.76569" lon="1.58087">
        <ele>169.2002</ele>
        <time>2024-06-01T16:16:00+02:00</time>
      </trkpt>
      <trkpt lat="43.76588" lon="1.58102">
        <ele>168.5</ele>
        <time>2024-06-01T16:16:04+02:00</time>
      </trkpt>
      <trkpt lat="43.76594" lon="1.58105">
        <ele>168.40039</ele>
        <time>2024-06-01T16:16:05+02:00</time>
      </trkpt>
      <trkpt lat="43.76621" lon="1.58118">
        <ele>167.10059</ele>
        <time>2024-06-01T16:16:09+02:00</time>
      </trkpt>
      <trkpt lat="43.76629" lon="1.58119">
        <ele>166.90039</ele>
        <time>2024-06-01T16:16:10+02:00</time>
      </trkpt>
      <trkpt lat="43.76657" lon="1.58117">
        <ele>166.2998</ele>
        <time>2024-06-01T16:16:14+02:00</time>
      </trkpt>
      <trkpt lat="43.76664" lon="1.58116">
        <ele>165.7002</ele>
        <time>2024-06-01T16:16:15+02:00</time>
      </trkpt>
      <trkpt lat="43.76684" lon="1.58103">
        <ele>165</ele>
        <time>2024-06-01T16:16:19+02:00</time>
      </trkpt>
      <trkpt lat="43.76687" lon="1.58096">
        <ele>165.2998</ele>
        <time>2024-06-01T16:16:20+02:00</time>
      </trkpt>
      <trkpt lat="43.76702" lon="1.58072">
        <ele>165.10059</ele>
        <time>2024-06-01T16:16:24+02:00</time>
      </trkpt>
      <trkpt lat="43.76705" lon="1.58067">
        <ele>165.10059</ele>
        <time>2024-06-01T16:16:25+02:00</time>
      </trkpt>
      <trkpt lat="43.76722" lon="1.58046">
        <ele>164.7998</ele>
        <time>2024-06-01T16:16:29+02:00</time>
      </trkpt>
      <trkpt lat="43.76726" lon="1.5804">
        <ele>164.7002</ele>
        <time>2024-06-01T16:16:30+02:00</time>
      </trkpt>
      <trkpt lat="43.76744" lon="1.58018">
        <ele>164.5</ele>
        <time>2024-06-01T16:16:34+02:00</time>
      </trkpt>
      <trkpt lat="43.76748" lon="1.58013">
        <ele>164.90039</ele>
        <time>2024-06-01T16:16:35+02:00</time>
      </trkpt>
      <trkpt lat="43.76762" lon="1.57987">
        <ele>165.40039</ele>
        <time>2024-06-01T16:16:39+02:00</time>
      </trkpt>
      <trkpt lat="43.76763" lon="1.5798">
        <ele>165.40039</ele>
        <time>2024-06-01T16:16:40+02:00</time>
      </trkpt>
      <trkpt lat="43.76771" lon="1.57954">
        <ele>165.90039</ele>
        <time>2024-06-01T16:16:44+02:00</time>
      </trkpt>
      <trkpt lat="43.76774" lon="1.57946">
        <ele>165.90039</ele>
        <time>2024-06-01T16:16:45+02:00</time>
      </trkpt>
      <trkpt lat="43.76787" lon="1.57921">
        <ele>165.7998</ele>
        <time>2024-06-01T16:16:49+02:00</time>
      </trkpt>
      <trkpt lat="43.76792" lon="1.57916">
        <ele>165.90039</ele>
        <time>2024-06-01T16:16:50+02:00</time>
      </trkpt>
      <trkpt lat="43.76805" lon="1.57904">
        <ele>165.2998</ele>
        <time>2024-06-01T16:16:54+02:00</time>
      </trkpt>
      <trkpt lat="43.76806" lon="1.57904">
        <ele>164.7998</ele>
        <time>2024-06-01T16:16:55+02:00</time>
      </trkpt>
      <trkpt lat="43.76812" lon="1.57898">
        <ele>164.40039</ele>
        <time>2024-06-01T16:16:59+02:00</time>
      </trkpt>
      <trkpt lat="43.76815" lon="1.57896">
        <ele>164.40039</ele>
        <time>2024-06-01T16:17:00+02:00</time>
      </trkpt>
      <trkpt lat="43.76824" lon="1.57882">
        <ele>163.60059</ele>
        <time>2024-06-01T16:17:04+02:00</time>
      </trkpt>
      <trkpt lat="43.76827" lon="1.57879">
        <ele>163.60059</ele>
        <time>2024-06-01T16:17:05+02:00</time>
      </trkpt>
      <trkpt lat="43.76841" lon="1.57864">
        <ele>163.10059</ele>
        <time>2024-06-01T16:17:09+02:00</time>
      </trkpt>
      <trkpt lat="43.76844" lon="1.5786">
        <ele>162.7002</ele>
        <time>2024-06-01T16:17:10+02:00</time>
      </trkpt>
      <trkpt lat="43.76857" lon="1.57841">
        <ele>162.40039</ele>
        <time>2024-06-01T16:17:14+02:00</time>
      </trkpt>
      <trkpt lat="43.7686" lon="1.57836">
        <ele>162.40039</ele>
        <time>2024-06-01T16:17:15+02:00</time>
      </trkpt>
      <trkpt lat="43.76868" lon="1.57822">
        <ele>161.7998</ele>
        <time>2024-06-01T16:17:19+02:00</time>
      </trkpt>
      <trkpt lat="43.76869" lon="1.57821">
        <ele>161.7998</ele>
        <time>2024-06-01T16:17:20+02:00</time>
      </trkpt>
      <trkpt lat="43.7688" lon="1.57813">
        <ele>161.5</ele>
        <time>2024-06-01T16:17:24+02:00</time>
      </trkpt>
      <trkpt lat="43.76883" lon="1.57811">
        <ele>161.2002</ele>
        <time>2024-06-01T16:17:25+02:00</time>
      </trkpt>
      <trkpt lat="43.76896" lon="1.57799">
        <ele>160.7002</ele>
        <time>2024-06-01T16:17:29+02:00</time>
      </trkpt>
      <trkpt lat="43.76899" lon="1.57795">
        <ele>160.7002</ele>
        <time>2024-06-01T16:17:30+02:00</time>
      </trkpt>
      <trkpt lat="43.76906" lon="1.5779">
        <ele>160.2002</ele>
        <time>2024-06-01T16:17:34+02:00</time>
      </trkpt>
      <trkpt lat="43.76906" lon="1.57789">
        <ele>160.2002</ele>
        <time>2024-06-01T16:17:35+02:00</time>
      </trkpt>
      <trkpt lat="43.76908" lon="1.57779">
        <ele>160.2998</ele>
        <time>2024-06-01T16:17:39+02:00</time>
      </trkpt>
      <trkpt lat="43.7691" lon="1.57775">
        <ele>160.2998</ele>
        <time>2024-06-01T16:17:40+02:00</time>
      </trkpt>
      <trkpt lat="43.76921" lon="1.57755">
        <ele>160.2002</ele>
        <time>2024-06-01T16:17:44+02:00</time>
      </trkpt>
      <trkpt lat="43.76924" lon="1.57749">
        <ele>160.10059</ele>
        <time>2024-06-01T16:17:45+02:00</time>
      </trkpt>
      <trkpt lat="43.76938" lon="1.57726">
        <ele>160.2002</ele>
        <time>2024-06-01T16:17:49+02:00</time>
      </trkpt>
      <trkpt lat="43.76942" lon="1.5772">
        <ele>160.2998</ele>
        <time>2024-06-01T16:17:50+02:00</time>
      </trkpt>
      <trkpt lat="43.76962" lon="1.57701">
        <ele>160.5</ele>
        <time>2024-06-01T16:17:54+02:00</time>
      </trkpt>
      <trkpt lat="43.76966" lon="1.57696">
        <ele>160.7002</ele>
        <time>2024-06-01T16:17:55+02:00</time>
      </trkpt>
      <trkpt lat="43.76985" lon="1.57686">
        <ele>160.7998</ele>
        <time>2024-06-01T16:17:59+02:00</time>
      </trkpt>
      <trkpt lat="43.76989" lon="1.57685">
        <ele>160.7998</ele>
        <time>2024-06-01T16:18:00+02:00</time>
      </trkpt>
      <trkpt lat="43.77004" lon="1.57676">
        <ele>161</ele>
        <time>2024-06-01T16:18:04+02:00</time>
      </trkpt>
      <trkpt lat="43.77006" lon="1.5767">
        <ele>161.2002</ele>
        <time>2024-06-01T16:18:05+02:00</time>
      </trkpt>
      <trkpt lat="43.77022" lon="1.57654">
        <ele>161.40039</ele>
        <time>2024-06-01T16:18:09+02:00</time>
      </trkpt>
      <trkpt lat="43.77026" lon="1.57653">
        <ele>161.5</ele>
        <time>2024-06-01T16:18:10+02:00</time>
      </trkpt>
      <trkpt lat="43.77037" lon="1.57648">
        <ele>161.60059</ele>
        <time>2024-06-01T16:18:14+02:00</time>
      </trkpt>
      <trkpt lat="43.77041" lon="1.57648">
        <ele>161.60059</ele>
        <time>2024-06-01T16:18:15+02:00</time>
      </trkpt>
      <trkpt lat="43.77055" lon="1.57646">
        <ele>161.60059</ele>
        <time>2024-06-01T16:18:19+02:00</time>
      </trkpt>
      <trkpt lat="43.77058" lon="1.57645">
        <ele>161.7998</ele>
        <time>2024-06-01T16:18:20+02:00</time>
      </trkpt>
      <trkpt lat="43.77072" lon="1.57637">
        <ele>161.7998</ele>
        <time>2024-06-01T16:18:24+02:00</time>
      </trkpt>
      <trkpt lat="43.77077" lon="1.57634">
        <ele>162</ele>
        <time>2024-06-01T16:18:25+02:00</time>
      </trkpt>
      <trkpt lat="43.77095" lon="1.57611">
        <ele>162.10059</ele>
        <time>2024-06-01T16:18:29+02:00</time>
      </trkpt>
      <trkpt lat="43.771" lon="1.57604">
        <ele>162.10059</ele>
        <time>2024-06-01T16:18:30+02:00</time>
      </trkpt>
      <trkpt lat="43.77119" lon="1.57583">
        <ele>161.7998</ele>
        <time>2024-06-01T16:18:34+02:00</time>
      </trkpt>
      <trkpt lat="43.77125" lon="1.57579">
        <ele>161.60059</ele>
        <time>2024-06-01T16:18:35+02:00</time>
      </trkpt>
      <trkpt lat="43.77146" lon="1.57564">
        <ele>161.2002</ele>
        <time>2024-06-01T16:18:39+02:00</time>
      </trkpt>
      <trkpt lat="43.77149" lon="1.57557">
        <ele>161.10059</ele>
        <time>2024-06-01T16:18:40+02:00</time>
      </trkpt>
      <trkpt lat="43.77156" lon="1.57531">
        <ele>161.10059</ele>
        <time>2024-06-01T16:18:44+02:00</time>
      </trkpt>
      <trkpt lat="43.77158" lon="1.57527">
        <ele>161.10059</ele>
        <time>2024-06-01T16:18:45+02:00</time>
      </trkpt>
      <trkpt lat="43.77166" lon="1.5752">
        <ele>160.90039</ele>
        <time>2024-06-01T16:18:49+02:00</time>
      </trkpt>
      <trkpt lat="43.77168" lon="1.57517">
        <ele>160.90039</ele>
        <time>2024-06-01T16:18:50+02:00</time>
      </trkpt>
      <trkpt lat="43.77182" lon="1.57511">
        <ele>160.7998</ele>
        <time>2024-06-01T16:18:54+02:00</time>
      </trkpt>
      <trkpt lat="43.77186" lon="1.57505">
        <ele>160.7998</ele>
        <time>2024-06-01T16:18:55+02:00</time>
      </trkpt>
      <trkpt lat="43.77203" lon="1.57487">
        <ele>160.7002</ele>
        <time>2024-06-01T16:18:59+02:00</time>
      </trkpt>
      <trkpt lat="43.77207" lon="1.57484">
        <ele>160.7002</ele>
        <time>2024-06-01T16:19:00+02:00</time>
      </trkpt>
      <trkpt lat="43.7722" lon="1.57466">
        <ele>160.7998</ele>
        <time>2024-06-01T16:19:04+02:00</time>
      </trkpt>
      <trkpt lat="43.77224" lon="1.57461">
        <ele>160.7998</ele>
        <time>2024-06-01T16:19:05+02:00</time>
      </trkpt>
      <trkpt lat="43.77242" lon="1.57451">
        <ele>160.90039</ele>
        <time>2024-06-01T16:19:09+02:00</time>
      </trkpt>
      <trkpt lat="43.77245" lon="1.57449">
        <ele>160.90039</ele>
        <time>2024-06-01T16:19:10+02:00</time>
      </trkpt>
      <trkpt lat="43.77264" lon="1.57434">
        <ele>161.2002</ele>
        <time>2024-06-01T16:19:14+02:00</time>
      </trkpt>
      <trkpt lat="43.77269" lon="1.57431">
        <ele>161.2998</ele>
        <time>2024-06-01T16:19:15+02:00</time>
      </trkpt>
      <trkpt lat="43.77287" lon="1.57421">
        <ele>161.60059</ele>
        <time>2024-06-01T16:19:19+02:00</time>
      </trkpt>
      <trkpt lat="43.77289" lon="1.5742">
        <ele>161.7002</ele>
        <time>2024-06-01T16:19:20+02:00</time>
      </trkpt>
      <trkpt lat="43.77299" lon="1.57416">
        <ele>161.7998</ele>
        <time>2024-06-01T16:19:24+02:00</time>
      </trkpt>
      <trkpt lat="43.77302" lon="1.57415">
        <ele>161.90039</ele>
        <time>2024-06-01T16:19:25+02:00</time>
      </trkpt>
      <trkpt lat="43.77317" lon="1.5741">
        <ele>162.10059</ele>
        <time>2024-06-01T16:19:29+02:00</time>
      </trkpt>
      <trkpt lat="43.77322" lon="1.57408">
        <ele>162.2002</ele>
        <time>2024-06-01T16:19:30+02:00</time>
      </trkpt>
      <trkpt lat="43.77339" lon="1.57402">
        <ele>162.40039</ele>
        <time>2024-06-01T16:19:34+02:00</time>
      </trkpt>
      <trkpt lat="43.7734" lon="1.57401">
        <ele>162.5</ele>
        <time>2024-06-01T16:19:35+02:00</time>
      </trkpt>
      <trkpt lat="43.77345" lon="1.57394">
        <ele>162.60059</ele>
        <time>2024-06-01T16:19:39+02:00</time>
      </trkpt>
      <trkpt lat="43.77347" lon="1.5739">
        <ele>162.60059</ele>
        <time>2024-06-01T16:19:40+02:00</time>
      </trkpt>
      <trkpt lat="43.77362" lon="1.57376">
        <ele>162.7002</ele>
        <time>2024-06-01T16:19:44+02:00</time>
      </trkpt>
      <trkpt lat="43.77366" lon="1.57375">
        <ele>162.7998</ele>
        <time>2024-06-01T16:19:45+02:00</time>
      </trkpt>
      <trkpt lat="43.77378" lon="1.5737">
        <ele>162.7998</ele>
        <time>2024-06-01T16:19:49+02:00</time>
      </trkpt>
      <trkpt lat="43.77382" lon="1.57368">
        <ele>162.7998</ele>
        <time>2024-06-01T16:19:50+02:00</time>
      </trkpt>
      <trkpt lat="43.77403" lon="1.57373">
        <ele>163</ele>
        <time>2024-06-01T16:19:54+02:00</time>
      </trkpt>
      <trkpt lat="43.77407" lon="1.57374">
        <ele>163</ele>
        <time>2024-06-01T16:19:55+02:00</time>
      </trkpt>
      <trkpt lat="43.77426" lon="1.57361">
        <ele>162.60059</ele>
        <time>2024-06-01T16:19:59+02:00</time>
      </trkpt>
      <trkpt lat="43.77431" lon="1.57357">
        <ele>162.60059</ele>
        <time>2024-06-01T16:20:00+02:00</time>
      </trkpt>
      <trkpt lat="43.77453" lon="1.57354">
        <ele>162.10059</ele>
        <time>2024-06-01T16:20:04+02:00</time>
      </trkpt>
      <trkpt lat="43.77459" lon="1.57353">
        <ele>161.7002</ele>
        <time>2024-06-01T16:20:05+02:00</time>
      </trkpt>
      <trkpt lat="43.77479" lon="1.57361">
        <ele>161.2998</ele>
        <time>2024-06-01T16:20:09+02:00</time>
      </trkpt>
      <trkpt lat="43.77485" lon="1.57363">
        <ele>161.2998</ele>
        <time>2024-06-01T16:20:10+02:00</time>
      </trkpt>
      <trkpt lat="43.77509" lon="1.57356">
        <ele>160</ele>
        <time>2024-06-01T16:20:14+02:00</time>
      </trkpt>
      <trkpt lat="43.77514" lon="1.57351">
        <ele>159.5</ele>
        <time>2024-06-01T16:20:15+02:00</time>
      </trkpt>
      <trkpt lat="43.7752" lon="1.57331">
        <ele>159.10059</ele>
        <time>2024-06-01T16:20:19+02:00</time>
      </trkpt>
      <trkpt lat="43.7752" lon="1.57328">
        <ele>159.10059</ele>
        <time>2024-06-01T16:20:20+02:00</time>
      </trkpt>
      <trkpt lat="43.77522" lon="1.57314">
        <ele>159</ele>
        <time>2024-06-01T16:20:24+02:00</time>
      </trkpt>
      <trkpt lat="43.77523" lon="1.57309">
        <ele>159</ele>
        <time>2024-06-01T16:20:25+02:00</time>
      </trkpt>
      <trkpt lat="43.77528" lon="1.57288">
        <ele>159.10059</ele>
        <time>2024-06-01T16:20:29+02:00</time>
      </trkpt>
      <trkpt lat="43.7753" lon="1.57283">
        <ele>159.2002</ele>
        <time>2024-06-01T16:20:30+02:00</time>
      </trkpt>
      <trkpt lat="43.77543" lon="1.57267">
        <ele>159.90039</ele>
        <time>2024-06-01T16:20:34+02:00</time>
      </trkpt>
      <trkpt lat="43.77547" lon="1.57264">
        <ele>159.90039</ele>
        <time>2024-06-01T16:20:35+02:00</time>
      </trkpt>
      <trkpt lat="43.77564" lon="1.57265">
        <ele>160.40039</ele>
        <time>2024-06-01T16:20:39+02:00</time>
      </trkpt>
      <trkpt lat="43.77569" lon="1.57267">
        <ele>160.5</ele>
        <time>2024-06-01T16:20:40+02:00</time>
      </trkpt>
      <trkpt lat="43.77581" lon="1.57285">
        <ele>160</ele>
        <time>2024-06-01T16:20:44+02:00</time>
      </trkpt>
      <trkpt lat="43.77584" lon="1.5729">
        <ele>160</ele>
        <time>2024-06-01T16:20:45+02:00</time>
      </trkpt>
      <trkpt lat="43.77597" lon="1.57309">
        <ele>159.7998</ele>
        <time>2024-06-01T16:20:49+02:00</time>
      </trkpt>
      <trkpt lat="43.776" lon="1.57314">
        <ele>159.7002</ele>
        <time>2024-06-01T16:20:50+02:00</time>
      </trkpt>
      <trkpt lat="43.77613" lon="1.57339">
        <ele>159.2998</ele>
        <time>2024-06-01T16:20:54+02:00</time>
      </trkpt>
      <trkpt lat="43.77616" lon="1.57345">
        <ele>159.2998</ele>
        <time>2024-06-01T16:20:55+02:00</time>
      </trkpt>
      <trkpt lat="43.77629" lon="1.57367">
        <ele>158.7998</ele>
        <time>2024-06-01T16:20:59+02:00</time>
      </trkpt>
      <trkpt lat="43.77632" lon="1.57373">
        <ele>158.7002</ele>
        <time>2024-06-01T16:21:00+02:00</time>
      </trkpt>
      <trkpt lat="43.7764" lon="1.57393">
        <ele>158.10059</ele>
        <time>2024-06-01T16:21:04+02:00</time>
      </trkpt>
      <trkpt lat="43.77642" lon="1.57399">
        <ele>157.7998</ele>
        <time>2024-06-01T16:21:05+02:00</time>
      </trkpt>
      <trkpt lat="43.77652" lon="1.5742">
        <ele>157.2998</ele>
        <time>2024-06-01T16:21:09+02:00</time>
      </trkpt>
      <trkpt lat="43.77656" lon="1.57426">
        <ele>157</ele>
        <time>2024-06-01T16:21:10+02:00</time>
      </trkpt>
      <trkpt lat="43.77677" lon="1.57434">
        <ele>156.5</ele>
        <time>2024-06-01T16:21:14+02:00</time>
      </trkpt>
      <trkpt lat="43.77683" lon="1.57434">
        <ele>156.5</ele>
        <time>2024-06-01T16:21:15+02:00</time>
      </trkpt>
      <trkpt lat="43.77702" lon="1.57439">
        <ele>156.40039</ele>
        <time>2024-06-01T16:21:19+02:00</time>
      </trkpt>
      <trkpt lat="43.77704" lon="1.5744">
        <ele>155.7002</ele>
        <time>2024-06-01T16:21:20+02:00</time>
      </trkpt>
      <trkpt lat="43.77718" lon="1.5744">
        <ele>155.5</ele>
        <time>2024-06-01T16:21:24+02:00</time>
      </trkpt>
      <trkpt lat="43.77723" lon="1.57441">
        <ele>155.5</ele>
        <time>2024-06-01T16:21:25+02:00</time>
      </trkpt>
      <trkpt lat="43.77745" lon="1.57445">
        <ele>155.2002</ele>
        <time>2024-06-01T16:21:29+02:00</time>
      </trkpt>
      <trkpt lat="43.77751" lon="1.57447">
        <ele>155.2002</ele>
        <time>2024-06-01T16:21:30+02:00</time>
      </trkpt>
      <trkpt lat="43.7777" lon="1.57465">
        <ele>151.90039</ele>
        <time>2024-06-01T16:21:34+02:00</time>
      </trkpt>
      <trkpt lat="43.77774" lon="1.57471">
        <ele>151.90039</ele>
        <time>2024-06-01T16:21:35+02:00</time>
      </trkpt>
      <trkpt lat="43.77795" lon="1.57486">
        <ele>149.5</ele>
        <time>2024-06-01T16:21:39+02:00</time>
      </trkpt>
      <trkpt lat="43.77801" lon="1.57489">
        <ele>149.40039</ele>
        <time>2024-06-01T16:21:40+02:00</time>
      </trkpt>
      <trkpt lat="43.77819" lon="1.57494">
        <ele>148.40039</ele>
        <time>2024-06-01T16:21:44+02:00</time>
      </trkpt>
      <trkpt lat="43.77823" lon="1.57495">
        <ele>148.5</ele>
        <time>2024-06-01T16:21:45+02:00</time>
      </trkpt>
      <trkpt lat="43.77834" lon="1.57505">
        <ele>147.7002</ele>
        <time>2024-06-01T16:21:49+02:00</time>
      </trkpt>
      <trkpt lat="43.77837" lon="1.57511">
        <ele>147</ele>
        <time>2024-06-01T16:21:50+02:00</time>
      </trkpt>
      <trkpt lat="43.77832" lon="1.57541">
        <ele>145.40039</ele>
        <time>2024-06-01T16:21:54+02:00</time>
      </trkpt>
      <trkpt lat="43.77826" lon="1.57546">
        <ele>145.10059</ele>
        <time>2024-06-01T16:21:55+02:00</time>
      </trkpt>
      <trkpt lat="43.77807" lon="1.57572">
        <ele>145</ele>
        <time>2024-06-01T16:21:59+02:00</time>
      </trkpt>
      <trkpt lat="43.77803" lon="1.57579">
        <ele>145.2002</ele>
        <time>2024-06-01T16:22:00+02:00</time>
      </trkpt>
      <trkpt lat="43.77781" lon="1.57602">
        <ele>146.10059</ele>
        <time>2024-06-01T16:22:04+02:00</time>
      </trkpt>
      <trkpt lat="43.77778" lon="1.57604">
        <ele>146.2002</ele>
        <time>2024-06-01T16:22:05+02:00</time>
      </trkpt>
      <trkpt lat="43.77779" lon="1.57616">
        <ele>146.2002</ele>
        <time>2024-06-01T16:22:09+02:00</time>
      </trkpt>
      <trkpt lat="43.7778" lon="1.57619">
        <ele>146.2002</ele>
        <time>2024-06-01T16:22:10+02:00</time>
      </trkpt>
      <trkpt lat="43.77785" lon="1.57632">
        <ele>146.5</ele>
        <time>2024-06-01T16:22:14+02:00</time>
      </trkpt>
      <trkpt lat="43.77786" lon="1.57634">
        <ele>146.5</ele>
        <time>2024-06-01T16:22:15+02:00</time>
      </trkpt>
      <trkpt lat="43.77787" lon="1.5765">
        <ele>146.90039</ele>
        <time>2024-06-01T16:22:19+02:00</time>
      </trkpt>
      <trkpt lat="43.77789" lon="1.57653">
        <ele>146.90039</ele>
        <time>2024-06-01T16:22:20+02:00</time>
      </trkpt>
      <trkpt lat="43.77794" lon="1.57665">
        <ele>147.7002</ele>
        <time>2024-06-01T16:22:24+02:00</time>
      </trkpt>
      <trkpt lat="43.77794" lon="1.57668">
        <ele>147.7002</ele>
        <time>2024-06-01T16:22:25+02:00</time>
      </trkpt>
      <trkpt lat="43.77797" lon="1.57684">
        <ele>148.90039</ele>
        <time>2024-06-01T16:22:29+02:00</time>
      </trkpt>
      <trkpt lat="43.77798" lon="1.57688">
        <ele>149.10059</ele>
        <time>2024-06-01T16:22:30+02:00</time>
      </trkpt>
      <trkpt lat="43.77802" lon="1.57701">
        <ele>150.5</ele>
        <time>2024-06-01T16:22:34+02:00</time>
      </trkpt>
      <trkpt lat="43.77805" lon="1.57703">
        <ele>150.60059</ele>
        <time>2024-06-01T16:22:35+02:00</time>
      </trkpt>
      <trkpt lat="43.77815" lon="1.57711">
        <ele>151.2998</ele>
        <time>2024-06-01T16:22:39+02:00</time>
      </trkpt>
      <trkpt lat="43.77816" lon="1.57714">
        <ele>151.2998</ele>
        <time>2024-06-01T16:22:40+02:00</time>
      </trkpt>
      <trkpt lat="43.77818" lon="1.57729">
        <ele>152.2998</ele>
        <time>2024-06-01T16:22:44+02:00</time>
      </trkpt>
      <trkpt lat="43.77818" lon="1.57733">
        <ele>152.90039</ele>
        <time>2024-06-01T16:22:45+02:00</time>
      </trkpt>
      <trkpt lat="43.77807" lon="1.57743">
        <ele>154</ele>
        <time>2024-06-01T16:22:49+02:00</time>
      </trkpt>
      <trkpt lat="43.77804" lon="1.57745">
        <ele>154</ele>
        <time>2024-06-01T16:22:50+02:00</time>
      </trkpt>
      <trkpt lat="43.77792" lon="1.57754">
        <ele>155</ele>
        <time>2024-06-01T16:22:54+02:00</time>
      </trkpt>
      <trkpt lat="43.77789" lon="1.57756">
        <ele>155.10059</ele>
        <time>2024-06-01T16:22:55+02:00</time>
      </trkpt>
      <trkpt lat="43.7778" lon="1.57753">
        <ele>155.2002</ele>
        <time>2024-06-01T16:22:59+02:00</time>
      </trkpt>
      <trkpt lat="43.77778" lon="1.5775">
        <ele>155.2002</ele>
        <time>2024-06-01T16:23:00+02:00</time>
      </trkpt>
      <trkpt lat="43.7777" lon="1.57737">
        <ele>153.2002</ele>
        <time>2024-06-01T16:23:04+02:00</time>
      </trkpt>
      <trkpt lat="43.77767" lon="1.57734">
        <ele>153.2002</ele>
        <time>2024-06-01T16:23:05+02:00</time>
      </trkpt>
      <trkpt lat="43.77759" lon="1.5771">
        <ele>150.10059</ele>
        <time>2024-06-01T16:23:09+02:00</time>
      </trkpt>
      <trkpt lat="43.77759" lon="1.57701">
        <ele>149.5</ele>
        <time>2024-06-01T16:23:10+02:00</time>
      </trkpt>
      <trkpt lat="43.77744" lon="1.57682">
        <ele>148.5</ele>
        <time>2024-06-01T16:23:14+02:00</time>
      </trkpt>
      <trkpt lat="43.77739" lon="1.57683">
        <ele>148.5</ele>
        <time>2024-06-01T16:23:15+02:00</time>
      </trkpt>
      <trkpt lat="43.77716" lon="1.57681">
        <ele>147.7002</ele>
        <time>2024-06-01T16:23:19+02:00</time>
      </trkpt>
      <trkpt lat="43.77709" lon="1.57677">
        <ele>147.5</ele>
        <time>2024-06-01T16:23:20+02:00</time>
      </trkpt>
      <trkpt lat="43.77681" lon="1.57665">
        <ele>148</ele>
        <time>2024-06-01T16:23:24+02:00</time>
      </trkpt>
      <trkpt lat="43.77675" lon="1.57665">
        <ele>148.2002</ele>
        <time>2024-06-01T16:23:25+02:00</time>
      </trkpt>
      <trkpt lat="43.77652" lon="1.57664">
        <ele>148.60059</ele>
        <time>2024-06-01T16:23:29+02:00</time>
      </trkpt>
      <trkpt lat="43.77647" lon="1.57665">
        <ele>148.60059</ele>
        <time>2024-06-01T16:23:30+02:00</time>
      </trkpt>
      <trkpt lat="43.77629" lon="1.57664">
        <ele>148.7002</ele>
        <time>2024-06-01T16:23:34+02:00</time>
      </trkpt>
      <trkpt lat="43.77624" lon="1.57664">
        <ele>148.7002</ele>
        <time>2024-06-01T16:23:35+02:00</time>
      </trkpt>
      <trkpt lat="43.77607" lon="1.57667">
        <ele>148.7998</ele>
        <time>2024-06-01T16:23:39+02:00</time>
      </trkpt>
      <trkpt lat="43.77603" lon="1.57669">
        <ele>148.7998</ele>
        <time>2024-06-01T16:23:40+02:00</time>
      </trkpt>
      <trkpt lat="43.77586" lon="1.57675">
        <ele>149.5</ele>
        <time>2024-06-01T16:23:44+02:00</time>
      </trkpt>
      <trkpt lat="43.77581" lon="1.57677">
        <ele>149.5</ele>
        <time>2024-06-01T16:23:45+02:00</time>
      </trkpt>
      <trkpt lat="43.77566" lon="1.57688">
        <ele>150.10059</ele>
        <time>2024-06-01T16:23:49+02:00</time>
      </trkpt>
      <trkpt lat="43.77563" lon="1.57689">
        <ele>150.40039</ele>
        <time>2024-06-01T16:23:50+02:00</time>
      </trkpt>
      <trkpt lat="43.77546" lon="1.57697">
        <ele>150.7002</ele>
        <time>2024-06-01T16:23:54+02:00</time>
      </trkpt>
      <trkpt lat="43.77542" lon="1.57699">
        <ele>150.7002</ele>
        <time>2024-06-01T16:23:55+02:00</time>
      </trkpt>
      <trkpt lat="43.77526" lon="1.57707">
        <ele>151</ele>
        <time>2024-06-01T16:23:59+02:00</time>
      </trkpt>
      <trkpt lat="43.77522" lon="1.57708">
        <ele>151</ele>
        <time>2024-06-01T16:24:00+02:00</time>
      </trkpt>
      <trkpt lat="43.77507" lon="1.57716">
        <ele>151.2998</ele>
        <time>2024-06-01T16:24:04+02:00</time>
      </trkpt>
      <trkpt lat="43.77503" lon="1.57718">
        <ele>151.2998</ele>
        <time>2024-06-01T16:24:05+02:00</time>
      </trkpt>
      <trkpt lat="43.7749" lon="1.57733">
        <ele>151.90039</ele>
        <time>2024-06-01T16:24:09+02:00</time>
      </trkpt>
      <trkpt lat="43.77486" lon="1.57736">
        <ele>151.90039</ele>
        <time>2024-06-01T16:24:10+02:00</time>
      </trkpt>
      <trkpt lat="43.77473" lon="1.57746">
        <ele>152.40039</ele>
        <time>2024-06-01T16:24:14+02:00</time>
      </trkpt>
      <trkpt lat="43.7747" lon="1.57749">
        <ele>152.7002</ele>
        <time>2024-06-01T16:24:15+02:00</time>
      </trkpt>
      <trkpt lat="43.7746" lon="1.5776">
        <ele>153.2998</ele>
        <time>2024-06-01T16:24:19+02:00</time>
      </trkpt>
      <trkpt lat="43.77461" lon="1.57764">
        <ele>153.2998</ele>
        <time>2024-06-01T16:24:20+02:00</time>
      </trkpt>
      <trkpt lat="43.77463" lon="1.57783">
        <ele>154.90039</ele>
        <time>2024-06-01T16:24:24+02:00</time>
      </trkpt>
      <trkpt lat="43.77464" lon="1.57787">
        <ele>154.90039</ele>
        <time>2024-06-01T16:24:25+02:00</time>
      </trkpt>
      <trkpt lat="43.77473" lon="1.57799">
        <ele>155.60059</ele>
        <time>2024-06-01T16:24:29+02:00</time>
      </trkpt>
      <trkpt lat="43.77475" lon="1.57801">
        <ele>156.40039</ele>
        <time>2024-06-01T16:24:30+02:00</time>
      </trkpt>
      <trkpt lat="43.77485" lon="1.57812">
        <ele>157.2002</ele>
        <time>2024-06-01T16:24:34+02:00</time>
      </trkpt>
      <trkpt lat="43.77486" lon="1.57816">
        <ele>157.2002</ele>
        <time>2024-06-01T16:24:35+02:00</time>
      </trkpt>
      <trkpt lat="43.77491" lon="1.57832">
        <ele>158.7002</ele>
        <time>2024-06-01T16:24:39+02:00</time>
      </trkpt>
      <trkpt lat="43.7749" lon="1.57836">
        <ele>159.2002</ele>
        <time>2024-06-01T16:24:40+02:00</time>
      </trkpt>
      <trkpt lat="43.77485" lon="1.57857">
        <ele>159.90039</ele>
        <time>2024-06-01T16:24:44+02:00</time>
      </trkpt>
      <trkpt lat="43.77485" lon="1.57863">
        <ele>160.2002</ele>
        <time>2024-06-01T16:24:45+02:00</time>
      </trkpt>
      <trkpt lat="43.77489" lon="1.57884">
        <ele>160.90039</ele>
        <time>2024-06-01T16:24:49+02:00</time>
      </trkpt>
      <trkpt lat="43.77491" lon="1.57889">
        <ele>161.10059</ele>
        <time>2024-06-01T16:24:50+02:00</time>
      </trkpt>
      <trkpt lat="43.77497" lon="1.57904">
        <ele>161.7002</ele>
        <time>2024-06-01T16:24:54+02:00</time>
      </trkpt>
      <trkpt lat="43.77497" lon="1.57908">
        <ele>161.7002</ele>
        <time>2024-06-01T16:24:55+02:00</time>
      </trkpt>
      <trkpt lat="43.7749" lon="1.57929">
        <ele>161.7002</ele>
        <time>2024-06-01T16:24:59+02:00</time>
      </trkpt>
      <trkpt lat="43.77487" lon="1.57933">
        <ele>161.60059</ele>
        <time>2024-06-01T16:25:00+02:00</time>
      </trkpt>
      <trkpt lat="43.77477" lon="1.57952">
        <ele>161.60059</ele>
        <time>2024-06-01T16:25:04+02:00</time>
      </trkpt>
      <trkpt lat="43.77478" lon="1.57957">
        <ele>161.7998</ele>
        <time>2024-06-01T16:25:05+02:00</time>
      </trkpt>
      <trkpt lat="43.7748" lon="1.57977">
        <ele>162</ele>
        <time>2024-06-01T16:25:09+02:00</time>
      </trkpt>
      <trkpt lat="43.77479" lon="1.57983">
        <ele>162.2002</ele>
        <time>2024-06-01T16:25:10+02:00</time>
      </trkpt>
      <trkpt lat="43.7748" lon="1.58003">
        <ele>162.5</ele>
        <time>2024-06-01T16:25:14+02:00</time>
      </trkpt>
      <trkpt lat="43.7748" lon="1.58008">
        <ele>162.7002</ele>
        <time>2024-06-01T16:25:15+02:00</time>
      </trkpt>
      <trkpt lat="43.77466" lon="1.58024">
        <ele>163.10059</ele>
        <time>2024-06-01T16:25:19+02:00</time>
      </trkpt>
      <trkpt lat="43.77461" lon="1.58026">
        <ele>163</ele>
        <time>2024-06-01T16:25:20+02:00</time>
      </trkpt>
      <trkpt lat="43.77443" lon="1.58034">
        <ele>162.90039</ele>
        <time>2024-06-01T16:25:24+02:00</time>
      </trkpt>
      <trkpt lat="43.77439" lon="1.58037">
        <ele>162.90039</ele>
        <time>2024-06-01T16:25:25+02:00</time>
      </trkpt>
      <trkpt lat="43.77424" lon="1.58055">
        <ele>162.90039</ele>
        <time>2024-06-01T16:25:29+02:00</time>
      </trkpt>
      <trkpt lat="43.7742" lon="1.58059">
        <ele>163.10059</ele>
        <time>2024-06-01T16:25:30+02:00</time>
      </trkpt>
      <trkpt lat="43.77404" lon="1.58075">
        <ele>163</ele>
        <time>2024-06-01T16:25:34+02:00</time>
      </trkpt>
      <trkpt lat="43.774" lon="1.58078">
        <ele>162.7998</ele>
        <time>2024-06-01T16:25:35+02:00</time>
      </trkpt>
      <trkpt lat="43.77387" lon="1.58069">
        <ele>162.2998</ele>
        <time>2024-06-01T16:25:39+02:00</time>
      </trkpt>
      <trkpt lat="43.77384" lon="1.58065">
        <ele>162.10059</ele>
        <time>2024-06-01T16:25:40+02:00</time>
      </trkpt>
      <trkpt lat="43.77363" lon="1.58054">
        <ele>161.10059</ele>
        <time>2024-06-01T16:25:44+02:00</time>
      </trkpt>
      <trkpt lat="43.77357" lon="1.58052">
        <ele>161.10059</ele>
        <time>2024-06-01T16:25:45+02:00</time>
      </trkpt>
      <trkpt lat="43.77349" lon="1.58038">
        <ele>160.40039</ele>
        <time>2024-06-01T16:25:49+02:00</time>
      </trkpt>
      <trkpt lat="43.77347" lon="1.58034">
        <ele>160.40039</ele>
        <time>2024-06-01T16:25:50+02:00</time>
      </trkpt>
      <trkpt lat="43.77333" lon="1.58015">
        <ele>159.90039</ele>
        <time>2024-06-01T16:25:54+02:00</time>
      </trkpt>
      <trkpt lat="43.77329" lon="1.5801">
        <ele>159.7002</ele>
        <time>2024-06-01T16:25:55+02:00</time>
      </trkpt>
      <trkpt lat="43.77318" lon="1.58007">
        <ele>159.60059</ele>
        <time>2024-06-01T16:25:57+02:00</time>
      </trkpt>
      <trkpt lat="43.77308" lon="1.58015">
        <ele>159.7002</ele>
        <time>2024-06-01T16:25:59+02:00</time>
      </trkpt>
      <trkpt lat="43.77304" lon="1.58023">
        <ele>159.7998</ele>
        <time>2024-06-01T16:26:00+02:00</time>
      </trkpt>
      <trkpt lat="43.77292" lon="1.58049">
        <ele>160.10059</ele>
        <time>2024-06-01T16:26:04+02:00</time>
      </trkpt>
      <trkpt lat="43.77289" lon="1.58053">
        <ele>160.10059</ele>
        <time>2024-06-01T16:26:05+02:00</time>
      </trkpt>
      <trkpt lat="43.77274" lon="1.58069">
        <ele>160.2998</ele>
        <time>2024-06-01T16:26:09+02:00</time>
      </trkpt>
      <trkpt lat="43.7727" lon="1.5807">
        <ele>160.2998</ele>
        <time>2024-06-01T16:26:10+02:00</time>
      </trkpt>
      <trkpt lat="43.77251" lon="1.58076">
        <ele>160.2998</ele>
        <time>2024-06-01T16:26:14+02:00</time>
      </trkpt>
      <trkpt lat="43.77246" lon="1.58074">
        <ele>160.2998</ele>
        <time>2024-06-01T16:26:15+02:00</time>
      </trkpt>
      <trkpt lat="43.77227" lon="1.58068">
        <ele>160.2998</ele>
        <time>2024-06-01T16:26:19+02:00</time>
      </trkpt>
      <trkpt lat="43.77222" lon="1.58065">
        <ele>160.2998</ele>
        <time>2024-06-01T16:26:20+02:00</time>
      </trkpt>
      <trkpt lat="43.77205" lon="1.58053">
        <ele>160.2998</ele>
        <time>2024-06-01T16:26:24+02:00</time>
      </trkpt>
      <trkpt lat="43.772" lon="1.58052">
        <ele>160.2998</ele>
        <time>2024-06-01T16:26:25+02:00</time>
      </trkpt>
      <trkpt lat="43.77181" lon="1.58057">
        <ele>160.2998</ele>
        <time>2024-06-01T16:26:29+02:00</time>
      </trkpt>
      <trkpt lat="43.77176" lon="1.58057">
        <ele>160.2998</ele>
        <time>2024-06-01T16:26:30+02:00</time>
      </trkpt>
      <trkpt lat="43.77155" lon="1.58055">
        <ele>160.60059</ele>
        <time>2024-06-01T16:26:34+02:00</time>
      </trkpt>
      <trkpt lat="43.77151" lon="1.58056">
        <ele>160.7002</ele>
        <time>2024-06-01T16:26:35+02:00</time>
      </trkpt>
      <trkpt lat="43.77134" lon="1.58065">
        <ele>161</ele>
        <time>2024-06-01T16:26:39+02:00</time>
      </trkpt>
      <trkpt lat="43.7713" lon="1.58068">
        <ele>161</ele>
        <time>2024-06-01T16:26:40+02:00</time>
      </trkpt>
      <trkpt lat="43.77114" lon="1.58079">
        <ele>161.60059</ele>
        <time>2024-06-01T16:26:44+02:00</time>
      </trkpt>
      <trkpt lat="43.77111" lon="1.58082">
        <ele>161.60059</ele>
        <time>2024-06-01T16:26:45+02:00</time>
      </trkpt>
      <trkpt lat="43.77097" lon="1.58098">
        <ele>162.10059</ele>
        <time>2024-06-01T16:26:49+02:00</time>
      </trkpt>
      <trkpt lat="43.77094" lon="1.58103">
        <ele>162.10059</ele>
        <time>2024-06-01T16:26:50+02:00</time>
      </trkpt>
      <trkpt lat="43.7708" lon="1.58121">
        <ele>162.40039</ele>
        <time>2024-06-01T16:26:54+02:00</time>
      </trkpt>
      <trkpt lat="43.77075" lon="1.58126">
        <ele>162.5</ele>
        <time>2024-06-01T16:26:55+02:00</time>
      </trkpt>
      <trkpt lat="43.77054" lon="1.58136">
        <ele>162.60059</ele>
        <time>2024-06-01T16:26:59+02:00</time>
      </trkpt>
      <trkpt lat="43.77049" lon="1.58138">
        <ele>162.5</ele>
        <time>2024-06-01T16:27:00+02:00</time>
      </trkpt>
      <trkpt lat="43.77028" lon="1.58149">
        <ele>162.10059</ele>
        <time>2024-06-01T16:27:04+02:00</time>
      </trkpt>
      <trkpt lat="43.77023" lon="1.58152">
        <ele>162.10059</ele>
        <time>2024-06-01T16:27:05+02:00</time>
      </trkpt>
      <trkpt lat="43.77008" lon="1.58162">
        <ele>161.7998</ele>
        <time>2024-06-01T16:27:09+02:00</time>
      </trkpt>
      <trkpt lat="43.77004" lon="1.58165">
        <ele>161.7998</ele>
        <time>2024-06-01T16:27:10+02:00</time>
      </trkpt>
      <trkpt lat="43.76993" lon="1.58185">
        <ele>161.90039</ele>
        <time>2024-06-01T16:27:14+02:00</time>
      </trkpt>
      <trkpt lat="43.7699" lon="1.58189">
        <ele>162</ele>
        <time>2024-06-01T16:27:15+02:00</time>
      </trkpt>
      <trkpt lat="43.76976" lon="1.58198">
        <ele>162.10059</ele>
        <time>2024-06-01T16:27:19+02:00</time>
      </trkpt>
      <trkpt lat="43.76972" lon="1.58198">
        <ele>162.10059</ele>
        <time>2024-06-01T16:27:20+02:00</time>
      </trkpt>
      <trkpt lat="43.76951" lon="1.58208">
        <ele>162.2998</ele>
        <time>2024-06-01T16:27:24+02:00</time>
      </trkpt>
      <trkpt lat="43.76946" lon="1.58211">
        <ele>162.2998</ele>
        <time>2024-06-01T16:27:25+02:00</time>
      </trkpt>
      <trkpt lat="43.76926" lon="1.58226">
        <ele>162.2998</ele>
        <time>2024-06-01T16:27:29+02:00</time>
      </trkpt>
      <trkpt lat="43.76922" lon="1.5823">
        <ele>162.2998</ele>
        <time>2024-06-01T16:27:30+02:00</time>
      </trkpt>
      <trkpt lat="43.76899" lon="1.58243">
        <ele>162.2998</ele>
        <time>2024-06-01T16:27:34+02:00</time>
      </trkpt>
      <trkpt lat="43.76893" lon="1.58247">
        <ele>162.2998</ele>
        <time>2024-06-01T16:27:35+02:00</time>
      </trkpt>
      <trkpt lat="43.76877" lon="1.58268">
        <ele>162.5</ele>
        <time>2024-06-01T16:27:39+02:00</time>
      </trkpt>
      <trkpt lat="43.76873" lon="1.58273">
        <ele>162.60059</ele>
        <time>2024-06-01T16:27:40+02:00</time>
      </trkpt>
      <trkpt lat="43.76852" lon="1.58286">
        <ele>162.7002</ele>
        <time>2024-06-01T16:27:44+02:00</time>
      </trkpt>
      <trkpt lat="43.76845" lon="1.58286">
        <ele>162.7002</ele>
        <time>2024-06-01T16:27:45+02:00</time>
      </trkpt>
      <trkpt lat="43.76825" lon="1.5829">
        <ele>162.7002</ele>
        <time>2024-06-01T16:27:49+02:00</time>
      </trkpt>
      <trkpt lat="43.76822" lon="1.58296">
        <ele>162.60059</ele>
        <time>2024-06-01T16:27:50+02:00</time>
      </trkpt>
      <trkpt lat="43.76807" lon="1.58321">
        <ele>163</ele>
        <time>2024-06-01T16:27:54+02:00</time>
      </trkpt>
      <trkpt lat="43.76801" lon="1.58324">
        <ele>163.10059</ele>
        <time>2024-06-01T16:27:55+02:00</time>
      </trkpt>
      <trkpt lat="43.76778" lon="1.58332">
        <ele>163.10059</ele>
        <time>2024-06-01T16:27:59+02:00</time>
      </trkpt>
      <trkpt lat="43.76773" lon="1.5833">
        <ele>163.10059</ele>
        <time>2024-06-01T16:28:00+02:00</time>
      </trkpt>
      <trkpt lat="43.76753" lon="1.58342">
        <ele>163.7002</ele>
        <time>2024-06-01T16:28:04+02:00</time>
      </trkpt>
      <trkpt lat="43.76749" lon="1.58348">
        <ele>163.7002</ele>
        <time>2024-06-01T16:28:05+02:00</time>
      </trkpt>
      <trkpt lat="43.76731" lon="1.58369">
        <ele>164.2002</ele>
        <time>2024-06-01T16:28:09+02:00</time>
      </trkpt>
      <trkpt lat="43.76726" lon="1.58373">
        <ele>164.2002</ele>
        <time>2024-06-01T16:28:10+02:00</time>
      </trkpt>
      <trkpt lat="43.76714" lon="1.58399">
        <ele>164.40039</ele>
        <time>2024-06-01T16:28:14+02:00</time>
      </trkpt>
      <trkpt lat="43.76714" lon="1.58407">
        <ele>164.5</ele>
        <time>2024-06-01T16:28:15+02:00</time>
      </trkpt>
      <trkpt lat="43.76723" lon="1.58429">
        <ele>164.60059</ele>
        <time>2024-06-01T16:28:19+02:00</time>
      </trkpt>
      <trkpt lat="43.76725" lon="1.58428">
        <ele>164.60059</ele>
        <time>2024-06-01T16:28:20+02:00</time>
      </trkpt>
      <trkpt lat="43.76729" lon="1.5842">
        <ele>164.90039</ele>
        <time>2024-06-01T16:28:24+02:00</time>
      </trkpt>
      <trkpt lat="43.76732" lon="1.58422">
        <ele>165.10059</ele>
        <time>2024-06-01T16:28:25+02:00</time>
      </trkpt>
      <trkpt lat="43.7674" lon="1.58445">
        <ele>164.7998</ele>
        <time>2024-06-01T16:28:29+02:00</time>
      </trkpt>
      <trkpt lat="43.76742" lon="1.58453">
        <ele>164.60059</ele>
        <time>2024-06-01T16:28:30+02:00</time>
      </trkpt>
      <trkpt lat="43.76754" lon="1.58478">
        <ele>164.2998</ele>
        <time>2024-06-01T16:28:34+02:00</time>
      </trkpt>
      <trkpt lat="43.76756" lon="1.58486">
        <ele>164.40039</ele>
        <time>2024-06-01T16:28:35+02:00</time>
      </trkpt>
      <trkpt lat="43.76766" lon="1.58511">
        <ele>164.10059</ele>
        <time>2024-06-01T16:28:39+02:00</time>
      </trkpt>
      <trkpt lat="43.76767" lon="1.58518">
        <ele>164</ele>
        <time>2024-06-01T16:28:40+02:00</time>
      </trkpt>
      <trkpt lat="43.76782" lon="1.58546">
        <ele>164.10059</ele>
        <time>2024-06-01T16:28:44+02:00</time>
      </trkpt>
      <trkpt lat="43.76788" lon="1.58553">
        <ele>164.10059</ele>
        <time>2024-06-01T16:28:45+02:00</time>
      </trkpt>
      <trkpt lat="43.76799" lon="1.58578">
        <ele>163.60059</ele>
        <time>2024-06-01T16:28:49+02:00</time>
      </trkpt>
      <trkpt lat="43.76798" lon="1.58586">
        <ele>163.2002</ele>
        <time>2024-06-01T16:28:50+02:00</time>
      </trkpt>
      <trkpt lat="43.76793" lon="1.58612">
        <ele>161.5</ele>
        <time>2024-06-01T16:28:54+02:00</time>
      </trkpt>
      <trkpt lat="43.76792" lon="1.58618">
        <ele>161</ele>
        <time>2024-06-01T16:28:55+02:00</time>
      </trkpt>
      <trkpt lat="43.76799" lon="1.58638">
        <ele>160.60059</ele>
        <time>2024-06-01T16:28:59+02:00</time>
      </trkpt>
      <trkpt lat="43.76801" lon="1.58643">
        <ele>160.7002</ele>
        <time>2024-06-01T16:29:00+02:00</time>
      </trkpt>
      <trkpt lat="43.76807" lon="1.58673">
        <ele>160.2998</ele>
        <time>2024-06-01T16:29:04+02:00</time>
      </trkpt>
      <trkpt lat="43.76807" lon="1.58682">
        <ele>160.10059</ele>
        <time>2024-06-01T16:29:05+02:00</time>
      </trkpt>
      <trkpt lat="43.76805" lon="1.58712">
        <ele>159</ele>
        <time>2024-06-01T16:29:09+02:00</time>
      </trkpt>
      <trkpt lat="43.76805" lon="1.58719">
        <ele>159</ele>
        <time>2024-06-01T16:29:10+02:00</time>
      </trkpt>
      <trkpt lat="43.7681" lon="1.58747">
        <ele>159</ele>
        <time>2024-06-01T16:29:14+02:00</time>
      </trkpt>
      <trkpt lat="43.7681" lon="1.58754">
        <ele>158.7998</ele>
        <time>2024-06-01T16:29:15+02:00</time>
      </trkpt>
      <trkpt lat="43.76805" lon="1.58784">
        <ele>157.60059</ele>
        <time>2024-06-01T16:29:19+02:00</time>
      </trkpt>
      <trkpt lat="43.76803" lon="1.58792">
        <ele>157.2002</ele>
        <time>2024-06-01T16:29:20+02:00</time>
      </trkpt>
      <trkpt lat="43.76793" lon="1.58823">
        <ele>154.7998</ele>
        <time>2024-06-01T16:29:24+02:00</time>
      </trkpt>
      <trkpt lat="43.76794" lon="1.58828">
        <ele>154.7998</ele>
        <time>2024-06-01T16:29:25+02:00</time>
      </trkpt>
      <trkpt lat="43.768" lon="1.5883">
        <ele>154.5</ele>
        <time>2024-06-01T16:29:29+02:00</time>
      </trkpt>
      <trkpt lat="43.76802" lon="1.58829">
        <ele>155.2002</ele>
        <time>2024-06-01T16:29:30+02:00</time>
      </trkpt>
      <trkpt lat="43.76819" lon="1.58822">
        <ele>156</ele>
        <time>2024-06-01T16:29:34+02:00</time>
      </trkpt>
      <trkpt lat="43.76824" lon="1.58819">
        <ele>156.60059</ele>
        <time>2024-06-01T16:29:35+02:00</time>
      </trkpt>
      <trkpt lat="43.76843" lon="1.5881">
        <ele>157.60059</ele>
        <time>2024-06-01T16:29:39+02:00</time>
      </trkpt>
      <trkpt lat="43.76847" lon="1.58808">
        <ele>157.7002</ele>
        <time>2024-06-01T16:29:40+02:00</time>
      </trkpt>
      <trkpt lat="43.76867" lon="1.58797">
        <ele>158.5</ele>
        <time>2024-06-01T16:29:44+02:00</time>
      </trkpt>
      <trkpt lat="43.76872" lon="1.58794">
        <ele>159</ele>
        <time>2024-06-01T16:29:45+02:00</time>
      </trkpt>
      <trkpt lat="43.7689" lon="1.58789">
        <ele>158.5</ele>
        <time>2024-06-01T16:29:49+02:00</time>
      </trkpt>
      <trkpt lat="43.76894" lon="1.58793">
        <ele>158.2002</ele>
        <time>2024-06-01T16:29:50+02:00</time>
      </trkpt>
      <trkpt lat="43.76894" lon="1.5882">
        <ele>156.10059</ele>
        <time>2024-06-01T16:29:54+02:00</time>
      </trkpt>
      <trkpt lat="43.76892" lon="1.58826">
        <ele>155.60059</ele>
        <time>2024-06-01T16:29:55+02:00</time>
      </trkpt>
      <trkpt lat="43.76893" lon="1.58834">
        <ele>154.40039</ele>
        <time>2024-06-01T16:29:57+02:00</time>
      </trkpt>
      <trkpt lat="43.76902" lon="1.58835">
        <ele>154</ele>
        <time>2024-06-01T16:29:59+02:00</time>
      </trkpt>
      <trkpt lat="43.76907" lon="1.58834">
        <ele>153.7002</ele>
        <time>2024-06-01T16:30:00+02:00</time>
      </trkpt>
      <trkpt lat="43.76916" lon="1.58834">
        <ele>153.40039</ele>
        <time>2024-06-01T16:30:02+02:00</time>
      </trkpt>
      <trkpt lat="43.76916" lon="1.58845">
        <ele>152.5</ele>
        <time>2024-06-01T16:30:04+02:00</time>
      </trkpt>
      <trkpt lat="43.76912" lon="1.58854">
        <ele>151.7002</ele>
        <time>2024-06-01T16:30:05+02:00</time>
      </trkpt>
      <trkpt lat="43.76886" lon="1.58884">
        <ele>149.60059</ele>
        <time>2024-06-01T16:30:09+02:00</time>
      </trkpt>
      <trkpt lat="43.7688" lon="1.5889">
        <ele>149.2002</ele>
        <time>2024-06-01T16:30:10+02:00</time>
      </trkpt>
      <trkpt lat="43.76857" lon="1.58907">
        <ele>147.40039</ele>
        <time>2024-06-01T16:30:14+02:00</time>
      </trkpt>
      <trkpt lat="43.76854" lon="1.58914">
        <ele>147.5</ele>
        <time>2024-06-01T16:30:15+02:00</time>
      </trkpt>
      <trkpt lat="43.76834" lon="1.58943">
        <ele>142.90039</ele>
        <time>2024-06-01T16:30:19+02:00</time>
      </trkpt>
      <trkpt lat="43.76828" lon="1.58947">
        <ele>143</ele>
        <time>2024-06-01T16:30:20+02:00</time>
      </trkpt>
      <trkpt lat="43.76816" lon="1.5897">
        <ele>139.90039</ele>
        <time>2024-06-01T16:30:24+02:00</time>
      </trkpt>
      <trkpt lat="43.76816" lon="1.58976">
        <ele>138.90039</ele>
        <time>2024-06-01T16:30:25+02:00</time>
      </trkpt>
      <trkpt lat="43.76834" lon="1.58985">
        <ele>137.7998</ele>
        <time>2024-06-01T16:30:29+02:00</time>
      </trkpt>
      <trkpt lat="43.7684" lon="1.58983">
        <ele>138.5</ele>
        <time>2024-06-01T16:30:30+02:00</time>
      </trkpt>
      <trkpt lat="43.76864" lon="1.5898">
        <ele>138</ele>
        <time>2024-06-01T16:30:34+02:00</time>
      </trkpt>
      <trkpt lat="43.7687" lon="1.58981">
        <ele>137.7002</ele>
        <time>2024-06-01T16:30:35+02:00</time>
      </trkpt>
      <trkpt lat="43.76896" lon="1.5898">
        <ele>136.7002</ele>
        <time>2024-06-01T16:30:39+02:00</time>
      </trkpt>
      <trkpt lat="43.76903" lon="1.58978">
        <ele>136.40039</ele>
        <time>2024-06-01T16:30:40+02:00</time>
      </trkpt>
      <trkpt lat="43.76928" lon="1.58967">
        <ele>137.60059</ele>
        <time>2024-06-01T16:30:44+02:00</time>
      </trkpt>
      <trkpt lat="43.76935" lon="1.58964">
        <ele>137.2002</ele>
        <time>2024-06-01T16:30:45+02:00</time>
      </trkpt>
      <trkpt lat="43.7696" lon="1.58963">
        <ele>135.60059</ele>
        <time>2024-06-01T16:30:49+02:00</time>
      </trkpt>
      <trkpt lat="43.76967" lon="1.58965">
        <ele>135.2002</ele>
        <time>2024-06-01T16:30:50+02:00</time>
      </trkpt>
      <trkpt lat="43.76992" lon="1.58979">
        <ele>131.2002</ele>
        <time>2024-06-01T16:30:54+02:00</time>
      </trkpt>
      <trkpt lat="43.76999" lon="1.58981">
        <ele>131</ele>
        <time>2024-06-01T16:30:55+02:00</time>
      </trkpt>
      <trkpt lat="43.77028" lon="1.58987">
        <ele>129.2998</ele>
        <time>2024-06-01T16:30:59+02:00</time>
      </trkpt>
      <trkpt lat="43.77036" lon="1.58989">
        <ele>129</ele>
        <time>2024-06-01T16:31:00+02:00</time>
      </trkpt>
      <trkpt lat="43.77061" lon="1.58997">
        <ele>127.90039</ele>
        <time>2024-06-01T16:31:04+02:00</time>
      </trkpt>
      <trkpt lat="43.77066" lon="1.58998">
        <ele>127.90039</ele>
        <time>2024-06-01T16:31:05+02:00</time>
      </trkpt>
      <trkpt lat="43.77071" lon="1.58971">
        <ele>130.2002</ele>
        <time>2024-06-01T16:31:44+02:00</time>
      </trkpt>
      <trkpt lat="43.77071" lon="1.58967">
        <ele>131</ele>
        <time>2024-06-01T16:31:45+02:00</time>
      </trkpt>
      <trkpt lat="43.77072" lon="1.58944">
        <ele>132.5</ele>
        <time>2024-06-01T16:31:49+02:00</time>
      </trkpt>
      <trkpt lat="43.77073" lon="1.58938">
        <ele>133</ele>
        <time>2024-06-01T16:31:50+02:00</time>
      </trkpt>
      <trkpt lat="43.77077" lon="1.58913">
        <ele>135.10059</ele>
        <time>2024-06-01T16:31:54+02:00</time>
      </trkpt>
      <trkpt lat="43.77078" lon="1.58907">
        <ele>135.10059</ele>
        <time>2024-06-01T16:31:55+02:00</time>
      </trkpt>
      <trkpt lat="43.77083" lon="1.58884">
        <ele>136.7998</ele>
        <time>2024-06-01T16:31:59+02:00</time>
      </trkpt>
      <trkpt lat="43.77085" lon="1.58879">
        <ele>137</ele>
        <time>2024-06-01T16:32:00+02:00</time>
      </trkpt>
      <trkpt lat="43.77089" lon="1.58855">
        <ele>138.10059</ele>
        <time>2024-06-01T16:32:04+02:00</time>
      </trkpt>
      <trkpt lat="43.77091" lon="1.5885">
        <ele>138.2998</ele>
        <time>2024-06-01T16:32:05+02:00</time>
      </trkpt>
      <trkpt lat="43.77099" lon="1.58828">
        <ele>139.7002</ele>
        <time>2024-06-01T16:32:09+02:00</time>
      </trkpt>
      <trkpt lat="43.77101" lon="1.58824">
        <ele>139.7002</ele>
        <time>2024-06-01T16:32:10+02:00</time>
      </trkpt>
      <trkpt lat="43.77106" lon="1.58806">
        <ele>140.60059</ele>
        <time>2024-06-01T16:32:14+02:00</time>
      </trkpt>
      <trkpt lat="43.77107" lon="1.58801">
        <ele>141.2002</ele>
        <time>2024-06-01T16:32:15+02:00</time>
      </trkpt>
      <trkpt lat="43.77113" lon="1.58784">
        <ele>142</ele>
        <time>2024-06-01T16:32:19+02:00</time>
      </trkpt>
      <trkpt lat="43.77115" lon="1.5878">
        <ele>142</ele>
        <time>2024-06-01T16:32:20+02:00</time>
      </trkpt>
      <trkpt lat="43.77122" lon="1.58763">
        <ele>142.60059</ele>
        <time>2024-06-01T16:32:24+02:00</time>
      </trkpt>
      <trkpt lat="43.77124" lon="1.58759">
        <ele>143.60059</ele>
        <time>2024-06-01T16:32:25+02:00</time>
      </trkpt>
      <trkpt lat="43.77131" lon="1.58741">
        <ele>145</ele>
        <time>2024-06-01T16:32:29+02:00</time>
      </trkpt>
      <trkpt lat="43.77132" lon="1.58736">
        <ele>145</ele>
        <time>2024-06-01T16:32:30+02:00</time>
      </trkpt>
      <trkpt lat="43.77139" lon="1.58719">
        <ele>146.2998</ele>
        <time>2024-06-01T16:32:34+02:00</time>
      </trkpt>
      <trkpt lat="43.77141" lon="1.58714">
        <ele>146.60059</ele>
        <time>2024-06-01T16:32:35+02:00</time>
      </trkpt>
      <trkpt lat="43.77149" lon="1.58698">
        <ele>147.7002</ele>
        <time>2024-06-01T16:32:39+02:00</time>
      </trkpt>
      <trkpt lat="43.77151" lon="1.58694">
        <ele>147.7002</ele>
        <time>2024-06-01T16:32:40+02:00</time>
      </trkpt>
      <trkpt lat="43.77159" lon="1.58679">
        <ele>149</ele>
        <time>2024-06-01T16:32:44+02:00</time>
      </trkpt>
      <trkpt lat="43.77161" lon="1.58676">
        <ele>148.40039</ele>
        <time>2024-06-01T16:32:45+02:00</time>
      </trkpt>
      <trkpt lat="43.77166" lon="1.58662">
        <ele>149.7998</ele>
        <time>2024-06-01T16:32:49+02:00</time>
      </trkpt>
      <trkpt lat="43.77168" lon="1.58659">
        <ele>149.7998</ele>
        <time>2024-06-01T16:32:50+02:00</time>
      </trkpt>
      <trkpt lat="43.77174" lon="1.58645">
        <ele>151</ele>
        <time>2024-06-01T16:32:54+02:00</time>
      </trkpt>
      <trkpt lat="43.77176" lon="1.5864">
        <ele>151.90039</ele>
        <time>2024-06-01T16:32:55+02:00</time>
      </trkpt>
      <trkpt lat="43.77185" lon="1.58625">
        <ele>151.2998</ele>
        <time>2024-06-01T16:32:59+02:00</time>
      </trkpt>
      <trkpt lat="43.77187" lon="1.58622">
        <ele>152.2998</ele>
        <time>2024-06-01T16:33:00+02:00</time>
      </trkpt>
      <trkpt lat="43.77194" lon="1.58606">
        <ele>153.40039</ele>
        <time>2024-06-01T16:33:04+02:00</time>
      </trkpt>
      <trkpt lat="43.77195" lon="1.58602">
        <ele>153.40039</ele>
        <time>2024-06-01T16:33:05+02:00</time>
      </trkpt>
      <trkpt lat="43.77201" lon="1.58587">
        <ele>154.60059</ele>
        <time>2024-06-01T16:33:09+02:00</time>
      </trkpt>
      <trkpt lat="43.77201" lon="1.58584">
        <ele>154.60059</ele>
        <time>2024-06-01T16:33:10+02:00</time>
      </trkpt>
      <trkpt lat="43.77205" lon="1.58568">
        <ele>156</ele>
        <time>2024-06-01T16:33:14+02:00</time>
      </trkpt>
      <trkpt lat="43.77206" lon="1.58564">
        <ele>156</ele>
        <time>2024-06-01T16:33:15+02:00</time>
      </trkpt>
      <trkpt lat="43.77209" lon="1.58549">
        <ele>157.2998</ele>
        <time>2024-06-01T16:33:19+02:00</time>
      </trkpt>
      <trkpt lat="43.77209" lon="1.58545">
        <ele>158</ele>
        <time>2024-06-01T16:33:20+02:00</time>
      </trkpt>
      <trkpt lat="43.77212" lon="1.58524">
        <ele>159.10059</ele>
        <time>2024-06-01T16:33:24+02:00</time>
      </trkpt>
      <trkpt lat="43.77212" lon="1.58519">
        <ele>159.60059</ele>
        <time>2024-06-01T16:33:25+02:00</time>
      </trkpt>
      <trkpt lat="43.77218" lon="1.585">
        <ele>160.40039</ele>
        <time>2024-06-01T16:33:29+02:00</time>
      </trkpt>
      <trkpt lat="43.7722" lon="1.58496">
        <ele>160.40039</ele>
        <time>2024-06-01T16:33:30+02:00</time>
      </trkpt>
      <trkpt lat="43.77225" lon="1.58476">
        <ele>161.7002</ele>
        <time>2024-06-01T16:33:34+02:00</time>
      </trkpt>
      <trkpt lat="43.77226" lon="1.58471">
        <ele>161.7002</ele>
        <time>2024-06-01T16:33:35+02:00</time>
      </trkpt>
      <trkpt lat="43.7723" lon="1.58448">
        <ele>162.60059</ele>
        <time>2024-06-01T16:33:39+02:00</time>
      </trkpt>
      <trkpt lat="43.77231" lon="1.58442">
        <ele>162.7998</ele>
        <time>2024-06-01T16:33:40+02:00</time>
      </trkpt>
      <trkpt lat="43.77239" lon="1.58419">
        <ele>162.90039</ele>
        <time>2024-06-01T16:33:44+02:00</time>
      </trkpt>
      <trkpt lat="43.77241" lon="1.58413">
        <ele>162.90039</ele>
        <time>2024-06-01T16:33:45+02:00</time>
      </trkpt>
      <trkpt lat="43.77254" lon="1.58391">
        <ele>162.7998</ele>
        <time>2024-06-01T16:33:49+02:00</time>
      </trkpt>
      <trkpt lat="43.77259" lon="1.58387">
        <ele>162.7002</ele>
        <time>2024-06-01T16:33:50+02:00</time>
      </trkpt>
      <trkpt lat="43.77275" lon="1.58369">
        <ele>162.60059</ele>
        <time>2024-06-01T16:33:54+02:00</time>
      </trkpt>
      <trkpt lat="43.77278" lon="1.58364">
        <ele>162.60059</ele>
        <time>2024-06-01T16:33:55+02:00</time>
      </trkpt>
      <trkpt lat="43.77292" lon="1.58341">
        <ele>162.7002</ele>
        <time>2024-06-01T16:33:59+02:00</time>
      </trkpt>
      <trkpt lat="43.77295" lon="1.58335">
        <ele>162.7998</ele>
        <time>2024-06-01T16:34:00+02:00</time>
      </trkpt>
      <trkpt lat="43.77309" lon="1.58313">
        <ele>163.10059</ele>
        <time>2024-06-01T16:34:04+02:00</time>
      </trkpt>
      <trkpt lat="43.77313" lon="1.58307">
        <ele>163.10059</ele>
        <time>2024-06-01T16:34:05+02:00</time>
      </trkpt>
      <trkpt lat="43.77328" lon="1.58286">
        <ele>163.5</ele>
        <time>2024-06-01T16:34:09+02:00</time>
      </trkpt>
      <trkpt lat="43.77333" lon="1.58282">
        <ele>163.5</ele>
        <time>2024-06-01T16:34:10+02:00</time>
      </trkpt>
      <trkpt lat="43.77349" lon="1.58266">
        <ele>163.7998</ele>
        <time>2024-06-01T16:34:14+02:00</time>
      </trkpt>
      <trkpt lat="43.77353" lon="1.58261">
        <ele>164</ele>
        <time>2024-06-01T16:34:15+02:00</time>
      </trkpt>
      <trkpt lat="43.77349" lon="1.58243">
        <ele>164.10059</ele>
        <time>2024-06-01T16:34:19+02:00</time>
      </trkpt>
      <trkpt lat="43.77345" lon="1.58238">
        <ele>164.10059</ele>
        <time>2024-06-01T16:34:20+02:00</time>
      </trkpt>
      <trkpt lat="43.77339" lon="1.58211">
        <ele>163.5</ele>
        <time>2024-06-01T16:34:24+02:00</time>
      </trkpt>
      <trkpt lat="43.77339" lon="1.58204">
        <ele>163.60059</ele>
        <time>2024-06-01T16:34:25+02:00</time>
      </trkpt>
      <trkpt lat="43.77331" lon="1.58178">
        <ele>163</ele>
        <time>2024-06-01T16:34:29+02:00</time>
      </trkpt>
      <trkpt lat="43.77327" lon="1.58172">
        <ele>162.90039</ele>
        <time>2024-06-01T16:34:30+02:00</time>
      </trkpt>
      <trkpt lat="43.77315" lon="1.58147">
        <ele>162.10059</ele>
        <time>2024-06-01T16:34:34+02:00</time>
      </trkpt>
      <trkpt lat="43.77315" lon="1.58141">
        <ele>161.90039</ele>
        <time>2024-06-01T16:34:35+02:00</time>
      </trkpt>
      <trkpt lat="43.77321" lon="1.58138">
        <ele>162.10059</ele>
        <time>2024-06-01T16:34:39+02:00</time>
      </trkpt>
      <trkpt lat="43.77323" lon="1.58139">
        <ele>162.10059</ele>
        <time>2024-06-01T16:34:40+02:00</time>
      </trkpt>
      <trkpt lat="43.77332" lon="1.58152">
        <ele>162.60059</ele>
        <time>2024-06-01T16:34:44+02:00</time>
      </trkpt>
      <trkpt lat="43.77335" lon="1.58157">
        <ele>162.7002</ele>
        <time>2024-06-01T16:34:45+02:00</time>
      </trkpt>
      <trkpt lat="43.77345" lon="1.58173">
        <ele>163.2002</ele>
        <time>2024-06-01T16:34:49+02:00</time>
      </trkpt>
      <trkpt lat="43.77348" lon="1.58177">
        <ele>163.2002</ele>
        <time>2024-06-01T16:34:50+02:00</time>
      </trkpt>
      <trkpt lat="43.77358" lon="1.58195">
        <ele>163.7998</ele>
        <time>2024-06-01T16:34:54+02:00</time>
      </trkpt>
      <trkpt lat="43.77361" lon="1.58197">
        <ele>163.7998</ele>
        <time>2024-06-01T16:34:55+02:00</time>
      </trkpt>
      <trkpt lat="43.77374" lon="1.58191">
        <ele>163.90039</ele>
        <time>2024-06-01T16:34:59+02:00</time>
      </trkpt>
      <trkpt lat="43.77376" lon="1.58195">
        <ele>164</ele>
        <time>2024-06-01T16:35:00+02:00</time>
      </trkpt>
      <trkpt lat="43.77383" lon="1.58215">
        <ele>164.40039</ele>
        <time>2024-06-01T16:35:04+02:00</time>
      </trkpt>
      <trkpt lat="43.77386" lon="1.5822">
        <ele>164.40039</ele>
        <time>2024-06-01T16:35:05+02:00</time>
      </trkpt>
      <trkpt lat="43.77399" lon="1.58241">
        <ele>164</ele>
        <time>2024-06-01T16:35:09+02:00</time>
      </trkpt>
      <trkpt lat="43.77403" lon="1.58246">
        <ele>163.7998</ele>
        <time>2024-06-01T16:35:10+02:00</time>
      </trkpt>
      <trkpt lat="43.77418" lon="1.58263">
        <ele>161.7998</ele>
        <time>2024-06-01T16:35:14+02:00</time>
      </trkpt>
      <trkpt lat="43.7742" lon="1.5827">
        <ele>160.7002</ele>
        <time>2024-06-01T16:35:15+02:00</time>
      </trkpt>
      <trkpt lat="43.77431" lon="1.58285">
        <ele>159.40039</ele>
        <time>2024-06-01T16:35:19+02:00</time>
      </trkpt>
      <trkpt lat="43.77435" lon="1.58285">
        <ele>158.7998</ele>
        <time>2024-06-01T16:35:20+02:00</time>
      </trkpt>
      <trkpt lat="43.77449" lon="1.58276">
        <ele>157.90039</ele>
        <time>2024-06-01T16:35:24+02:00</time>
      </trkpt>
      <trkpt lat="43.77453" lon="1.58274">
        <ele>157.2998</ele>
        <time>2024-06-01T16:35:25+02:00</time>
      </trkpt>
      <trkpt lat="43.7747" lon="1.58282">
        <ele>155</ele>
        <time>2024-06-01T16:35:29+02:00</time>
      </trkpt>
      <trkpt lat="43.77476" lon="1.58284">
        <ele>154.2002</ele>
        <time>2024-06-01T16:35:30+02:00</time>
      </trkpt>
      <trkpt lat="43.77498" lon="1.58285">
        <ele>151.7998</ele>
        <time>2024-06-01T16:35:34+02:00</time>
      </trkpt>
      <trkpt lat="43.77503" lon="1.58287">
        <ele>151.10059</ele>
        <time>2024-06-01T16:35:35+02:00</time>
      </trkpt>
      <trkpt lat="43.77523" lon="1.58302">
        <ele>147.2998</ele>
        <time>2024-06-01T16:35:39+02:00</time>
      </trkpt>
      <trkpt lat="43.77529" lon="1.583">
        <ele>146.60059</ele>
        <time>2024-06-01T16:35:40+02:00</time>
      </trkpt>
      <trkpt lat="43.77558" lon="1.583">
        <ele>143.40039</ele>
        <time>2024-06-01T16:35:44+02:00</time>
      </trkpt>
      <trkpt lat="43.77564" lon="1.58304">
        <ele>142.90039</ele>
        <time>2024-06-01T16:35:45+02:00</time>
      </trkpt>
      <trkpt lat="43.77582" lon="1.58322">
        <ele>139.40039</ele>
        <time>2024-06-01T16:35:49+02:00</time>
      </trkpt>
      <trkpt lat="43.77588" lon="1.58323">
        <ele>139</ele>
        <time>2024-06-01T16:35:50+02:00</time>
      </trkpt>
      <trkpt lat="43.77611" lon="1.5832">
        <ele>138</ele>
        <time>2024-06-01T16:35:54+02:00</time>
      </trkpt>
      <trkpt lat="43.77615" lon="1.58318">
        <ele>137.60059</ele>
        <time>2024-06-01T16:35:55+02:00</time>
      </trkpt>
      <trkpt lat="43.77636" lon="1.58304">
        <ele>137.40039</ele>
        <time>2024-06-01T16:35:59+02:00</time>
      </trkpt>
      <trkpt lat="43.77642" lon="1.583">
        <ele>137.40039</ele>
        <time>2024-06-01T16:36:00+02:00</time>
      </trkpt>
      <trkpt lat="43.77659" lon="1.58278">
        <ele>137.90039</ele>
        <time>2024-06-01T16:36:04+02:00</time>
      </trkpt>
      <trkpt lat="43.7766" lon="1.58271">
        <ele>138.7002</ele>
        <time>2024-06-01T16:36:05+02:00</time>
      </trkpt>
      <trkpt lat="43.77674" lon="1.58255">
        <ele>137.10059</ele>
        <time>2024-06-01T16:36:09+02:00</time>
      </trkpt>
      <trkpt lat="43.77678" lon="1.5825">
        <ele>137.90039</ele>
        <time>2024-06-01T16:36:10+02:00</time>
      </trkpt>
      <trkpt lat="43.77695" lon="1.58229">
        <ele>137.2998</ele>
        <time>2024-06-01T16:36:14+02:00</time>
      </trkpt>
      <trkpt lat="43.77699" lon="1.58223">
        <ele>136.5</ele>
        <time>2024-06-01T16:36:15+02:00</time>
      </trkpt>
      <trkpt lat="43.77711" lon="1.582">
        <ele>137.10059</ele>
        <time>2024-06-01T16:36:19+02:00</time>
      </trkpt>
      <trkpt lat="43.77713" lon="1.58193">
        <ele>137.7998</ele>
        <time>2024-06-01T16:36:20+02:00</time>
      </trkpt>
      <trkpt lat="43.77725" lon="1.58171">
        <ele>137.90039</ele>
        <time>2024-06-01T16:36:24+02:00</time>
      </trkpt>
      <trkpt lat="43.77729" lon="1.58169">
        <ele>137.40039</ele>
        <time>2024-06-01T16:36:25+02:00</time>
      </trkpt>
      <trkpt lat="43.77751" lon="1.58178">
        <ele>134.90039</ele>
        <time>2024-06-01T16:36:29+02:00</time>
      </trkpt>
      <trkpt lat="43.77756" lon="1.58179">
        <ele>134.2998</ele>
        <time>2024-06-01T16:36:30+02:00</time>
      </trkpt>
      <trkpt lat="43.7778" lon="1.58181">
        <ele>131.7002</ele>
        <time>2024-06-01T16:36:34+02:00</time>
      </trkpt>
      <trkpt lat="43.77786" lon="1.58182">
        <ele>131.10059</ele>
        <time>2024-06-01T16:36:35+02:00</time>
      </trkpt>
      <trkpt lat="43.77804" lon="1.58171">
        <ele>129.7998</ele>
        <time>2024-06-01T16:36:39+02:00</time>
      </trkpt>
      <trkpt lat="43.77807" lon="1.58164">
        <ele>130</ele>
        <time>2024-06-01T16:36:40+02:00</time>
      </trkpt>
      <trkpt lat="43.77817" lon="1.58135">
        <ele>129.7002</ele>
        <time>2024-06-01T16:36:44+02:00</time>
      </trkpt>
      <trkpt lat="43.7782" lon="1.58132">
        <ele>130</ele>
        <time>2024-06-01T16:36:45+02:00</time>
      </trkpt>
      <trkpt lat="43.77824" lon="1.58125">
        <ele>129.7998</ele>
        <time>2024-06-01T16:36:49+02:00</time>
      </trkpt>
      <trkpt lat="43.77825" lon="1.58122">
        <ele>129.7998</ele>
        <time>2024-06-01T16:36:50+02:00</time>
      </trkpt>
      <trkpt lat="43.77831" lon="1.58112">
        <ele>129.7998</ele>
        <time>2024-06-01T16:36:54+02:00</time>
      </trkpt>
      <trkpt lat="43.77832" lon="1.58109">
        <ele>129.7998</ele>
        <time>2024-06-01T16:36:55+02:00</time>
      </trkpt>
      <trkpt lat="43.77836" lon="1.58099">
        <ele>130.2998</ele>
        <time>2024-06-01T16:36:59+02:00</time>
      </trkpt>
      <trkpt lat="43.77838" lon="1.58096">
        <ele>130.2998</ele>
        <time>2024-06-01T16:37:00+02:00</time>
      </trkpt>
      <trkpt lat="43.77834" lon="1.58084">
        <ele>131.5</ele>
        <time>2024-06-01T16:37:04+02:00</time>
      </trkpt>
      <trkpt lat="43.77831" lon="1.5808">
        <ele>132</ele>
        <time>2024-06-01T16:37:05+02:00</time>
      </trkpt>
      <trkpt lat="43.77827" lon="1.5806">
        <ele>133.90039</ele>
        <time>2024-06-01T16:37:09+02:00</time>
      </trkpt>
      <trkpt lat="43.77827" lon="1.58055">
        <ele>134.40039</ele>
        <time>2024-06-01T16:37:10+02:00</time>
      </trkpt>
      <trkpt lat="43.77824" lon="1.58036">
        <ele>135.2002</ele>
        <time>2024-06-01T16:37:14+02:00</time>
      </trkpt>
      <trkpt lat="43.77823" lon="1.5803">
        <ele>135.60059</ele>
        <time>2024-06-01T16:37:15+02:00</time>
      </trkpt>
      <trkpt lat="43.77828" lon="1.58012">
        <ele>136.2998</ele>
        <time>2024-06-01T16:37:19+02:00</time>
      </trkpt>
      <trkpt lat="43.7783" lon="1.58007">
        <ele>135.60059</ele>
        <time>2024-06-01T16:37:20+02:00</time>
      </trkpt>
      <trkpt lat="43.7784" lon="1.57985">
        <ele>136.2002</ele>
        <time>2024-06-01T16:37:24+02:00</time>
      </trkpt>
      <trkpt lat="43.77841" lon="1.57979">
        <ele>136.7998</ele>
        <time>2024-06-01T16:37:25+02:00</time>
      </trkpt>
      <trkpt lat="43.77842" lon="1.57959">
        <ele>137.60059</ele>
        <time>2024-06-01T16:37:29+02:00</time>
      </trkpt>
      <trkpt lat="43.77843" lon="1.57954">
        <ele>138.2002</ele>
        <time>2024-06-01T16:37:30+02:00</time>
      </trkpt>
      <trkpt lat="43.77842" lon="1.57937">
        <ele>139.5</ele>
        <time>2024-06-01T16:37:34+02:00</time>
      </trkpt>
      <trkpt lat="43.77841" lon="1.57933">
        <ele>139.5</ele>
        <time>2024-06-01T16:37:35+02:00</time>
      </trkpt>
      <trkpt lat="43.77847" lon="1.57918">
        <ele>139.90039</ele>
        <time>2024-06-01T16:37:39+02:00</time>
      </trkpt>
      <trkpt lat="43.77849" lon="1.57913">
        <ele>139.90039</ele>
        <time>2024-06-01T16:37:40+02:00</time>
      </trkpt>
      <trkpt lat="43.77853" lon="1.57892">
        <ele>141.90039</ele>
        <time>2024-06-01T16:37:44+02:00</time>
      </trkpt>
      <trkpt lat="43.77854" lon="1.57887">
        <ele>141</ele>
        <time>2024-06-01T16:37:45+02:00</time>
      </trkpt>
      <trkpt lat="43.77854" lon="1.57871">
        <ele>142.5</ele>
        <time>2024-06-01T16:37:49+02:00</time>
      </trkpt>
      <trkpt lat="43.77854" lon="1.57868">
        <ele>143.2998</ele>
        <time>2024-06-01T16:37:50+02:00</time>
      </trkpt>
      <trkpt lat="43.77859" lon="1.57853">
        <ele>144.10059</ele>
        <time>2024-06-01T16:37:54+02:00</time>
      </trkpt>
      <trkpt lat="43.77861" lon="1.57849">
        <ele>144</ele>
        <time>2024-06-01T16:37:55+02:00</time>
      </trkpt>
      <trkpt lat="43.77863" lon="1.57832">
        <ele>145.60059</ele>
        <time>2024-06-01T16:37:59+02:00</time>
      </trkpt>
      <trkpt lat="43.77862" lon="1.57828">
        <ele>145.60059</ele>
        <time>2024-06-01T16:38:00+02:00</time>
      </trkpt>
      <trkpt lat="43.77856" lon="1.57819">
        <ele>147</ele>
        <time>2024-06-01T16:38:04+02:00</time>
      </trkpt>
      <trkpt lat="43.77854" lon="1.57816">
        <ele>147.5</ele>
        <time>2024-06-01T16:38:05+02:00</time>
      </trkpt>
      <trkpt lat="43.77855" lon="1.578">
        <ele>147.7998</ele>
        <time>2024-06-01T16:38:09+02:00</time>
      </trkpt>
      <trkpt lat="43.77855" lon="1.57796">
        <ele>148.2002</ele>
        <time>2024-06-01T16:38:10+02:00</time>
      </trkpt>
      <trkpt lat="43.77856" lon="1.57781">
        <ele>148.7002</ele>
        <time>2024-06-01T16:38:14+02:00</time>
      </trkpt>
      <trkpt lat="43.77855" lon="1.57778">
        <ele>148.7002</ele>
        <time>2024-06-01T16:38:15+02:00</time>
      </trkpt>
      <trkpt lat="43.77849" lon="1.57765">
        <ele>149.7998</ele>
        <time>2024-06-01T16:38:19+02:00</time>
      </trkpt>
      <trkpt lat="43.77846" lon="1.57764">
        <ele>150.2998</ele>
        <time>2024-06-01T16:38:20+02:00</time>
      </trkpt>
      <trkpt lat="43.77844" lon="1.57751">
        <ele>150.7002</ele>
        <time>2024-06-01T16:38:24+02:00</time>
      </trkpt>
      <trkpt lat="43.77845" lon="1.57746">
        <ele>150.90039</ele>
        <time>2024-06-01T16:38:25+02:00</time>
      </trkpt>
      <trkpt lat="43.77856" lon="1.5773">
        <ele>150.5</ele>
        <time>2024-06-01T16:38:29+02:00</time>
      </trkpt>
      <trkpt lat="43.7786" lon="1.57727">
        <ele>150.10059</ele>
        <time>2024-06-01T16:38:30+02:00</time>
      </trkpt>
      <trkpt lat="43.77879" lon="1.57711">
        <ele>149</ele>
        <time>2024-06-01T16:38:34+02:00</time>
      </trkpt>
      <trkpt lat="43.77886" lon="1.57705">
        <ele>148.40039</ele>
        <time>2024-06-01T16:38:35+02:00</time>
      </trkpt>
      <trkpt lat="43.77911" lon="1.5769">
        <ele>145.2998</ele>
        <time>2024-06-01T16:38:39+02:00</time>
      </trkpt>
      <trkpt lat="43.77917" lon="1.57685">
        <ele>144.5</ele>
        <time>2024-06-01T16:38:40+02:00</time>
      </trkpt>
      <trkpt lat="43.77942" lon="1.57667">
        <ele>141.5</ele>
        <time>2024-06-01T16:38:44+02:00</time>
      </trkpt>
      <trkpt lat="43.77947" lon="1.57662">
        <ele>140.7998</ele>
        <time>2024-06-01T16:38:45+02:00</time>
      </trkpt>
      <trkpt lat="43.7797" lon="1.57643">
        <ele>139</ele>
        <time>2024-06-01T16:38:49+02:00</time>
      </trkpt>
      <trkpt lat="43.77975" lon="1.57641">
        <ele>138.60059</ele>
        <time>2024-06-01T16:38:50+02:00</time>
      </trkpt>
      <trkpt lat="43.78006" lon="1.57648">
        <ele>136.5</ele>
        <time>2024-06-01T16:38:54+02:00</time>
      </trkpt>
      <trkpt lat="43.78014" lon="1.57653">
        <ele>136</ele>
        <time>2024-06-01T16:38:55+02:00</time>
      </trkpt>
      <trkpt lat="43.78041" lon="1.57669">
        <ele>133.60059</ele>
        <time>2024-06-01T16:38:59+02:00</time>
      </trkpt>
      <trkpt lat="43.78047" lon="1.57671">
        <ele>133.2002</ele>
        <time>2024-06-01T16:39:00+02:00</time>
      </trkpt>
      <trkpt lat="43.7807" lon="1.5766">
        <ele>132.40039</ele>
        <time>2024-06-01T16:39:04+02:00</time>
      </trkpt>
      <trkpt lat="43.78074" lon="1.57654">
        <ele>132.40039</ele>
        <time>2024-06-01T16:39:05+02:00</time>
      </trkpt>
      <trkpt lat="43.78087" lon="1.57627">
        <ele>132.2998</ele>
        <time>2024-06-01T16:39:09+02:00</time>
      </trkpt>
      <trkpt lat="43.7809" lon="1.57622">
        <ele>132.10059</ele>
        <time>2024-06-01T16:39:10+02:00</time>
      </trkpt>
      <trkpt lat="43.78098" lon="1.57597">
        <ele>132.2002</ele>
        <time>2024-06-01T16:39:14+02:00</time>
      </trkpt>
      <trkpt lat="43.781" lon="1.5759">
        <ele>132.2998</ele>
        <time>2024-06-01T16:39:15+02:00</time>
      </trkpt>
      <trkpt lat="43.78109" lon="1.57564">
        <ele>132</ele>
        <time>2024-06-01T16:39:19+02:00</time>
      </trkpt>
      <trkpt lat="43.78111" lon="1.57558">
        <ele>132.10059</ele>
        <time>2024-06-01T16:39:20+02:00</time>
      </trkpt>
      <trkpt lat="43.78111" lon="1.57532">
        <ele>132.60059</ele>
        <time>2024-06-01T16:39:24+02:00</time>
      </trkpt>
      <trkpt lat="43.78108" lon="1.57527">
        <ele>132.60059</ele>
        <time>2024-06-01T16:39:25+02:00</time>
      </trkpt>
      <trkpt lat="43.78089" lon="1.57522">
        <ele>133.7002</ele>
        <time>2024-06-01T16:39:29+02:00</time>
      </trkpt>
      <trkpt lat="43.78084" lon="1.57522">
        <ele>134</ele>
        <time>2024-06-01T16:39:30+02:00</time>
      </trkpt>
      <trkpt lat="43.78066" lon="1.57512">
        <ele>135</ele>
        <time>2024-06-01T16:39:34+02:00</time>
      </trkpt>
      <trkpt lat="43.78062" lon="1.57506">
        <ele>135.40039</ele>
        <time>2024-06-01T16:39:35+02:00</time>
      </trkpt>
      <trkpt lat="43.78055" lon="1.57487">
        <ele>135.90039</ele>
        <time>2024-06-01T16:39:39+02:00</time>
      </trkpt>
      <trkpt lat="43.78052" lon="1.57486">
        <ele>135.90039</ele>
        <time>2024-06-01T16:39:40+02:00</time>
      </trkpt>
      <trkpt lat="43.78034" lon="1.57485">
        <ele>136.40039</ele>
        <time>2024-06-01T16:39:44+02:00</time>
      </trkpt>
      <trkpt lat="43.7803" lon="1.57487">
        <ele>136.5</ele>
        <time>2024-06-01T16:39:45+02:00</time>
      </trkpt>
      <trkpt lat="43.78007" lon="1.57496">
        <ele>136.60059</ele>
        <time>2024-06-01T16:39:49+02:00</time>
      </trkpt>
      <trkpt lat="43.78002" lon="1.57497">
        <ele>136.60059</ele>
        <time>2024-06-01T16:39:50+02:00</time>
      </trkpt>
      <trkpt lat="43.77983" lon="1.57506">
        <ele>137.2998</ele>
        <time>2024-06-01T16:39:54+02:00</time>
      </trkpt>
      <trkpt lat="43.77977" lon="1.57507">
        <ele>137.5</ele>
        <time>2024-06-01T16:39:55+02:00</time>
      </trkpt>
      <trkpt lat="43.77957" lon="1.57509">
        <ele>138.40039</ele>
        <time>2024-06-01T16:39:59+02:00</time>
      </trkpt>
      <trkpt lat="43.77952" lon="1.57508">
        <ele>138.7998</ele>
        <time>2024-06-01T16:40:00+02:00</time>
      </trkpt>
      <trkpt lat="43.77942" lon="1.57502">
        <ele>139.40039</ele>
        <time>2024-06-01T16:40:04+02:00</time>
      </trkpt>
      <trkpt lat="43.7794" lon="1.575">
        <ele>139.40039</ele>
        <time>2024-06-01T16:40:05+02:00</time>
      </trkpt>
      <trkpt lat="43.77926" lon="1.57491">
        <ele>141.2002</ele>
        <time>2024-06-01T16:40:09+02:00</time>
      </trkpt>
      <trkpt lat="43.77921" lon="1.57488">
        <ele>142.10059</ele>
        <time>2024-06-01T16:40:10+02:00</time>
      </trkpt>
      <trkpt lat="43.77903" lon="1.57484">
        <ele>143.5</ele>
        <time>2024-06-01T16:40:14+02:00</time>
      </trkpt>
      <trkpt lat="43.77898" lon="1.57484">
        <ele>144.10059</ele>
        <time>2024-06-01T16:40:15+02:00</time>
      </trkpt>
      <trkpt lat="43.77878" lon="1.57484">
        <ele>146.10059</ele>
        <time>2024-06-01T16:40:19+02:00</time>
      </trkpt>
      <trkpt lat="43.77873" lon="1.57484">
        <ele>146.7002</ele>
        <time>2024-06-01T16:40:20+02:00</time>
      </trkpt>
      <trkpt lat="43.77856" lon="1.57488">
        <ele>148.2002</ele>
        <time>2024-06-01T16:40:24+02:00</time>
      </trkpt>
      <trkpt lat="43.77851" lon="1.57488">
        <ele>148.60059</ele>
        <time>2024-06-01T16:40:25+02:00</time>
      </trkpt>
      <trkpt lat="43.7784" lon="1.57491">
        <ele>148.40039</ele>
        <time>2024-06-01T16:40:29+02:00</time>
      </trkpt>
      <trkpt lat="43.77837" lon="1.57492">
        <ele>148.40039</ele>
        <time>2024-06-01T16:40:30+02:00</time>
      </trkpt>
      <trkpt lat="43.77827" lon="1.57489">
        <ele>149.2998</ele>
        <time>2024-06-01T16:40:34+02:00</time>
      </trkpt>
      <trkpt lat="43.77827" lon="1.57484">
        <ele>149.2998</ele>
        <time>2024-06-01T16:40:35+02:00</time>
      </trkpt>
      <trkpt lat="43.77824" lon="1.57467">
        <ele>151</ele>
        <time>2024-06-01T16:40:39+02:00</time>
      </trkpt>
      <trkpt lat="43.77822" lon="1.57463">
        <ele>152.10059</ele>
        <time>2024-06-01T16:40:40+02:00</time>
      </trkpt>
      <trkpt lat="43.77812" lon="1.5745">
        <ele>153.2998</ele>
        <time>2024-06-01T16:40:44+02:00</time>
      </trkpt>
      <trkpt lat="43.7781" lon="1.57447">
        <ele>154.60059</ele>
        <time>2024-06-01T16:40:45+02:00</time>
      </trkpt>
      <trkpt lat="43.77801" lon="1.57433">
        <ele>155.7998</ele>
        <time>2024-06-01T16:40:49+02:00</time>
      </trkpt>
      <trkpt lat="43.77799" lon="1.5743">
        <ele>156.7002</ele>
        <time>2024-06-01T16:40:50+02:00</time>
      </trkpt>
      <trkpt lat="43.7779" lon="1.57417">
        <ele>157.60059</ele>
        <time>2024-06-01T16:40:54+02:00</time>
      </trkpt>
      <trkpt lat="43.77787" lon="1.57414">
        <ele>157.60059</ele>
        <time>2024-06-01T16:40:55+02:00</time>
      </trkpt>
      <trkpt lat="43.77775" lon="1.57403">
        <ele>158.7002</ele>
        <time>2024-06-01T16:40:59+02:00</time>
      </trkpt>
      <trkpt lat="43.77773" lon="1.57399">
        <ele>158.7002</ele>
        <time>2024-06-01T16:41:00+02:00</time>
      </trkpt>
      <trkpt lat="43.77775" lon="1.57382">
        <ele>159.40039</ele>
        <time>2024-06-01T16:41:04+02:00</time>
      </trkpt>
      <trkpt lat="43.77774" lon="1.57381">
        <ele>159.40039</ele>
        <time>2024-06-01T16:41:05+02:00</time>
      </trkpt>
      <trkpt lat="43.77767" lon="1.57387">
        <ele>159.40039</ele>
        <time>2024-06-01T16:41:09+02:00</time>
      </trkpt>
      <trkpt lat="43.77765" lon="1.57385">
        <ele>159.5</ele>
        <time>2024-06-01T16:41:10+02:00</time>
      </trkpt>
      <trkpt lat="43.77755" lon="1.57372">
        <ele>159.90039</ele>
        <time>2024-06-01T16:41:14+02:00</time>
      </trkpt>
      <trkpt lat="43.77751" lon="1.57369">
        <ele>160.2002</ele>
        <time>2024-06-01T16:41:15+02:00</time>
      </trkpt>
      <trkpt lat="43.77738" lon="1.57355">
        <ele>160.5</ele>
        <time>2024-06-01T16:41:19+02:00</time>
      </trkpt>
      <trkpt lat="43.77735" lon="1.57352">
        <ele>160.7002</ele>
        <time>2024-06-01T16:41:20+02:00</time>
      </trkpt>
      <trkpt lat="43.77722" lon="1.57344">
        <ele>160.90039</ele>
        <time>2024-06-01T16:41:24+02:00</time>
      </trkpt>
      <trkpt lat="43.77719" lon="1.57342">
        <ele>160.90039</ele>
        <time>2024-06-01T16:41:25+02:00</time>
      </trkpt>
      <trkpt lat="43.7771" lon="1.57331">
        <ele>161</ele>
        <time>2024-06-01T16:41:29+02:00</time>
      </trkpt>
      <trkpt lat="43.77708" lon="1.57328">
        <ele>161</ele>
        <time>2024-06-01T16:41:30+02:00</time>
      </trkpt>
      <trkpt lat="43.777" lon="1.57325">
        <ele>161.2002</ele>
        <time>2024-06-01T16:41:34+02:00</time>
      </trkpt>
      <trkpt lat="43.777" lon="1.57325">
        <ele>161.2002</ele>
        <time>2024-06-01T16:41:35+02:00</time>
      </trkpt>
      <trkpt lat="43.77701" lon="1.57326">
        <ele>161.2002</ele>
        <time>2024-06-01T16:41:43+02:00</time>
      </trkpt>
      <trkpt lat="43.777" lon="1.57324">
        <ele>161.2002</ele>
        <time>2024-06-01T16:41:53+02:00</time>
      </trkpt>
      <trkpt lat="43.77699" lon="1.57323">
        <ele>161.2002</ele>
        <time>2024-06-01T16:42:03+02:00</time>
      </trkpt>
      <trkpt lat="43.77698" lon="1.57322">
        <ele>161.2002</ele>
        <time>2024-06-01T16:42:08+02:00</time>
      </trkpt>
      <trkpt lat="43.77698" lon="1.57322">
        <ele>161.2002</ele>
        <time>2024-06-01T16:42:18+02:00</time>
      </trkpt>
      <trkpt lat="43.77698" lon="1.57322">
        <ele>161.2002</ele>
        <time>2024-06-01T16:42:23+02:00</time>
      </trkpt>
      <trkpt lat="43.77698" lon="1.57322">
        <ele>161.2002</ele>
        <time>2024-06-01T16:42:33+02:00</time>
      </trkpt>
      <trkpt lat="43.77698" lon="1.57322">
        <ele>161.2002</ele>
        <time>2024-06-01T16:42:38+02:00</time>
      </trkpt>
      <trkpt lat="43.77698" lon="1.57322">
        <ele>161.2002</ele>
        <time>2024-06-01T16:42:48+02:00</time>
      </trkpt>
      <trkpt lat="43.77698" lon="1.57322">
        <ele>161.2002</ele>
        <time>2024-06-01T16:42:53+02:00</time>
      </trkpt>
      <trkpt lat="43.77698" lon="1.57322">
        <ele>161.2002</ele>
        <time>2024-06-01T16:43:03+02:00</time>
      </trkpt>
      <trkpt lat="43.77698" lon="1.57322">
        <ele>161.2002</ele>
        <time>2024-06-01T16:43:08+02:00</time>
      </trkpt>
      <trkpt lat="43.77698" lon="1.57322">
        <ele>161.2002</ele>
        <time>2024-06-01T16:43:18+02:00</time>
      </trkpt>
      <trkpt lat="43.77698" lon="1.57322">
        <ele>161.2002</ele>
        <time>2024-06-01T16:43:23+02:00</time>
      </trkpt>
      <trkpt lat="43.77698" lon="1.57322">
        <ele>161.2002</ele>
        <time>2024-06-01T16:43:33+02:00</time>
      </trkpt>
      <trkpt lat="43.77698" lon="1.57322">
        <ele>161.2002</ele>
        <time>2024-06-01T16:43:38+02:00</time>
      </trkpt>
      <trkpt lat="43.77698" lon="1.57322">
        <ele>161.2002</ele>
        <time>2024-06-01T16:43:48+02:00</time>
      </trkpt>
      <trkpt lat="43.77698" lon="1.57322">
        <ele>161.2002</ele>
        <time>2024-06-01T16:43:53+02:00</time>
      </trkpt>
      <trkpt lat="43.77698" lon="1.57322">
        <ele>161.2002</ele>
        <time>2024-06-01T16:44:03+02:00</time>
      </trkpt>
      <trkpt lat="43.77699" lon="1.57322">
        <ele>161.2002</ele>
        <time>2024-06-01T16:44:05+02:00</time>
      </trkpt>
      <trkpt lat="43.77699" lon="1.57321">
        <ele>161.2002</ele>
        <time>2024-06-01T16:44:09+02:00</time>
      </trkpt>
      <trkpt lat="43.77699" lon="1.57321">
        <ele>161.2002</ele>
        <time>2024-06-01T16:44:10+02:00</time>
      </trkpt>
      <trkpt lat="43.77699" lon="1.57322">
        <ele>161.2002</ele>
        <time>2024-06-01T16:44:14+02:00</time>
      </trkpt>
      <trkpt lat="43.77699" lon="1.57322">
        <ele>161.2002</ele>
        <time>2024-06-01T16:44:15+02:00</time>
      </trkpt>
      <trkpt lat="43.77689" lon="1.57318">
        <ele>161.2998</ele>
        <time>2024-06-01T16:44:19+02:00</time>
      </trkpt>
      <trkpt lat="43.77687" lon="1.57316">
        <ele>161.2998</ele>
        <time>2024-06-01T16:44:20+02:00</time>
      </trkpt>
      <trkpt lat="43.77676" lon="1.5731">
        <ele>161.2998</ele>
        <time>2024-06-01T16:44:24+02:00</time>
      </trkpt>
      <trkpt lat="43.77674" lon="1.57306">
        <ele>161.2998</ele>
        <time>2024-06-01T16:44:25+02:00</time>
      </trkpt>
      <trkpt lat="43.77661" lon="1.57295">
        <ele>161.40039</ele>
        <time>2024-06-01T16:44:29+02:00</time>
      </trkpt>
      <trkpt lat="43.77658" lon="1.57294">
        <ele>161.40039</ele>
        <time>2024-06-01T16:44:30+02:00</time>
      </trkpt>
      <trkpt lat="43.77648" lon="1.57283">
        <ele>161.5</ele>
        <time>2024-06-01T16:44:34+02:00</time>
      </trkpt>
      <trkpt lat="43.77646" lon="1.5728">
        <ele>161.5</ele>
        <time>2024-06-01T16:44:35+02:00</time>
      </trkpt>
      <trkpt lat="43.77638" lon="1.57264">
        <ele>161.60059</ele>
        <time>2024-06-01T16:44:39+02:00</time>
      </trkpt>
      <trkpt lat="43.77635" lon="1.57261">
        <ele>161.60059</ele>
        <time>2024-06-01T16:44:40+02:00</time>
      </trkpt>
      <trkpt lat="43.77622" lon="1.57255">
        <ele>161.5</ele>
        <time>2024-06-01T16:44:44+02:00</time>
      </trkpt>
      <trkpt lat="43.77619" lon="1.57252">
        <ele>161.5</ele>
        <time>2024-06-01T16:44:45+02:00</time>
      </trkpt>
      <trkpt lat="43.77608" lon="1.57236">
        <ele>161.7002</ele>
        <time>2024-06-01T16:44:49+02:00</time>
      </trkpt>
      <trkpt lat="43.77606" lon="1.57232">
        <ele>161.90039</ele>
        <time>2024-06-01T16:44:50+02:00</time>
      </trkpt>
      <trkpt lat="43.77592" lon="1.57221">
        <ele>162</ele>
        <time>2024-06-01T16:44:54+02:00</time>
      </trkpt>
      <trkpt lat="43.77588" lon="1.57218">
        <ele>162</ele>
        <time>2024-06-01T16:44:55+02:00</time>
      </trkpt>
      <trkpt lat="43.77573" lon="1.57213">
        <ele>162.10059</ele>
        <time>2024-06-01T16:44:59+02:00</time>
      </trkpt>
      <trkpt lat="43.77568" lon="1.57212">
        <ele>162.10059</ele>
        <time>2024-06-01T16:45:00+02:00</time>
      </trkpt>
      <trkpt lat="43.77551" lon="1.57202">
        <ele>162.10059</ele>
        <time>2024-06-01T16:45:04+02:00</time>
      </trkpt>
      <trkpt lat="43.77546" lon="1.572">
        <ele>162</ele>
        <time>2024-06-01T16:45:05+02:00</time>
      </trkpt>
      <trkpt lat="43.77532" lon="1.57181">
        <ele>162.7998</ele>
        <time>2024-06-01T16:45:09+02:00</time>
      </trkpt>
      <trkpt lat="43.77529" lon="1.57175">
        <ele>162.7998</ele>
        <time>2024-06-01T16:45:10+02:00</time>
      </trkpt>
      <trkpt lat="43.77517" lon="1.57159">
        <ele>163</ele>
        <time>2024-06-01T16:45:14+02:00</time>
      </trkpt>
      <trkpt lat="43.77512" lon="1.57158">
        <ele>163</ele>
        <time>2024-06-01T16:45:15+02:00</time>
      </trkpt>
      <trkpt lat="43.77493" lon="1.57152">
        <ele>162.60059</ele>
        <time>2024-06-01T16:45:19+02:00</time>
      </trkpt>
      <trkpt lat="43.77489" lon="1.57147">
        <ele>162.60059</ele>
        <time>2024-06-01T16:45:20+02:00</time>
      </trkpt>
      <trkpt lat="43.77474" lon="1.57125">
        <ele>162.2998</ele>
        <time>2024-06-01T16:45:24+02:00</time>
      </trkpt>
      <trkpt lat="43.77471" lon="1.57119">
        <ele>162.2998</ele>
        <time>2024-06-01T16:45:25+02:00</time>
      </trkpt>
      <trkpt lat="43.7746" lon="1.57096">
        <ele>162.2002</ele>
        <time>2024-06-01T16:45:29+02:00</time>
      </trkpt>
      <trkpt lat="43.77458" lon="1.57091">
        <ele>162.2002</ele>
        <time>2024-06-01T16:45:30+02:00</time>
      </trkpt>
      <trkpt lat="43.77463" lon="1.57082">
        <ele>162.2002</ele>
        <time>2024-06-01T16:45:34+02:00</time>
      </trkpt>
      <trkpt lat="43.77465" lon="1.57081">
        <ele>162.2002</ele>
        <time>2024-06-01T16:45:35+02:00</time>
      </trkpt>
      <trkpt lat="43.77474" lon="1.57067">
        <ele>162.2002</ele>
        <time>2024-06-01T16:45:39+02:00</time>
      </trkpt>
      <trkpt lat="43.77477" lon="1.57064">
        <ele>162.2002</ele>
        <time>2024-06-01T16:45:40+02:00</time>
      </trkpt>
      <trkpt lat="43.77492" lon="1.57054">
        <ele>162.10059</ele>
        <time>2024-06-01T16:45:44+02:00</time>
      </trkpt>
      <trkpt lat="43.77496" lon="1.57051">
        <ele>162</ele>
        <time>2024-06-01T16:45:45+02:00</time>
      </trkpt>
      <trkpt lat="43.77511" lon="1.57034">
        <ele>161.7002</ele>
        <time>2024-06-01T16:45:49+02:00</time>
      </trkpt>
      <trkpt lat="43.77514" lon="1.5703">
        <ele>161.60059</ele>
        <time>2024-06-01T16:45:50+02:00</time>
      </trkpt>
      <trkpt lat="43.77529" lon="1.57016">
        <ele>161.2998</ele>
        <time>2024-06-01T16:45:54+02:00</time>
      </trkpt>
      <trkpt lat="43.77532" lon="1.57013">
        <ele>161.2002</ele>
        <time>2024-06-01T16:45:55+02:00</time>
      </trkpt>
      <trkpt lat="43.77547" lon="1.57">
        <ele>160.60059</ele>
        <time>2024-06-01T16:45:59+02:00</time>
      </trkpt>
      <trkpt lat="43.77552" lon="1.56997">
        <ele>160.40039</ele>
        <time>2024-06-01T16:46:00+02:00</time>
      </trkpt>
      <trkpt lat="43.77572" lon="1.56991">
        <ele>159.40039</ele>
        <time>2024-06-01T16:46:04+02:00</time>
      </trkpt>
      <trkpt lat="43.77577" lon="1.56989">
        <ele>159.10059</ele>
        <time>2024-06-01T16:46:05+02:00</time>
      </trkpt>
      <trkpt lat="43.77598" lon="1.56974">
        <ele>157.2998</ele>
        <time>2024-06-01T16:46:09+02:00</time>
      </trkpt>
      <trkpt lat="43.77603" lon="1.56969">
        <ele>157</ele>
        <time>2024-06-01T16:46:10+02:00</time>
      </trkpt>
      <trkpt lat="43.77621" lon="1.56946">
        <ele>153.90039</ele>
        <time>2024-06-01T16:46:14+02:00</time>
      </trkpt>
      <trkpt lat="43.77625" lon="1.56942">
        <ele>153.7002</ele>
        <time>2024-06-01T16:46:15+02:00</time>
      </trkpt>
      <trkpt lat="43.77644" lon="1.5692">
        <ele>151.7002</ele>
        <time>2024-06-01T16:46:19+02:00</time>
      </trkpt>
      <trkpt lat="43.77649" lon="1.56913">
        <ele>151.10059</ele>
        <time>2024-06-01T16:46:20+02:00</time>
      </trkpt>
      <trkpt lat="43.77668" lon="1.56895">
        <ele>149.5</ele>
        <time>2024-06-01T16:46:24+02:00</time>
      </trkpt>
      <trkpt lat="43.77674" lon="1.56891">
        <ele>149.2002</ele>
        <time>2024-06-01T16:46:25+02:00</time>
      </trkpt>
      <trkpt lat="43.77699" lon="1.56881">
        <ele>147.7002</ele>
        <time>2024-06-01T16:46:29+02:00</time>
      </trkpt>
      <trkpt lat="43.77704" lon="1.56879">
        <ele>147</ele>
        <time>2024-06-01T16:46:30+02:00</time>
      </trkpt>
      <trkpt lat="43.77721" lon="1.56853">
        <ele>145.40039</ele>
        <time>2024-06-01T16:46:34+02:00</time>
      </trkpt>
      <trkpt lat="43.77725" lon="1.56847">
        <ele>144.7002</ele>
        <time>2024-06-01T16:46:35+02:00</time>
      </trkpt>
      <trkpt lat="43.77743" lon="1.5682">
        <ele>143</ele>
        <time>2024-06-01T16:46:39+02:00</time>
      </trkpt>
      <trkpt lat="43.77748" lon="1.56812">
        <ele>142.60059</ele>
        <time>2024-06-01T16:46:40+02:00</time>
      </trkpt>
      <trkpt lat="43.77766" lon="1.56801">
        <ele>142</ele>
        <time>2024-06-01T16:46:44+02:00</time>
      </trkpt>
      <trkpt lat="43.77769" lon="1.568">
        <ele>141.7002</ele>
        <time>2024-06-01T16:46:45+02:00</time>
      </trkpt>
      <trkpt lat="43.77776" lon="1.56788">
        <ele>141.40039</ele>
        <time>2024-06-01T16:46:49+02:00</time>
      </trkpt>
      <trkpt lat="43.77778" lon="1.56783">
        <ele>141.40039</ele>
        <time>2024-06-01T16:46:50+02:00</time>
      </trkpt>
      <trkpt lat="43.7779" lon="1.5677">
        <ele>140.7998</ele>
        <time>2024-06-01T16:46:54+02:00</time>
      </trkpt>
      <trkpt lat="43.77793" lon="1.56768">
        <ele>140.40039</ele>
        <time>2024-06-01T16:46:55+02:00</time>
      </trkpt>
      <trkpt lat="43.77809" lon="1.56753">
        <ele>139.7002</ele>
        <time>2024-06-01T16:46:59+02:00</time>
      </trkpt>
      <trkpt lat="43.77813" lon="1.56752">
        <ele>139.2002</ele>
        <time>2024-06-01T16:47:00+02:00</time>
      </trkpt>
      <trkpt lat="43.77823" lon="1.56751">
        <ele>138.5</ele>
        <time>2024-06-01T16:47:04+02:00</time>
      </trkpt>
      <trkpt lat="43.77825" lon="1.5675">
        <ele>138.5</ele>
        <time>2024-06-01T16:47:05+02:00</time>
      </trkpt>
      <trkpt lat="43.77833" lon="1.56739">
        <ele>138.2002</ele>
        <time>2024-06-01T16:47:09+02:00</time>
      </trkpt>
      <trkpt lat="43.77835" lon="1.56737">
        <ele>138</ele>
        <time>2024-06-01T16:47:10+02:00</time>
      </trkpt>
      <trkpt lat="43.77842" lon="1.56738">
        <ele>137.7998</ele>
        <time>2024-06-01T16:47:14+02:00</time>
      </trkpt>
      <trkpt lat="43.77841" lon="1.56743">
        <ele>137.7998</ele>
        <time>2024-06-01T16:47:15+02:00</time>
      </trkpt>
      <trkpt lat="43.77835" lon="1.56761">
        <ele>138.2002</ele>
        <time>2024-06-01T16:47:19+02:00</time>
      </trkpt>
      <trkpt lat="43.77834" lon="1.56764">
        <ele>138.5</ele>
        <time>2024-06-01T16:47:20+02:00</time>
      </trkpt>
      <trkpt lat="43.77824" lon="1.56772">
        <ele>138.7998</ele>
        <time>2024-06-01T16:47:24+02:00</time>
      </trkpt>
      <trkpt lat="43.77821" lon="1.56775">
        <ele>139.10059</ele>
        <time>2024-06-01T16:47:25+02:00</time>
      </trkpt>
      <trkpt lat="43.77813" lon="1.56785">
        <ele>139.5</ele>
        <time>2024-06-01T16:47:29+02:00</time>
      </trkpt>
      <trkpt lat="43.77812" lon="1.56787">
        <ele>139.5</ele>
        <time>2024-06-01T16:47:30+02:00</time>
      </trkpt>
      <trkpt lat="43.77815" lon="1.56792">
        <ele>139.5</ele>
        <time>2024-06-01T16:47:34+02:00</time>
      </trkpt>
      <trkpt lat="43.77818" lon="1.56792">
        <ele>139.2002</ele>
        <time>2024-06-01T16:47:35+02:00</time>
      </trkpt>
      <trkpt lat="43.77827" lon="1.56794">
        <ele>138.90039</ele>
        <time>2024-06-01T16:47:39+02:00</time>
      </trkpt>
      <trkpt lat="43.77828" lon="1.56796">
        <ele>138.60059</ele>
        <time>2024-06-01T16:47:40+02:00</time>
      </trkpt>
      <trkpt lat="43.77833" lon="1.56806">
        <ele>138.7002</ele>
        <time>2024-06-01T16:47:44+02:00</time>
      </trkpt>
      <trkpt lat="43.77833" lon="1.56809">
        <ele>138.7002</ele>
        <time>2024-06-01T16:47:45+02:00</time>
      </trkpt>
      <trkpt lat="43.77828" lon="1.56829">
        <ele>139.2002</ele>
        <time>2024-06-01T16:47:49+02:00</time>
      </trkpt>
      <trkpt lat="43.77827" lon="1.56834">
        <ele>139.40039</ele>
        <time>2024-06-01T16:47:50+02:00</time>
      </trkpt>
      <trkpt lat="43.77813" lon="1.56847">
        <ele>140.40039</ele>
        <time>2024-06-01T16:47:54+02:00</time>
      </trkpt>
      <trkpt lat="43.77809" lon="1.56849">
        <ele>140.7002</ele>
        <time>2024-06-01T16:47:55+02:00</time>
      </trkpt>
      <trkpt lat="43.77799" lon="1.56866">
        <ele>141.60059</ele>
        <time>2024-06-01T16:47:59+02:00</time>
      </trkpt>
      <trkpt lat="43.778" lon="1.56871">
        <ele>141.60059</ele>
        <time>2024-06-01T16:48:00+02:00</time>
      </trkpt>
      <trkpt lat="43.77809" lon="1.56892">
        <ele>142.2002</ele>
        <time>2024-06-01T16:48:04+02:00</time>
      </trkpt>
      <trkpt lat="43.77812" lon="1.56896">
        <ele>141.90039</ele>
        <time>2024-06-01T16:48:05+02:00</time>
      </trkpt>
      <trkpt lat="43.77825" lon="1.5692">
        <ele>142.2002</ele>
        <time>2024-06-01T16:48:09+02:00</time>
      </trkpt>
      <trkpt lat="43.77827" lon="1.56926">
        <ele>142.40039</ele>
        <time>2024-06-01T16:48:10+02:00</time>
      </trkpt>
      <trkpt lat="43.7784" lon="1.56946">
        <ele>142.2002</ele>
        <time>2024-06-01T16:48:14+02:00</time>
      </trkpt>
      <trkpt lat="43.77842" lon="1.56951">
        <ele>142.10059</ele>
        <time>2024-06-01T16:48:15+02:00</time>
      </trkpt>
      <trkpt lat="43.77852" lon="1.5697">
        <ele>142</ele>
        <time>2024-06-01T16:48:19+02:00</time>
      </trkpt>
      <trkpt lat="43.77855" lon="1.56974">
        <ele>141.7998</ele>
        <time>2024-06-01T16:48:20+02:00</time>
      </trkpt>
      <trkpt lat="43.77866" lon="1.56988">
        <ele>141.60059</ele>
        <time>2024-06-01T16:48:24+02:00</time>
      </trkpt>
      <trkpt lat="43.77868" lon="1.56991">
        <ele>141.60059</ele>
        <time>2024-06-01T16:48:25+02:00</time>
      </trkpt>
      <trkpt lat="43.7788" lon="1.5701">
        <ele>141.5</ele>
        <time>2024-06-01T16:48:29+02:00</time>
      </trkpt>
      <trkpt lat="43.77882" lon="1.57014">
        <ele>141.5</ele>
        <time>2024-06-01T16:48:30+02:00</time>
      </trkpt>
      <trkpt lat="43.77885" lon="1.5704">
        <ele>141.2998</ele>
        <time>2024-06-01T16:48:34+02:00</time>
      </trkpt>
      <trkpt lat="43.77883" lon="1.57047">
        <ele>141.5</ele>
        <time>2024-06-01T16:48:35+02:00</time>
      </trkpt>
      <trkpt lat="43.77878" lon="1.57071">
        <ele>141.90039</ele>
        <time>2024-06-01T16:48:39+02:00</time>
      </trkpt>
      <trkpt lat="43.77877" lon="1.57076">
        <ele>141.90039</ele>
        <time>2024-06-01T16:48:40+02:00</time>
      </trkpt>
      <trkpt lat="43.77868" lon="1.57099">
        <ele>142.7002</ele>
        <time>2024-06-01T16:48:44+02:00</time>
      </trkpt>
      <trkpt lat="43.77863" lon="1.57102">
        <ele>143.10059</ele>
        <time>2024-06-01T16:48:45+02:00</time>
      </trkpt>
      <trkpt lat="43.77841" lon="1.57108">
        <ele>144.60059</ele>
        <time>2024-06-01T16:48:49+02:00</time>
      </trkpt>
      <trkpt lat="43.77837" lon="1.57111">
        <ele>145.2002</ele>
        <time>2024-06-01T16:48:50+02:00</time>
      </trkpt>
      <trkpt lat="43.77819" lon="1.57122">
        <ele>147.90039</ele>
        <time>2024-06-01T16:48:54+02:00</time>
      </trkpt>
      <trkpt lat="43.77815" lon="1.57126">
        <ele>148.7002</ele>
        <time>2024-06-01T16:48:55+02:00</time>
      </trkpt>
      <trkpt lat="43.77797" lon="1.57128">
        <ele>151.7002</ele>
        <time>2024-06-01T16:48:59+02:00</time>
      </trkpt>
      <trkpt lat="43.77792" lon="1.57124">
        <ele>151.7002</ele>
        <time>2024-06-01T16:49:00+02:00</time>
      </trkpt>
      <trkpt lat="43.77773" lon="1.57107">
        <ele>153.90039</ele>
        <time>2024-06-01T16:49:04+02:00</time>
      </trkpt>
      <trkpt lat="43.77769" lon="1.57104">
        <ele>154.40039</ele>
        <time>2024-06-01T16:49:05+02:00</time>
      </trkpt>
      <trkpt lat="43.77755" lon="1.57096">
        <ele>155.90039</ele>
        <time>2024-06-01T16:49:09+02:00</time>
      </trkpt>
      <trkpt lat="43.77751" lon="1.57094">
        <ele>156.7998</ele>
        <time>2024-06-01T16:49:10+02:00</time>
      </trkpt>
      <trkpt lat="43.77734" lon="1.57096">
        <ele>159.40039</ele>
        <time>2024-06-01T16:49:14+02:00</time>
      </trkpt>
      <trkpt lat="43.7773" lon="1.57096">
        <ele>159.40039</ele>
        <time>2024-06-01T16:49:15+02:00</time>
      </trkpt>
      <trkpt lat="43.77714" lon="1.57095">
        <ele>160</ele>
        <time>2024-06-01T16:49:19+02:00</time>
      </trkpt>
      <trkpt lat="43.7771" lon="1.57094">
        <ele>160.10059</ele>
        <time>2024-06-01T16:49:20+02:00</time>
      </trkpt>
      <trkpt lat="43.77693" lon="1.57087">
        <ele>159.60059</ele>
        <time>2024-06-01T16:49:24+02:00</time>
      </trkpt>
      <trkpt lat="43.77689" lon="1.57086">
        <ele>159.60059</ele>
        <time>2024-06-01T16:49:25+02:00</time>
      </trkpt>
      <trkpt lat="43.77673" lon="1.5708">
        <ele>160</ele>
        <time>2024-06-01T16:49:29+02:00</time>
      </trkpt>
      <trkpt lat="43.77668" lon="1.57079">
        <ele>159.60059</ele>
        <time>2024-06-01T16:49:30+02:00</time>
      </trkpt>
      <trkpt lat="43.77651" lon="1.57067">
        <ele>159.90039</ele>
        <time>2024-06-01T16:49:34+02:00</time>
      </trkpt>
      <trkpt lat="43.77647" lon="1.57064">
        <ele>160</ele>
        <time>2024-06-01T16:49:35+02:00</time>
      </trkpt>
      <trkpt lat="43.77632" lon="1.57052">
        <ele>159.7002</ele>
        <time>2024-06-01T16:49:39+02:00</time>
      </trkpt>
      <trkpt lat="43.77627" lon="1.5705">
        <ele>159.7998</ele>
        <time>2024-06-01T16:49:40+02:00</time>
      </trkpt>
      <trkpt lat="43.77608" lon="1.57047">
        <ele>160.2998</ele>
        <time>2024-06-01T16:49:44+02:00</time>
      </trkpt>
      <trkpt lat="43.77603" lon="1.57046">
        <ele>160.5</ele>
        <time>2024-06-01T16:49:45+02:00</time>
      </trkpt>
      <trkpt lat="43.77581" lon="1.57051">
        <ele>161.10059</ele>
        <time>2024-06-01T16:49:49+02:00</time>
      </trkpt>
      <trkpt lat="43.77576" lon="1.57051">
        <ele>161.2998</ele>
        <time>2024-06-01T16:49:50+02:00</time>
      </trkpt>
      <trkpt lat="43.77555" lon="1.57043">
        <ele>161.60059</ele>
        <time>2024-06-01T16:49:54+02:00</time>
      </trkpt>
      <trkpt lat="43.7755" lon="1.57042">
        <ele>161.60059</ele>
        <time>2024-06-01T16:49:55+02:00</time>
      </trkpt>
      <trkpt lat="43.7753" lon="1.57038">
        <ele>161.7002</ele>
        <time>2024-06-01T16:49:59+02:00</time>
      </trkpt>
      <trkpt lat="43.77525" lon="1.57037">
        <ele>161.7002</ele>
        <time>2024-06-01T16:50:00+02:00</time>
      </trkpt>
      <trkpt lat="43.77511" lon="1.57034">
        <ele>161.7002</ele>
        <time>2024-06-01T16:50:04+02:00</time>
      </trkpt>
      <trkpt lat="43.77507" lon="1.57037">
        <ele>161.7998</ele>
        <time>2024-06-01T16:50:05+02:00</time>
      </trkpt>
      <trkpt lat="43.77491" lon="1.57053">
        <ele>162.10059</ele>
        <time>2024-06-01T16:50:09+02:00</time>
      </trkpt>
      <trkpt lat="43.77488" lon="1.57057">
        <ele>162.10059</ele>
        <time>2024-06-01T16:50:10+02:00</time>
      </trkpt>
      <trkpt lat="43.77473" lon="1.57069">
        <ele>162.2002</ele>
        <time>2024-06-01T16:50:14+02:00</time>
      </trkpt>
      <trkpt lat="43.77472" lon="1.57071">
        <ele>162.2002</ele>
        <time>2024-06-01T16:50:15+02:00</time>
      </trkpt>
      <trkpt lat="43.7747" lon="1.57078">
        <ele>162.2002</ele>
        <time>2024-06-01T16:50:19+02:00</time>
      </trkpt>
      <trkpt lat="43.7747" lon="1.5708">
        <ele>162.2002</ele>
        <time>2024-06-01T16:50:20+02:00</time>
      </trkpt>
      <trkpt lat="43.77482" lon="1.57087">
        <ele>162.2998</ele>
        <time>2024-06-01T16:50:24+02:00</time>
      </trkpt>
      <trkpt lat="43.77486" lon="1.5709">
        <ele>162.2998</ele>
        <time>2024-06-01T16:50:25+02:00</time>
      </trkpt>
      <trkpt lat="43.77497" lon="1.57099">
        <ele>162.5</ele>
        <time>2024-06-01T16:50:29+02:00</time>
      </trkpt>
      <trkpt lat="43.77499" lon="1.57101">
        <ele>162.5</ele>
        <time>2024-06-01T16:50:30+02:00</time>
      </trkpt>
      <trkpt lat="43.77513" lon="1.57115">
        <ele>163</ele>
        <time>2024-06-01T16:50:34+02:00</time>
      </trkpt>
      <trkpt lat="43.77517" lon="1.57119">
        <ele>163</ele>
        <time>2024-06-01T16:50:35+02:00</time>
      </trkpt>
      <trkpt lat="43.77534" lon="1.57138">
        <ele>163.40039</ele>
        <time>2024-06-01T16:50:39+02:00</time>
      </trkpt>
      <trkpt lat="43.77539" lon="1.57141">
        <ele>163.5</ele>
        <time>2024-06-01T16:50:40+02:00</time>
      </trkpt>
      <trkpt lat="43.7756" lon="1.5715">
        <ele>163.60059</ele>
        <time>2024-06-01T16:50:44+02:00</time>
      </trkpt>
      <trkpt lat="43.77564" lon="1.57153">
        <ele>163.60059</ele>
        <time>2024-06-01T16:50:45+02:00</time>
      </trkpt>
      <trkpt lat="43.77578" lon="1.57169">
        <ele>163.40039</ele>
        <time>2024-06-01T16:50:49+02:00</time>
      </trkpt>
      <trkpt lat="43.77582" lon="1.5717">
        <ele>163.40039</ele>
        <time>2024-06-01T16:50:50+02:00</time>
      </trkpt>
      <trkpt lat="43.77591" lon="1.5719">
        <ele>163</ele>
        <time>2024-06-01T16:50:54+02:00</time>
      </trkpt>
      <trkpt lat="43.77593" lon="1.57194">
        <ele>162.7002</ele>
        <time>2024-06-01T16:50:55+02:00</time>
      </trkpt>
      <trkpt lat="43.77609" lon="1.57197">
        <ele>162.60059</ele>
        <time>2024-06-01T16:50:59+02:00</time>
      </trkpt>
      <trkpt lat="43.77612" lon="1.57201">
        <ele>162.40039</ele>
        <time>2024-06-01T16:51:00+02:00</time>
      </trkpt>
      <trkpt lat="43.77627" lon="1.57213">
        <ele>162.2002</ele>
        <time>2024-06-01T16:51:04+02:00</time>
      </trkpt>
      <trkpt lat="43.7763" lon="1.57217">
        <ele>162</ele>
        <time>2024-06-01T16:51:05+02:00</time>
      </trkpt>
      <trkpt lat="43.77648" lon="1.57221">
        <ele>161.90039</ele>
        <time>2024-06-01T16:51:09+02:00</time>
      </trkpt>
      <trkpt lat="43.77652" lon="1.57222">
        <ele>161.90039</ele>
        <time>2024-06-01T16:51:10+02:00</time>
      </trkpt>
      <trkpt lat="43.77664" lon="1.57239">
        <ele>161.7998</ele>
        <time>2024-06-01T16:51:14+02:00</time>
      </trkpt>
      <trkpt lat="43.77668" lon="1.57245">
        <ele>161.7002</ele>
        <time>2024-06-01T16:51:15+02:00</time>
      </trkpt>
      <trkpt lat="43.77686" lon="1.57261">
        <ele>161.60059</ele>
        <time>2024-06-01T16:51:19+02:00</time>
      </trkpt>
      <trkpt lat="43.7769" lon="1.57265">
        <ele>161.60059</ele>
        <time>2024-06-01T16:51:20+02:00</time>
      </trkpt>
      <trkpt lat="43.77705" lon="1.57285">
        <ele>161.40039</ele>
        <time>2024-06-01T16:51:24+02:00</time>
      </trkpt>
      <trkpt lat="43.77709" lon="1.57289">
        <ele>161.40039</ele>
        <time>2024-06-01T16:51:25+02:00</time>
      </trkpt>
      <trkpt lat="43.77725" lon="1.57304">
        <ele>161.2002</ele>
        <time>2024-06-01T16:51:29+02:00</time>
      </trkpt>
      <trkpt lat="43.77731" lon="1.57307">
        <ele>161.2002</ele>
        <time>2024-06-01T16:51:30+02:00</time>
      </trkpt>
      <trkpt lat="43.77753" lon="1.57316">
        <ele>161</ele>
        <time>2024-06-01T16:51:34+02:00</time>
      </trkpt>
      <trkpt lat="43.77758" lon="1.57316">
        <ele>160.90039</ele>
        <time>2024-06-01T16:51:35+02:00</time>
      </trkpt>
      <trkpt lat="43.77772" lon="1.57332">
        <ele>160.40039</ele>
        <time>2024-06-01T16:51:39+02:00</time>
      </trkpt>
      <trkpt lat="43.77774" lon="1.57338">
        <ele>160.2998</ele>
        <time>2024-06-01T16:51:40+02:00</time>
      </trkpt>
      <trkpt lat="43.77782" lon="1.57359">
        <ele>159.90039</ele>
        <time>2024-06-01T16:51:44+02:00</time>
      </trkpt>
      <trkpt lat="43.77784" lon="1.57363">
        <ele>159.7002</ele>
        <time>2024-06-01T16:51:45+02:00</time>
      </trkpt>
      <trkpt lat="43.7779" lon="1.57373">
        <ele>159.40039</ele>
        <time>2024-06-01T16:51:49+02:00</time>
      </trkpt>
      <trkpt lat="43.77792" lon="1.57375">
        <ele>159.2998</ele>
        <time>2024-06-01T16:51:50+02:00</time>
      </trkpt>
      <trkpt lat="43.77802" lon="1.57395">
        <ele>158.60059</ele>
        <time>2024-06-01T16:51:54+02:00</time>
      </trkpt>
      <trkpt lat="43.77806" lon="1.57401">
        <ele>158</ele>
        <time>2024-06-01T16:51:55+02:00</time>
      </trkpt>
      <trkpt lat="43.77828" lon="1.57414">
        <ele>155.7998</ele>
        <time>2024-06-01T16:51:59+02:00</time>
      </trkpt>
      <trkpt lat="43.77834" lon="1.57416">
        <ele>155.2002</ele>
        <time>2024-06-01T16:52:00+02:00</time>
      </trkpt>
      <trkpt lat="43.77859" lon="1.57405">
        <ele>152.90039</ele>
        <time>2024-06-01T16:52:04+02:00</time>
      </trkpt>
      <trkpt lat="43.77865" lon="1.57404">
        <ele>152.40039</ele>
        <time>2024-06-01T16:52:05+02:00</time>
      </trkpt>
      <trkpt lat="43.77888" lon="1.57416">
        <ele>148.5</ele>
        <time>2024-06-01T16:52:09+02:00</time>
      </trkpt>
      <trkpt lat="43.77894" lon="1.57415">
        <ele>147.7002</ele>
        <time>2024-06-01T16:52:10+02:00</time>
      </trkpt>
      <trkpt lat="43.77914" lon="1.57415">
        <ele>145.60059</ele>
        <time>2024-06-01T16:52:14+02:00</time>
      </trkpt>
      <trkpt lat="43.77917" lon="1.57421">
        <ele>144.90039</ele>
        <time>2024-06-01T16:52:15+02:00</time>
      </trkpt>
      <trkpt lat="43.77934" lon="1.57435">
        <ele>142.10059</ele>
        <time>2024-06-01T16:52:19+02:00</time>
      </trkpt>
      <trkpt lat="43.77938" lon="1.57441">
        <ele>141.7002</ele>
        <time>2024-06-01T16:52:20+02:00</time>
      </trkpt>
      <trkpt lat="43.7796" lon="1.57456">
        <ele>139.40039</ele>
        <time>2024-06-01T16:52:24+02:00</time>
      </trkpt>
      <trkpt lat="43.77967" lon="1.57457">
        <ele>138.60059</ele>
        <time>2024-06-01T16:52:25+02:00</time>
      </trkpt>
      <trkpt lat="43.77991" lon="1.57458">
        <ele>137.60059</ele>
        <time>2024-06-01T16:52:29+02:00</time>
      </trkpt>
      <trkpt lat="43.77996" lon="1.57459">
        <ele>137.5</ele>
        <time>2024-06-01T16:52:30+02:00</time>
      </trkpt>
      <trkpt lat="43.78015" lon="1.57463">
        <ele>137.2002</ele>
        <time>2024-06-01T16:52:34+02:00</time>
      </trkpt>
      <trkpt lat="43.7802" lon="1.57463">
        <ele>137.10059</ele>
        <time>2024-06-01T16:52:35+02:00</time>
      </trkpt>
      <trkpt lat="43.78043" lon="1.5746">
        <ele>136.7002</ele>
        <time>2024-06-01T16:52:39+02:00</time>
      </trkpt>
      <trkpt lat="43.78048" lon="1.5746">
        <ele>136.5</ele>
        <time>2024-06-01T16:52:40+02:00</time>
      </trkpt>
      <trkpt lat="43.78069" lon="1.57467">
        <ele>135.60059</ele>
        <time>2024-06-01T16:52:44+02:00</time>
      </trkpt>
      <trkpt lat="43.78074" lon="1.57469">
        <ele>135.2998</ele>
        <time>2024-06-01T16:52:45+02:00</time>
      </trkpt>
      <trkpt lat="43.78096" lon="1.57473">
        <ele>134</ele>
        <time>2024-06-01T16:52:49+02:00</time>
      </trkpt>
      <trkpt lat="43.78098" lon="1.57475">
        <ele>134</ele>
        <time>2024-06-01T16:52:50+02:00</time>
      </trkpt>
      <trkpt lat="43.78104" lon="1.57483">
        <ele>133.7002</ele>
        <time>2024-06-01T16:52:54+02:00</time>
      </trkpt>
      <trkpt lat="43.78106" lon="1.57483">
        <ele>133.7002</ele>
        <time>2024-06-01T16:52:55+02:00</time>
      </trkpt>
      <trkpt lat="43.78119" lon="1.57481">
        <ele>133.2002</ele>
        <time>2024-06-01T16:52:59+02:00</time>
      </trkpt>
      <trkpt lat="43.78123" lon="1.57479">
        <ele>132.90039</ele>
        <time>2024-06-01T16:53:00+02:00</time>
      </trkpt>
      <trkpt lat="43.78144" lon="1.57479">
        <ele>131.7002</ele>
        <time>2024-06-01T16:53:04+02:00</time>
      </trkpt>
      <trkpt lat="43.78149" lon="1.57479">
        <ele>131.7002</ele>
        <time>2024-06-01T16:53:05+02:00</time>
      </trkpt>
      <trkpt lat="43.78168" lon="1.57467">
        <ele>130.7998</ele>
        <time>2024-06-01T16:53:09+02:00</time>
      </trkpt>
      <trkpt lat="43.78172" lon="1.57461">
        <ele>130.5</ele>
        <time>2024-06-01T16:53:10+02:00</time>
      </trkpt>
      <trkpt lat="43.78192" lon="1.57436">
        <ele>129.7998</ele>
        <time>2024-06-01T16:53:14+02:00</time>
      </trkpt>
      <trkpt lat="43.78197" lon="1.5743">
        <ele>129.60059</ele>
        <time>2024-06-01T16:53:15+02:00</time>
      </trkpt>
      <trkpt lat="43.78214" lon="1.57405">
        <ele>128.7002</ele>
        <time>2024-06-01T16:53:19+02:00</time>
      </trkpt>
      <trkpt lat="43.78219" lon="1.57398">
        <ele>128.7002</ele>
        <time>2024-06-01T16:53:20+02:00</time>
      </trkpt>
      <trkpt lat="43.78235" lon="1.57371">
        <ele>127.700195</ele>
        <time>2024-06-01T16:53:24+02:00</time>
      </trkpt>
      <trkpt lat="43.78239" lon="1.57364">
        <ele>127.299805</ele>
        <time>2024-06-01T16:53:25+02:00</time>
      </trkpt>
      <trkpt lat="43.78256" lon="1.57337">
        <ele>126.5</ele>
        <time>2024-06-01T16:53:29+02:00</time>
      </trkpt>
      <trkpt lat="43.78261" lon="1.57329">
        <ele>126.5</ele>
        <time>2024-06-01T16:53:30+02:00</time>
      </trkpt>
      <trkpt lat="43.78274" lon="1.57299">
        <ele>126.299805</ele>
        <time>2024-06-01T16:53:34+02:00</time>
      </trkpt>
      <trkpt lat="43.78276" lon="1.57292">
        <ele>126.299805</ele>
        <time>2024-06-01T16:53:35+02:00</time>
      </trkpt>
      <trkpt lat="43.7828" lon="1.57273">
        <ele>126.299805</ele>
        <time>2024-06-01T16:53:39+02:00</time>
      </trkpt>
      <trkpt lat="43.78279" lon="1.5727">
        <ele>126.299805</ele>
        <time>2024-06-01T16:53:40+02:00</time>
      </trkpt>
      <trkpt lat="43.78283" lon="1.57257">
        <ele>126.299805</ele>
        <time>2024-06-01T16:53:44+02:00</time>
      </trkpt>
      <trkpt lat="43.78286" lon="1.57252">
        <ele>126.299805</ele>
        <time>2024-06-01T16:53:45+02:00</time>
      </trkpt>
      <trkpt lat="43.78292" lon="1.57231">
        <ele>126.600586</ele>
        <time>2024-06-01T16:53:49+02:00</time>
      </trkpt>
      <trkpt lat="43.78294" lon="1.57225">
        <ele>126.700195</ele>
        <time>2024-06-01T16:53:50+02:00</time>
      </trkpt>
      <trkpt lat="43.78304" lon="1.57196">
        <ele>127.100586</ele>
        <time>2024-06-01T16:53:54+02:00</time>
      </trkpt>
      <trkpt lat="43.78306" lon="1.57189">
        <ele>127.200195</ele>
        <time>2024-06-01T16:53:55+02:00</time>
      </trkpt>
      <trkpt lat="43.78315" lon="1.57158">
        <ele>127.299805</ele>
        <time>2024-06-01T16:53:59+02:00</time>
      </trkpt>
      <trkpt lat="43.78317" lon="1.57151">
        <ele>127.40039</ele>
        <time>2024-06-01T16:54:00+02:00</time>
      </trkpt>
      <trkpt lat="43.78328" lon="1.57118">
        <ele>127.700195</ele>
        <time>2024-06-01T16:54:04+02:00</time>
      </trkpt>
      <trkpt lat="43.78331" lon="1.5711">
        <ele>127.799805</ele>
        <time>2024-06-01T16:54:05+02:00</time>
      </trkpt>
      <trkpt lat="43.78338" lon="1.5708">
        <ele>128.5</ele>
        <time>2024-06-01T16:54:09+02:00</time>
      </trkpt>
      <trkpt lat="43.7834" lon="1.57073">
        <ele>128.7998</ele>
        <time>2024-06-01T16:54:10+02:00</time>
      </trkpt>
      <trkpt lat="43.78347" lon="1.57048">
        <ele>129.5</ele>
        <time>2024-06-01T16:54:14+02:00</time>
      </trkpt>
      <trkpt lat="43.78347" lon="1.57041">
        <ele>129.7998</ele>
        <time>2024-06-01T16:54:15+02:00</time>
      </trkpt>
      <trkpt lat="43.78342" lon="1.57026">
        <ele>130.5</ele>
        <time>2024-06-01T16:54:19+02:00</time>
      </trkpt>
      <trkpt lat="43.78341" lon="1.57025">
        <ele>130.5</ele>
        <time>2024-06-01T16:54:20+02:00</time>
      </trkpt>
      <trkpt lat="43.78338" lon="1.57025">
        <ele>130.5</ele>
        <time>2024-06-01T16:54:24+02:00</time>
      </trkpt>
      <trkpt lat="43.78337" lon="1.57024">
        <ele>130.5</ele>
        <time>2024-06-01T16:54:25+02:00</time>
      </trkpt>
      <trkpt lat="43.78335" lon="1.57013">
        <ele>130.7998</ele>
        <time>2024-06-01T16:54:29+02:00</time>
      </trkpt>
      <trkpt lat="43.78335" lon="1.5701">
        <ele>130.7998</ele>
        <time>2024-06-01T16:54:30+02:00</time>
      </trkpt>
      <trkpt lat="43.78332" lon="1.57001">
        <ele>131.10059</ele>
        <time>2024-06-01T16:54:34+02:00</time>
      </trkpt>
      <trkpt lat="43.78331" lon="1.56999">
        <ele>131.10059</ele>
        <time>2024-06-01T16:54:35+02:00</time>
      </trkpt>
      <trkpt lat="43.78325" lon="1.5699">
        <ele>131.10059</ele>
        <time>2024-06-01T16:54:39+02:00</time>
      </trkpt>
      <trkpt lat="43.78322" lon="1.56988">
        <ele>131</ele>
        <time>2024-06-01T16:54:40+02:00</time>
      </trkpt>
      <trkpt lat="43.78309" lon="1.5698">
        <ele>130.7002</ele>
        <time>2024-06-01T16:54:44+02:00</time>
      </trkpt>
      <trkpt lat="43.78305" lon="1.56978">
        <ele>130.7002</ele>
        <time>2024-06-01T16:54:45+02:00</time>
      </trkpt>
      <trkpt lat="43.78291" lon="1.56968">
        <ele>130.60059</ele>
        <time>2024-06-01T16:54:49+02:00</time>
      </trkpt>
      <trkpt lat="43.78287" lon="1.56965">
        <ele>130.60059</ele>
        <time>2024-06-01T16:54:50+02:00</time>
      </trkpt>
      <trkpt lat="43.78275" lon="1.56949">
        <ele>130.7998</ele>
        <time>2024-06-01T16:54:54+02:00</time>
      </trkpt>
      <trkpt lat="43.78273" lon="1.56944">
        <ele>130.90039</ele>
        <time>2024-06-01T16:54:55+02:00</time>
      </trkpt>
      <trkpt lat="43.78264" lon="1.56923">
        <ele>131.10059</ele>
        <time>2024-06-01T16:54:59+02:00</time>
      </trkpt>
      <trkpt lat="43.78262" lon="1.56918">
        <ele>131.2002</ele>
        <time>2024-06-01T16:55:00+02:00</time>
      </trkpt>
      <trkpt lat="43.7825" lon="1.56902">
        <ele>131.5</ele>
        <time>2024-06-01T16:55:04+02:00</time>
      </trkpt>
      <trkpt lat="43.78245" lon="1.56898">
        <ele>131.5</ele>
        <time>2024-06-01T16:55:05+02:00</time>
      </trkpt>
      <trkpt lat="43.78229" lon="1.56889">
        <ele>131.90039</ele>
        <time>2024-06-01T16:55:09+02:00</time>
      </trkpt>
      <trkpt lat="43.78225" lon="1.56889">
        <ele>131.90039</ele>
        <time>2024-06-01T16:55:10+02:00</time>
      </trkpt>
      <trkpt lat="43.78209" lon="1.56878">
        <ele>132.2002</ele>
        <time>2024-06-01T16:55:14+02:00</time>
      </trkpt>
      <trkpt lat="43.78205" lon="1.56872">
        <ele>132.2998</ele>
        <time>2024-06-01T16:55:15+02:00</time>
      </trkpt>
      <trkpt lat="43.7819" lon="1.56853">
        <ele>132.2998</ele>
        <time>2024-06-01T16:55:19+02:00</time>
      </trkpt>
      <trkpt lat="43.78186" lon="1.56849">
        <ele>132.40039</ele>
        <time>2024-06-01T16:55:20+02:00</time>
      </trkpt>
      <trkpt lat="43.7817" lon="1.56836">
        <ele>132.5</ele>
        <time>2024-06-01T16:55:24+02:00</time>
      </trkpt>
      <trkpt lat="43.78166" lon="1.56833">
        <ele>132.7002</ele>
        <time>2024-06-01T16:55:25+02:00</time>
      </trkpt>
      <trkpt lat="43.78149" lon="1.56824">
        <ele>133.5</ele>
        <time>2024-06-01T16:55:29+02:00</time>
      </trkpt>
      <trkpt lat="43.78145" lon="1.56822">
        <ele>133.5</ele>
        <time>2024-06-01T16:55:30+02:00</time>
      </trkpt>
      <trkpt lat="43.78131" lon="1.56806">
        <ele>134.2998</ele>
        <time>2024-06-01T16:55:34+02:00</time>
      </trkpt>
      <trkpt lat="43.78128" lon="1.56801">
        <ele>134.2002</ele>
        <time>2024-06-01T16:55:35+02:00</time>
      </trkpt>
      <trkpt lat="43.78112" lon="1.56792">
        <ele>135</ele>
        <time>2024-06-01T16:55:39+02:00</time>
      </trkpt>
      <trkpt lat="43.78108" lon="1.56791">
        <ele>135</ele>
        <time>2024-06-01T16:55:40+02:00</time>
      </trkpt>
      <trkpt lat="43.78089" lon="1.56782">
        <ele>135.2998</ele>
        <time>2024-06-01T16:55:44+02:00</time>
      </trkpt>
      <trkpt lat="43.78084" lon="1.56778">
        <ele>135.2002</ele>
        <time>2024-06-01T16:55:45+02:00</time>
      </trkpt>
      <trkpt lat="43.78065" lon="1.56771">
        <ele>135.5</ele>
        <time>2024-06-01T16:55:49+02:00</time>
      </trkpt>
      <trkpt lat="43.78061" lon="1.56769">
        <ele>135.40039</ele>
        <time>2024-06-01T16:55:50+02:00</time>
      </trkpt>
      <trkpt lat="43.7805" lon="1.56763">
        <ele>135.60059</ele>
        <time>2024-06-01T16:55:54+02:00</time>
      </trkpt>
      <trkpt lat="43.78046" lon="1.56762">
        <ele>135.60059</ele>
        <time>2024-06-01T16:55:55+02:00</time>
      </trkpt>
      <trkpt lat="43.78032" lon="1.56758">
        <ele>135.60059</ele>
        <time>2024-06-01T16:55:59+02:00</time>
      </trkpt>
      <trkpt lat="43.78028" lon="1.56759">
        <ele>135.60059</ele>
        <time>2024-06-01T16:56:00+02:00</time>
      </trkpt>
      <trkpt lat="43.78021" lon="1.56759">
        <ele>135.7002</ele>
        <time>2024-06-01T16:56:04+02:00</time>
      </trkpt>
      <trkpt lat="43.78018" lon="1.56759">
        <ele>135.7998</ele>
        <time>2024-06-01T16:56:05+02:00</time>
      </trkpt>
      <trkpt lat="43.78005" lon="1.56759">
        <ele>136</ele>
        <time>2024-06-01T16:56:09+02:00</time>
      </trkpt>
      <trkpt lat="43.78002" lon="1.56759">
        <ele>136</ele>
        <time>2024-06-01T16:56:10+02:00</time>
      </trkpt>
      <trkpt lat="43.77996" lon="1.56761">
        <ele>136.40039</ele>
        <time>2024-06-01T16:56:14+02:00</time>
      </trkpt>
      <trkpt lat="43.77995" lon="1.5676">
        <ele>136.2002</ele>
        <time>2024-06-01T16:56:15+02:00</time>
      </trkpt>
      <trkpt lat="43.77992" lon="1.56751">
        <ele>136.10059</ele>
        <time>2024-06-01T16:56:19+02:00</time>
      </trkpt>
      <trkpt lat="43.77991" lon="1.5675">
        <ele>136.10059</ele>
        <time>2024-06-01T16:56:20+02:00</time>
      </trkpt>
      <trkpt lat="43.77986" lon="1.56746">
        <ele>136.2002</ele>
        <time>2024-06-01T16:56:24+02:00</time>
      </trkpt>
      <trkpt lat="43.77984" lon="1.56743">
        <ele>136</ele>
        <time>2024-06-01T16:56:25+02:00</time>
      </trkpt>
      <trkpt lat="43.77976" lon="1.56734">
        <ele>135.90039</ele>
        <time>2024-06-01T16:56:29+02:00</time>
      </trkpt>
      <trkpt lat="43.77974" lon="1.56734">
        <ele>135.90039</ele>
        <time>2024-06-01T16:56:30+02:00</time>
      </trkpt>
      <trkpt lat="43.7796" lon="1.56729">
        <ele>136.10059</ele>
        <time>2024-06-01T16:56:34+02:00</time>
      </trkpt>
      <trkpt lat="43.77956" lon="1.56728">
        <ele>136.2002</ele>
        <time>2024-06-01T16:56:35+02:00</time>
      </trkpt>
      <trkpt lat="43.77938" lon="1.56722">
        <ele>136.2002</ele>
        <time>2024-06-01T16:56:39+02:00</time>
      </trkpt>
      <trkpt lat="43.77934" lon="1.5672">
        <ele>136.2002</ele>
        <time>2024-06-01T16:56:40+02:00</time>
      </trkpt>
      <trkpt lat="43.77916" lon="1.56714">
        <ele>136.2002</ele>
        <time>2024-06-01T16:56:44+02:00</time>
      </trkpt>
      <trkpt lat="43.77912" lon="1.56712">
        <ele>136.2998</ele>
        <time>2024-06-01T16:56:45+02:00</time>
      </trkpt>
      <trkpt lat="43.77893" lon="1.56704">
        <ele>136.40039</ele>
        <time>2024-06-01T16:56:49+02:00</time>
      </trkpt>
      <trkpt lat="43.77889" lon="1.56703">
        <ele>136.5</ele>
        <time>2024-06-01T16:56:50+02:00</time>
      </trkpt>
      <trkpt lat="43.77871" lon="1.56696">
        <ele>136.5</ele>
        <time>2024-06-01T16:56:54+02:00</time>
      </trkpt>
      <trkpt lat="43.77867" lon="1.56695">
        <ele>136.5</ele>
        <time>2024-06-01T16:56:55+02:00</time>
      </trkpt>
      <trkpt lat="43.77854" lon="1.56694">
        <ele>136.7002</ele>
        <time>2024-06-01T16:56:59+02:00</time>
      </trkpt>
      <trkpt lat="43.77851" lon="1.56694">
        <ele>136.90039</ele>
        <time>2024-06-01T16:57:00+02:00</time>
      </trkpt>
      <trkpt lat="43.77839" lon="1.56688">
        <ele>137.2002</ele>
        <time>2024-06-01T16:57:04+02:00</time>
      </trkpt>
      <trkpt lat="43.77838" lon="1.56686">
        <ele>137.2002</ele>
        <time>2024-06-01T16:57:05+02:00</time>
      </trkpt>
      <trkpt lat="43.77834" lon="1.56682">
        <ele>137.40039</ele>
        <time>2024-06-01T16:57:09+02:00</time>
      </trkpt>
      <trkpt lat="43.77833" lon="1.5668">
        <ele>137.40039</ele>
        <time>2024-06-01T16:57:10+02:00</time>
      </trkpt>
      <trkpt lat="43.77823" lon="1.56674">
        <ele>137.7002</ele>
        <time>2024-06-01T16:57:14+02:00</time>
      </trkpt>
      <trkpt lat="43.77821" lon="1.56672">
        <ele>138.10059</ele>
        <time>2024-06-01T16:57:15+02:00</time>
      </trkpt>
      <trkpt lat="43.77811" lon="1.56666">
        <ele>138.5</ele>
        <time>2024-06-01T16:57:19+02:00</time>
      </trkpt>
      <trkpt lat="43.77808" lon="1.56667">
        <ele>138.90039</ele>
        <time>2024-06-01T16:57:20+02:00</time>
      </trkpt>
      <trkpt lat="43.77801" lon="1.56667">
        <ele>139.40039</ele>
        <time>2024-06-01T16:57:24+02:00</time>
      </trkpt>
      <trkpt lat="43.778" lon="1.56666">
        <ele>139.40039</ele>
        <time>2024-06-01T16:57:25+02:00</time>
      </trkpt>
      <trkpt lat="43.77794" lon="1.56663">
        <ele>139.7998</ele>
        <time>2024-06-01T16:57:29+02:00</time>
      </trkpt>
      <trkpt lat="43.77793" lon="1.56661">
        <ele>139.7998</ele>
        <time>2024-06-01T16:57:30+02:00</time>
      </trkpt>
      <trkpt lat="43.77785" lon="1.5665">
        <ele>140.60059</ele>
        <time>2024-06-01T16:57:34+02:00</time>
      </trkpt>
      <trkpt lat="43.77781" lon="1.5665">
        <ele>140.60059</ele>
        <time>2024-06-01T16:57:35+02:00</time>
      </trkpt>
      <trkpt lat="43.77769" lon="1.56647">
        <ele>141.2998</ele>
        <time>2024-06-01T16:57:39+02:00</time>
      </trkpt>
      <trkpt lat="43.77766" lon="1.56648">
        <ele>141.60059</ele>
        <time>2024-06-01T16:57:40+02:00</time>
      </trkpt>
      <trkpt lat="43.77751" lon="1.5665">
        <ele>142.2998</ele>
        <time>2024-06-01T16:57:44+02:00</time>
      </trkpt>
      <trkpt lat="43.77747" lon="1.56649">
        <ele>142.40039</ele>
        <time>2024-06-01T16:57:45+02:00</time>
      </trkpt>
      <trkpt lat="43.77729" lon="1.56648">
        <ele>142.7002</ele>
        <time>2024-06-01T16:57:49+02:00</time>
      </trkpt>
      <trkpt lat="43.77725" lon="1.56646">
        <ele>142.7002</ele>
        <time>2024-06-01T16:57:50+02:00</time>
      </trkpt>
      <trkpt lat="43.77707" lon="1.56639">
        <ele>142.7002</ele>
        <time>2024-06-01T16:57:54+02:00</time>
      </trkpt>
      <trkpt lat="43.77703" lon="1.56637">
        <ele>142.7998</ele>
        <time>2024-06-01T16:57:55+02:00</time>
      </trkpt>
      <trkpt lat="43.77686" lon="1.56631">
        <ele>142.7002</ele>
        <time>2024-06-01T16:57:59+02:00</time>
      </trkpt>
      <trkpt lat="43.77682" lon="1.56629">
        <ele>142.7998</ele>
        <time>2024-06-01T16:58:00+02:00</time>
      </trkpt>
      <trkpt lat="43.77666" lon="1.56622">
        <ele>142.90039</ele>
        <time>2024-06-01T16:58:04+02:00</time>
      </trkpt>
      <trkpt lat="43.77661" lon="1.56622">
        <ele>142.90039</ele>
        <time>2024-06-01T16:58:05+02:00</time>
      </trkpt>
      <trkpt lat="43.77644" lon="1.56625">
        <ele>143.5</ele>
        <time>2024-06-01T16:58:09+02:00</time>
      </trkpt>
      <trkpt lat="43.7764" lon="1.56624">
        <ele>143.7002</ele>
        <time>2024-06-01T16:58:10+02:00</time>
      </trkpt>
      <trkpt lat="43.77623" lon="1.56623">
        <ele>144</ele>
        <time>2024-06-01T16:58:14+02:00</time>
      </trkpt>
      <trkpt lat="43.77619" lon="1.56621">
        <ele>144</ele>
        <time>2024-06-01T16:58:15+02:00</time>
      </trkpt>
      <trkpt lat="43.77602" lon="1.56615">
        <ele>144.60059</ele>
        <time>2024-06-01T16:58:19+02:00</time>
      </trkpt>
      <trkpt lat="43.77598" lon="1.56613">
        <ele>145.10059</ele>
        <time>2024-06-01T16:58:20+02:00</time>
      </trkpt>
      <trkpt lat="43.77582" lon="1.56607">
        <ele>146.2002</ele>
        <time>2024-06-01T16:58:24+02:00</time>
      </trkpt>
      <trkpt lat="43.77577" lon="1.56605">
        <ele>146.40039</ele>
        <time>2024-06-01T16:58:25+02:00</time>
      </trkpt>
      <trkpt lat="43.77563" lon="1.56595">
        <ele>147.40039</ele>
        <time>2024-06-01T16:58:29+02:00</time>
      </trkpt>
      <trkpt lat="43.77561" lon="1.56594">
        <ele>148.10059</ele>
        <time>2024-06-01T16:58:30+02:00</time>
      </trkpt>
      <trkpt lat="43.77552" lon="1.56591">
        <ele>148.7002</ele>
        <time>2024-06-01T16:58:34+02:00</time>
      </trkpt>
      <trkpt lat="43.7755" lon="1.5659">
        <ele>148.7002</ele>
        <time>2024-06-01T16:58:35+02:00</time>
      </trkpt>
      <trkpt lat="43.77538" lon="1.56586">
        <ele>149</ele>
        <time>2024-06-01T16:58:39+02:00</time>
      </trkpt>
      <trkpt lat="43.77535" lon="1.56585">
        <ele>149.40039</ele>
        <time>2024-06-01T16:58:40+02:00</time>
      </trkpt>
      <trkpt lat="43.7753" lon="1.56584">
        <ele>149.90039</ele>
        <time>2024-06-01T16:58:44+02:00</time>
      </trkpt>
      <trkpt lat="43.77528" lon="1.56583">
        <ele>149.90039</ele>
        <time>2024-06-01T16:58:45+02:00</time>
      </trkpt>
      <trkpt lat="43.7752" lon="1.5658">
        <ele>149.5</ele>
        <time>2024-06-01T16:58:49+02:00</time>
      </trkpt>
      <trkpt lat="43.77518" lon="1.56578">
        <ele>149.90039</ele>
        <time>2024-06-01T16:58:50+02:00</time>
      </trkpt>
      <trkpt lat="43.77503" lon="1.56572">
        <ele>150.2998</ele>
        <time>2024-06-01T16:58:54+02:00</time>
      </trkpt>
      <trkpt lat="43.77497" lon="1.5657">
        <ele>150.90039</ele>
        <time>2024-06-01T16:58:55+02:00</time>
      </trkpt>
      <trkpt lat="43.77476" lon="1.56558">
        <ele>152.2998</ele>
        <time>2024-06-01T16:58:59+02:00</time>
      </trkpt>
      <trkpt lat="43.7747" lon="1.56555">
        <ele>152.5</ele>
        <time>2024-06-01T16:59:00+02:00</time>
      </trkpt>
      <trkpt lat="43.77448" lon="1.56543">
        <ele>154.40039</ele>
        <time>2024-06-01T16:59:04+02:00</time>
      </trkpt>
      <trkpt lat="43.77443" lon="1.56539">
        <ele>154.90039</ele>
        <time>2024-06-01T16:59:05+02:00</time>
      </trkpt>
      <trkpt lat="43.77424" lon="1.56526">
        <ele>155.10059</ele>
        <time>2024-06-01T16:59:09+02:00</time>
      </trkpt>
      <trkpt lat="43.77419" lon="1.56523">
        <ele>155.60059</ele>
        <time>2024-06-01T16:59:10+02:00</time>
      </trkpt>
      <trkpt lat="43.77403" lon="1.56518">
        <ele>155.60059</ele>
        <time>2024-06-01T16:59:14+02:00</time>
      </trkpt>
      <trkpt lat="43.774" lon="1.5652">
        <ele>155.7002</ele>
        <time>2024-06-01T16:59:15+02:00</time>
      </trkpt>
      <trkpt lat="43.77396" lon="1.56531">
        <ele>157.10059</ele>
        <time>2024-06-01T16:59:19+02:00</time>
      </trkpt>
      <trkpt lat="43.77394" lon="1.56534">
        <ele>157.10059</ele>
        <time>2024-06-01T16:59:20+02:00</time>
      </trkpt>
      <trkpt lat="43.77389" lon="1.56541">
        <ele>157.90039</ele>
        <time>2024-06-01T16:59:24+02:00</time>
      </trkpt>
      <trkpt lat="43.77388" lon="1.56542">
        <ele>157.7998</ele>
        <time>2024-06-01T16:59:25+02:00</time>
      </trkpt>
      <trkpt lat="43.77379" lon="1.5655">
        <ele>158.60059</ele>
        <time>2024-06-01T16:59:29+02:00</time>
      </trkpt>
      <trkpt lat="43.77376" lon="1.56552">
        <ele>158.60059</ele>
        <time>2024-06-01T16:59:30+02:00</time>
      </trkpt>
      <trkpt lat="43.77362" lon="1.56571">
        <ele>160.10059</ele>
        <time>2024-06-01T16:59:35+02:00</time>
      </trkpt>
      <trkpt lat="43.77359" lon="1.56575">
        <ele>161.2998</ele>
        <time>2024-06-01T16:59:36+02:00</time>
      </trkpt>
      <trkpt lat="43.77346" lon="1.56585">
        <ele>161.7998</ele>
        <time>2024-06-01T16:59:40+02:00</time>
      </trkpt>
      <trkpt lat="43.77343" lon="1.56588">
        <ele>161.40039</ele>
        <time>2024-06-01T16:59:41+02:00</time>
      </trkpt>
      <trkpt lat="43.77327" lon="1.56591">
        <ele>161.7002</ele>
        <time>2024-06-01T16:59:45+02:00</time>
      </trkpt>
      <trkpt lat="43.77323" lon="1.56592">
        <ele>161.40039</ele>
        <time>2024-06-01T16:59:46+02:00</time>
      </trkpt>
      <trkpt lat="43.77311" lon="1.56599">
        <ele>161.90039</ele>
        <time>2024-06-01T16:59:50+02:00</time>
      </trkpt>
      <trkpt lat="43.77307" lon="1.566">
        <ele>161.7002</ele>
        <time>2024-06-01T16:59:51+02:00</time>
      </trkpt>
      <trkpt lat="43.77292" lon="1.56607">
        <ele>162.2998</ele>
        <time>2024-06-01T16:59:55+02:00</time>
      </trkpt>
      <trkpt lat="43.77289" lon="1.56609">
        <ele>162</ele>
        <time>2024-06-01T16:59:56+02:00</time>
      </trkpt>
      <trkpt lat="43.77276" lon="1.56619">
        <ele>162.5</ele>
        <time>2024-06-01T17:00:00+02:00</time>
      </trkpt>
      <trkpt lat="43.77272" lon="1.56621">
        <ele>162.5</ele>
        <time>2024-06-01T17:00:01+02:00</time>
      </trkpt>
      <trkpt lat="43.77258" lon="1.56627">
        <ele>162.90039</ele>
        <time>2024-06-01T17:00:05+02:00</time>
      </trkpt>
      <trkpt lat="43.77254" lon="1.56629">
        <ele>162.90039</ele>
        <time>2024-06-01T17:00:06+02:00</time>
      </trkpt>
      <trkpt lat="43.77239" lon="1.56634">
        <ele>163.60059</ele>
        <time>2024-06-01T17:00:10+02:00</time>
      </trkpt>
      <trkpt lat="43.77235" lon="1.56637">
        <ele>163.60059</ele>
        <time>2024-06-01T17:00:11+02:00</time>
      </trkpt>
      <trkpt lat="43.77226" lon="1.56656">
        <ele>165.2002</ele>
        <time>2024-06-01T17:00:15+02:00</time>
      </trkpt>
      <trkpt lat="43.77224" lon="1.56661">
        <ele>166.10059</ele>
        <time>2024-06-01T17:00:16+02:00</time>
      </trkpt>
      <trkpt lat="43.7721" lon="1.56664">
        <ele>165.90039</ele>
        <time>2024-06-01T17:00:20+02:00</time>
      </trkpt>
      <trkpt lat="43.77206" lon="1.56664">
        <ele>165.90039</ele>
        <time>2024-06-01T17:00:21+02:00</time>
      </trkpt>
      <trkpt lat="43.77194" lon="1.56669">
        <ele>166.60059</ele>
        <time>2024-06-01T17:00:25+02:00</time>
      </trkpt>
      <trkpt lat="43.77193" lon="1.56669">
        <ele>166.60059</ele>
        <time>2024-06-01T17:00:26+02:00</time>
      </trkpt>
      <trkpt lat="43.77181" lon="1.56668">
        <ele>166.60059</ele>
        <time>2024-06-01T17:00:30+02:00</time>
      </trkpt>
      <trkpt lat="43.77176" lon="1.56669">
        <ele>166.7002</ele>
        <time>2024-06-01T17:00:31+02:00</time>
      </trkpt>
      <trkpt lat="43.77158" lon="1.56665">
        <ele>166.40039</ele>
        <time>2024-06-01T17:00:35+02:00</time>
      </trkpt>
      <trkpt lat="43.77153" lon="1.56664">
        <ele>166.40039</ele>
        <time>2024-06-01T17:00:36+02:00</time>
      </trkpt>
      <trkpt lat="43.77134" lon="1.5667">
        <ele>167.2002</ele>
        <time>2024-06-01T17:00:40+02:00</time>
      </trkpt>
      <trkpt lat="43.7713" lon="1.56672">
        <ele>167.2002</ele>
        <time>2024-06-01T17:00:41+02:00</time>
      </trkpt>
      <trkpt lat="43.77112" lon="1.56677">
        <ele>167.5</ele>
        <time>2024-06-01T17:00:45+02:00</time>
      </trkpt>
      <trkpt lat="43.77108" lon="1.56678">
        <ele>167.5</ele>
        <time>2024-06-01T17:00:46+02:00</time>
      </trkpt>
      <trkpt lat="43.77092" lon="1.56683">
        <ele>167.40039</ele>
        <time>2024-06-01T17:00:50+02:00</time>
      </trkpt>
      <trkpt lat="43.77088" lon="1.56685">
        <ele>167.5</ele>
        <time>2024-06-01T17:00:51+02:00</time>
      </trkpt>
      <trkpt lat="43.77068" lon="1.56687">
        <ele>167.40039</ele>
        <time>2024-06-01T17:00:55+02:00</time>
      </trkpt>
      <trkpt lat="43.77062" lon="1.56687">
        <ele>167.40039</ele>
        <time>2024-06-01T17:00:56+02:00</time>
      </trkpt>
      <trkpt lat="43.77041" lon="1.5669">
        <ele>167.10059</ele>
        <time>2024-06-01T17:01:00+02:00</time>
      </trkpt>
      <trkpt lat="43.77037" lon="1.5669">
        <ele>167</ele>
        <time>2024-06-01T17:01:01+02:00</time>
      </trkpt>
      <trkpt lat="43.77032" lon="1.56671">
        <ele>166.60059</ele>
        <time>2024-06-01T17:01:05+02:00</time>
      </trkpt>
      <trkpt lat="43.77032" lon="1.56665">
        <ele>166.40039</ele>
        <time>2024-06-01T17:01:06+02:00</time>
      </trkpt>
      <trkpt lat="43.77032" lon="1.56635">
        <ele>165.60059</ele>
        <time>2024-06-01T17:01:10+02:00</time>
      </trkpt>
      <trkpt lat="43.77032" lon="1.56627">
        <ele>165.2998</ele>
        <time>2024-06-01T17:01:11+02:00</time>
      </trkpt>
      <trkpt lat="43.77029" lon="1.56629">
        <ele>165.10059</ele>
        <time>2024-06-01T17:01:30+02:00</time>
      </trkpt>
      <trkpt lat="43.77025" lon="1.56627">
        <ele>165.10059</ele>
        <time>2024-06-01T17:01:31+02:00</time>
      </trkpt>
      <trkpt lat="43.77005" lon="1.56619">
        <ele>164.10059</ele>
        <time>2024-06-01T17:01:35+02:00</time>
      </trkpt>
      <trkpt lat="43.76999" lon="1.56617">
        <ele>163.7998</ele>
        <time>2024-06-01T17:01:36+02:00</time>
      </trkpt>
      <trkpt lat="43.76974" lon="1.56602">
        <ele>161.60059</ele>
        <time>2024-06-01T17:01:40+02:00</time>
      </trkpt>
      <trkpt lat="43.76967" lon="1.56598">
        <ele>160.90039</ele>
        <time>2024-06-01T17:01:41+02:00</time>
      </trkpt>
      <trkpt lat="43.76933" lon="1.56578">
        <ele>158.40039</ele>
        <time>2024-06-01T17:01:45+02:00</time>
      </trkpt>
      <trkpt lat="43.76927" lon="1.56573">
        <ele>158</ele>
        <time>2024-06-01T17:01:46+02:00</time>
      </trkpt>
      <trkpt lat="43.76905" lon="1.56554">
        <ele>156.5</ele>
        <time>2024-06-01T17:01:50+02:00</time>
      </trkpt>
      <trkpt lat="43.76901" lon="1.56547">
        <ele>156.5</ele>
        <time>2024-06-01T17:01:51+02:00</time>
      </trkpt>
      <trkpt lat="43.76881" lon="1.56528">
        <ele>156.40039</ele>
        <time>2024-06-01T17:01:55+02:00</time>
      </trkpt>
      <trkpt lat="43.76877" lon="1.56524">
        <ele>156.60059</ele>
        <time>2024-06-01T17:01:56+02:00</time>
      </trkpt>
      <trkpt lat="43.7686" lon="1.56504">
        <ele>157.60059</ele>
        <time>2024-06-01T17:02:00+02:00</time>
      </trkpt>
      <trkpt lat="43.76856" lon="1.56499">
        <ele>157.7998</ele>
        <time>2024-06-01T17:02:01+02:00</time>
      </trkpt>
      <trkpt lat="43.76842" lon="1.56479">
        <ele>159.60059</ele>
        <time>2024-06-01T17:02:05+02:00</time>
      </trkpt>
      <trkpt lat="43.76838" lon="1.56475">
        <ele>160</ele>
        <time>2024-06-01T17:02:06+02:00</time>
      </trkpt>
      <trkpt lat="43.7682" lon="1.56459">
        <ele>162.2002</ele>
        <time>2024-06-01T17:02:10+02:00</time>
      </trkpt>
      <trkpt lat="43.76817" lon="1.56456">
        <ele>162.60059</ele>
        <time>2024-06-01T17:02:11+02:00</time>
      </trkpt>
      <trkpt lat="43.76802" lon="1.56445">
        <ele>163.90039</ele>
        <time>2024-06-01T17:02:15+02:00</time>
      </trkpt>
      <trkpt lat="43.76798" lon="1.56444">
        <ele>164.2002</ele>
        <time>2024-06-01T17:02:16+02:00</time>
      </trkpt>
      <trkpt lat="43.76782" lon="1.56437">
        <ele>165.10059</ele>
        <time>2024-06-01T17:02:20+02:00</time>
      </trkpt>
      <trkpt lat="43.76778" lon="1.56435">
        <ele>165.2998</ele>
        <time>2024-06-01T17:02:21+02:00</time>
      </trkpt>
      <trkpt lat="43.76761" lon="1.56429">
        <ele>165.5</ele>
        <time>2024-06-01T17:02:25+02:00</time>
      </trkpt>
      <trkpt lat="43.76756" lon="1.56427">
        <ele>165.5</ele>
        <time>2024-06-01T17:02:26+02:00</time>
      </trkpt>
      <trkpt lat="43.76739" lon="1.56419">
        <ele>165.90039</ele>
        <time>2024-06-01T17:02:30+02:00</time>
      </trkpt>
      <trkpt lat="43.76735" lon="1.56418">
        <ele>166.2998</ele>
        <time>2024-06-01T17:02:31+02:00</time>
      </trkpt>
      <trkpt lat="43.76717" lon="1.56413">
        <ele>166.7998</ele>
        <time>2024-06-01T17:02:35+02:00</time>
      </trkpt>
      <trkpt lat="43.76713" lon="1.56412">
        <ele>166.7998</ele>
        <time>2024-06-01T17:02:36+02:00</time>
      </trkpt>
      <trkpt lat="43.76694" lon="1.56413">
        <ele>167.2002</ele>
        <time>2024-06-01T17:02:40+02:00</time>
      </trkpt>
      <trkpt lat="43.7669" lon="1.56415">
        <ele>167.2002</ele>
        <time>2024-06-01T17:02:41+02:00</time>
      </trkpt>
      <trkpt lat="43.76672" lon="1.56421">
        <ele>167.2002</ele>
        <time>2024-06-01T17:02:45+02:00</time>
      </trkpt>
      <trkpt lat="43.76667" lon="1.56422">
        <ele>167.2998</ele>
        <time>2024-06-01T17:02:46+02:00</time>
      </trkpt>
      <trkpt lat="43.76648" lon="1.56414">
        <ele>167.10059</ele>
        <time>2024-06-01T17:02:50+02:00</time>
      </trkpt>
      <trkpt lat="43.76643" lon="1.56409">
        <ele>166.60059</ele>
        <time>2024-06-01T17:02:51+02:00</time>
      </trkpt>
      <trkpt lat="43.76629" lon="1.56397">
        <ele>165.7998</ele>
        <time>2024-06-01T17:02:55+02:00</time>
      </trkpt>
      <trkpt lat="43.76626" lon="1.56394">
        <ele>165.7998</ele>
        <time>2024-06-01T17:02:56+02:00</time>
      </trkpt>
      <trkpt lat="43.76619" lon="1.56383">
        <ele>164.7998</ele>
        <time>2024-06-01T17:03:00+02:00</time>
      </trkpt>
      <trkpt lat="43.76615" lon="1.5638">
        <ele>164.7998</ele>
        <time>2024-06-01T17:03:01+02:00</time>
      </trkpt>
      <trkpt lat="43.76601" lon="1.56367">
        <ele>164.2998</ele>
        <time>2024-06-01T17:03:05+02:00</time>
      </trkpt>
      <trkpt lat="43.76597" lon="1.56364">
        <ele>164.10059</ele>
        <time>2024-06-01T17:03:06+02:00</time>
      </trkpt>
      <trkpt lat="43.76583" lon="1.56354">
        <ele>163.90039</ele>
        <time>2024-06-01T17:03:10+02:00</time>
      </trkpt>
      <trkpt lat="43.7658" lon="1.56351">
        <ele>163.7998</ele>
        <time>2024-06-01T17:03:11+02:00</time>
      </trkpt>
      <trkpt lat="43.76566" lon="1.5634">
        <ele>163.40039</ele>
        <time>2024-06-01T17:03:15+02:00</time>
      </trkpt>
      <trkpt lat="43.76562" lon="1.56338">
        <ele>163.40039</ele>
        <time>2024-06-01T17:03:16+02:00</time>
      </trkpt>
      <trkpt lat="43.76547" lon="1.56328">
        <ele>163.2002</ele>
        <time>2024-06-01T17:03:20+02:00</time>
      </trkpt>
      <trkpt lat="43.76543" lon="1.56325">
        <ele>163.2002</ele>
        <time>2024-06-01T17:03:21+02:00</time>
      </trkpt>
      <trkpt lat="43.76527" lon="1.56313">
        <ele>163</ele>
        <time>2024-06-01T17:03:25+02:00</time>
      </trkpt>
      <trkpt lat="43.76522" lon="1.5631">
        <ele>163</ele>
        <time>2024-06-01T17:03:26+02:00</time>
      </trkpt>
      <trkpt lat="43.76506" lon="1.56297">
        <ele>162.7998</ele>
        <time>2024-06-01T17:03:30+02:00</time>
      </trkpt>
      <trkpt lat="43.76502" lon="1.56294">
        <ele>162.7998</ele>
        <time>2024-06-01T17:03:31+02:00</time>
      </trkpt>
      <trkpt lat="43.76485" lon="1.56278">
        <ele>162.60059</ele>
        <time>2024-06-01T17:03:35+02:00</time>
      </trkpt>
      <trkpt lat="43.7648" lon="1.56274">
        <ele>162.60059</ele>
        <time>2024-06-01T17:03:36+02:00</time>
      </trkpt>
      <trkpt lat="43.76463" lon="1.56258">
        <ele>162.40039</ele>
        <time>2024-06-01T17:03:40+02:00</time>
      </trkpt>
      <trkpt lat="43.76459" lon="1.56254">
        <ele>162.2998</ele>
        <time>2024-06-01T17:03:41+02:00</time>
      </trkpt>
      <trkpt lat="43.76439" lon="1.56239">
        <ele>162.2002</ele>
        <time>2024-06-01T17:03:45+02:00</time>
      </trkpt>
      <trkpt lat="43.76434" lon="1.56235">
        <ele>162.10059</ele>
        <time>2024-06-01T17:03:46+02:00</time>
      </trkpt>
      <trkpt lat="43.76415" lon="1.56223">
        <ele>162.2002</ele>
        <time>2024-06-01T17:03:50+02:00</time>
      </trkpt>
      <trkpt lat="43.7641" lon="1.56221">
        <ele>162.2002</ele>
        <time>2024-06-01T17:03:51+02:00</time>
      </trkpt>
      <trkpt lat="43.7639" lon="1.56214">
        <ele>162.60059</ele>
        <time>2024-06-01T17:03:55+02:00</time>
      </trkpt>
      <trkpt lat="43.76385" lon="1.56212">
        <ele>162.60059</ele>
        <time>2024-06-01T17:03:56+02:00</time>
      </trkpt>
      <trkpt lat="43.76364" lon="1.56203">
        <ele>163.2002</ele>
        <time>2024-06-01T17:04:00+02:00</time>
      </trkpt>
      <trkpt lat="43.76358" lon="1.56201">
        <ele>163.40039</ele>
        <time>2024-06-01T17:04:01+02:00</time>
      </trkpt>
      <trkpt lat="43.76338" lon="1.56192">
        <ele>163.90039</ele>
        <time>2024-06-01T17:04:05+02:00</time>
      </trkpt>
      <trkpt lat="43.76333" lon="1.5619">
        <ele>164.10059</ele>
        <time>2024-06-01T17:04:06+02:00</time>
      </trkpt>
      <trkpt lat="43.76313" lon="1.56182">
        <ele>164.60059</ele>
        <time>2024-06-01T17:04:10+02:00</time>
      </trkpt>
      <trkpt lat="43.76308" lon="1.5618">
        <ele>164.7002</ele>
        <time>2024-06-01T17:04:11+02:00</time>
      </trkpt>
      <trkpt lat="43.76289" lon="1.56172">
        <ele>165.10059</ele>
        <time>2024-06-01T17:04:15+02:00</time>
      </trkpt>
      <trkpt lat="43.76283" lon="1.5617">
        <ele>165.2002</ele>
        <time>2024-06-01T17:04:16+02:00</time>
      </trkpt>
      <trkpt lat="43.76264" lon="1.56163">
        <ele>165.5</ele>
        <time>2024-06-01T17:04:20+02:00</time>
      </trkpt>
      <trkpt lat="43.76259" lon="1.56161">
        <ele>165.60059</ele>
        <time>2024-06-01T17:04:21+02:00</time>
      </trkpt>
      <trkpt lat="43.76238" lon="1.56155">
        <ele>165.7998</ele>
        <time>2024-06-01T17:04:25+02:00</time>
      </trkpt>
      <trkpt lat="43.76232" lon="1.56153">
        <ele>165.90039</ele>
        <time>2024-06-01T17:04:26+02:00</time>
      </trkpt>
      <trkpt lat="43.7621" lon="1.56143">
        <ele>165.90039</ele>
        <time>2024-06-01T17:04:30+02:00</time>
      </trkpt>
      <trkpt lat="43.76204" lon="1.56139">
        <ele>165.7998</ele>
        <time>2024-06-01T17:04:31+02:00</time>
      </trkpt>
      <trkpt lat="43.76186" lon="1.56117">
        <ele>165.5</ele>
        <time>2024-06-01T17:04:35+02:00</time>
      </trkpt>
      <trkpt lat="43.76182" lon="1.56111">
        <ele>165.5</ele>
        <time>2024-06-01T17:04:36+02:00</time>
      </trkpt>
      <trkpt lat="43.76166" lon="1.56087">
        <ele>165.40039</ele>
        <time>2024-06-01T17:04:40+02:00</time>
      </trkpt>
      <trkpt lat="43.76162" lon="1.56082">
        <ele>165.40039</ele>
        <time>2024-06-01T17:04:41+02:00</time>
      </trkpt>
      <trkpt lat="43.76143" lon="1.56059">
        <ele>165.7002</ele>
        <time>2024-06-01T17:04:45+02:00</time>
      </trkpt>
      <trkpt lat="43.76138" lon="1.56053">
        <ele>165.7998</ele>
        <time>2024-06-01T17:04:46+02:00</time>
      </trkpt>
      <trkpt lat="43.7612" lon="1.56031">
        <ele>166.2998</ele>
        <time>2024-06-01T17:04:50+02:00</time>
      </trkpt>
      <trkpt lat="43.76116" lon="1.56026">
        <ele>166.60059</ele>
        <time>2024-06-01T17:04:51+02:00</time>
      </trkpt>
      <trkpt lat="43.76099" lon="1.56004">
        <ele>167.10059</ele>
        <time>2024-06-01T17:04:55+02:00</time>
      </trkpt>
      <trkpt lat="43.76095" lon="1.55999">
        <ele>167.10059</ele>
        <time>2024-06-01T17:04:56+02:00</time>
      </trkpt>
      <trkpt lat="43.76079" lon="1.5598">
        <ele>167.60059</ele>
        <time>2024-06-01T17:05:00+02:00</time>
      </trkpt>
      <trkpt lat="43.76075" lon="1.55975">
        <ele>167.60059</ele>
        <time>2024-06-01T17:05:01+02:00</time>
      </trkpt>
      <trkpt lat="43.7606" lon="1.55956">
        <ele>168.10059</ele>
        <time>2024-06-01T17:05:05+02:00</time>
      </trkpt>
      <trkpt lat="43.76057" lon="1.55951">
        <ele>167.90039</ele>
        <time>2024-06-01T17:05:06+02:00</time>
      </trkpt>
      <trkpt lat="43.76043" lon="1.55929">
        <ele>168.2998</ele>
        <time>2024-06-01T17:05:10+02:00</time>
      </trkpt>
      <trkpt lat="43.7604" lon="1.55923">
        <ele>168.10059</ele>
        <time>2024-06-01T17:05:11+02:00</time>
      </trkpt>
      <trkpt lat="43.7603" lon="1.55898">
        <ele>168.2998</ele>
        <time>2024-06-01T17:05:15+02:00</time>
      </trkpt>
      <trkpt lat="43.76028" lon="1.55892">
        <ele>168.2002</ele>
        <time>2024-06-01T17:05:16+02:00</time>
      </trkpt>
      <trkpt lat="43.76018" lon="1.55866">
        <ele>168.5</ele>
        <time>2024-06-01T17:05:20+02:00</time>
      </trkpt>
      <trkpt lat="43.76015" lon="1.55859">
        <ele>168.5</ele>
        <time>2024-06-01T17:05:21+02:00</time>
      </trkpt>
      <trkpt lat="43.76004" lon="1.55835">
        <ele>168.7998</ele>
        <time>2024-06-01T17:05:25+02:00</time>
      </trkpt>
      <trkpt lat="43.76001" lon="1.55829">
        <ele>168.7002</ele>
        <time>2024-06-01T17:05:26+02:00</time>
      </trkpt>
      <trkpt lat="43.75986" lon="1.55811">
        <ele>169.2998</ele>
        <time>2024-06-01T17:05:30+02:00</time>
      </trkpt>
      <trkpt lat="43.75982" lon="1.55806">
        <ele>169.2002</ele>
        <time>2024-06-01T17:05:31+02:00</time>
      </trkpt>
      <trkpt lat="43.75965" lon="1.55792">
        <ele>169.7002</ele>
        <time>2024-06-01T17:05:35+02:00</time>
      </trkpt>
      <trkpt lat="43.75961" lon="1.55788">
        <ele>169.90039</ele>
        <time>2024-06-01T17:05:36+02:00</time>
      </trkpt>
      <trkpt lat="43.75943" lon="1.55772">
        <ele>170.2002</ele>
        <time>2024-06-01T17:05:40+02:00</time>
      </trkpt>
      <trkpt lat="43.75939" lon="1.55769">
        <ele>170.2002</ele>
        <time>2024-06-01T17:05:41+02:00</time>
      </trkpt>
      <trkpt lat="43.7592" lon="1.55754">
        <ele>170.2998</ele>
        <time>2024-06-01T17:05:45+02:00</time>
      </trkpt>
      <trkpt lat="43.75915" lon="1.5575">
        <ele>170.5</ele>
        <time>2024-06-01T17:05:46+02:00</time>
      </trkpt>
      <trkpt lat="43.75895" lon="1.55734">
        <ele>170.40039</ele>
        <time>2024-06-01T17:05:50+02:00</time>
      </trkpt>
      <trkpt lat="43.75889" lon="1.5573">
        <ele>170.40039</ele>
        <time>2024-06-01T17:05:51+02:00</time>
      </trkpt>
      <trkpt lat="43.75867" lon="1.55715">
        <ele>170.7002</ele>
        <time>2024-06-01T17:05:55+02:00</time>
      </trkpt>
      <trkpt lat="43.75861" lon="1.55711">
        <ele>170.7002</ele>
        <time>2024-06-01T17:05:56+02:00</time>
      </trkpt>
      <trkpt lat="43.7584" lon="1.55696">
        <ele>170.7998</ele>
        <time>2024-06-01T17:06:00+02:00</time>
      </trkpt>
      <trkpt lat="43.75835" lon="1.55693">
        <ele>171</ele>
        <time>2024-06-01T17:06:01+02:00</time>
      </trkpt>
      <trkpt lat="43.75814" lon="1.55678">
        <ele>171.40039</ele>
        <time>2024-06-01T17:06:05+02:00</time>
      </trkpt>
      <trkpt lat="43.75809" lon="1.55675">
        <ele>171.7998</ele>
        <time>2024-06-01T17:06:06+02:00</time>
      </trkpt>
      <trkpt lat="43.75789" lon="1.55661">
        <ele>173.10059</ele>
        <time>2024-06-01T17:06:10+02:00</time>
      </trkpt>
      <trkpt lat="43.75784" lon="1.55658">
        <ele>173.10059</ele>
        <time>2024-06-01T17:06:11+02:00</time>
      </trkpt>
      <trkpt lat="43.75764" lon="1.55644">
        <ele>175.10059</ele>
        <time>2024-06-01T17:06:15+02:00</time>
      </trkpt>
      <trkpt lat="43.75758" lon="1.55641">
        <ele>175.10059</ele>
        <time>2024-06-01T17:06:16+02:00</time>
      </trkpt>
      <trkpt lat="43.75739" lon="1.55629">
        <ele>177.90039</ele>
        <time>2024-06-01T17:06:20+02:00</time>
      </trkpt>
      <trkpt lat="43.75735" lon="1.55627">
        <ele>178.10059</ele>
        <time>2024-06-01T17:06:21+02:00</time>
      </trkpt>
      <trkpt lat="43.75717" lon="1.55622">
        <ele>180</ele>
        <time>2024-06-01T17:06:25+02:00</time>
      </trkpt>
      <trkpt lat="43.75715" lon="1.55621">
        <ele>180</ele>
        <time>2024-06-01T17:06:26+02:00</time>
      </trkpt>
      <trkpt lat="43.75699" lon="1.55616">
        <ele>181.7998</ele>
        <time>2024-06-01T17:06:30+02:00</time>
      </trkpt>
      <trkpt lat="43.75692" lon="1.55614">
        <ele>182.2998</ele>
        <time>2024-06-01T17:06:31+02:00</time>
      </trkpt>
      <trkpt lat="43.75678" lon="1.55607">
        <ele>183.2002</ele>
        <time>2024-06-01T17:06:35+02:00</time>
      </trkpt>
      <trkpt lat="43.75674" lon="1.55604">
        <ele>183.5</ele>
        <time>2024-06-01T17:06:36+02:00</time>
      </trkpt>
      <trkpt lat="43.75661" lon="1.55585">
        <ele>184.10059</ele>
        <time>2024-06-01T17:06:40+02:00</time>
      </trkpt>
      <trkpt lat="43.75659" lon="1.5558">
        <ele>184.2998</ele>
        <time>2024-06-01T17:06:41+02:00</time>
      </trkpt>
      <trkpt lat="43.75648" lon="1.55561">
        <ele>184.5</ele>
        <time>2024-06-01T17:06:45+02:00</time>
      </trkpt>
      <trkpt lat="43.75646" lon="1.55556">
        <ele>184.60059</ele>
        <time>2024-06-01T17:06:46+02:00</time>
      </trkpt>
      <trkpt lat="43.75635" lon="1.55539">
        <ele>184.90039</ele>
        <time>2024-06-01T17:06:50+02:00</time>
      </trkpt>
      <trkpt lat="43.75632" lon="1.55536">
        <ele>185.2998</ele>
        <time>2024-06-01T17:06:51+02:00</time>
      </trkpt>
      <trkpt lat="43.75627" lon="1.55528">
        <ele>185.7998</ele>
        <time>2024-06-01T17:06:55+02:00</time>
      </trkpt>
      <trkpt lat="43.75627" lon="1.55526">
        <ele>185.7998</ele>
        <time>2024-06-01T17:06:56+02:00</time>
      </trkpt>
      <trkpt lat="43.75631" lon="1.5551">
        <ele>185.10059</ele>
        <time>2024-06-01T17:07:00+02:00</time>
      </trkpt>
      <trkpt lat="43.75632" lon="1.55505">
        <ele>185</ele>
        <time>2024-06-01T17:07:01+02:00</time>
      </trkpt>
      <trkpt lat="43.7564" lon="1.5549">
        <ele>184.5</ele>
        <time>2024-06-01T17:07:05+02:00</time>
      </trkpt>
      <trkpt lat="43.75643" lon="1.55486">
        <ele>184.2002</ele>
        <time>2024-06-01T17:07:06+02:00</time>
      </trkpt>
      <trkpt lat="43.75657" lon="1.55471">
        <ele>183.60059</ele>
        <time>2024-06-01T17:07:10+02:00</time>
      </trkpt>
      <trkpt lat="43.75661" lon="1.55468">
        <ele>183.40039</ele>
        <time>2024-06-01T17:07:11+02:00</time>
      </trkpt>
      <trkpt lat="43.75684" lon="1.55454">
        <ele>182.2002</ele>
        <time>2024-06-01T17:07:15+02:00</time>
      </trkpt>
      <trkpt lat="43.75689" lon="1.5545">
        <ele>182.2002</ele>
        <time>2024-06-01T17:07:16+02:00</time>
      </trkpt>
      <trkpt lat="43.75689" lon="1.5543">
        <ele>182</ele>
        <time>2024-06-01T17:07:20+02:00</time>
      </trkpt>
      <trkpt lat="43.75686" lon="1.55426">
        <ele>182</ele>
        <time>2024-06-01T17:07:21+02:00</time>
      </trkpt>
      <trkpt lat="43.75673" lon="1.55407">
        <ele>182.2998</ele>
        <time>2024-06-01T17:07:25+02:00</time>
      </trkpt>
      <trkpt lat="43.7567" lon="1.55402">
        <ele>182.2998</ele>
        <time>2024-06-01T17:07:26+02:00</time>
      </trkpt>
      <trkpt lat="43.75654" lon="1.55383">
        <ele>182.10059</ele>
        <time>2024-06-01T17:07:30+02:00</time>
      </trkpt>
      <trkpt lat="43.75651" lon="1.55379">
        <ele>182</ele>
        <time>2024-06-01T17:07:31+02:00</time>
      </trkpt>
      <trkpt lat="43.75638" lon="1.55357">
        <ele>181.7002</ele>
        <time>2024-06-01T17:07:35+02:00</time>
      </trkpt>
      <trkpt lat="43.75633" lon="1.55351">
        <ele>181.5</ele>
        <time>2024-06-01T17:07:36+02:00</time>
      </trkpt>
      <trkpt lat="43.75615" lon="1.55323">
        <ele>180.2998</ele>
        <time>2024-06-01T17:07:40+02:00</time>
      </trkpt>
      <trkpt lat="43.7561" lon="1.55316">
        <ele>180</ele>
        <time>2024-06-01T17:07:41+02:00</time>
      </trkpt>
      <trkpt lat="43.75603" lon="1.55304">
        <ele>179.60059</ele>
        <time>2024-06-01T17:07:45+02:00</time>
      </trkpt>
      <trkpt lat="43.75601" lon="1.553">
        <ele>179.2002</ele>
        <time>2024-06-01T17:07:46+02:00</time>
      </trkpt>
      <trkpt lat="43.75587" lon="1.55273">
        <ele>177.7002</ele>
        <time>2024-06-01T17:07:50+02:00</time>
      </trkpt>
      <trkpt lat="43.75582" lon="1.55264">
        <ele>177</ele>
        <time>2024-06-01T17:07:51+02:00</time>
      </trkpt>
      <trkpt lat="43.75563" lon="1.55224">
        <ele>172.10059</ele>
        <time>2024-06-01T17:07:55+02:00</time>
      </trkpt>
      <trkpt lat="43.75559" lon="1.55213">
        <ele>170.5</ele>
        <time>2024-06-01T17:07:56+02:00</time>
      </trkpt>
      <trkpt lat="43.75553" lon="1.55161">
        <ele>163.40039</ele>
        <time>2024-06-01T17:08:00+02:00</time>
      </trkpt>
      <trkpt lat="43.75552" lon="1.55148">
        <ele>162.2002</ele>
        <time>2024-06-01T17:08:01+02:00</time>
      </trkpt>
      <trkpt lat="43.7553" lon="1.55102">
        <ele>156</ele>
        <time>2024-06-01T17:08:05+02:00</time>
      </trkpt>
      <trkpt lat="43.75525" lon="1.55093">
        <ele>155.40039</ele>
        <time>2024-06-01T17:08:06+02:00</time>
      </trkpt>
      <trkpt lat="43.75502" lon="1.55057">
        <ele>154.40039</ele>
        <time>2024-06-01T17:08:10+02:00</time>
      </trkpt>
      <trkpt lat="43.75498" lon="1.55049">
        <ele>154.40039</ele>
        <time>2024-06-01T17:08:11+02:00</time>
      </trkpt>
      <trkpt lat="43.75495" lon="1.55029">
        <ele>154.2998</ele>
        <time>2024-06-01T17:08:15+02:00</time>
      </trkpt>
      <trkpt lat="43.75498" lon="1.55026">
        <ele>154.2002</ele>
        <time>2024-06-01T17:08:16+02:00</time>
      </trkpt>
      <trkpt lat="43.75509" lon="1.55013">
        <ele>154</ele>
        <time>2024-06-01T17:08:20+02:00</time>
      </trkpt>
      <trkpt lat="43.75512" lon="1.5501">
        <ele>153.90039</ele>
        <time>2024-06-01T17:08:21+02:00</time>
      </trkpt>
      <trkpt lat="43.75512" lon="1.54994">
        <ele>153.90039</ele>
        <time>2024-06-01T17:08:25+02:00</time>
      </trkpt>
      <trkpt lat="43.75509" lon="1.5499">
        <ele>154.10059</ele>
        <time>2024-06-01T17:08:26+02:00</time>
      </trkpt>
      <trkpt lat="43.75501" lon="1.54976">
        <ele>154.2998</ele>
        <time>2024-06-01T17:08:30+02:00</time>
      </trkpt>
      <trkpt lat="43.75499" lon="1.54972">
        <ele>154.60059</ele>
        <time>2024-06-01T17:08:31+02:00</time>
      </trkpt>
      <trkpt lat="43.75493" lon="1.54959">
        <ele>155.10059</ele>
        <time>2024-06-01T17:08:35+02:00</time>
      </trkpt>
      <trkpt lat="43.75492" lon="1.54955">
        <ele>155.40039</ele>
        <time>2024-06-01T17:08:36+02:00</time>
      </trkpt>
      <trkpt lat="43.75487" lon="1.54943">
        <ele>156</ele>
        <time>2024-06-01T17:08:40+02:00</time>
      </trkpt>
      <trkpt lat="43.75486" lon="1.5494">
        <ele>156.40039</ele>
        <time>2024-06-01T17:08:41+02:00</time>
      </trkpt>
      <trkpt lat="43.75482" lon="1.54926">
        <ele>157.10059</ele>
        <time>2024-06-01T17:08:45+02:00</time>
      </trkpt>
      <trkpt lat="43.75481" lon="1.54923">
        <ele>157.60059</ele>
        <time>2024-06-01T17:08:46+02:00</time>
      </trkpt>
      <trkpt lat="43.75479" lon="1.54909">
        <ele>158</ele>
        <time>2024-06-01T17:08:50+02:00</time>
      </trkpt>
      <trkpt lat="43.75479" lon="1.54905">
        <ele>158.5</ele>
        <time>2024-06-01T17:08:51+02:00</time>
      </trkpt>
      <trkpt lat="43.75476" lon="1.5489">
        <ele>159.2998</ele>
        <time>2024-06-01T17:08:55+02:00</time>
      </trkpt>
      <trkpt lat="43.75476" lon="1.54887">
        <ele>159.7002</ele>
        <time>2024-06-01T17:08:56+02:00</time>
      </trkpt>
      <trkpt lat="43.75472" lon="1.54874">
        <ele>160.5</ele>
        <time>2024-06-01T17:09:00+02:00</time>
      </trkpt>
      <trkpt lat="43.75471" lon="1.54871">
        <ele>161</ele>
        <time>2024-06-01T17:09:01+02:00</time>
      </trkpt>
      <trkpt lat="43.75466" lon="1.5486">
        <ele>161.7998</ele>
        <time>2024-06-01T17:09:05+02:00</time>
      </trkpt>
      <trkpt lat="43.75465" lon="1.54857">
        <ele>161.7998</ele>
        <time>2024-06-01T17:09:06+02:00</time>
      </trkpt>
      <trkpt lat="43.75459" lon="1.54847">
        <ele>162.7998</ele>
        <time>2024-06-01T17:09:10+02:00</time>
      </trkpt>
      <trkpt lat="43.75457" lon="1.54844">
        <ele>163.40039</ele>
        <time>2024-06-01T17:09:11+02:00</time>
      </trkpt>
      <trkpt lat="43.75453" lon="1.54833">
        <ele>164.7002</ele>
        <time>2024-06-01T17:09:15+02:00</time>
      </trkpt>
      <trkpt lat="43.75451" lon="1.5483">
        <ele>164.7002</ele>
        <time>2024-06-01T17:09:16+02:00</time>
      </trkpt>
      <trkpt lat="43.75446" lon="1.54819">
        <ele>167.10059</ele>
        <time>2024-06-01T17:09:20+02:00</time>
      </trkpt>
      <trkpt lat="43.75444" lon="1.54816">
        <ele>167.10059</ele>
        <time>2024-06-01T17:09:21+02:00</time>
      </trkpt>
      <trkpt lat="43.75438" lon="1.54805">
        <ele>168.7002</ele>
        <time>2024-06-01T17:09:25+02:00</time>
      </trkpt>
      <trkpt lat="43.75436" lon="1.54802">
        <ele>169.7002</ele>
        <time>2024-06-01T17:09:26+02:00</time>
      </trkpt>
      <trkpt lat="43.7543" lon="1.54791">
        <ele>171.40039</ele>
        <time>2024-06-01T17:09:30+02:00</time>
      </trkpt>
      <trkpt lat="43.75428" lon="1.54788">
        <ele>171.90039</ele>
        <time>2024-06-01T17:09:31+02:00</time>
      </trkpt>
      <trkpt lat="43.75421" lon="1.54778">
        <ele>173.5</ele>
        <time>2024-06-01T17:09:35+02:00</time>
      </trkpt>
      <trkpt lat="43.75419" lon="1.54775">
        <ele>173.5</ele>
        <time>2024-06-01T17:09:36+02:00</time>
      </trkpt>
      <trkpt lat="43.75411" lon="1.54766">
        <ele>174.5</ele>
        <time>2024-06-01T17:09:40+02:00</time>
      </trkpt>
      <trkpt lat="43.75409" lon="1.54764">
        <ele>174.5</ele>
        <time>2024-06-01T17:09:41+02:00</time>
      </trkpt>
      <trkpt lat="43.754" lon="1.5476">
        <ele>175.2002</ele>
        <time>2024-06-01T17:09:45+02:00</time>
      </trkpt>
      <trkpt lat="43.75398" lon="1.54758">
        <ele>175.60059</ele>
        <time>2024-06-01T17:09:46+02:00</time>
      </trkpt>
      <trkpt lat="43.7539" lon="1.54753">
        <ele>176.10059</ele>
        <time>2024-06-01T17:09:50+02:00</time>
      </trkpt>
      <trkpt lat="43.75388" lon="1.54751">
        <ele>176.10059</ele>
        <time>2024-06-01T17:09:51+02:00</time>
      </trkpt>
      <trkpt lat="43.7538" lon="1.54746">
        <ele>176.2998</ele>
        <time>2024-06-01T17:09:55+02:00</time>
      </trkpt>
      <trkpt lat="43.75378" lon="1.54745">
        <ele>176.60059</ele>
        <time>2024-06-01T17:09:56+02:00</time>
      </trkpt>
      <trkpt lat="43.7537" lon="1.54738">
        <ele>176.7998</ele>
        <time>2024-06-01T17:10:00+02:00</time>
      </trkpt>
      <trkpt lat="43.75369" lon="1.54736">
        <ele>176.7998</ele>
        <time>2024-06-01T17:10:01+02:00</time>
      </trkpt>
      <trkpt lat="43.75364" lon="1.54727">
        <ele>177.10059</ele>
        <time>2024-06-01T17:10:05+02:00</time>
      </trkpt>
      <trkpt lat="43.75363" lon="1.54725">
        <ele>177</ele>
        <time>2024-06-01T17:10:06+02:00</time>
      </trkpt>
      <trkpt lat="43.75358" lon="1.54715">
        <ele>177.2002</ele>
        <time>2024-06-01T17:10:10+02:00</time>
      </trkpt>
      <trkpt lat="43.75357" lon="1.54712">
        <ele>177.2002</ele>
        <time>2024-06-01T17:10:11+02:00</time>
      </trkpt>
      <trkpt lat="43.75352" lon="1.54702">
        <ele>177.40039</ele>
        <time>2024-06-01T17:10:15+02:00</time>
      </trkpt>
      <trkpt lat="43.75351" lon="1.547">
        <ele>177.40039</ele>
        <time>2024-06-01T17:10:16+02:00</time>
      </trkpt>
      <trkpt lat="43.75346" lon="1.5469">
        <ele>177.7998</ele>
        <time>2024-06-01T17:10:20+02:00</time>
      </trkpt>
      <trkpt lat="43.75345" lon="1.54687">
        <ele>177.7998</ele>
        <time>2024-06-01T17:10:21+02:00</time>
      </trkpt>
      <trkpt lat="43.7534" lon="1.54677">
        <ele>178.2998</ele>
        <time>2024-06-01T17:10:25+02:00</time>
      </trkpt>
      <trkpt lat="43.75339" lon="1.54675">
        <ele>178.60059</ele>
        <time>2024-06-01T17:10:26+02:00</time>
      </trkpt>
      <trkpt lat="43.75334" lon="1.54665">
        <ele>179.60059</ele>
        <time>2024-06-01T17:10:30+02:00</time>
      </trkpt>
      <trkpt lat="43.75332" lon="1.54662">
        <ele>179.60059</ele>
        <time>2024-06-01T17:10:31+02:00</time>
      </trkpt>
      <trkpt lat="43.75327" lon="1.54651">
        <ele>180.60059</ele>
        <time>2024-06-01T17:10:35+02:00</time>
      </trkpt>
      <trkpt lat="43.75325" lon="1.54648">
        <ele>181.10059</ele>
        <time>2024-06-01T17:10:36+02:00</time>
      </trkpt>
      <trkpt lat="43.7532" lon="1.54636">
        <ele>182</ele>
        <time>2024-06-01T17:10:40+02:00</time>
      </trkpt>
      <trkpt lat="43.75319" lon="1.54633">
        <ele>182</ele>
        <time>2024-06-01T17:10:41+02:00</time>
      </trkpt>
      <trkpt lat="43.75313" lon="1.54618">
        <ele>182.7002</ele>
        <time>2024-06-01T17:10:45+02:00</time>
      </trkpt>
      <trkpt lat="43.75312" lon="1.54614">
        <ele>182.7998</ele>
        <time>2024-06-01T17:10:46+02:00</time>
      </trkpt>
      <trkpt lat="43.75308" lon="1.54597">
        <ele>182.7002</ele>
        <time>2024-06-01T17:10:50+02:00</time>
      </trkpt>
      <trkpt lat="43.75307" lon="1.54592">
        <ele>182.7002</ele>
        <time>2024-06-01T17:10:51+02:00</time>
      </trkpt>
      <trkpt lat="43.75304" lon="1.54575">
        <ele>182.5</ele>
        <time>2024-06-01T17:10:55+02:00</time>
      </trkpt>
      <trkpt lat="43.75303" lon="1.5457">
        <ele>182.40039</ele>
        <time>2024-06-01T17:10:56+02:00</time>
      </trkpt>
      <trkpt lat="43.753" lon="1.54551">
        <ele>182.2002</ele>
        <time>2024-06-01T17:11:00+02:00</time>
      </trkpt>
      <trkpt lat="43.75299" lon="1.54547">
        <ele>182.10059</ele>
        <time>2024-06-01T17:11:01+02:00</time>
      </trkpt>
      <trkpt lat="43.75297" lon="1.54526">
        <ele>181.7002</ele>
        <time>2024-06-01T17:11:05+02:00</time>
      </trkpt>
      <trkpt lat="43.75297" lon="1.54521">
        <ele>181.7002</ele>
        <time>2024-06-01T17:11:06+02:00</time>
      </trkpt>
      <trkpt lat="43.75294" lon="1.545">
        <ele>181.2002</ele>
        <time>2024-06-01T17:11:10+02:00</time>
      </trkpt>
      <trkpt lat="43.75293" lon="1.54494">
        <ele>181.10059</ele>
        <time>2024-06-01T17:11:11+02:00</time>
      </trkpt>
      <trkpt lat="43.75291" lon="1.5447">
        <ele>180.60059</ele>
        <time>2024-06-01T17:11:15+02:00</time>
      </trkpt>
      <trkpt lat="43.75291" lon="1.54464">
        <ele>180.40039</ele>
        <time>2024-06-01T17:11:16+02:00</time>
      </trkpt>
      <trkpt lat="43.75293" lon="1.54442">
        <ele>180</ele>
        <time>2024-06-01T17:11:20+02:00</time>
      </trkpt>
      <trkpt lat="43.75295" lon="1.54437">
        <ele>180</ele>
        <time>2024-06-01T17:11:21+02:00</time>
      </trkpt>
      <trkpt lat="43.75304" lon="1.54419">
        <ele>179.7002</ele>
        <time>2024-06-01T17:11:25+02:00</time>
      </trkpt>
      <trkpt lat="43.75306" lon="1.54414">
        <ele>179.7002</ele>
        <time>2024-06-01T17:11:26+02:00</time>
      </trkpt>
      <trkpt lat="43.75313" lon="1.54395">
        <ele>179.40039</ele>
        <time>2024-06-01T17:11:30+02:00</time>
      </trkpt>
      <trkpt lat="43.75315" lon="1.5439">
        <ele>179.10059</ele>
        <time>2024-06-01T17:11:31+02:00</time>
      </trkpt>
      <trkpt lat="43.75322" lon="1.54376">
        <ele>179.10059</ele>
        <time>2024-06-01T17:11:35+02:00</time>
      </trkpt>
      <trkpt lat="43.75324" lon="1.54373">
        <ele>178.60059</ele>
        <time>2024-06-01T17:11:36+02:00</time>
      </trkpt>
      <trkpt lat="43.75328" lon="1.54363">
        <ele>178.5</ele>
        <time>2024-06-01T17:11:40+02:00</time>
      </trkpt>
      <trkpt lat="43.75328" lon="1.54362">
        <ele>178.5</ele>
        <time>2024-06-01T17:11:41+02:00</time>
      </trkpt>
      <trkpt lat="43.75331" lon="1.54354">
        <ele>178.2002</ele>
        <time>2024-06-01T17:11:45+02:00</time>
      </trkpt>
      <trkpt lat="43.75333" lon="1.54352">
        <ele>178.2002</ele>
        <time>2024-06-01T17:11:46+02:00</time>
      </trkpt>
      <trkpt lat="43.75337" lon="1.54339">
        <ele>177.5</ele>
        <time>2024-06-01T17:11:50+02:00</time>
      </trkpt>
      <trkpt lat="43.75339" lon="1.54335">
        <ele>177.5</ele>
        <time>2024-06-01T17:11:51+02:00</time>
      </trkpt>
      <trkpt lat="43.75346" lon="1.54314">
        <ele>176.60059</ele>
        <time>2024-06-01T17:11:55+02:00</time>
      </trkpt>
      <trkpt lat="43.75348" lon="1.54308">
        <ele>176.60059</ele>
        <time>2024-06-01T17:11:56+02:00</time>
      </trkpt>
      <trkpt lat="43.75352" lon="1.5429">
        <ele>176.2002</ele>
        <time>2024-06-01T17:12:00+02:00</time>
      </trkpt>
      <trkpt lat="43.75353" lon="1.54285">
        <ele>175.7002</ele>
        <time>2024-06-01T17:12:01+02:00</time>
      </trkpt>
      <trkpt lat="43.75356" lon="1.54266">
        <ele>175.10059</ele>
        <time>2024-06-01T17:12:05+02:00</time>
      </trkpt>
      <trkpt lat="43.75355" lon="1.54262">
        <ele>174.5</ele>
        <time>2024-06-01T17:12:06+02:00</time>
      </trkpt>
      <trkpt lat="43.75345" lon="1.54246">
        <ele>173.10059</ele>
        <time>2024-06-01T17:12:10+02:00</time>
      </trkpt>
      <trkpt lat="43.7534" lon="1.54242">
        <ele>172.10059</ele>
        <time>2024-06-01T17:12:11+02:00</time>
      </trkpt>
      <trkpt lat="43.75322" lon="1.54219">
        <ele>169.60059</ele>
        <time>2024-06-01T17:12:15+02:00</time>
      </trkpt>
      <trkpt lat="43.75319" lon="1.54213">
        <ele>169.60059</ele>
        <time>2024-06-01T17:12:16+02:00</time>
      </trkpt>
      <trkpt lat="43.75307" lon="1.54187">
        <ele>168.10059</ele>
        <time>2024-06-01T17:12:20+02:00</time>
      </trkpt>
      <trkpt lat="43.75304" lon="1.54181">
        <ele>167.7998</ele>
        <time>2024-06-01T17:12:21+02:00</time>
      </trkpt>
      <trkpt lat="43.75295" lon="1.54155">
        <ele>167.2002</ele>
        <time>2024-06-01T17:12:25+02:00</time>
      </trkpt>
      <trkpt lat="43.75293" lon="1.54149">
        <ele>167</ele>
        <time>2024-06-01T17:12:26+02:00</time>
      </trkpt>
      <trkpt lat="43.75286" lon="1.54123">
        <ele>166.7998</ele>
        <time>2024-06-01T17:12:30+02:00</time>
      </trkpt>
      <trkpt lat="43.75284" lon="1.54117">
        <ele>166.90039</ele>
        <time>2024-06-01T17:12:31+02:00</time>
      </trkpt>
      <trkpt lat="43.75283" lon="1.54095">
        <ele>167.60059</ele>
        <time>2024-06-01T17:12:35+02:00</time>
      </trkpt>
      <trkpt lat="43.75284" lon="1.5409">
        <ele>168</ele>
        <time>2024-06-01T17:12:36+02:00</time>
      </trkpt>
      <trkpt lat="43.75287" lon="1.54074">
        <ele>169.10059</ele>
        <time>2024-06-01T17:12:40+02:00</time>
      </trkpt>
      <trkpt lat="43.75288" lon="1.54069">
        <ele>169.10059</ele>
        <time>2024-06-01T17:12:41+02:00</time>
      </trkpt>
      <trkpt lat="43.75288" lon="1.54052">
        <ele>170.40039</ele>
        <time>2024-06-01T17:12:45+02:00</time>
      </trkpt>
      <trkpt lat="43.75288" lon="1.54049">
        <ele>171.2002</ele>
        <time>2024-06-01T17:12:46+02:00</time>
      </trkpt>
      <trkpt lat="43.75287" lon="1.54032">
        <ele>171.90039</ele>
        <time>2024-06-01T17:12:50+02:00</time>
      </trkpt>
      <trkpt lat="43.75287" lon="1.54028">
        <ele>172.7002</ele>
        <time>2024-06-01T17:12:51+02:00</time>
      </trkpt>
      <trkpt lat="43.75286" lon="1.54011">
        <ele>174.60059</ele>
        <time>2024-06-01T17:12:55+02:00</time>
      </trkpt>
      <trkpt lat="43.75285" lon="1.54007">
        <ele>174.60059</ele>
        <time>2024-06-01T17:12:56+02:00</time>
      </trkpt>
      <trkpt lat="43.75281" lon="1.53991">
        <ele>176.2998</ele>
        <time>2024-06-01T17:13:00+02:00</time>
      </trkpt>
      <trkpt lat="43.7528" lon="1.53987">
        <ele>177.7002</ele>
        <time>2024-06-01T17:13:01+02:00</time>
      </trkpt>
      <trkpt lat="43.75276" lon="1.53973">
        <ele>178.5</ele>
        <time>2024-06-01T17:13:05+02:00</time>
      </trkpt>
      <trkpt lat="43.75274" lon="1.5397">
        <ele>179.90039</ele>
        <time>2024-06-01T17:13:06+02:00</time>
      </trkpt>
      <trkpt lat="43.75267" lon="1.53957">
        <ele>181.40039</ele>
        <time>2024-06-01T17:13:10+02:00</time>
      </trkpt>
      <trkpt lat="43.75266" lon="1.53953">
        <ele>182.2998</ele>
        <time>2024-06-01T17:13:11+02:00</time>
      </trkpt>
      <trkpt lat="43.7526" lon="1.5394">
        <ele>183.7002</ele>
        <time>2024-06-01T17:13:15+02:00</time>
      </trkpt>
      <trkpt lat="43.75258" lon="1.53937">
        <ele>184.60059</ele>
        <time>2024-06-01T17:13:16+02:00</time>
      </trkpt>
      <trkpt lat="43.75251" lon="1.53924">
        <ele>185.7998</ele>
        <time>2024-06-01T17:13:20+02:00</time>
      </trkpt>
      <trkpt lat="43.7525" lon="1.53921">
        <ele>185.7998</ele>
        <time>2024-06-01T17:13:21+02:00</time>
      </trkpt>
      <trkpt lat="43.75245" lon="1.5391">
        <ele>187.40039</ele>
        <time>2024-06-01T17:13:25+02:00</time>
      </trkpt>
      <trkpt lat="43.75244" lon="1.53907">
        <ele>187.40039</ele>
        <time>2024-06-01T17:13:26+02:00</time>
      </trkpt>
      <trkpt lat="43.75239" lon="1.53895">
        <ele>188.2998</ele>
        <time>2024-06-01T17:13:30+02:00</time>
      </trkpt>
      <trkpt lat="43.75238" lon="1.53892">
        <ele>188.7002</ele>
        <time>2024-06-01T17:13:31+02:00</time>
      </trkpt>
      <trkpt lat="43.7523" lon="1.5388">
        <ele>189.7998</ele>
        <time>2024-06-01T17:13:35+02:00</time>
      </trkpt>
      <trkpt lat="43.75228" lon="1.53878">
        <ele>189.7998</ele>
        <time>2024-06-01T17:13:36+02:00</time>
      </trkpt>
      <trkpt lat="43.7522" lon="1.5387">
        <ele>190.5</ele>
        <time>2024-06-01T17:13:40+02:00</time>
      </trkpt>
      <trkpt lat="43.75218" lon="1.53868">
        <ele>191</ele>
        <time>2024-06-01T17:13:41+02:00</time>
      </trkpt>
      <trkpt lat="43.75208" lon="1.53862">
        <ele>191.40039</ele>
        <time>2024-06-01T17:13:45+02:00</time>
      </trkpt>
      <trkpt lat="43.75206" lon="1.5386">
        <ele>191.60059</ele>
        <time>2024-06-01T17:13:46+02:00</time>
      </trkpt>
      <trkpt lat="43.75196" lon="1.53854">
        <ele>192</ele>
        <time>2024-06-01T17:13:50+02:00</time>
      </trkpt>
      <trkpt lat="43.75194" lon="1.53852">
        <ele>192.2002</ele>
        <time>2024-06-01T17:13:51+02:00</time>
      </trkpt>
      <trkpt lat="43.75185" lon="1.53847">
        <ele>192.5</ele>
        <time>2024-06-01T17:13:55+02:00</time>
      </trkpt>
      <trkpt lat="43.75183" lon="1.53845">
        <ele>192.5</ele>
        <time>2024-06-01T17:13:56+02:00</time>
      </trkpt>
      <trkpt lat="43.75175" lon="1.53837">
        <ele>192.7998</ele>
        <time>2024-06-01T17:14:00+02:00</time>
      </trkpt>
      <trkpt lat="43.75173" lon="1.53835">
        <ele>192.7998</ele>
        <time>2024-06-01T17:14:01+02:00</time>
      </trkpt>
      <trkpt lat="43.75165" lon="1.53828">
        <ele>193</ele>
        <time>2024-06-01T17:14:05+02:00</time>
      </trkpt>
      <trkpt lat="43.75163" lon="1.53826">
        <ele>193</ele>
        <time>2024-06-01T17:14:06+02:00</time>
      </trkpt>
      <trkpt lat="43.75156" lon="1.53818">
        <ele>193.2998</ele>
        <time>2024-06-01T17:14:10+02:00</time>
      </trkpt>
      <trkpt lat="43.75154" lon="1.53816">
        <ele>193.40039</ele>
        <time>2024-06-01T17:14:11+02:00</time>
      </trkpt>
      <trkpt lat="43.75147" lon="1.53809">
        <ele>193.7002</ele>
        <time>2024-06-01T17:14:15+02:00</time>
      </trkpt>
      <trkpt lat="43.75145" lon="1.53807">
        <ele>193.7998</ele>
        <time>2024-06-01T17:14:16+02:00</time>
      </trkpt>
      <trkpt lat="43.75138" lon="1.538">
        <ele>194.2002</ele>
        <time>2024-06-01T17:14:20+02:00</time>
      </trkpt>
      <trkpt lat="43.75137" lon="1.53799">
        <ele>194.90039</ele>
        <time>2024-06-01T17:14:21+02:00</time>
      </trkpt>
      <trkpt lat="43.7513" lon="1.53791">
        <ele>195.7002</ele>
        <time>2024-06-01T17:14:25+02:00</time>
      </trkpt>
      <trkpt lat="43.75129" lon="1.53789">
        <ele>195.7002</ele>
        <time>2024-06-01T17:14:26+02:00</time>
      </trkpt>
      <trkpt lat="43.75122" lon="1.53781">
        <ele>196.60059</ele>
        <time>2024-06-01T17:14:30+02:00</time>
      </trkpt>
      <trkpt lat="43.75121" lon="1.53779">
        <ele>196.60059</ele>
        <time>2024-06-01T17:14:31+02:00</time>
      </trkpt>
      <trkpt lat="43.75114" lon="1.53771">
        <ele>197.60059</ele>
        <time>2024-06-01T17:14:35+02:00</time>
      </trkpt>
      <trkpt lat="43.75113" lon="1.53769">
        <ele>198.2002</ele>
        <time>2024-06-01T17:14:36+02:00</time>
      </trkpt>
      <trkpt lat="43.75106" lon="1.53761">
        <ele>199.2998</ele>
        <time>2024-06-01T17:14:40+02:00</time>
      </trkpt>
      <trkpt lat="43.75105" lon="1.53759">
        <ele>199.2998</ele>
        <time>2024-06-01T17:14:41+02:00</time>
      </trkpt>
      <trkpt lat="43.75098" lon="1.53751">
        <ele>200.2998</ele>
        <time>2024-06-01T17:14:45+02:00</time>
      </trkpt>
      <trkpt lat="43.75097" lon="1.5375">
        <ele>200.2998</ele>
        <time>2024-06-01T17:14:46+02:00</time>
      </trkpt>
      <trkpt lat="43.7509" lon="1.53743">
        <ele>201.40039</ele>
        <time>2024-06-01T17:14:50+02:00</time>
      </trkpt>
      <trkpt lat="43.75089" lon="1.53741">
        <ele>201.40039</ele>
        <time>2024-06-01T17:14:51+02:00</time>
      </trkpt>
      <trkpt lat="43.75082" lon="1.53733">
        <ele>203.5</ele>
        <time>2024-06-01T17:14:55+02:00</time>
      </trkpt>
      <trkpt lat="43.7508" lon="1.53731">
        <ele>203.90039</ele>
        <time>2024-06-01T17:14:56+02:00</time>
      </trkpt>
      <trkpt lat="43.75074" lon="1.53722">
        <ele>205.10059</ele>
        <time>2024-06-01T17:15:00+02:00</time>
      </trkpt>
      <trkpt lat="43.75072" lon="1.5372">
        <ele>205.10059</ele>
        <time>2024-06-01T17:15:01+02:00</time>
      </trkpt>
      <trkpt lat="43.75065" lon="1.53712">
        <ele>206.2002</ele>
        <time>2024-06-01T17:15:05+02:00</time>
      </trkpt>
      <trkpt lat="43.75064" lon="1.5371">
        <ele>206.2002</ele>
        <time>2024-06-01T17:15:06+02:00</time>
      </trkpt>
      <trkpt lat="43.75059" lon="1.53702">
        <ele>207.2998</ele>
        <time>2024-06-01T17:15:10+02:00</time>
      </trkpt>
      <trkpt lat="43.75057" lon="1.537">
        <ele>208.2002</ele>
        <time>2024-06-01T17:15:11+02:00</time>
      </trkpt>
      <trkpt lat="43.75051" lon="1.53692">
        <ele>209.2002</ele>
        <time>2024-06-01T17:15:15+02:00</time>
      </trkpt>
      <trkpt lat="43.75049" lon="1.5369">
        <ele>209.2002</ele>
        <time>2024-06-01T17:15:16+02:00</time>
      </trkpt>
      <trkpt lat="43.75042" lon="1.53682">
        <ele>210.2002</ele>
        <time>2024-06-01T17:15:20+02:00</time>
      </trkpt>
      <trkpt lat="43.75041" lon="1.5368">
        <ele>210.2002</ele>
        <time>2024-06-01T17:15:21+02:00</time>
      </trkpt>
      <trkpt lat="43.75034" lon="1.53671">
        <ele>211.2002</ele>
        <time>2024-06-01T17:15:25+02:00</time>
      </trkpt>
      <trkpt lat="43.75032" lon="1.53669">
        <ele>212.10059</ele>
        <time>2024-06-01T17:15:26+02:00</time>
      </trkpt>
      <trkpt lat="43.75025" lon="1.53661">
        <ele>212.90039</ele>
        <time>2024-06-01T17:15:30+02:00</time>
      </trkpt>
      <trkpt lat="43.75023" lon="1.53658">
        <ele>212.90039</ele>
        <time>2024-06-01T17:15:31+02:00</time>
      </trkpt>
      <trkpt lat="43.75015" lon="1.53646">
        <ele>213.60059</ele>
        <time>2024-06-01T17:15:35+02:00</time>
      </trkpt>
      <trkpt lat="43.75012" lon="1.53643">
        <ele>214.2998</ele>
        <time>2024-06-01T17:15:36+02:00</time>
      </trkpt>
      <trkpt lat="43.75003" lon="1.53629">
        <ele>215</ele>
        <time>2024-06-01T17:15:40+02:00</time>
      </trkpt>
      <trkpt lat="43.75001" lon="1.53626">
        <ele>215.7002</ele>
        <time>2024-06-01T17:15:41+02:00</time>
      </trkpt>
      <trkpt lat="43.74995" lon="1.5361">
        <ele>216.40039</ele>
        <time>2024-06-01T17:15:45+02:00</time>
      </trkpt>
      <trkpt lat="43.74993" lon="1.53606">
        <ele>216.40039</ele>
        <time>2024-06-01T17:15:46+02:00</time>
      </trkpt>
      <trkpt lat="43.74988" lon="1.53591">
        <ele>217</ele>
        <time>2024-06-01T17:15:50+02:00</time>
      </trkpt>
      <trkpt lat="43.74987" lon="1.53587">
        <ele>217</ele>
        <time>2024-06-01T17:15:51+02:00</time>
      </trkpt>
      <trkpt lat="43.74982" lon="1.5357">
        <ele>217.60059</ele>
        <time>2024-06-01T17:15:55+02:00</time>
      </trkpt>
      <trkpt lat="43.7498" lon="1.53566">
        <ele>217.7998</ele>
        <time>2024-06-01T17:15:56+02:00</time>
      </trkpt>
      <trkpt lat="43.74976" lon="1.53551">
        <ele>218.2998</ele>
        <time>2024-06-01T17:16:00+02:00</time>
      </trkpt>
      <trkpt lat="43.74974" lon="1.53547">
        <ele>218.5</ele>
        <time>2024-06-01T17:16:01+02:00</time>
      </trkpt>
      <trkpt lat="43.74968" lon="1.53532">
        <ele>219.2002</ele>
        <time>2024-06-01T17:16:05+02:00</time>
      </trkpt>
      <trkpt lat="43.74967" lon="1.53528">
        <ele>219.2002</ele>
        <time>2024-06-01T17:16:06+02:00</time>
      </trkpt>
      <trkpt lat="43.74962" lon="1.53513">
        <ele>219.7998</ele>
        <time>2024-06-01T17:16:10+02:00</time>
      </trkpt>
      <trkpt lat="43.74961" lon="1.53509">
        <ele>219.7998</ele>
        <time>2024-06-01T17:16:11+02:00</time>
      </trkpt>
      <trkpt lat="43.74955" lon="1.53494">
        <ele>220</ele>
        <time>2024-06-01T17:16:15+02:00</time>
      </trkpt>
      <trkpt lat="43.74954" lon="1.5349">
        <ele>220.10059</ele>
        <time>2024-06-01T17:16:16+02:00</time>
      </trkpt>
      <trkpt lat="43.74949" lon="1.53476">
        <ele>220</ele>
        <time>2024-06-01T17:16:20+02:00</time>
      </trkpt>
      <trkpt lat="43.74947" lon="1.53472">
        <ele>220</ele>
        <time>2024-06-01T17:16:21+02:00</time>
      </trkpt>
      <trkpt lat="43.74941" lon="1.53459">
        <ele>219.90039</ele>
        <time>2024-06-01T17:16:25+02:00</time>
      </trkpt>
      <trkpt lat="43.7494" lon="1.53458">
        <ele>219.90039</ele>
        <time>2024-06-01T17:16:26+02:00</time>
      </trkpt>
      <trkpt lat="43.74932" lon="1.53463">
        <ele>219.90039</ele>
        <time>2024-06-01T17:16:30+02:00</time>
      </trkpt>
      <trkpt lat="43.7493" lon="1.53466">
        <ele>220</ele>
        <time>2024-06-01T17:16:31+02:00</time>
      </trkpt>
      <trkpt lat="43.74922" lon="1.53483">
        <ele>220.10059</ele>
        <time>2024-06-01T17:16:35+02:00</time>
      </trkpt>
      <trkpt lat="43.7492" lon="1.53487">
        <ele>220.10059</ele>
        <time>2024-06-01T17:16:36+02:00</time>
      </trkpt>
      <trkpt lat="43.74911" lon="1.53504">
        <ele>220.10059</ele>
        <time>2024-06-01T17:16:40+02:00</time>
      </trkpt>
      <trkpt lat="43.74909" lon="1.53508">
        <ele>220.10059</ele>
        <time>2024-06-01T17:16:41+02:00</time>
      </trkpt>
      <trkpt lat="43.74902" lon="1.53527">
        <ele>219.7998</ele>
        <time>2024-06-01T17:16:45+02:00</time>
      </trkpt>
      <trkpt lat="43.74901" lon="1.53532">
        <ele>219.7998</ele>
        <time>2024-06-01T17:16:46+02:00</time>
      </trkpt>
      <trkpt lat="43.74896" lon="1.53549">
        <ele>219.40039</ele>
        <time>2024-06-01T17:16:50+02:00</time>
      </trkpt>
      <trkpt lat="43.74895" lon="1.53554">
        <ele>219.2002</ele>
        <time>2024-06-01T17:16:51+02:00</time>
      </trkpt>
      <trkpt lat="43.74891" lon="1.53574">
        <ele>218.90039</ele>
        <time>2024-06-01T17:16:55+02:00</time>
      </trkpt>
      <trkpt lat="43.7489" lon="1.53579">
        <ele>218.7998</ele>
        <time>2024-06-01T17:16:56+02:00</time>
      </trkpt>
      <trkpt lat="43.74885" lon="1.53603">
        <ele>218.7002</ele>
        <time>2024-06-01T17:17:00+02:00</time>
      </trkpt>
      <trkpt lat="43.74884" lon="1.53609">
        <ele>218.7002</ele>
        <time>2024-06-01T17:17:01+02:00</time>
      </trkpt>
      <trkpt lat="43.74877" lon="1.53637">
        <ele>218.7998</ele>
        <time>2024-06-01T17:17:05+02:00</time>
      </trkpt>
      <trkpt lat="43.74876" lon="1.53644">
        <ele>218.90039</ele>
        <time>2024-06-01T17:17:06+02:00</time>
      </trkpt>
      <trkpt lat="43.7487" lon="1.53672">
        <ele>219.2002</ele>
        <time>2024-06-01T17:17:10+02:00</time>
      </trkpt>
      <trkpt lat="43.74868" lon="1.53679">
        <ele>219.2002</ele>
        <time>2024-06-01T17:17:11+02:00</time>
      </trkpt>
      <trkpt lat="43.74863" lon="1.53703">
        <ele>219.40039</ele>
        <time>2024-06-01T17:17:15+02:00</time>
      </trkpt>
      <trkpt lat="43.74861" lon="1.5371">
        <ele>219.5</ele>
        <time>2024-06-01T17:17:16+02:00</time>
      </trkpt>
      <trkpt lat="43.74856" lon="1.53734">
        <ele>219.60059</ele>
        <time>2024-06-01T17:17:20+02:00</time>
      </trkpt>
      <trkpt lat="43.74855" lon="1.53737">
        <ele>219.60059</ele>
        <time>2024-06-01T17:17:21+02:00</time>
      </trkpt>
      <trkpt lat="43.74835" lon="1.53725">
        <ele>219.5</ele>
        <time>2024-06-01T17:17:25+02:00</time>
      </trkpt>
      <trkpt lat="43.74828" lon="1.53718">
        <ele>219.2002</ele>
        <time>2024-06-01T17:17:26+02:00</time>
      </trkpt>
      <trkpt lat="43.74802" lon="1.53687">
        <ele>216.90039</ele>
        <time>2024-06-01T17:17:30+02:00</time>
      </trkpt>
      <trkpt lat="43.74794" lon="1.53678">
        <ele>216.10059</ele>
        <time>2024-06-01T17:17:31+02:00</time>
      </trkpt>
      <trkpt lat="43.7476" lon="1.53634">
        <ele>211.7998</ele>
        <time>2024-06-01T17:17:35+02:00</time>
      </trkpt>
      <trkpt lat="43.74752" lon="1.53621">
        <ele>210.40039</ele>
        <time>2024-06-01T17:17:36+02:00</time>
      </trkpt>
      <trkpt lat="43.74736" lon="1.53599">
        <ele>208.60059</ele>
        <time>2024-06-01T17:17:38+02:00</time>
      </trkpt>
      <trkpt lat="43.74717" lon="1.53591">
        <ele>206.40039</ele>
        <time>2024-06-01T17:17:40+02:00</time>
      </trkpt>
      <trkpt lat="43.74707" lon="1.53591">
        <ele>205.2998</ele>
        <time>2024-06-01T17:17:41+02:00</time>
      </trkpt>
      <trkpt lat="43.74676" lon="1.53591">
        <ele>203.2998</ele>
        <time>2024-06-01T17:17:45+02:00</time>
      </trkpt>
      <trkpt lat="43.74671" lon="1.5359">
        <ele>202.7998</ele>
        <time>2024-06-01T17:17:46+02:00</time>
      </trkpt>
      <trkpt lat="43.74657" lon="1.53579">
        <ele>202.40039</ele>
        <time>2024-06-01T17:17:50+02:00</time>
      </trkpt>
      <trkpt lat="43.74654" lon="1.53576">
        <ele>202.7998</ele>
        <time>2024-06-01T17:17:51+02:00</time>
      </trkpt>
      <trkpt lat="43.74635" lon="1.53563">
        <ele>202.90039</ele>
        <time>2024-06-01T17:17:55+02:00</time>
      </trkpt>
      <trkpt lat="43.7463" lon="1.5356">
        <ele>202.90039</ele>
        <time>2024-06-01T17:17:56+02:00</time>
      </trkpt>
      <trkpt lat="43.74608" lon="1.53547">
        <ele>203.10059</ele>
        <time>2024-06-01T17:18:00+02:00</time>
      </trkpt>
      <trkpt lat="43.74602" lon="1.53543">
        <ele>202.90039</ele>
        <time>2024-06-01T17:18:01+02:00</time>
      </trkpt>
      <trkpt lat="43.74578" lon="1.53531">
        <ele>204.10059</ele>
        <time>2024-06-01T17:18:05+02:00</time>
      </trkpt>
      <trkpt lat="43.74571" lon="1.53528">
        <ele>204.10059</ele>
        <time>2024-06-01T17:18:06+02:00</time>
      </trkpt>
      <trkpt lat="43.74545" lon="1.53509">
        <ele>205</ele>
        <time>2024-06-01T17:18:10+02:00</time>
      </trkpt>
      <trkpt lat="43.74539" lon="1.53503">
        <ele>205.2002</ele>
        <time>2024-06-01T17:18:11+02:00</time>
      </trkpt>
      <trkpt lat="43.74514" lon="1.53477">
        <ele>204.40039</ele>
        <time>2024-06-01T17:18:15+02:00</time>
      </trkpt>
      <trkpt lat="43.74509" lon="1.53471">
        <ele>203.90039</ele>
        <time>2024-06-01T17:18:16+02:00</time>
      </trkpt>
      <trkpt lat="43.74488" lon="1.5345">
        <ele>202.7002</ele>
        <time>2024-06-01T17:18:20+02:00</time>
      </trkpt>
      <trkpt lat="43.74484" lon="1.53446">
        <ele>202.40039</ele>
        <time>2024-06-01T17:18:21+02:00</time>
      </trkpt>
      <trkpt lat="43.74466" lon="1.53428">
        <ele>201.60059</ele>
        <time>2024-06-01T17:18:25+02:00</time>
      </trkpt>
      <trkpt lat="43.74462" lon="1.53424">
        <ele>201.40039</ele>
        <time>2024-06-01T17:18:26+02:00</time>
      </trkpt>
      <trkpt lat="43.74445" lon="1.53407">
        <ele>201.2002</ele>
        <time>2024-06-01T17:18:30+02:00</time>
      </trkpt>
      <trkpt lat="43.74441" lon="1.53404">
        <ele>201.10059</ele>
        <time>2024-06-01T17:18:31+02:00</time>
      </trkpt>
      <trkpt lat="43.74424" lon="1.53388">
        <ele>201</ele>
        <time>2024-06-01T17:18:35+02:00</time>
      </trkpt>
      <trkpt lat="43.74419" lon="1.53385">
        <ele>201.10059</ele>
        <time>2024-06-01T17:18:36+02:00</time>
      </trkpt>
      <trkpt lat="43.744" lon="1.53372">
        <ele>201</ele>
        <time>2024-06-01T17:18:40+02:00</time>
      </trkpt>
      <trkpt lat="43.74395" lon="1.53369">
        <ele>201.2002</ele>
        <time>2024-06-01T17:18:41+02:00</time>
      </trkpt>
      <trkpt lat="43.74378" lon="1.53358">
        <ele>201.2998</ele>
        <time>2024-06-01T17:18:45+02:00</time>
      </trkpt>
      <trkpt lat="43.74375" lon="1.53356">
        <ele>201.2002</ele>
        <time>2024-06-01T17:18:46+02:00</time>
      </trkpt>
      <trkpt lat="43.74359" lon="1.53345">
        <ele>201.10059</ele>
        <time>2024-06-01T17:18:50+02:00</time>
      </trkpt>
      <trkpt lat="43.74356" lon="1.53342">
        <ele>201.10059</ele>
        <time>2024-06-01T17:18:51+02:00</time>
      </trkpt>
      <trkpt lat="43.74339" lon="1.53332">
        <ele>200.7998</ele>
        <time>2024-06-01T17:18:55+02:00</time>
      </trkpt>
      <trkpt lat="43.74335" lon="1.5333">
        <ele>200.7998</ele>
        <time>2024-06-01T17:18:56+02:00</time>
      </trkpt>
      <trkpt lat="43.74315" lon="1.53318">
        <ele>199.7998</ele>
        <time>2024-06-01T17:19:00+02:00</time>
      </trkpt>
      <trkpt lat="43.7431" lon="1.53314">
        <ele>199.7002</ele>
        <time>2024-06-01T17:19:01+02:00</time>
      </trkpt>
      <trkpt lat="43.74288" lon="1.53303">
        <ele>198.90039</ele>
        <time>2024-06-01T17:19:05+02:00</time>
      </trkpt>
      <trkpt lat="43.74282" lon="1.53301">
        <ele>198.5</ele>
        <time>2024-06-01T17:19:06+02:00</time>
      </trkpt>
      <trkpt lat="43.7426" lon="1.53292">
        <ele>198</ele>
        <time>2024-06-01T17:19:10+02:00</time>
      </trkpt>
      <trkpt lat="43.74255" lon="1.53289">
        <ele>197.7998</ele>
        <time>2024-06-01T17:19:11+02:00</time>
      </trkpt>
      <trkpt lat="43.7424" lon="1.53275">
        <ele>196.90039</ele>
        <time>2024-06-01T17:19:15+02:00</time>
      </trkpt>
      <trkpt lat="43.74236" lon="1.53272">
        <ele>196.7002</ele>
        <time>2024-06-01T17:19:16+02:00</time>
      </trkpt>
      <trkpt lat="43.74223" lon="1.53262">
        <ele>195.90039</ele>
        <time>2024-06-01T17:19:20+02:00</time>
      </trkpt>
      <trkpt lat="43.7422" lon="1.53259">
        <ele>195.60059</ele>
        <time>2024-06-01T17:19:21+02:00</time>
      </trkpt>
      <trkpt lat="43.7421" lon="1.5325">
        <ele>194.7998</ele>
        <time>2024-06-01T17:19:25+02:00</time>
      </trkpt>
      <trkpt lat="43.74208" lon="1.53247">
        <ele>194.5</ele>
        <time>2024-06-01T17:19:26+02:00</time>
      </trkpt>
      <trkpt lat="43.74198" lon="1.53238">
        <ele>194</ele>
        <time>2024-06-01T17:19:30+02:00</time>
      </trkpt>
      <trkpt lat="43.74195" lon="1.53235">
        <ele>193.60059</ele>
        <time>2024-06-01T17:19:31+02:00</time>
      </trkpt>
      <trkpt lat="43.74176" lon="1.53233">
        <ele>191.90039</ele>
        <time>2024-06-01T17:19:35+02:00</time>
      </trkpt>
      <trkpt lat="43.7417" lon="1.53232">
        <ele>191.2998</ele>
        <time>2024-06-01T17:19:36+02:00</time>
      </trkpt>
      <trkpt lat="43.74145" lon="1.53229">
        <ele>188.90039</ele>
        <time>2024-06-01T17:19:40+02:00</time>
      </trkpt>
      <trkpt lat="43.74139" lon="1.53229">
        <ele>188.2998</ele>
        <time>2024-06-01T17:19:41+02:00</time>
      </trkpt>
      <trkpt lat="43.74113" lon="1.53216">
        <ele>183.90039</ele>
        <time>2024-06-01T17:19:45+02:00</time>
      </trkpt>
      <trkpt lat="43.7411" lon="1.53213">
        <ele>183.7002</ele>
        <time>2024-06-01T17:19:46+02:00</time>
      </trkpt>
      <trkpt lat="43.74109" lon="1.53211">
        <ele>182.7002</ele>
        <time>2024-06-01T17:19:50+02:00</time>
      </trkpt>
      <trkpt lat="43.74109" lon="1.53211">
        <ele>183.7002</ele>
        <time>2024-06-01T17:19:51+02:00</time>
      </trkpt>
      <trkpt lat="43.74108" lon="1.53211">
        <ele>182.7002</ele>
        <time>2024-06-01T17:19:55+02:00</time>
      </trkpt>
      <trkpt lat="43.74106" lon="1.53209">
        <ele>182.7002</ele>
        <time>2024-06-01T17:19:56+02:00</time>
      </trkpt>
      <trkpt lat="43.74094" lon="1.53198">
        <ele>180.60059</ele>
        <time>2024-06-01T17:20:00+02:00</time>
      </trkpt>
      <trkpt lat="43.74091" lon="1.53196">
        <ele>180.60059</ele>
        <time>2024-06-01T17:20:01+02:00</time>
      </trkpt>
      <trkpt lat="43.74078" lon="1.53185">
        <ele>178.7998</ele>
        <time>2024-06-01T17:20:05+02:00</time>
      </trkpt>
      <trkpt lat="43.74075" lon="1.53182">
        <ele>177.7998</ele>
        <time>2024-06-01T17:20:06+02:00</time>
      </trkpt>
      <trkpt lat="43.74054" lon="1.53173">
        <ele>175</ele>
        <time>2024-06-01T17:20:10+02:00</time>
      </trkpt>
      <trkpt lat="43.74049" lon="1.53172">
        <ele>174.2002</ele>
        <time>2024-06-01T17:20:11+02:00</time>
      </trkpt>
      <trkpt lat="43.74033" lon="1.53168">
        <ele>171.90039</ele>
        <time>2024-06-01T17:20:15+02:00</time>
      </trkpt>
      <trkpt lat="43.74029" lon="1.53167">
        <ele>171.90039</ele>
        <time>2024-06-01T17:20:16+02:00</time>
      </trkpt>
      <trkpt lat="43.74015" lon="1.53165">
        <ele>169.7998</ele>
        <time>2024-06-01T17:20:20+02:00</time>
      </trkpt>
      <trkpt lat="43.74011" lon="1.53165">
        <ele>169.7998</ele>
        <time>2024-06-01T17:20:21+02:00</time>
      </trkpt>
      <trkpt lat="43.73982" lon="1.53161">
        <ele>166.2002</ele>
        <time>2024-06-01T17:20:25+02:00</time>
      </trkpt>
      <trkpt lat="43.73972" lon="1.53157">
        <ele>164.90039</ele>
        <time>2024-06-01T17:20:26+02:00</time>
      </trkpt>
      <trkpt lat="43.73941" lon="1.53146">
        <ele>161.2998</ele>
        <time>2024-06-01T17:20:30+02:00</time>
      </trkpt>
      <trkpt lat="43.73933" lon="1.53144">
        <ele>160.60059</ele>
        <time>2024-06-01T17:20:31+02:00</time>
      </trkpt>
      <trkpt lat="43.73903" lon="1.53131">
        <ele>157.10059</ele>
        <time>2024-06-01T17:20:35+02:00</time>
      </trkpt>
      <trkpt lat="43.73896" lon="1.53128">
        <ele>156.2998</ele>
        <time>2024-06-01T17:20:36+02:00</time>
      </trkpt>
      <trkpt lat="43.73868" lon="1.53118">
        <ele>155.7998</ele>
        <time>2024-06-01T17:20:40+02:00</time>
      </trkpt>
      <trkpt lat="43.73861" lon="1.53116">
        <ele>155.7002</ele>
        <time>2024-06-01T17:20:41+02:00</time>
      </trkpt>
      <trkpt lat="43.73833" lon="1.53115">
        <ele>156.7002</ele>
        <time>2024-06-01T17:20:45+02:00</time>
      </trkpt>
      <trkpt lat="43.73828" lon="1.53113">
        <ele>157.2002</ele>
        <time>2024-06-01T17:20:46+02:00</time>
      </trkpt>
      <trkpt lat="43.73812" lon="1.53101">
        <ele>157.2002</ele>
        <time>2024-06-01T17:20:50+02:00</time>
      </trkpt>
      <trkpt lat="43.73809" lon="1.53098">
        <ele>157.10059</ele>
        <time>2024-06-01T17:20:51+02:00</time>
      </trkpt>
      <trkpt lat="43.73797" lon="1.53087">
        <ele>157.90039</ele>
        <time>2024-06-01T17:20:55+02:00</time>
      </trkpt>
      <trkpt lat="43.73794" lon="1.53083">
        <ele>157.90039</ele>
        <time>2024-06-01T17:20:56+02:00</time>
      </trkpt>
      <trkpt lat="43.73781" lon="1.53069">
        <ele>158.2002</ele>
        <time>2024-06-01T17:21:00+02:00</time>
      </trkpt>
      <trkpt lat="43.73778" lon="1.53065">
        <ele>158</ele>
        <time>2024-06-01T17:21:01+02:00</time>
      </trkpt>
      <trkpt lat="43.73763" lon="1.53051">
        <ele>157.7998</ele>
        <time>2024-06-01T17:21:05+02:00</time>
      </trkpt>
      <trkpt lat="43.73759" lon="1.53047">
        <ele>157.5</ele>
        <time>2024-06-01T17:21:06+02:00</time>
      </trkpt>
      <trkpt lat="43.73744" lon="1.53036">
        <ele>157</ele>
        <time>2024-06-01T17:21:10+02:00</time>
      </trkpt>
      <trkpt lat="43.7374" lon="1.53033">
        <ele>157</ele>
        <time>2024-06-01T17:21:11+02:00</time>
      </trkpt>
      <trkpt lat="43.73726" lon="1.53025">
        <ele>156.7998</ele>
        <time>2024-06-01T17:21:15+02:00</time>
      </trkpt>
      <trkpt lat="43.73723" lon="1.53023">
        <ele>156.5</ele>
        <time>2024-06-01T17:21:16+02:00</time>
      </trkpt>
      <trkpt lat="43.7371" lon="1.53018">
        <ele>155.40039</ele>
        <time>2024-06-01T17:21:20+02:00</time>
      </trkpt>
      <trkpt lat="43.73706" lon="1.53016">
        <ele>155.40039</ele>
        <time>2024-06-01T17:21:21+02:00</time>
      </trkpt>
      <trkpt lat="43.73697" lon="1.53012">
        <ele>154.40039</ele>
        <time>2024-06-01T17:21:25+02:00</time>
      </trkpt>
      <trkpt lat="43.73696" lon="1.5301">
        <ele>154.40039</ele>
        <time>2024-06-01T17:21:26+02:00</time>
      </trkpt>
      <trkpt lat="43.73689" lon="1.53006">
        <ele>153.7998</ele>
        <time>2024-06-01T17:21:30+02:00</time>
      </trkpt>
      <trkpt lat="43.73686" lon="1.53005">
        <ele>153.2998</ele>
        <time>2024-06-01T17:21:31+02:00</time>
      </trkpt>
      <trkpt lat="43.73675" lon="1.53002">
        <ele>152.7998</ele>
        <time>2024-06-01T17:21:35+02:00</time>
      </trkpt>
      <trkpt lat="43.73671" lon="1.53001">
        <ele>152.7998</ele>
        <time>2024-06-01T17:21:36+02:00</time>
      </trkpt>
      <trkpt lat="43.73654" lon="1.52994">
        <ele>152.10059</ele>
        <time>2024-06-01T17:21:40+02:00</time>
      </trkpt>
      <trkpt lat="43.73651" lon="1.52992">
        <ele>152</ele>
        <time>2024-06-01T17:21:41+02:00</time>
      </trkpt>
      <trkpt lat="43.73636" lon="1.52985">
        <ele>151.2998</ele>
        <time>2024-06-01T17:21:45+02:00</time>
      </trkpt>
      <trkpt lat="43.73633" lon="1.52983">
        <ele>151.5</ele>
        <time>2024-06-01T17:21:46+02:00</time>
      </trkpt>
      <trkpt lat="43.73625" lon="1.52983">
        <ele>151.5</ele>
        <time>2024-06-01T17:21:50+02:00</time>
      </trkpt>
      <trkpt lat="43.73622" lon="1.52983">
        <ele>151.5</ele>
        <time>2024-06-01T17:21:51+02:00</time>
      </trkpt>
      <trkpt lat="43.73612" lon="1.52982">
        <ele>151.5</ele>
        <time>2024-06-01T17:21:55+02:00</time>
      </trkpt>
      <trkpt lat="43.7361" lon="1.52982">
        <ele>151.5</ele>
        <time>2024-06-01T17:21:56+02:00</time>
      </trkpt>
      <trkpt lat="43.73599" lon="1.5298">
        <ele>151.5</ele>
        <time>2024-06-01T17:22:00+02:00</time>
      </trkpt>
      <trkpt lat="43.73596" lon="1.52979">
        <ele>151.5</ele>
        <time>2024-06-01T17:22:01+02:00</time>
      </trkpt>
      <trkpt lat="43.73581" lon="1.52976">
        <ele>151.2998</ele>
        <time>2024-06-01T17:22:05+02:00</time>
      </trkpt>
      <trkpt lat="43.73578" lon="1.52976">
        <ele>151.40039</ele>
        <time>2024-06-01T17:22:06+02:00</time>
      </trkpt>
      <trkpt lat="43.73563" lon="1.52973">
        <ele>151</ele>
        <time>2024-06-01T17:22:10+02:00</time>
      </trkpt>
      <trkpt lat="43.7356" lon="1.52973">
        <ele>150.7998</ele>
        <time>2024-06-01T17:22:11+02:00</time>
      </trkpt>
      <trkpt lat="43.73551" lon="1.52973">
        <ele>150.2002</ele>
        <time>2024-06-01T17:22:15+02:00</time>
      </trkpt>
      <trkpt lat="43.73548" lon="1.52972">
        <ele>150.2002</ele>
        <time>2024-06-01T17:22:16+02:00</time>
      </trkpt>
      <trkpt lat="43.7354" lon="1.52974">
        <ele>149.7998</ele>
        <time>2024-06-01T17:22:20+02:00</time>
      </trkpt>
      <trkpt lat="43.73538" lon="1.52974">
        <ele>149.5</ele>
        <time>2024-06-01T17:22:21+02:00</time>
      </trkpt>
      <trkpt lat="43.73525" lon="1.5297">
        <ele>148.60059</ele>
        <time>2024-06-01T17:22:25+02:00</time>
      </trkpt>
      <trkpt lat="43.73521" lon="1.52969">
        <ele>148.60059</ele>
        <time>2024-06-01T17:22:26+02:00</time>
      </trkpt>
      <trkpt lat="43.73507" lon="1.52967">
        <ele>146.60059</ele>
        <time>2024-06-01T17:22:30+02:00</time>
      </trkpt>
      <trkpt lat="43.73503" lon="1.52966">
        <ele>146.60059</ele>
        <time>2024-06-01T17:22:31+02:00</time>
      </trkpt>
      <trkpt lat="43.73491" lon="1.52963">
        <ele>146</ele>
        <time>2024-06-01T17:22:35+02:00</time>
      </trkpt>
      <trkpt lat="43.73487" lon="1.52962">
        <ele>145.60059</ele>
        <time>2024-06-01T17:22:36+02:00</time>
      </trkpt>
      <trkpt lat="43.73471" lon="1.52957">
        <ele>144.7998</ele>
        <time>2024-06-01T17:22:40+02:00</time>
      </trkpt>
      <trkpt lat="43.73467" lon="1.52956">
        <ele>144.7002</ele>
        <time>2024-06-01T17:22:41+02:00</time>
      </trkpt>
      <trkpt lat="43.73449" lon="1.52952">
        <ele>144.90039</ele>
        <time>2024-06-01T17:22:45+02:00</time>
      </trkpt>
      <trkpt lat="43.73445" lon="1.5295">
        <ele>144.90039</ele>
        <time>2024-06-01T17:22:46+02:00</time>
      </trkpt>
      <trkpt lat="43.7343" lon="1.52942">
        <ele>145.40039</ele>
        <time>2024-06-01T17:22:50+02:00</time>
      </trkpt>
      <trkpt lat="43.73427" lon="1.5294">
        <ele>146</ele>
        <time>2024-06-01T17:22:51+02:00</time>
      </trkpt>
      <trkpt lat="43.73416" lon="1.5292">
        <ele>146.2002</ele>
        <time>2024-06-01T17:22:55+02:00</time>
      </trkpt>
      <trkpt lat="43.73414" lon="1.52915">
        <ele>146.2998</ele>
        <time>2024-06-01T17:22:56+02:00</time>
      </trkpt>
      <trkpt lat="43.73405" lon="1.52892">
        <ele>146.7998</ele>
        <time>2024-06-01T17:23:00+02:00</time>
      </trkpt>
      <trkpt lat="43.73402" lon="1.52887">
        <ele>147.2002</ele>
        <time>2024-06-01T17:23:01+02:00</time>
      </trkpt>
      <trkpt lat="43.73391" lon="1.52867">
        <ele>146.7002</ele>
        <time>2024-06-01T17:23:05+02:00</time>
      </trkpt>
      <trkpt lat="43.73387" lon="1.52863">
        <ele>146.40039</ele>
        <time>2024-06-01T17:23:06+02:00</time>
      </trkpt>
      <trkpt lat="43.73372" lon="1.5285">
        <ele>145.2998</ele>
        <time>2024-06-01T17:23:10+02:00</time>
      </trkpt>
      <trkpt lat="43.73368" lon="1.52847">
        <ele>145</ele>
        <time>2024-06-01T17:23:11+02:00</time>
      </trkpt>
      <trkpt lat="43.73357" lon="1.52839">
        <ele>144.40039</ele>
        <time>2024-06-01T17:23:15+02:00</time>
      </trkpt>
      <trkpt lat="43.73356" lon="1.52838">
        <ele>144.40039</ele>
        <time>2024-06-01T17:23:16+02:00</time>
      </trkpt>
      <trkpt lat="43.73353" lon="1.52835">
        <ele>144.40039</ele>
        <time>2024-06-01T17:23:20+02:00</time>
      </trkpt>
      <trkpt lat="43.73352" lon="1.52834">
        <ele>144.40039</ele>
        <time>2024-06-01T17:23:21+02:00</time>
      </trkpt>
      <trkpt lat="43.73352" lon="1.52829">
        <ele>144.2998</ele>
        <time>2024-06-01T17:23:25+02:00</time>
      </trkpt>
      <trkpt lat="43.73351" lon="1.52827">
        <ele>144.2998</ele>
        <time>2024-06-01T17:23:26+02:00</time>
      </trkpt>
      <trkpt lat="43.7335" lon="1.52818">
        <ele>144.5</ele>
        <time>2024-06-01T17:23:30+02:00</time>
      </trkpt>
      <trkpt lat="43.73349" lon="1.52815">
        <ele>144.5</ele>
        <time>2024-06-01T17:23:31+02:00</time>
      </trkpt>
      <trkpt lat="43.73347" lon="1.52798">
        <ele>145.10059</ele>
        <time>2024-06-01T17:23:35+02:00</time>
      </trkpt>
      <trkpt lat="43.73346" lon="1.52792">
        <ele>145</ele>
        <time>2024-06-01T17:23:36+02:00</time>
      </trkpt>
      <trkpt lat="43.73338" lon="1.52769">
        <ele>145.7002</ele>
        <time>2024-06-01T17:23:40+02:00</time>
      </trkpt>
      <trkpt lat="43.73335" lon="1.52763">
        <ele>145.7002</ele>
        <time>2024-06-01T17:23:41+02:00</time>
      </trkpt>
      <trkpt lat="43.73322" lon="1.52738">
        <ele>145.90039</ele>
        <time>2024-06-01T17:23:45+02:00</time>
      </trkpt>
      <trkpt lat="43.73319" lon="1.52731">
        <ele>145.7998</ele>
        <time>2024-06-01T17:23:46+02:00</time>
      </trkpt>
      <trkpt lat="43.73306" lon="1.52702">
        <ele>146</ele>
        <time>2024-06-01T17:23:50+02:00</time>
      </trkpt>
      <trkpt lat="43.73303" lon="1.52695">
        <ele>146.40039</ele>
        <time>2024-06-01T17:23:51+02:00</time>
      </trkpt>
      <trkpt lat="43.73291" lon="1.52665">
        <ele>146.7998</ele>
        <time>2024-06-01T17:23:55+02:00</time>
      </trkpt>
      <trkpt lat="43.73288" lon="1.52658">
        <ele>146.60059</ele>
        <time>2024-06-01T17:23:56+02:00</time>
      </trkpt>
      <trkpt lat="43.73278" lon="1.5263">
        <ele>147</ele>
        <time>2024-06-01T17:24:00+02:00</time>
      </trkpt>
      <trkpt lat="43.73276" lon="1.52623">
        <ele>146.7002</ele>
        <time>2024-06-01T17:24:01+02:00</time>
      </trkpt>
      <trkpt lat="43.73265" lon="1.52595">
        <ele>146.2002</ele>
        <time>2024-06-01T17:24:05+02:00</time>
      </trkpt>
      <trkpt lat="43.73262" lon="1.52588">
        <ele>146.40039</ele>
        <time>2024-06-01T17:24:06+02:00</time>
      </trkpt>
      <trkpt lat="43.7325" lon="1.5256">
        <ele>146.2002</ele>
        <time>2024-06-01T17:24:10+02:00</time>
      </trkpt>
      <trkpt lat="43.73247" lon="1.52553">
        <ele>146</ele>
        <time>2024-06-01T17:24:11+02:00</time>
      </trkpt>
      <trkpt lat="43.73232" lon="1.52529">
        <ele>145.5</ele>
        <time>2024-06-01T17:24:15+02:00</time>
      </trkpt>
      <trkpt lat="43.73228" lon="1.52524">
        <ele>145.40039</ele>
        <time>2024-06-01T17:24:16+02:00</time>
      </trkpt>
      <trkpt lat="43.73219" lon="1.52499">
        <ele>145.10059</ele>
        <time>2024-06-01T17:24:20+02:00</time>
      </trkpt>
      <trkpt lat="43.73216" lon="1.52493">
        <ele>145</ele>
        <time>2024-06-01T17:24:21+02:00</time>
      </trkpt>
      <trkpt lat="43.73202" lon="1.52467">
        <ele>144.5</ele>
        <time>2024-06-01T17:24:25+02:00</time>
      </trkpt>
      <trkpt lat="43.73199" lon="1.5246">
        <ele>144.5</ele>
        <time>2024-06-01T17:24:26+02:00</time>
      </trkpt>
      <trkpt lat="43.73182" lon="1.52434">
        <ele>143.90039</ele>
        <time>2024-06-01T17:24:30+02:00</time>
      </trkpt>
      <trkpt lat="43.73178" lon="1.52428">
        <ele>143.90039</ele>
        <time>2024-06-01T17:24:31+02:00</time>
      </trkpt>
      <trkpt lat="43.7316" lon="1.52408">
        <ele>143.7002</ele>
        <time>2024-06-01T17:24:35+02:00</time>
      </trkpt>
      <trkpt lat="43.73155" lon="1.52403">
        <ele>143.7002</ele>
        <time>2024-06-01T17:24:36+02:00</time>
      </trkpt>
      <trkpt lat="43.73137" lon="1.52382">
        <ele>144.10059</ele>
        <time>2024-06-01T17:24:40+02:00</time>
      </trkpt>
      <trkpt lat="43.73133" lon="1.52377">
        <ele>144</ele>
        <time>2024-06-01T17:24:41+02:00</time>
      </trkpt>
      <trkpt lat="43.73115" lon="1.52357">
        <ele>144.40039</ele>
        <time>2024-06-01T17:24:45+02:00</time>
      </trkpt>
      <trkpt lat="43.73111" lon="1.52352">
        <ele>144.40039</ele>
        <time>2024-06-01T17:24:46+02:00</time>
      </trkpt>
      <trkpt lat="43.73094" lon="1.52331">
        <ele>144.40039</ele>
        <time>2024-06-01T17:24:50+02:00</time>
      </trkpt>
      <trkpt lat="43.7309" lon="1.52325">
        <ele>144.40039</ele>
        <time>2024-06-01T17:24:51+02:00</time>
      </trkpt>
      <trkpt lat="43.73073" lon="1.52303">
        <ele>144.2002</ele>
        <time>2024-06-01T17:24:55+02:00</time>
      </trkpt>
      <trkpt lat="43.73069" lon="1.52297">
        <ele>144.10059</ele>
        <time>2024-06-01T17:24:56+02:00</time>
      </trkpt>
      <trkpt lat="43.73054" lon="1.52276">
        <ele>143.7998</ele>
        <time>2024-06-01T17:25:00+02:00</time>
      </trkpt>
      <trkpt lat="43.7305" lon="1.52271">
        <ele>143.7998</ele>
        <time>2024-06-01T17:25:01+02:00</time>
      </trkpt>
      <trkpt lat="43.73034" lon="1.52249">
        <ele>143.2002</ele>
        <time>2024-06-01T17:25:05+02:00</time>
      </trkpt>
      <trkpt lat="43.7303" lon="1.52244">
        <ele>143.2998</ele>
        <time>2024-06-01T17:25:06+02:00</time>
      </trkpt>
      <trkpt lat="43.73013" lon="1.52231">
        <ele>143.10059</ele>
        <time>2024-06-01T17:25:10+02:00</time>
      </trkpt>
      <trkpt lat="43.73009" lon="1.52229">
        <ele>143.2002</ele>
        <time>2024-06-01T17:25:11+02:00</time>
      </trkpt>
      <trkpt lat="43.72994" lon="1.52229">
        <ele>143</ele>
        <time>2024-06-01T17:25:15+02:00</time>
      </trkpt>
      <trkpt lat="43.7299" lon="1.5223">
        <ele>142.7002</ele>
        <time>2024-06-01T17:25:16+02:00</time>
      </trkpt>
      <trkpt lat="43.72977" lon="1.52238">
        <ele>142.7002</ele>
        <time>2024-06-01T17:25:20+02:00</time>
      </trkpt>
      <trkpt lat="43.72975" lon="1.52239">
        <ele>142.5</ele>
        <time>2024-06-01T17:25:21+02:00</time>
      </trkpt>
      <trkpt lat="43.72967" lon="1.52243">
        <ele>142.40039</ele>
        <time>2024-06-01T17:25:25+02:00</time>
      </trkpt>
      <trkpt lat="43.72964" lon="1.52244">
        <ele>142.40039</ele>
        <time>2024-06-01T17:25:26+02:00</time>
      </trkpt>
      <trkpt lat="43.72954" lon="1.52247">
        <ele>142.2002</ele>
        <time>2024-06-01T17:25:30+02:00</time>
      </trkpt>
      <trkpt lat="43.72951" lon="1.52248">
        <ele>142.2002</ele>
        <time>2024-06-01T17:25:31+02:00</time>
      </trkpt>
      <trkpt lat="43.7294" lon="1.5225">
        <ele>142.10059</ele>
        <time>2024-06-01T17:25:35+02:00</time>
      </trkpt>
      <trkpt lat="43.72938" lon="1.5225">
        <ele>142.10059</ele>
        <time>2024-06-01T17:25:36+02:00</time>
      </trkpt>
      <trkpt lat="43.72928" lon="1.52253">
        <ele>142.2002</ele>
        <time>2024-06-01T17:25:40+02:00</time>
      </trkpt>
      <trkpt lat="43.72926" lon="1.52253">
        <ele>142.2002</ele>
        <time>2024-06-01T17:25:41+02:00</time>
      </trkpt>
      <trkpt lat="43.72915" lon="1.52256">
        <ele>142.10059</ele>
        <time>2024-06-01T17:25:45+02:00</time>
      </trkpt>
      <trkpt lat="43.72913" lon="1.52256">
        <ele>142.10059</ele>
        <time>2024-06-01T17:25:46+02:00</time>
      </trkpt>
      <trkpt lat="43.72903" lon="1.52259">
        <ele>141.90039</ele>
        <time>2024-06-01T17:25:50+02:00</time>
      </trkpt>
      <trkpt lat="43.729" lon="1.52259">
        <ele>141.90039</ele>
        <time>2024-06-01T17:25:51+02:00</time>
      </trkpt>
      <trkpt lat="43.7289" lon="1.52258">
        <ele>141.90039</ele>
        <time>2024-06-01T17:25:55+02:00</time>
      </trkpt>
      <trkpt lat="43.72887" lon="1.52258">
        <ele>141.7998</ele>
        <time>2024-06-01T17:25:56+02:00</time>
      </trkpt>
      <trkpt lat="43.72874" lon="1.52258">
        <ele>141.7998</ele>
        <time>2024-06-01T17:26:00+02:00</time>
      </trkpt>
      <trkpt lat="43.72871" lon="1.52257">
        <ele>141.7998</ele>
        <time>2024-06-01T17:26:01+02:00</time>
      </trkpt>
      <trkpt lat="43.72859" lon="1.52255">
        <ele>141.60059</ele>
        <time>2024-06-01T17:26:05+02:00</time>
      </trkpt>
      <trkpt lat="43.72857" lon="1.52254">
        <ele>141.60059</ele>
        <time>2024-06-01T17:26:06+02:00</time>
      </trkpt>
      <trkpt lat="43.72844" lon="1.52247">
        <ele>141.40039</ele>
        <time>2024-06-01T17:26:10+02:00</time>
      </trkpt>
      <trkpt lat="43.72841" lon="1.52245">
        <ele>141.40039</ele>
        <time>2024-06-01T17:26:11+02:00</time>
      </trkpt>
      <trkpt lat="43.72829" lon="1.52237">
        <ele>141.40039</ele>
        <time>2024-06-01T17:26:15+02:00</time>
      </trkpt>
      <trkpt lat="43.72827" lon="1.52235">
        <ele>141.40039</ele>
        <time>2024-06-01T17:26:16+02:00</time>
      </trkpt>
      <trkpt lat="43.72815" lon="1.52228">
        <ele>141.2998</ele>
        <time>2024-06-01T17:26:20+02:00</time>
      </trkpt>
      <trkpt lat="43.72812" lon="1.52226">
        <ele>141.10059</ele>
        <time>2024-06-01T17:26:21+02:00</time>
      </trkpt>
      <trkpt lat="43.72801" lon="1.52216">
        <ele>141.10059</ele>
        <time>2024-06-01T17:26:25+02:00</time>
      </trkpt>
      <trkpt lat="43.72799" lon="1.52213">
        <ele>141</ele>
        <time>2024-06-01T17:26:26+02:00</time>
      </trkpt>
      <trkpt lat="43.7279" lon="1.52198">
        <ele>141.5</ele>
        <time>2024-06-01T17:26:30+02:00</time>
      </trkpt>
      <trkpt lat="43.72788" lon="1.52194">
        <ele>141.90039</ele>
        <time>2024-06-01T17:26:31+02:00</time>
      </trkpt>
      <trkpt lat="43.72781" lon="1.52177">
        <ele>142.2998</ele>
        <time>2024-06-01T17:26:35+02:00</time>
      </trkpt>
      <trkpt lat="43.7278" lon="1.52173">
        <ele>142.2998</ele>
        <time>2024-06-01T17:26:36+02:00</time>
      </trkpt>
      <trkpt lat="43.72772" lon="1.5216">
        <ele>143</ele>
        <time>2024-06-01T17:26:40+02:00</time>
      </trkpt>
      <trkpt lat="43.7277" lon="1.52157">
        <ele>143</ele>
        <time>2024-06-01T17:26:41+02:00</time>
      </trkpt>
      <trkpt lat="43.72762" lon="1.52144">
        <ele>143.10059</ele>
        <time>2024-06-01T17:26:45+02:00</time>
      </trkpt>
      <trkpt lat="43.72759" lon="1.52141">
        <ele>143.5</ele>
        <time>2024-06-01T17:26:46+02:00</time>
      </trkpt>
      <trkpt lat="43.72749" lon="1.5213">
        <ele>143.60059</ele>
        <time>2024-06-01T17:26:50+02:00</time>
      </trkpt>
      <trkpt lat="43.72747" lon="1.52127">
        <ele>143.60059</ele>
        <time>2024-06-01T17:26:51+02:00</time>
      </trkpt>
      <trkpt lat="43.72737" lon="1.52116">
        <ele>144</ele>
        <time>2024-06-01T17:26:55+02:00</time>
      </trkpt>
      <trkpt lat="43.72734" lon="1.52114">
        <ele>144</ele>
        <time>2024-06-01T17:26:56+02:00</time>
      </trkpt>
      <trkpt lat="43.72722" lon="1.521">
        <ele>144.5</ele>
        <time>2024-06-01T17:27:00+02:00</time>
      </trkpt>
      <trkpt lat="43.72719" lon="1.52096">
        <ele>144.2002</ele>
        <time>2024-06-01T17:27:01+02:00</time>
      </trkpt>
      <trkpt lat="43.72703" lon="1.52079">
        <ele>144.7002</ele>
        <time>2024-06-01T17:27:05+02:00</time>
      </trkpt>
      <trkpt lat="43.72699" lon="1.52075">
        <ele>144.40039</ele>
        <time>2024-06-01T17:27:06+02:00</time>
      </trkpt>
      <trkpt lat="43.72683" lon="1.52058">
        <ele>144.7002</ele>
        <time>2024-06-01T17:27:10+02:00</time>
      </trkpt>
      <trkpt lat="43.72679" lon="1.52054">
        <ele>144.7002</ele>
        <time>2024-06-01T17:27:11+02:00</time>
      </trkpt>
      <trkpt lat="43.72663" lon="1.52036">
        <ele>144.2002</ele>
        <time>2024-06-01T17:27:15+02:00</time>
      </trkpt>
      <trkpt lat="43.7266" lon="1.52032">
        <ele>144.2998</ele>
        <time>2024-06-01T17:27:16+02:00</time>
      </trkpt>
      <trkpt lat="43.72644" lon="1.52013">
        <ele>143.40039</ele>
        <time>2024-06-01T17:27:20+02:00</time>
      </trkpt>
      <trkpt lat="43.72641" lon="1.52008">
        <ele>143.40039</ele>
        <time>2024-06-01T17:27:21+02:00</time>
      </trkpt>
      <trkpt lat="43.72626" lon="1.51986">
        <ele>142.2002</ele>
        <time>2024-06-01T17:27:25+02:00</time>
      </trkpt>
      <trkpt lat="43.72622" lon="1.5198">
        <ele>142.2002</ele>
        <time>2024-06-01T17:27:26+02:00</time>
      </trkpt>
      <trkpt lat="43.72606" lon="1.51956">
        <ele>140.90039</ele>
        <time>2024-06-01T17:27:30+02:00</time>
      </trkpt>
      <trkpt lat="43.72602" lon="1.5195">
        <ele>140.7998</ele>
        <time>2024-06-01T17:27:31+02:00</time>
      </trkpt>
      <trkpt lat="43.72586" lon="1.51926">
        <ele>139.5</ele>
        <time>2024-06-01T17:27:35+02:00</time>
      </trkpt>
      <trkpt lat="43.72582" lon="1.5192">
        <ele>139.2002</ele>
        <time>2024-06-01T17:27:36+02:00</time>
      </trkpt>
      <trkpt lat="43.72565" lon="1.519">
        <ele>138.40039</ele>
        <time>2024-06-01T17:27:40+02:00</time>
      </trkpt>
      <trkpt lat="43.72562" lon="1.51895">
        <ele>138.2002</ele>
        <time>2024-06-01T17:27:41+02:00</time>
      </trkpt>
      <trkpt lat="43.72547" lon="1.51877">
        <ele>137.60059</ele>
        <time>2024-06-01T17:27:45+02:00</time>
      </trkpt>
      <trkpt lat="43.72543" lon="1.51873">
        <ele>137.5</ele>
        <time>2024-06-01T17:27:46+02:00</time>
      </trkpt>
      <trkpt lat="43.72527" lon="1.51859">
        <ele>137.10059</ele>
        <time>2024-06-01T17:27:50+02:00</time>
      </trkpt>
      <trkpt lat="43.72523" lon="1.51855">
        <ele>137.10059</ele>
        <time>2024-06-01T17:27:51+02:00</time>
      </trkpt>
      <trkpt lat="43.72505" lon="1.51841">
        <ele>136.60059</ele>
        <time>2024-06-01T17:27:55+02:00</time>
      </trkpt>
      <trkpt lat="43.72501" lon="1.51837">
        <ele>136.5</ele>
        <time>2024-06-01T17:27:56+02:00</time>
      </trkpt>
      <trkpt lat="43.72484" lon="1.51823">
        <ele>136.10059</ele>
        <time>2024-06-01T17:28:00+02:00</time>
      </trkpt>
      <trkpt lat="43.7248" lon="1.51819">
        <ele>136</ele>
        <time>2024-06-01T17:28:01+02:00</time>
      </trkpt>
      <trkpt lat="43.72462" lon="1.51805">
        <ele>135.2998</ele>
        <time>2024-06-01T17:28:05+02:00</time>
      </trkpt>
      <trkpt lat="43.72458" lon="1.51802">
        <ele>135.2002</ele>
        <time>2024-06-01T17:28:06+02:00</time>
      </trkpt>
      <trkpt lat="43.72442" lon="1.51786">
        <ele>134.7002</ele>
        <time>2024-06-01T17:28:10+02:00</time>
      </trkpt>
      <trkpt lat="43.7244" lon="1.5178">
        <ele>134.40039</ele>
        <time>2024-06-01T17:28:11+02:00</time>
      </trkpt>
      <trkpt lat="43.72442" lon="1.51753">
        <ele>134.2002</ele>
        <time>2024-06-01T17:28:15+02:00</time>
      </trkpt>
      <trkpt lat="43.72442" lon="1.51746">
        <ele>134.10059</ele>
        <time>2024-06-01T17:28:16+02:00</time>
      </trkpt>
      <trkpt lat="43.72442" lon="1.51717">
        <ele>133.7998</ele>
        <time>2024-06-01T17:28:20+02:00</time>
      </trkpt>
      <trkpt lat="43.72442" lon="1.5171">
        <ele>133.7998</ele>
        <time>2024-06-01T17:28:21+02:00</time>
      </trkpt>
      <trkpt lat="43.72441" lon="1.51683">
        <ele>133.5</ele>
        <time>2024-06-01T17:28:25+02:00</time>
      </trkpt>
      <trkpt lat="43.72441" lon="1.51676">
        <ele>133.40039</ele>
        <time>2024-06-01T17:28:26+02:00</time>
      </trkpt>
      <trkpt lat="43.72441" lon="1.51645">
        <ele>133.10059</ele>
        <time>2024-06-01T17:28:30+02:00</time>
      </trkpt>
      <trkpt lat="43.72441" lon="1.51636">
        <ele>133</ele>
        <time>2024-06-01T17:28:31+02:00</time>
      </trkpt>
      <trkpt lat="43.72445" lon="1.51603">
        <ele>132.60059</ele>
        <time>2024-06-01T17:28:35+02:00</time>
      </trkpt>
      <trkpt lat="43.72447" lon="1.51595">
        <ele>132.5</ele>
        <time>2024-06-01T17:28:36+02:00</time>
      </trkpt>
      <trkpt lat="43.72461" lon="1.51567">
        <ele>132.2998</ele>
        <time>2024-06-01T17:28:40+02:00</time>
      </trkpt>
      <trkpt lat="43.72464" lon="1.51561">
        <ele>132.2998</ele>
        <time>2024-06-01T17:28:41+02:00</time>
      </trkpt>
      <trkpt lat="43.72475" lon="1.51533">
        <ele>132.2998</ele>
        <time>2024-06-01T17:28:45+02:00</time>
      </trkpt>
      <trkpt lat="43.72477" lon="1.51526">
        <ele>132.2998</ele>
        <time>2024-06-01T17:28:46+02:00</time>
      </trkpt>
      <trkpt lat="43.72485" lon="1.51495">
        <ele>132.2002</ele>
        <time>2024-06-01T17:28:50+02:00</time>
      </trkpt>
      <trkpt lat="43.72486" lon="1.51487">
        <ele>132.2002</ele>
        <time>2024-06-01T17:28:51+02:00</time>
      </trkpt>
      <trkpt lat="43.72494" lon="1.51456">
        <ele>131.7998</ele>
        <time>2024-06-01T17:28:55+02:00</time>
      </trkpt>
      <trkpt lat="43.72497" lon="1.51448">
        <ele>131.7998</ele>
        <time>2024-06-01T17:28:56+02:00</time>
      </trkpt>
      <trkpt lat="43.72508" lon="1.51419">
        <ele>131.7002</ele>
        <time>2024-06-01T17:29:00+02:00</time>
      </trkpt>
      <trkpt lat="43.72511" lon="1.51414">
        <ele>131.7002</ele>
        <time>2024-06-01T17:29:01+02:00</time>
      </trkpt>
      <trkpt lat="43.72525" lon="1.51403">
        <ele>131.90039</ele>
        <time>2024-06-01T17:29:05+02:00</time>
      </trkpt>
      <trkpt lat="43.72529" lon="1.51401">
        <ele>132</ele>
        <time>2024-06-01T17:29:06+02:00</time>
      </trkpt>
      <trkpt lat="43.7253" lon="1.51383">
        <ele>132</ele>
        <time>2024-06-01T17:29:10+02:00</time>
      </trkpt>
      <trkpt lat="43.72526" lon="1.51377">
        <ele>132</ele>
        <time>2024-06-01T17:29:11+02:00</time>
      </trkpt>
      <trkpt lat="43.72513" lon="1.51352">
        <ele>132</ele>
        <time>2024-06-01T17:29:15+02:00</time>
      </trkpt>
      <trkpt lat="43.7251" lon="1.51346">
        <ele>132</ele>
        <time>2024-06-01T17:29:16+02:00</time>
      </trkpt>
      <trkpt lat="43.72497" lon="1.51325">
        <ele>132.10059</ele>
        <time>2024-06-01T17:29:20+02:00</time>
      </trkpt>
      <trkpt lat="43.72494" lon="1.51319">
        <ele>132</ele>
        <time>2024-06-01T17:29:21+02:00</time>
      </trkpt>
      <trkpt lat="43.72482" lon="1.51297">
        <ele>131.90039</ele>
        <time>2024-06-01T17:29:25+02:00</time>
      </trkpt>
      <trkpt lat="43.72479" lon="1.51292">
        <ele>131.7998</ele>
        <time>2024-06-01T17:29:26+02:00</time>
      </trkpt>
      <trkpt lat="43.72465" lon="1.5127">
        <ele>131.7998</ele>
        <time>2024-06-01T17:29:30+02:00</time>
      </trkpt>
      <trkpt lat="43.72461" lon="1.51264">
        <ele>131.7998</ele>
        <time>2024-06-01T17:29:31+02:00</time>
      </trkpt>
      <trkpt lat="43.72445" lon="1.51242">
        <ele>132.40039</ele>
        <time>2024-06-01T17:29:35+02:00</time>
      </trkpt>
      <trkpt lat="43.72442" lon="1.51235">
        <ele>132.40039</ele>
        <time>2024-06-01T17:29:36+02:00</time>
      </trkpt>
      <trkpt lat="43.72429" lon="1.51206">
        <ele>132.7998</ele>
        <time>2024-06-01T17:29:40+02:00</time>
      </trkpt>
      <trkpt lat="43.72425" lon="1.51199">
        <ele>132.7002</ele>
        <time>2024-06-01T17:29:41+02:00</time>
      </trkpt>
      <trkpt lat="43.7241" lon="1.51172">
        <ele>133</ele>
        <time>2024-06-01T17:29:45+02:00</time>
      </trkpt>
      <trkpt lat="43.72407" lon="1.51165">
        <ele>133</ele>
        <time>2024-06-01T17:29:46+02:00</time>
      </trkpt>
      <trkpt lat="43.72395" lon="1.51136">
        <ele>133.2002</ele>
        <time>2024-06-01T17:29:50+02:00</time>
      </trkpt>
      <trkpt lat="43.72392" lon="1.51129">
        <ele>133.2002</ele>
        <time>2024-06-01T17:29:51+02:00</time>
      </trkpt>
      <trkpt lat="43.72377" lon="1.51099">
        <ele>133.40039</ele>
        <time>2024-06-01T17:29:55+02:00</time>
      </trkpt>
      <trkpt lat="43.72373" lon="1.51091">
        <ele>133.40039</ele>
        <time>2024-06-01T17:29:56+02:00</time>
      </trkpt>
      <trkpt lat="43.72358" lon="1.51063">
        <ele>133.5</ele>
        <time>2024-06-01T17:30:00+02:00</time>
      </trkpt>
      <trkpt lat="43.72355" lon="1.51056">
        <ele>133.5</ele>
        <time>2024-06-01T17:30:01+02:00</time>
      </trkpt>
      <trkpt lat="43.72341" lon="1.51029">
        <ele>133.2998</ele>
        <time>2024-06-01T17:30:05+02:00</time>
      </trkpt>
      <trkpt lat="43.72338" lon="1.51022">
        <ele>133.2998</ele>
        <time>2024-06-01T17:30:06+02:00</time>
      </trkpt>
      <trkpt lat="43.72325" lon="1.50995">
        <ele>133.10059</ele>
        <time>2024-06-01T17:30:10+02:00</time>
      </trkpt>
      <trkpt lat="43.72322" lon="1.50987">
        <ele>133.10059</ele>
        <time>2024-06-01T17:30:11+02:00</time>
      </trkpt>
      <trkpt lat="43.7231" lon="1.50959">
        <ele>133.10059</ele>
        <time>2024-06-01T17:30:15+02:00</time>
      </trkpt>
      <trkpt lat="43.72306" lon="1.50952">
        <ele>133.10059</ele>
        <time>2024-06-01T17:30:16+02:00</time>
      </trkpt>
      <trkpt lat="43.72293" lon="1.50926">
        <ele>133.10059</ele>
        <time>2024-06-01T17:30:20+02:00</time>
      </trkpt>
      <trkpt lat="43.72289" lon="1.5092">
        <ele>133</ele>
        <time>2024-06-01T17:30:21+02:00</time>
      </trkpt>
      <trkpt lat="43.72269" lon="1.50899">
        <ele>132.7998</ele>
        <time>2024-06-01T17:30:25+02:00</time>
      </trkpt>
      <trkpt lat="43.72264" lon="1.50894">
        <ele>132.60059</ele>
        <time>2024-06-01T17:30:26+02:00</time>
      </trkpt>
      <trkpt lat="43.72244" lon="1.50875">
        <ele>132.40039</ele>
        <time>2024-06-01T17:30:30+02:00</time>
      </trkpt>
      <trkpt lat="43.72239" lon="1.5087">
        <ele>132.2002</ele>
        <time>2024-06-01T17:30:31+02:00</time>
      </trkpt>
      <trkpt lat="43.72219" lon="1.5085">
        <ele>132.2002</ele>
        <time>2024-06-01T17:30:35+02:00</time>
      </trkpt>
      <trkpt lat="43.72214" lon="1.50846">
        <ele>132.2002</ele>
        <time>2024-06-01T17:30:36+02:00</time>
      </trkpt>
      <trkpt lat="43.72194" lon="1.50826">
        <ele>132.5</ele>
        <time>2024-06-01T17:30:40+02:00</time>
      </trkpt>
      <trkpt lat="43.72189" lon="1.50821">
        <ele>132.7002</ele>
        <time>2024-06-01T17:30:41+02:00</time>
      </trkpt>
      <trkpt lat="43.72171" lon="1.50799">
        <ele>133.2002</ele>
        <time>2024-06-01T17:30:45+02:00</time>
      </trkpt>
      <trkpt lat="43.72167" lon="1.50794">
        <ele>133.40039</ele>
        <time>2024-06-01T17:30:46+02:00</time>
      </trkpt>
      <trkpt lat="43.72151" lon="1.5077">
        <ele>133.7998</ele>
        <time>2024-06-01T17:30:50+02:00</time>
      </trkpt>
      <trkpt lat="43.72147" lon="1.50765">
        <ele>133.90039</ele>
        <time>2024-06-01T17:30:51+02:00</time>
      </trkpt>
      <trkpt lat="43.7213" lon="1.50742">
        <ele>134.10059</ele>
        <time>2024-06-01T17:30:55+02:00</time>
      </trkpt>
      <trkpt lat="43.72125" lon="1.50736">
        <ele>134.10059</ele>
        <time>2024-06-01T17:30:56+02:00</time>
      </trkpt>
      <trkpt lat="43.72108" lon="1.50715">
        <ele>134.10059</ele>
        <time>2024-06-01T17:31:00+02:00</time>
      </trkpt>
      <trkpt lat="43.72104" lon="1.5071">
        <ele>134.10059</ele>
        <time>2024-06-01T17:31:01+02:00</time>
      </trkpt>
      <trkpt lat="43.72084" lon="1.50693">
        <ele>134.10059</ele>
        <time>2024-06-01T17:31:05+02:00</time>
      </trkpt>
      <trkpt lat="43.72079" lon="1.50688">
        <ele>134.2002</ele>
        <time>2024-06-01T17:31:06+02:00</time>
      </trkpt>
      <trkpt lat="43.72059" lon="1.50673">
        <ele>134.2998</ele>
        <time>2024-06-01T17:31:10+02:00</time>
      </trkpt>
      <trkpt lat="43.72054" lon="1.50669">
        <ele>134.40039</ele>
        <time>2024-06-01T17:31:11+02:00</time>
      </trkpt>
      <trkpt lat="43.72034" lon="1.50654">
        <ele>134.60059</ele>
        <time>2024-06-01T17:31:15+02:00</time>
      </trkpt>
      <trkpt lat="43.7203" lon="1.50649">
        <ele>134.7002</ele>
        <time>2024-06-01T17:31:16+02:00</time>
      </trkpt>
      <trkpt lat="43.7201" lon="1.50632">
        <ele>134.90039</ele>
        <time>2024-06-01T17:31:20+02:00</time>
      </trkpt>
      <trkpt lat="43.72006" lon="1.50627">
        <ele>135</ele>
        <time>2024-06-01T17:31:21+02:00</time>
      </trkpt>
      <trkpt lat="43.71988" lon="1.50607">
        <ele>135.2002</ele>
        <time>2024-06-01T17:31:25+02:00</time>
      </trkpt>
      <trkpt lat="43.71983" lon="1.50602">
        <ele>135.2002</ele>
        <time>2024-06-01T17:31:26+02:00</time>
      </trkpt>
      <trkpt lat="43.71967" lon="1.5058">
        <ele>135.5</ele>
        <time>2024-06-01T17:31:30+02:00</time>
      </trkpt>
      <trkpt lat="43.71964" lon="1.50575">
        <ele>135.5</ele>
        <time>2024-06-01T17:31:31+02:00</time>
      </trkpt>
      <trkpt lat="43.7195" lon="1.50553">
        <ele>135.90039</ele>
        <time>2024-06-01T17:31:35+02:00</time>
      </trkpt>
      <trkpt lat="43.71947" lon="1.50547">
        <ele>136</ele>
        <time>2024-06-01T17:31:36+02:00</time>
      </trkpt>
      <trkpt lat="43.71933" lon="1.50522">
        <ele>136.5</ele>
        <time>2024-06-01T17:31:40+02:00</time>
      </trkpt>
      <trkpt lat="43.7193" lon="1.50517">
        <ele>136.7002</ele>
        <time>2024-06-01T17:31:41+02:00</time>
      </trkpt>
      <trkpt lat="43.71922" lon="1.505">
        <ele>137.10059</ele>
        <time>2024-06-01T17:31:45+02:00</time>
      </trkpt>
      <trkpt lat="43.71922" lon="1.50494">
        <ele>137.2002</ele>
        <time>2024-06-01T17:31:46+02:00</time>
      </trkpt>
      <trkpt lat="43.71926" lon="1.50468">
        <ele>137.2002</ele>
        <time>2024-06-01T17:31:50+02:00</time>
      </trkpt>
      <trkpt lat="43.71928" lon="1.50461">
        <ele>137.2002</ele>
        <time>2024-06-01T17:31:51+02:00</time>
      </trkpt>
      <trkpt lat="43.71933" lon="1.50435">
        <ele>137.2998</ele>
        <time>2024-06-01T17:31:55+02:00</time>
      </trkpt>
      <trkpt lat="43.71934" lon="1.50428">
        <ele>137.2998</ele>
        <time>2024-06-01T17:31:56+02:00</time>
      </trkpt>
      <trkpt lat="43.71939" lon="1.504">
        <ele>137.2998</ele>
        <time>2024-06-01T17:32:00+02:00</time>
      </trkpt>
      <trkpt lat="43.7194" lon="1.50392">
        <ele>137.40039</ele>
        <time>2024-06-01T17:32:01+02:00</time>
      </trkpt>
      <trkpt lat="43.71946" lon="1.50362">
        <ele>137.40039</ele>
        <time>2024-06-01T17:32:05+02:00</time>
      </trkpt>
      <trkpt lat="43.71947" lon="1.50355">
        <ele>137.40039</ele>
        <time>2024-06-01T17:32:06+02:00</time>
      </trkpt>
      <trkpt lat="43.71952" lon="1.50325">
        <ele>137.60059</ele>
        <time>2024-06-01T17:32:10+02:00</time>
      </trkpt>
      <trkpt lat="43.71953" lon="1.50318">
        <ele>137.7998</ele>
        <time>2024-06-01T17:32:11+02:00</time>
      </trkpt>
      <trkpt lat="43.71958" lon="1.5029">
        <ele>138.2998</ele>
        <time>2024-06-01T17:32:15+02:00</time>
      </trkpt>
      <trkpt lat="43.71959" lon="1.50282">
        <ele>138.60059</ele>
        <time>2024-06-01T17:32:16+02:00</time>
      </trkpt>
      <trkpt lat="43.71954" lon="1.5026">
        <ele>139.40039</ele>
        <time>2024-06-01T17:32:20+02:00</time>
      </trkpt>
      <trkpt lat="43.7195" lon="1.50259">
        <ele>139.40039</ele>
        <time>2024-06-01T17:32:21+02:00</time>
      </trkpt>
      <trkpt lat="43.71933" lon="1.50266">
        <ele>139.40039</ele>
        <time>2024-06-01T17:32:25+02:00</time>
      </trkpt>
      <trkpt lat="43.71928" lon="1.50267">
        <ele>139.60059</ele>
        <time>2024-06-01T17:32:26+02:00</time>
      </trkpt>
      <trkpt lat="43.71911" lon="1.50266">
        <ele>140.5</ele>
        <time>2024-06-01T17:32:30+02:00</time>
      </trkpt>
      <trkpt lat="43.71907" lon="1.50264">
        <ele>140.90039</ele>
        <time>2024-06-01T17:32:31+02:00</time>
      </trkpt>
      <trkpt lat="43.7189" lon="1.50257">
        <ele>141.7002</ele>
        <time>2024-06-01T17:32:35+02:00</time>
      </trkpt>
      <trkpt lat="43.71886" lon="1.50254">
        <ele>142.10059</ele>
        <time>2024-06-01T17:32:36+02:00</time>
      </trkpt>
      <trkpt lat="43.71873" lon="1.50238">
        <ele>142.5</ele>
        <time>2024-06-01T17:32:40+02:00</time>
      </trkpt>
      <trkpt lat="43.71871" lon="1.50234">
        <ele>142.60059</ele>
        <time>2024-06-01T17:32:41+02:00</time>
      </trkpt>
      <trkpt lat="43.71859" lon="1.50216">
        <ele>143.2002</ele>
        <time>2024-06-01T17:32:45+02:00</time>
      </trkpt>
      <trkpt lat="43.71856" lon="1.50212">
        <ele>143.5</ele>
        <time>2024-06-01T17:32:46+02:00</time>
      </trkpt>
      <trkpt lat="43.71844" lon="1.50194">
        <ele>144.10059</ele>
        <time>2024-06-01T17:32:50+02:00</time>
      </trkpt>
      <trkpt lat="43.71841" lon="1.5019">
        <ele>144.10059</ele>
        <time>2024-06-01T17:32:51+02:00</time>
      </trkpt>
      <trkpt lat="43.71828" lon="1.5017">
        <ele>144.60059</ele>
        <time>2024-06-01T17:32:55+02:00</time>
      </trkpt>
      <trkpt lat="43.71825" lon="1.50165">
        <ele>144.7998</ele>
        <time>2024-06-01T17:32:56+02:00</time>
      </trkpt>
      <trkpt lat="43.71811" lon="1.50145">
        <ele>145.2998</ele>
        <time>2024-06-01T17:33:00+02:00</time>
      </trkpt>
      <trkpt lat="43.71807" lon="1.5014">
        <ele>145.5</ele>
        <time>2024-06-01T17:33:01+02:00</time>
      </trkpt>
      <trkpt lat="43.71794" lon="1.50118">
        <ele>146</ele>
        <time>2024-06-01T17:33:05+02:00</time>
      </trkpt>
      <trkpt lat="43.7179" lon="1.50113">
        <ele>146.10059</ele>
        <time>2024-06-01T17:33:06+02:00</time>
      </trkpt>
      <trkpt lat="43.71776" lon="1.50093">
        <ele>146.60059</ele>
        <time>2024-06-01T17:33:10+02:00</time>
      </trkpt>
      <trkpt lat="43.71773" lon="1.50088">
        <ele>146.7002</ele>
        <time>2024-06-01T17:33:11+02:00</time>
      </trkpt>
      <trkpt lat="43.71758" lon="1.50069">
        <ele>147.2998</ele>
        <time>2024-06-01T17:33:15+02:00</time>
      </trkpt>
      <trkpt lat="43.71753" lon="1.50065">
        <ele>147.40039</ele>
        <time>2024-06-01T17:33:16+02:00</time>
      </trkpt>
      <trkpt lat="43.71735" lon="1.50052">
        <ele>147.90039</ele>
        <time>2024-06-01T17:33:20+02:00</time>
      </trkpt>
      <trkpt lat="43.7173" lon="1.5005">
        <ele>148</ele>
        <time>2024-06-01T17:33:21+02:00</time>
      </trkpt>
      <trkpt lat="43.7171" lon="1.50042">
        <ele>148.2998</ele>
        <time>2024-06-01T17:33:25+02:00</time>
      </trkpt>
      <trkpt lat="43.71705" lon="1.5004">
        <ele>148.40039</ele>
        <time>2024-06-01T17:33:26+02:00</time>
      </trkpt>
      <trkpt lat="43.71686" lon="1.50033">
        <ele>148.40039</ele>
        <time>2024-06-01T17:33:30+02:00</time>
      </trkpt>
      <trkpt lat="43.71681" lon="1.5003">
        <ele>148.5</ele>
        <time>2024-06-01T17:33:31+02:00</time>
      </trkpt>
      <trkpt lat="43.71662" lon="1.5002">
        <ele>148.40039</ele>
        <time>2024-06-01T17:33:35+02:00</time>
      </trkpt>
      <trkpt lat="43.71658" lon="1.50017">
        <ele>148.2998</ele>
        <time>2024-06-01T17:33:36+02:00</time>
      </trkpt>
      <trkpt lat="43.71644" lon="1.49996">
        <ele>148.2002</ele>
        <time>2024-06-01T17:33:40+02:00</time>
      </trkpt>
      <trkpt lat="43.71642" lon="1.49989">
        <ele>148.2998</ele>
        <time>2024-06-01T17:33:41+02:00</time>
      </trkpt>
      <trkpt lat="43.71637" lon="1.49962">
        <ele>148.5</ele>
        <time>2024-06-01T17:33:45+02:00</time>
      </trkpt>
      <trkpt lat="43.71636" lon="1.49955">
        <ele>148.5</ele>
        <time>2024-06-01T17:33:46+02:00</time>
      </trkpt>
      <trkpt lat="43.71634" lon="1.49927">
        <ele>149.10059</ele>
        <time>2024-06-01T17:33:50+02:00</time>
      </trkpt>
      <trkpt lat="43.71633" lon="1.4992">
        <ele>149.2998</ele>
        <time>2024-06-01T17:33:51+02:00</time>
      </trkpt>
      <trkpt lat="43.7163" lon="1.49892">
        <ele>150</ele>
        <time>2024-06-01T17:33:55+02:00</time>
      </trkpt>
      <trkpt lat="43.71629" lon="1.49885">
        <ele>150.2002</ele>
        <time>2024-06-01T17:33:56+02:00</time>
      </trkpt>
      <trkpt lat="43.71624" lon="1.49858">
        <ele>150.90039</ele>
        <time>2024-06-01T17:34:00+02:00</time>
      </trkpt>
      <trkpt lat="43.71623" lon="1.49851">
        <ele>151.10059</ele>
        <time>2024-06-01T17:34:01+02:00</time>
      </trkpt>
      <trkpt lat="43.7162" lon="1.49824">
        <ele>151.90039</ele>
        <time>2024-06-01T17:34:05+02:00</time>
      </trkpt>
      <trkpt lat="43.71619" lon="1.49817">
        <ele>151.90039</ele>
        <time>2024-06-01T17:34:06+02:00</time>
      </trkpt>
      <trkpt lat="43.71615" lon="1.49791">
        <ele>153.2002</ele>
        <time>2024-06-01T17:34:10+02:00</time>
      </trkpt>
      <trkpt lat="43.71614" lon="1.49784">
        <ele>153.2002</ele>
        <time>2024-06-01T17:34:11+02:00</time>
      </trkpt>
      <trkpt lat="43.71611" lon="1.49757">
        <ele>154.7998</ele>
        <time>2024-06-01T17:34:15+02:00</time>
      </trkpt>
      <trkpt lat="43.7161" lon="1.49752">
        <ele>154.7998</ele>
        <time>2024-06-01T17:34:16+02:00</time>
      </trkpt>
      <trkpt lat="43.71605" lon="1.49729">
        <ele>156.40039</ele>
        <time>2024-06-01T17:34:20+02:00</time>
      </trkpt>
      <trkpt lat="43.71604" lon="1.49724">
        <ele>156.40039</ele>
        <time>2024-06-01T17:34:21+02:00</time>
      </trkpt>
      <trkpt lat="43.71597" lon="1.49702">
        <ele>157.90039</ele>
        <time>2024-06-01T17:34:25+02:00</time>
      </trkpt>
      <trkpt lat="43.71596" lon="1.49697">
        <ele>158.5</ele>
        <time>2024-06-01T17:34:26+02:00</time>
      </trkpt>
      <trkpt lat="43.71595" lon="1.49674">
        <ele>159.7998</ele>
        <time>2024-06-01T17:34:30+02:00</time>
      </trkpt>
      <trkpt lat="43.71594" lon="1.49669">
        <ele>160.5</ele>
        <time>2024-06-01T17:34:31+02:00</time>
      </trkpt>
      <trkpt lat="43.71594" lon="1.49646">
        <ele>162</ele>
        <time>2024-06-01T17:34:35+02:00</time>
      </trkpt>
      <trkpt lat="43.71594" lon="1.49642">
        <ele>162.7002</ele>
        <time>2024-06-01T17:34:36+02:00</time>
      </trkpt>
      <trkpt lat="43.71595" lon="1.49621">
        <ele>164.2002</ele>
        <time>2024-06-01T17:34:40+02:00</time>
      </trkpt>
      <trkpt lat="43.71596" lon="1.49616">
        <ele>164.7998</ele>
        <time>2024-06-01T17:34:41+02:00</time>
      </trkpt>
      <trkpt lat="43.71596" lon="1.49595">
        <ele>166.10059</ele>
        <time>2024-06-01T17:34:45+02:00</time>
      </trkpt>
      <trkpt lat="43.71597" lon="1.4959">
        <ele>166.60059</ele>
        <time>2024-06-01T17:34:46+02:00</time>
      </trkpt>
      <trkpt lat="43.71598" lon="1.49571">
        <ele>168.2998</ele>
        <time>2024-06-01T17:34:50+02:00</time>
      </trkpt>
      <trkpt lat="43.71598" lon="1.49566">
        <ele>168.7998</ele>
        <time>2024-06-01T17:34:51+02:00</time>
      </trkpt>
      <trkpt lat="43.71599" lon="1.49546">
        <ele>169.90039</ele>
        <time>2024-06-01T17:34:55+02:00</time>
      </trkpt>
      <trkpt lat="43.71599" lon="1.49541">
        <ele>170.40039</ele>
        <time>2024-06-01T17:34:56+02:00</time>
      </trkpt>
      <trkpt lat="43.71599" lon="1.49521">
        <ele>171.2998</ele>
        <time>2024-06-01T17:35:00+02:00</time>
      </trkpt>
      <trkpt lat="43.71599" lon="1.49516">
        <ele>171.7998</ele>
        <time>2024-06-01T17:35:01+02:00</time>
      </trkpt>
      <trkpt lat="43.71599" lon="1.49496">
        <ele>172.7002</ele>
        <time>2024-06-01T17:35:05+02:00</time>
      </trkpt>
      <trkpt lat="43.71599" lon="1.49492">
        <ele>172.7002</ele>
        <time>2024-06-01T17:35:06+02:00</time>
      </trkpt>
      <trkpt lat="43.71599" lon="1.49473">
        <ele>174</ele>
        <time>2024-06-01T17:35:10+02:00</time>
      </trkpt>
      <trkpt lat="43.71599" lon="1.49468">
        <ele>174</ele>
        <time>2024-06-01T17:35:11+02:00</time>
      </trkpt>
      <trkpt lat="43.71598" lon="1.49448">
        <ele>175.5</ele>
        <time>2024-06-01T17:35:15+02:00</time>
      </trkpt>
      <trkpt lat="43.71598" lon="1.49443">
        <ele>175.5</ele>
        <time>2024-06-01T17:35:16+02:00</time>
      </trkpt>
      <trkpt lat="43.71596" lon="1.49423">
        <ele>176.40039</ele>
        <time>2024-06-01T17:35:20+02:00</time>
      </trkpt>
      <trkpt lat="43.71596" lon="1.49418">
        <ele>177</ele>
        <time>2024-06-01T17:35:21+02:00</time>
      </trkpt>
      <trkpt lat="43.7159" lon="1.49397">
        <ele>178.7002</ele>
        <time>2024-06-01T17:35:25+02:00</time>
      </trkpt>
      <trkpt lat="43.71588" lon="1.49391">
        <ele>178.7002</ele>
        <time>2024-06-01T17:35:26+02:00</time>
      </trkpt>
      <trkpt lat="43.71579" lon="1.49372">
        <ele>180</ele>
        <time>2024-06-01T17:35:30+02:00</time>
      </trkpt>
      <trkpt lat="43.71576" lon="1.49367">
        <ele>180.5</ele>
        <time>2024-06-01T17:35:31+02:00</time>
      </trkpt>
      <trkpt lat="43.71567" lon="1.49347">
        <ele>181.90039</ele>
        <time>2024-06-01T17:35:35+02:00</time>
      </trkpt>
      <trkpt lat="43.71564" lon="1.49342">
        <ele>182.60059</ele>
        <time>2024-06-01T17:35:36+02:00</time>
      </trkpt>
      <trkpt lat="43.71555" lon="1.49321">
        <ele>183.60059</ele>
        <time>2024-06-01T17:35:40+02:00</time>
      </trkpt>
      <trkpt lat="43.71553" lon="1.49316">
        <ele>184.10059</ele>
        <time>2024-06-01T17:35:41+02:00</time>
      </trkpt>
      <trkpt lat="43.71544" lon="1.49295">
        <ele>185.2998</ele>
        <time>2024-06-01T17:35:45+02:00</time>
      </trkpt>
      <trkpt lat="43.71541" lon="1.4929">
        <ele>185.60059</ele>
        <time>2024-06-01T17:35:46+02:00</time>
      </trkpt>
      <trkpt lat="43.71532" lon="1.49269">
        <ele>185.90039</ele>
        <time>2024-06-01T17:35:50+02:00</time>
      </trkpt>
      <trkpt lat="43.7153" lon="1.49264">
        <ele>186.10059</ele>
        <time>2024-06-01T17:35:51+02:00</time>
      </trkpt>
      <trkpt lat="43.71522" lon="1.49243">
        <ele>186</ele>
        <time>2024-06-01T17:35:55+02:00</time>
      </trkpt>
      <trkpt lat="43.7152" lon="1.49238">
        <ele>186</ele>
        <time>2024-06-01T17:35:56+02:00</time>
      </trkpt>
      <trkpt lat="43.71512" lon="1.49218">
        <ele>185.7998</ele>
        <time>2024-06-01T17:36:00+02:00</time>
      </trkpt>
      <trkpt lat="43.71509" lon="1.49213">
        <ele>185.7998</ele>
        <time>2024-06-01T17:36:01+02:00</time>
      </trkpt>
      <trkpt lat="43.71499" lon="1.49193">
        <ele>186</ele>
        <time>2024-06-01T17:36:05+02:00</time>
      </trkpt>
      <trkpt lat="43.71496" lon="1.49188">
        <ele>186.10059</ele>
        <time>2024-06-01T17:36:06+02:00</time>
      </trkpt>
      <trkpt lat="43.71485" lon="1.4917">
        <ele>186.60059</ele>
        <time>2024-06-01T17:36:10+02:00</time>
      </trkpt>
      <trkpt lat="43.71482" lon="1.49166">
        <ele>186.60059</ele>
        <time>2024-06-01T17:36:11+02:00</time>
      </trkpt>
      <trkpt lat="43.71471" lon="1.49148">
        <ele>187.2002</ele>
        <time>2024-06-01T17:36:15+02:00</time>
      </trkpt>
      <trkpt lat="43.71468" lon="1.49143">
        <ele>187.60059</ele>
        <time>2024-06-01T17:36:16+02:00</time>
      </trkpt>
      <trkpt lat="43.71457" lon="1.49127">
        <ele>188.40039</ele>
        <time>2024-06-01T17:36:20+02:00</time>
      </trkpt>
      <trkpt lat="43.71455" lon="1.49122">
        <ele>188.40039</ele>
        <time>2024-06-01T17:36:21+02:00</time>
      </trkpt>
      <trkpt lat="43.71443" lon="1.49106">
        <ele>189.2998</ele>
        <time>2024-06-01T17:36:25+02:00</time>
      </trkpt>
      <trkpt lat="43.7144" lon="1.49102">
        <ele>189.7002</ele>
        <time>2024-06-01T17:36:26+02:00</time>
      </trkpt>
      <trkpt lat="43.7143" lon="1.49086">
        <ele>190.40039</ele>
        <time>2024-06-01T17:36:30+02:00</time>
      </trkpt>
      <trkpt lat="43.71428" lon="1.49082">
        <ele>190.40039</ele>
        <time>2024-06-01T17:36:31+02:00</time>
      </trkpt>
      <trkpt lat="43.71416" lon="1.49067">
        <ele>190.7998</ele>
        <time>2024-06-01T17:36:35+02:00</time>
      </trkpt>
      <trkpt lat="43.71413" lon="1.49064">
        <ele>190.7998</ele>
        <time>2024-06-01T17:36:36+02:00</time>
      </trkpt>
      <trkpt lat="43.71403" lon="1.4905">
        <ele>191</ele>
        <time>2024-06-01T17:36:40+02:00</time>
      </trkpt>
      <trkpt lat="43.71401" lon="1.49047">
        <ele>191</ele>
        <time>2024-06-01T17:36:41+02:00</time>
      </trkpt>
      <trkpt lat="43.7139" lon="1.49032">
        <ele>191.10059</ele>
        <time>2024-06-01T17:36:45+02:00</time>
      </trkpt>
      <trkpt lat="43.71388" lon="1.49028">
        <ele>191.10059</ele>
        <time>2024-06-01T17:36:46+02:00</time>
      </trkpt>
      <trkpt lat="43.71379" lon="1.49009">
        <ele>191</ele>
        <time>2024-06-01T17:36:50+02:00</time>
      </trkpt>
      <trkpt lat="43.71377" lon="1.49004">
        <ele>191</ele>
        <time>2024-06-01T17:36:51+02:00</time>
      </trkpt>
      <trkpt lat="43.7137" lon="1.48983">
        <ele>190.90039</ele>
        <time>2024-06-01T17:36:55+02:00</time>
      </trkpt>
      <trkpt lat="43.71368" lon="1.48977">
        <ele>190.90039</ele>
        <time>2024-06-01T17:36:56+02:00</time>
      </trkpt>
      <trkpt lat="43.7136" lon="1.48951">
        <ele>190.2002</ele>
        <time>2024-06-01T17:37:00+02:00</time>
      </trkpt>
      <trkpt lat="43.71358" lon="1.48944">
        <ele>190</ele>
        <time>2024-06-01T17:37:01+02:00</time>
      </trkpt>
      <trkpt lat="43.71347" lon="1.48919">
        <ele>189</ele>
        <time>2024-06-01T17:37:05+02:00</time>
      </trkpt>
      <trkpt lat="43.71345" lon="1.48913">
        <ele>188.7998</ele>
        <time>2024-06-01T17:37:06+02:00</time>
      </trkpt>
      <trkpt lat="43.71339" lon="1.48901">
        <ele>188.40039</ele>
        <time>2024-06-01T17:37:10+02:00</time>
      </trkpt>
      <trkpt lat="43.71339" lon="1.48899">
        <ele>188.40039</ele>
        <time>2024-06-01T17:37:11+02:00</time>
      </trkpt>
      <trkpt lat="43.71336" lon="1.48893">
        <ele>188.10059</ele>
        <time>2024-06-01T17:37:15+02:00</time>
      </trkpt>
      <trkpt lat="43.71334" lon="1.4889">
        <ele>188</ele>
        <time>2024-06-01T17:37:16+02:00</time>
      </trkpt>
      <trkpt lat="43.71325" lon="1.48873">
        <ele>187.7002</ele>
        <time>2024-06-01T17:37:20+02:00</time>
      </trkpt>
      <trkpt lat="43.71323" lon="1.48869">
        <ele>187.7002</ele>
        <time>2024-06-01T17:37:21+02:00</time>
      </trkpt>
      <trkpt lat="43.71314" lon="1.48851">
        <ele>187.5</ele>
        <time>2024-06-01T17:37:25+02:00</time>
      </trkpt>
      <trkpt lat="43.71312" lon="1.48848">
        <ele>187.5</ele>
        <time>2024-06-01T17:37:26+02:00</time>
      </trkpt>
      <trkpt lat="43.71304" lon="1.48832">
        <ele>187.5</ele>
        <time>2024-06-01T17:37:30+02:00</time>
      </trkpt>
      <trkpt lat="43.71302" lon="1.48827">
        <ele>187.5</ele>
        <time>2024-06-01T17:37:31+02:00</time>
      </trkpt>
      <trkpt lat="43.71289" lon="1.48805">
        <ele>187.7002</ele>
        <time>2024-06-01T17:37:35+02:00</time>
      </trkpt>
      <trkpt lat="43.71286" lon="1.48798">
        <ele>187.7998</ele>
        <time>2024-06-01T17:37:36+02:00</time>
      </trkpt>
      <trkpt lat="43.71272" lon="1.48772">
        <ele>188.2002</ele>
        <time>2024-06-01T17:37:40+02:00</time>
      </trkpt>
      <trkpt lat="43.71268" lon="1.48765">
        <ele>188.40039</ele>
        <time>2024-06-01T17:37:41+02:00</time>
      </trkpt>
      <trkpt lat="43.71253" lon="1.4874">
        <ele>188.7002</ele>
        <time>2024-06-01T17:37:45+02:00</time>
      </trkpt>
      <trkpt lat="43.71249" lon="1.48734">
        <ele>188.7998</ele>
        <time>2024-06-01T17:37:46+02:00</time>
      </trkpt>
      <trkpt lat="43.71234" lon="1.48708">
        <ele>188.7998</ele>
        <time>2024-06-01T17:37:50+02:00</time>
      </trkpt>
      <trkpt lat="43.7123" lon="1.48702">
        <ele>188.7998</ele>
        <time>2024-06-01T17:37:51+02:00</time>
      </trkpt>
      <trkpt lat="43.71213" lon="1.48674">
        <ele>189</ele>
        <time>2024-06-01T17:37:55+02:00</time>
      </trkpt>
      <trkpt lat="43.71209" lon="1.48667">
        <ele>189</ele>
        <time>2024-06-01T17:37:56+02:00</time>
      </trkpt>
      <trkpt lat="43.71192" lon="1.4864">
        <ele>189.10059</ele>
        <time>2024-06-01T17:38:00+02:00</time>
      </trkpt>
      <trkpt lat="43.71188" lon="1.48633">
        <ele>189.10059</ele>
        <time>2024-06-01T17:38:01+02:00</time>
      </trkpt>
      <trkpt lat="43.71172" lon="1.48605">
        <ele>189.10059</ele>
        <time>2024-06-01T17:38:05+02:00</time>
      </trkpt>
      <trkpt lat="43.71167" lon="1.48599">
        <ele>189.10059</ele>
        <time>2024-06-01T17:38:06+02:00</time>
      </trkpt>
      <trkpt lat="43.71151" lon="1.48576">
        <ele>189.10059</ele>
        <time>2024-06-01T17:38:10+02:00</time>
      </trkpt>
      <trkpt lat="43.71146" lon="1.4857">
        <ele>189.10059</ele>
        <time>2024-06-01T17:38:11+02:00</time>
      </trkpt>
      <trkpt lat="43.71127" lon="1.48546">
        <ele>188.90039</ele>
        <time>2024-06-01T17:38:15+02:00</time>
      </trkpt>
      <trkpt lat="43.71122" lon="1.4854">
        <ele>188.90039</ele>
        <time>2024-06-01T17:38:16+02:00</time>
      </trkpt>
      <trkpt lat="43.71101" lon="1.48516">
        <ele>188.5</ele>
        <time>2024-06-01T17:38:20+02:00</time>
      </trkpt>
      <trkpt lat="43.71096" lon="1.4851">
        <ele>188.2998</ele>
        <time>2024-06-01T17:38:21+02:00</time>
      </trkpt>
      <trkpt lat="43.71076" lon="1.48487">
        <ele>187.5</ele>
        <time>2024-06-01T17:38:25+02:00</time>
      </trkpt>
      <trkpt lat="43.71071" lon="1.48481">
        <ele>187.5</ele>
        <time>2024-06-01T17:38:26+02:00</time>
      </trkpt>
      <trkpt lat="43.71052" lon="1.48458">
        <ele>186.60059</ele>
        <time>2024-06-01T17:38:30+02:00</time>
      </trkpt>
      <trkpt lat="43.71048" lon="1.48452">
        <ele>186.40039</ele>
        <time>2024-06-01T17:38:31+02:00</time>
      </trkpt>
      <trkpt lat="43.71029" lon="1.48434">
        <ele>186.10059</ele>
        <time>2024-06-01T17:38:35+02:00</time>
      </trkpt>
      <trkpt lat="43.71025" lon="1.4843">
        <ele>186.10059</ele>
        <time>2024-06-01T17:38:36+02:00</time>
      </trkpt>
      <trkpt lat="43.71016" lon="1.48423">
        <ele>186</ele>
        <time>2024-06-01T17:38:40+02:00</time>
      </trkpt>
      <trkpt lat="43.71015" lon="1.48422">
        <ele>186</ele>
        <time>2024-06-01T17:38:41+02:00</time>
      </trkpt>
      <trkpt lat="43.71012" lon="1.48419">
        <ele>186</ele>
        <time>2024-06-01T17:38:45+02:00</time>
      </trkpt>
      <trkpt lat="43.71011" lon="1.48416">
        <ele>185.90039</ele>
        <time>2024-06-01T17:38:46+02:00</time>
      </trkpt>
      <trkpt lat="43.71004" lon="1.48407">
        <ele>185.7998</ele>
        <time>2024-06-01T17:38:50+02:00</time>
      </trkpt>
      <trkpt lat="43.71002" lon="1.48405">
        <ele>185.7998</ele>
        <time>2024-06-01T17:38:51+02:00</time>
      </trkpt>
      <trkpt lat="43.70991" lon="1.48396">
        <ele>185.7002</ele>
        <time>2024-06-01T17:38:55+02:00</time>
      </trkpt>
      <trkpt lat="43.70989" lon="1.48393">
        <ele>185.7002</ele>
        <time>2024-06-01T17:38:56+02:00</time>
      </trkpt>
      <trkpt lat="43.70978" lon="1.48382">
        <ele>185.5</ele>
        <time>2024-06-01T17:39:00+02:00</time>
      </trkpt>
      <trkpt lat="43.70976" lon="1.48379">
        <ele>185.5</ele>
        <time>2024-06-01T17:39:01+02:00</time>
      </trkpt>
      <trkpt lat="43.70966" lon="1.48367">
        <ele>185.40039</ele>
        <time>2024-06-01T17:39:05+02:00</time>
      </trkpt>
      <trkpt lat="43.70963" lon="1.48364">
        <ele>185.2998</ele>
        <time>2024-06-01T17:39:06+02:00</time>
      </trkpt>
      <trkpt lat="43.70952" lon="1.48354">
        <ele>185.2002</ele>
        <time>2024-06-01T17:39:10+02:00</time>
      </trkpt>
      <trkpt lat="43.70949" lon="1.48351">
        <ele>185.2002</ele>
        <time>2024-06-01T17:39:11+02:00</time>
      </trkpt>
      <trkpt lat="43.70932" lon="1.48334">
        <ele>185.10059</ele>
        <time>2024-06-01T17:39:16+02:00</time>
      </trkpt>
      <trkpt lat="43.70928" lon="1.48331">
        <ele>185</ele>
        <time>2024-06-01T17:39:17+02:00</time>
      </trkpt>
      <trkpt lat="43.7091" lon="1.48319">
        <ele>185</ele>
        <time>2024-06-01T17:39:21+02:00</time>
      </trkpt>
      <trkpt lat="43.70905" lon="1.48315">
        <ele>185</ele>
        <time>2024-06-01T17:39:22+02:00</time>
      </trkpt>
      <trkpt lat="43.70885" lon="1.48301">
        <ele>185.10059</ele>
        <time>2024-06-01T17:39:26+02:00</time>
      </trkpt>
      <trkpt lat="43.70879" lon="1.48298">
        <ele>185.2002</ele>
        <time>2024-06-01T17:39:27+02:00</time>
      </trkpt>
      <trkpt lat="43.70859" lon="1.48283">
        <ele>185.60059</ele>
        <time>2024-06-01T17:39:31+02:00</time>
      </trkpt>
      <trkpt lat="43.70854" lon="1.48279">
        <ele>185.5</ele>
        <time>2024-06-01T17:39:32+02:00</time>
      </trkpt>
      <trkpt lat="43.70833" lon="1.48265">
        <ele>185.7998</ele>
        <time>2024-06-01T17:39:36+02:00</time>
      </trkpt>
      <trkpt lat="43.70827" lon="1.48261">
        <ele>185.7998</ele>
        <time>2024-06-01T17:39:37+02:00</time>
      </trkpt>
      <trkpt lat="43.70806" lon="1.48246">
        <ele>185.7002</ele>
        <time>2024-06-01T17:39:41+02:00</time>
      </trkpt>
      <trkpt lat="43.708" lon="1.48243">
        <ele>185.7002</ele>
        <time>2024-06-01T17:39:42+02:00</time>
      </trkpt>
      <trkpt lat="43.70779" lon="1.48228">
        <ele>185.60059</ele>
        <time>2024-06-01T17:39:46+02:00</time>
      </trkpt>
      <trkpt lat="43.70774" lon="1.48224">
        <ele>185.5</ele>
        <time>2024-06-01T17:39:47+02:00</time>
      </trkpt>
      <trkpt lat="43.70754" lon="1.48211">
        <ele>185.5</ele>
        <time>2024-06-01T17:39:51+02:00</time>
      </trkpt>
      <trkpt lat="43.70749" lon="1.48208">
        <ele>185.5</ele>
        <time>2024-06-01T17:39:52+02:00</time>
      </trkpt>
      <trkpt lat="43.70728" lon="1.48195">
        <ele>185.2998</ele>
        <time>2024-06-01T17:39:56+02:00</time>
      </trkpt>
      <trkpt lat="43.70722" lon="1.48192">
        <ele>185.40039</ele>
        <time>2024-06-01T17:39:57+02:00</time>
      </trkpt>
      <trkpt lat="43.70702" lon="1.4818">
        <ele>185.40039</ele>
        <time>2024-06-01T17:40:01+02:00</time>
      </trkpt>
      <trkpt lat="43.70697" lon="1.48176">
        <ele>185.5</ele>
        <time>2024-06-01T17:40:02+02:00</time>
      </trkpt>
      <trkpt lat="43.70678" lon="1.48159">
        <ele>185.7998</ele>
        <time>2024-06-01T17:40:06+02:00</time>
      </trkpt>
      <trkpt lat="43.70674" lon="1.48154">
        <ele>185.7998</ele>
        <time>2024-06-01T17:40:07+02:00</time>
      </trkpt>
      <trkpt lat="43.70657" lon="1.48132">
        <ele>186.2998</ele>
        <time>2024-06-01T17:40:11+02:00</time>
      </trkpt>
      <trkpt lat="43.70654" lon="1.48126">
        <ele>186.5</ele>
        <time>2024-06-01T17:40:12+02:00</time>
      </trkpt>
      <trkpt lat="43.70639" lon="1.481">
        <ele>186.7002</ele>
        <time>2024-06-01T17:40:16+02:00</time>
      </trkpt>
      <trkpt lat="43.70636" lon="1.48093">
        <ele>186.7002</ele>
        <time>2024-06-01T17:40:17+02:00</time>
      </trkpt>
      <trkpt lat="43.70622" lon="1.48067">
        <ele>186.60059</ele>
        <time>2024-06-01T17:40:21+02:00</time>
      </trkpt>
      <trkpt lat="43.70618" lon="1.4806">
        <ele>186.7002</ele>
        <time>2024-06-01T17:40:22+02:00</time>
      </trkpt>
      <trkpt lat="43.70604" lon="1.48034">
        <ele>186</ele>
        <time>2024-06-01T17:40:26+02:00</time>
      </trkpt>
      <trkpt lat="43.706" lon="1.48028">
        <ele>186</ele>
        <time>2024-06-01T17:40:27+02:00</time>
      </trkpt>
      <trkpt lat="43.70586" lon="1.48002">
        <ele>185.2002</ele>
        <time>2024-06-01T17:40:31+02:00</time>
      </trkpt>
      <trkpt lat="43.70582" lon="1.47996">
        <ele>184.90039</ele>
        <time>2024-06-01T17:40:32+02:00</time>
      </trkpt>
      <trkpt lat="43.7057" lon="1.4797">
        <ele>184.40039</ele>
        <time>2024-06-01T17:40:36+02:00</time>
      </trkpt>
      <trkpt lat="43.70566" lon="1.47963">
        <ele>184.2998</ele>
        <time>2024-06-01T17:40:37+02:00</time>
      </trkpt>
      <trkpt lat="43.70554" lon="1.47937">
        <ele>184.40039</ele>
        <time>2024-06-01T17:40:41+02:00</time>
      </trkpt>
      <trkpt lat="43.70551" lon="1.4793">
        <ele>184.40039</ele>
        <time>2024-06-01T17:40:42+02:00</time>
      </trkpt>
      <trkpt lat="43.70539" lon="1.47903">
        <ele>184.7998</ele>
        <time>2024-06-01T17:40:46+02:00</time>
      </trkpt>
      <trkpt lat="43.70536" lon="1.47896">
        <ele>184.7998</ele>
        <time>2024-06-01T17:40:47+02:00</time>
      </trkpt>
      <trkpt lat="43.70523" lon="1.47869">
        <ele>185</ele>
        <time>2024-06-01T17:40:51+02:00</time>
      </trkpt>
      <trkpt lat="43.7052" lon="1.47862">
        <ele>185</ele>
        <time>2024-06-01T17:40:52+02:00</time>
      </trkpt>
      <trkpt lat="43.70508" lon="1.47834">
        <ele>185.2002</ele>
        <time>2024-06-01T17:40:56+02:00</time>
      </trkpt>
      <trkpt lat="43.70505" lon="1.47827">
        <ele>185.2002</ele>
        <time>2024-06-01T17:40:57+02:00</time>
      </trkpt>
      <trkpt lat="43.70495" lon="1.47798">
        <ele>185.5</ele>
        <time>2024-06-01T17:41:01+02:00</time>
      </trkpt>
      <trkpt lat="43.70492" lon="1.47791">
        <ele>185.60059</ele>
        <time>2024-06-01T17:41:02+02:00</time>
      </trkpt>
      <trkpt lat="43.70478" lon="1.47766">
        <ele>186</ele>
        <time>2024-06-01T17:41:06+02:00</time>
      </trkpt>
      <trkpt lat="43.70474" lon="1.47762">
        <ele>186.10059</ele>
        <time>2024-06-01T17:41:07+02:00</time>
      </trkpt>
      <trkpt lat="43.70454" lon="1.47752">
        <ele>186.60059</ele>
        <time>2024-06-01T17:41:11+02:00</time>
      </trkpt>
      <trkpt lat="43.70448" lon="1.47749">
        <ele>186.60059</ele>
        <time>2024-06-01T17:41:12+02:00</time>
      </trkpt>
      <trkpt lat="43.70427" lon="1.4774">
        <ele>187.2002</ele>
        <time>2024-06-01T17:41:16+02:00</time>
      </trkpt>
      <trkpt lat="43.70422" lon="1.47737">
        <ele>187.2998</ele>
        <time>2024-06-01T17:41:17+02:00</time>
      </trkpt>
      <trkpt lat="43.70402" lon="1.47727">
        <ele>187.90039</ele>
        <time>2024-06-01T17:41:21+02:00</time>
      </trkpt>
      <trkpt lat="43.70396" lon="1.47725">
        <ele>188.2002</ele>
        <time>2024-06-01T17:41:22+02:00</time>
      </trkpt>
      <trkpt lat="43.70376" lon="1.47715">
        <ele>189.5</ele>
        <time>2024-06-01T17:41:26+02:00</time>
      </trkpt>
      <trkpt lat="43.70371" lon="1.47713">
        <ele>190.2002</ele>
        <time>2024-06-01T17:41:27+02:00</time>
      </trkpt>
      <trkpt lat="43.70353" lon="1.47703">
        <ele>191.7002</ele>
        <time>2024-06-01T17:41:31+02:00</time>
      </trkpt>
      <trkpt lat="43.70348" lon="1.47701">
        <ele>192.10059</ele>
        <time>2024-06-01T17:41:32+02:00</time>
      </trkpt>
      <trkpt lat="43.7033" lon="1.47693">
        <ele>193</ele>
        <time>2024-06-01T17:41:36+02:00</time>
      </trkpt>
      <trkpt lat="43.70325" lon="1.4769">
        <ele>193</ele>
        <time>2024-06-01T17:41:37+02:00</time>
      </trkpt>
      <trkpt lat="43.70306" lon="1.4768">
        <ele>193.5</ele>
        <time>2024-06-01T17:41:41+02:00</time>
      </trkpt>
      <trkpt lat="43.70301" lon="1.47677">
        <ele>193.5</ele>
        <time>2024-06-01T17:41:42+02:00</time>
      </trkpt>
      <trkpt lat="43.70282" lon="1.47666">
        <ele>193.60059</ele>
        <time>2024-06-01T17:41:46+02:00</time>
      </trkpt>
      <trkpt lat="43.70278" lon="1.47662">
        <ele>193.7998</ele>
        <time>2024-06-01T17:41:47+02:00</time>
      </trkpt>
      <trkpt lat="43.70258" lon="1.47648">
        <ele>194.10059</ele>
        <time>2024-06-01T17:41:51+02:00</time>
      </trkpt>
      <trkpt lat="43.70254" lon="1.47645">
        <ele>194.5</ele>
        <time>2024-06-01T17:41:52+02:00</time>
      </trkpt>
      <trkpt lat="43.70233" lon="1.47628">
        <ele>195.5</ele>
        <time>2024-06-01T17:41:56+02:00</time>
      </trkpt>
      <trkpt lat="43.70228" lon="1.47623">
        <ele>195.7002</ele>
        <time>2024-06-01T17:41:57+02:00</time>
      </trkpt>
      <trkpt lat="43.70204" lon="1.47604">
        <ele>197.10059</ele>
        <time>2024-06-01T17:42:01+02:00</time>
      </trkpt>
      <trkpt lat="43.70197" lon="1.47601">
        <ele>197.60059</ele>
        <time>2024-06-01T17:42:02+02:00</time>
      </trkpt>
      <trkpt lat="43.70167" lon="1.47609">
        <ele>197.7998</ele>
        <time>2024-06-01T17:42:06+02:00</time>
      </trkpt>
      <trkpt lat="43.7016" lon="1.47613">
        <ele>197.40039</ele>
        <time>2024-06-01T17:42:07+02:00</time>
      </trkpt>
      <trkpt lat="43.70135" lon="1.47628">
        <ele>196.60059</ele>
        <time>2024-06-01T17:42:11+02:00</time>
      </trkpt>
      <trkpt lat="43.70128" lon="1.47629">
        <ele>196.10059</ele>
        <time>2024-06-01T17:42:12+02:00</time>
      </trkpt>
      <trkpt lat="43.70105" lon="1.47629">
        <ele>196.5</ele>
        <time>2024-06-01T17:42:16+02:00</time>
      </trkpt>
      <trkpt lat="43.70099" lon="1.47628">
        <ele>197.10059</ele>
        <time>2024-06-01T17:42:17+02:00</time>
      </trkpt>
      <trkpt lat="43.70077" lon="1.47621">
        <ele>197.7002</ele>
        <time>2024-06-01T17:42:21+02:00</time>
      </trkpt>
      <trkpt lat="43.70071" lon="1.4762">
        <ele>198.2002</ele>
        <time>2024-06-01T17:42:22+02:00</time>
      </trkpt>
      <trkpt lat="43.70049" lon="1.47616">
        <ele>198.7998</ele>
        <time>2024-06-01T17:42:26+02:00</time>
      </trkpt>
      <trkpt lat="43.70044" lon="1.47617">
        <ele>198.90039</ele>
        <time>2024-06-01T17:42:27+02:00</time>
      </trkpt>
      <trkpt lat="43.70021" lon="1.4762">
        <ele>199</ele>
        <time>2024-06-01T17:42:31+02:00</time>
      </trkpt>
      <trkpt lat="43.70015" lon="1.47623">
        <ele>199</ele>
        <time>2024-06-01T17:42:32+02:00</time>
      </trkpt>
      <trkpt lat="43.69994" lon="1.47636">
        <ele>199.7002</ele>
        <time>2024-06-01T17:42:36+02:00</time>
      </trkpt>
      <trkpt lat="43.6999" lon="1.47641">
        <ele>200.2002</ele>
        <time>2024-06-01T17:42:37+02:00</time>
      </trkpt>
      <trkpt lat="43.69973" lon="1.47662">
        <ele>201.2002</ele>
        <time>2024-06-01T17:42:41+02:00</time>
      </trkpt>
      <trkpt lat="43.69969" lon="1.47667">
        <ele>201.7998</ele>
        <time>2024-06-01T17:42:42+02:00</time>
      </trkpt>
      <trkpt lat="43.69952" lon="1.47688">
        <ele>203.60059</ele>
        <time>2024-06-01T17:42:46+02:00</time>
      </trkpt>
      <trkpt lat="43.69948" lon="1.47693">
        <ele>203.7002</ele>
        <time>2024-06-01T17:42:47+02:00</time>
      </trkpt>
      <trkpt lat="43.69934" lon="1.47712">
        <ele>204.60059</ele>
        <time>2024-06-01T17:42:51+02:00</time>
      </trkpt>
      <trkpt lat="43.6993" lon="1.47717">
        <ele>205</ele>
        <time>2024-06-01T17:42:52+02:00</time>
      </trkpt>
      <trkpt lat="43.69916" lon="1.47737">
        <ele>205.60059</ele>
        <time>2024-06-01T17:42:56+02:00</time>
      </trkpt>
      <trkpt lat="43.69913" lon="1.47742">
        <ele>205.7002</ele>
        <time>2024-06-01T17:42:57+02:00</time>
      </trkpt>
      <trkpt lat="43.69898" lon="1.4776">
        <ele>205.90039</ele>
        <time>2024-06-01T17:43:01+02:00</time>
      </trkpt>
      <trkpt lat="43.69894" lon="1.47764">
        <ele>206</ele>
        <time>2024-06-01T17:43:02+02:00</time>
      </trkpt>
      <trkpt lat="43.69878" lon="1.47779">
        <ele>206.2002</ele>
        <time>2024-06-01T17:43:06+02:00</time>
      </trkpt>
      <trkpt lat="43.69875" lon="1.47785">
        <ele>206</ele>
        <time>2024-06-01T17:43:07+02:00</time>
      </trkpt>
      <trkpt lat="43.69858" lon="1.47798">
        <ele>206.7002</ele>
        <time>2024-06-01T17:43:11+02:00</time>
      </trkpt>
      <trkpt lat="43.69853" lon="1.478">
        <ele>206.90039</ele>
        <time>2024-06-01T17:43:12+02:00</time>
      </trkpt>
      <trkpt lat="43.69835" lon="1.47807">
        <ele>207.40039</ele>
        <time>2024-06-01T17:43:16+02:00</time>
      </trkpt>
      <trkpt lat="43.6983" lon="1.47809">
        <ele>207.60059</ele>
        <time>2024-06-01T17:43:17+02:00</time>
      </trkpt>
      <trkpt lat="43.69807" lon="1.47817">
        <ele>208.40039</ele>
        <time>2024-06-01T17:43:21+02:00</time>
      </trkpt>
      <trkpt lat="43.69801" lon="1.4782">
        <ele>208.40039</ele>
        <time>2024-06-01T17:43:22+02:00</time>
      </trkpt>
      <trkpt lat="43.69778" lon="1.47829">
        <ele>209</ele>
        <time>2024-06-01T17:43:26+02:00</time>
      </trkpt>
      <trkpt lat="43.69772" lon="1.47831">
        <ele>209.2002</ele>
        <time>2024-06-01T17:43:27+02:00</time>
      </trkpt>
      <trkpt lat="43.69749" lon="1.47836">
        <ele>209.7002</ele>
        <time>2024-06-01T17:43:31+02:00</time>
      </trkpt>
      <trkpt lat="43.69743" lon="1.47837">
        <ele>209.7998</ele>
        <time>2024-06-01T17:43:32+02:00</time>
      </trkpt>
      <trkpt lat="43.69718" lon="1.47833">
        <ele>210.10059</ele>
        <time>2024-06-01T17:43:36+02:00</time>
      </trkpt>
      <trkpt lat="43.69712" lon="1.47829">
        <ele>210.10059</ele>
        <time>2024-06-01T17:43:37+02:00</time>
      </trkpt>
      <trkpt lat="43.6969" lon="1.47808">
        <ele>210.40039</ele>
        <time>2024-06-01T17:43:41+02:00</time>
      </trkpt>
      <trkpt lat="43.69686" lon="1.47802">
        <ele>210.40039</ele>
        <time>2024-06-01T17:43:42+02:00</time>
      </trkpt>
      <trkpt lat="43.69668" lon="1.47781">
        <ele>210.7002</ele>
        <time>2024-06-01T17:43:46+02:00</time>
      </trkpt>
      <trkpt lat="43.69663" lon="1.47777">
        <ele>210.7002</ele>
        <time>2024-06-01T17:43:47+02:00</time>
      </trkpt>
      <trkpt lat="43.6965" lon="1.47761">
        <ele>210.7002</ele>
        <time>2024-06-01T17:43:51+02:00</time>
      </trkpt>
      <trkpt lat="43.69649" lon="1.47758">
        <ele>210.7002</ele>
        <time>2024-06-01T17:43:52+02:00</time>
      </trkpt>
      <trkpt lat="43.69648" lon="1.47749">
        <ele>210.7002</ele>
        <time>2024-06-01T17:43:56+02:00</time>
      </trkpt>
      <trkpt lat="43.69647" lon="1.47745">
        <ele>210.7002</ele>
        <time>2024-06-01T17:43:57+02:00</time>
      </trkpt>
      <trkpt lat="43.6964" lon="1.47729">
        <ele>210.5</ele>
        <time>2024-06-01T17:44:01+02:00</time>
      </trkpt>
      <trkpt lat="43.69638" lon="1.47724">
        <ele>210.5</ele>
        <time>2024-06-01T17:44:02+02:00</time>
      </trkpt>
      <trkpt lat="43.69629" lon="1.47703">
        <ele>210.10059</ele>
        <time>2024-06-01T17:44:06+02:00</time>
      </trkpt>
      <trkpt lat="43.69626" lon="1.47697">
        <ele>210</ele>
        <time>2024-06-01T17:44:07+02:00</time>
      </trkpt>
      <trkpt lat="43.69617" lon="1.47674">
        <ele>209.7002</ele>
        <time>2024-06-01T17:44:11+02:00</time>
      </trkpt>
      <trkpt lat="43.69615" lon="1.47668">
        <ele>209.60059</ele>
        <time>2024-06-01T17:44:12+02:00</time>
      </trkpt>
      <trkpt lat="43.69605" lon="1.47643">
        <ele>209.40039</ele>
        <time>2024-06-01T17:44:16+02:00</time>
      </trkpt>
      <trkpt lat="43.69602" lon="1.47637">
        <ele>209.40039</ele>
        <time>2024-06-01T17:44:17+02:00</time>
      </trkpt>
      <trkpt lat="43.69591" lon="1.47609">
        <ele>209.2998</ele>
        <time>2024-06-01T17:44:21+02:00</time>
      </trkpt>
      <trkpt lat="43.69588" lon="1.47602">
        <ele>209.2998</ele>
        <time>2024-06-01T17:44:22+02:00</time>
      </trkpt>
      <trkpt lat="43.69583" lon="1.47572">
        <ele>209.40039</ele>
        <time>2024-06-01T17:44:26+02:00</time>
      </trkpt>
      <trkpt lat="43.69583" lon="1.47565">
        <ele>209.40039</ele>
        <time>2024-06-01T17:44:27+02:00</time>
      </trkpt>
      <trkpt lat="43.69575" lon="1.47539">
        <ele>209.60059</ele>
        <time>2024-06-01T17:44:31+02:00</time>
      </trkpt>
      <trkpt lat="43.69571" lon="1.47534">
        <ele>209.5</ele>
        <time>2024-06-01T17:44:32+02:00</time>
      </trkpt>
      <trkpt lat="43.69553" lon="1.47516">
        <ele>209.10059</ele>
        <time>2024-06-01T17:44:36+02:00</time>
      </trkpt>
      <trkpt lat="43.6955" lon="1.47513">
        <ele>209.10059</ele>
        <time>2024-06-01T17:44:37+02:00</time>
      </trkpt>
      <trkpt lat="43.69544" lon="1.4751">
        <ele>208.7998</ele>
        <time>2024-06-01T17:44:41+02:00</time>
      </trkpt>
      <trkpt lat="43.69543" lon="1.47513">
        <ele>208.60059</ele>
        <time>2024-06-01T17:44:42+02:00</time>
      </trkpt>
      <trkpt lat="43.69534" lon="1.47522">
        <ele>208.2998</ele>
        <time>2024-06-01T17:44:46+02:00</time>
      </trkpt>
      <trkpt lat="43.69532" lon="1.47525">
        <ele>208.2998</ele>
        <time>2024-06-01T17:44:47+02:00</time>
      </trkpt>
      <trkpt lat="43.69525" lon="1.47538">
        <ele>207.90039</ele>
        <time>2024-06-01T17:44:51+02:00</time>
      </trkpt>
      <trkpt lat="43.69525" lon="1.4754">
        <ele>207.90039</ele>
        <time>2024-06-01T17:44:52+02:00</time>
      </trkpt>
      <trkpt lat="43.69519" lon="1.47548">
        <ele>207.60059</ele>
        <time>2024-06-01T17:44:56+02:00</time>
      </trkpt>
      <trkpt lat="43.69516" lon="1.47552">
        <ele>207.2998</ele>
        <time>2024-06-01T17:44:57+02:00</time>
      </trkpt>
      <trkpt lat="43.69506" lon="1.4757">
        <ele>206.7998</ele>
        <time>2024-06-01T17:45:01+02:00</time>
      </trkpt>
      <trkpt lat="43.69503" lon="1.47576">
        <ele>206.7998</ele>
        <time>2024-06-01T17:45:02+02:00</time>
      </trkpt>
      <trkpt lat="43.69494" lon="1.47605">
        <ele>206.7998</ele>
        <time>2024-06-01T17:45:06+02:00</time>
      </trkpt>
      <trkpt lat="43.69493" lon="1.47613">
        <ele>206.5</ele>
        <time>2024-06-01T17:45:07+02:00</time>
      </trkpt>
      <trkpt lat="43.69488" lon="1.47652">
        <ele>206.5</ele>
        <time>2024-06-01T17:45:11+02:00</time>
      </trkpt>
      <trkpt lat="43.69487" lon="1.47662">
        <ele>206</ele>
        <time>2024-06-01T17:45:12+02:00</time>
      </trkpt>
      <trkpt lat="43.69477" lon="1.47696">
        <ele>205.2002</ele>
        <time>2024-06-01T17:45:16+02:00</time>
      </trkpt>
      <trkpt lat="43.69474" lon="1.47703">
        <ele>204.7002</ele>
        <time>2024-06-01T17:45:17+02:00</time>
      </trkpt>
      <trkpt lat="43.69459" lon="1.47734">
        <ele>202.7998</ele>
        <time>2024-06-01T17:45:21+02:00</time>
      </trkpt>
      <trkpt lat="43.69456" lon="1.47742">
        <ele>202.10059</ele>
        <time>2024-06-01T17:45:22+02:00</time>
      </trkpt>
      <trkpt lat="43.69444" lon="1.47764">
        <ele>201.2998</ele>
        <time>2024-06-01T17:45:26+02:00</time>
      </trkpt>
      <trkpt lat="43.69441" lon="1.4777">
        <ele>200.5</ele>
        <time>2024-06-01T17:45:27+02:00</time>
      </trkpt>
      <trkpt lat="43.69425" lon="1.47775">
        <ele>198.5</ele>
        <time>2024-06-01T17:45:31+02:00</time>
      </trkpt>
      <trkpt lat="43.69419" lon="1.47775">
        <ele>198.5</ele>
        <time>2024-06-01T17:45:32+02:00</time>
      </trkpt>
      <trkpt lat="43.69394" lon="1.47777">
        <ele>196.2002</ele>
        <time>2024-06-01T17:45:36+02:00</time>
      </trkpt>
      <trkpt lat="43.69389" lon="1.47777">
        <ele>195.7002</ele>
        <time>2024-06-01T17:45:37+02:00</time>
      </trkpt>
      <trkpt lat="43.69366" lon="1.47775">
        <ele>194</ele>
        <time>2024-06-01T17:45:41+02:00</time>
      </trkpt>
      <trkpt lat="43.6936" lon="1.47775">
        <ele>194</ele>
        <time>2024-06-01T17:45:42+02:00</time>
      </trkpt>
      <trkpt lat="43.69337" lon="1.47777">
        <ele>191.7002</ele>
        <time>2024-06-01T17:45:46+02:00</time>
      </trkpt>
      <trkpt lat="43.69331" lon="1.47777">
        <ele>191.2002</ele>
        <time>2024-06-01T17:45:47+02:00</time>
      </trkpt>
      <trkpt lat="43.69307" lon="1.47772">
        <ele>189.7002</ele>
        <time>2024-06-01T17:45:51+02:00</time>
      </trkpt>
      <trkpt lat="43.69301" lon="1.47766">
        <ele>189.7002</ele>
        <time>2024-06-01T17:45:52+02:00</time>
      </trkpt>
      <trkpt lat="43.6928" lon="1.4774">
        <ele>189</ele>
        <time>2024-06-01T17:45:56+02:00</time>
      </trkpt>
      <trkpt lat="43.69275" lon="1.47733">
        <ele>188.2998</ele>
        <time>2024-06-01T17:45:57+02:00</time>
      </trkpt>
      <trkpt lat="43.69255" lon="1.47713">
        <ele>187.5</ele>
        <time>2024-06-01T17:46:01+02:00</time>
      </trkpt>
      <trkpt lat="43.69251" lon="1.47709">
        <ele>186.7002</ele>
        <time>2024-06-01T17:46:02+02:00</time>
      </trkpt>
      <trkpt lat="43.69239" lon="1.47698">
        <ele>186.60059</ele>
        <time>2024-06-01T17:46:06+02:00</time>
      </trkpt>
      <trkpt lat="43.69236" lon="1.47695">
        <ele>186.5</ele>
        <time>2024-06-01T17:46:07+02:00</time>
      </trkpt>
      <trkpt lat="43.69222" lon="1.47687">
        <ele>186.2002</ele>
        <time>2024-06-01T17:46:11+02:00</time>
      </trkpt>
      <trkpt lat="43.69219" lon="1.47685">
        <ele>185.7998</ele>
        <time>2024-06-01T17:46:12+02:00</time>
      </trkpt>
      <trkpt lat="43.69202" lon="1.47667">
        <ele>186.2998</ele>
        <time>2024-06-01T17:46:16+02:00</time>
      </trkpt>
      <trkpt lat="43.69197" lon="1.47663">
        <ele>186.5</ele>
        <time>2024-06-01T17:46:17+02:00</time>
      </trkpt>
      <trkpt lat="43.69173" lon="1.47644">
        <ele>186.40039</ele>
        <time>2024-06-01T17:46:21+02:00</time>
      </trkpt>
      <trkpt lat="43.69167" lon="1.47639">
        <ele>186.2002</ele>
        <time>2024-06-01T17:46:22+02:00</time>
      </trkpt>
      <trkpt lat="43.69144" lon="1.47602">
        <ele>186.90039</ele>
        <time>2024-06-01T17:46:26+02:00</time>
      </trkpt>
      <trkpt lat="43.69139" lon="1.4759">
        <ele>186.7002</ele>
        <time>2024-06-01T17:46:27+02:00</time>
      </trkpt>
      <trkpt lat="43.69123" lon="1.47538">
        <ele>186.2002</ele>
        <time>2024-06-01T17:46:31+02:00</time>
      </trkpt>
      <trkpt lat="43.69121" lon="1.47525">
        <ele>185.5</ele>
        <time>2024-06-01T17:46:32+02:00</time>
      </trkpt>
      <trkpt lat="43.69108" lon="1.47474">
        <ele>183.7002</ele>
        <time>2024-06-01T17:46:36+02:00</time>
      </trkpt>
      <trkpt lat="43.69104" lon="1.47461">
        <ele>183.10059</ele>
        <time>2024-06-01T17:46:37+02:00</time>
      </trkpt>
      <trkpt lat="43.69081" lon="1.47409">
        <ele>179</ele>
        <time>2024-06-01T17:46:41+02:00</time>
      </trkpt>
      <trkpt lat="43.69074" lon="1.47397">
        <ele>177.7002</ele>
        <time>2024-06-01T17:46:42+02:00</time>
      </trkpt>
      <trkpt lat="43.69055" lon="1.47367">
        <ele>174.5</ele>
        <time>2024-06-01T17:46:46+02:00</time>
      </trkpt>
      <trkpt lat="43.69053" lon="1.47365">
        <ele>173.90039</ele>
        <time>2024-06-01T17:46:47+02:00</time>
      </trkpt>
      <trkpt lat="43.69042" lon="1.47371">
        <ele>173.2998</ele>
        <time>2024-06-01T17:46:51+02:00</time>
      </trkpt>
      <trkpt lat="43.6904" lon="1.47374">
        <ele>173.2998</ele>
        <time>2024-06-01T17:46:52+02:00</time>
      </trkpt>
      <trkpt lat="43.69032" lon="1.47385">
        <ele>173.2998</ele>
        <time>2024-06-01T17:46:56+02:00</time>
      </trkpt>
      <trkpt lat="43.69029" lon="1.47387">
        <ele>173.2998</ele>
        <time>2024-06-01T17:46:57+02:00</time>
      </trkpt>
      <trkpt lat="43.6902" lon="1.47394">
        <ele>173.10059</ele>
        <time>2024-06-01T17:47:01+02:00</time>
      </trkpt>
      <trkpt lat="43.69017" lon="1.47396">
        <ele>173.10059</ele>
        <time>2024-06-01T17:47:02+02:00</time>
      </trkpt>
      <trkpt lat="43.69007" lon="1.47402">
        <ele>173.2998</ele>
        <time>2024-06-01T17:47:06+02:00</time>
      </trkpt>
      <trkpt lat="43.69005" lon="1.47403">
        <ele>173.2998</ele>
        <time>2024-06-01T17:47:07+02:00</time>
      </trkpt>
      <trkpt lat="43.68995" lon="1.4741">
        <ele>173.7998</ele>
        <time>2024-06-01T17:47:11+02:00</time>
      </trkpt>
      <trkpt lat="43.68992" lon="1.47411">
        <ele>173.7998</ele>
        <time>2024-06-01T17:47:12+02:00</time>
      </trkpt>
      <trkpt lat="43.68982" lon="1.47414">
        <ele>174.2998</ele>
        <time>2024-06-01T17:47:16+02:00</time>
      </trkpt>
      <trkpt lat="43.68979" lon="1.47415">
        <ele>174.40039</ele>
        <time>2024-06-01T17:47:17+02:00</time>
      </trkpt>
      <trkpt lat="43.6897" lon="1.47423">
        <ele>175.2002</ele>
        <time>2024-06-01T17:47:21+02:00</time>
      </trkpt>
      <trkpt lat="43.68967" lon="1.47424">
        <ele>175.2998</ele>
        <time>2024-06-01T17:47:22+02:00</time>
      </trkpt>
      <trkpt lat="43.68958" lon="1.4743">
        <ele>176.10059</ele>
        <time>2024-06-01T17:47:26+02:00</time>
      </trkpt>
      <trkpt lat="43.68955" lon="1.47432">
        <ele>176.2002</ele>
        <time>2024-06-01T17:47:27+02:00</time>
      </trkpt>
      <trkpt lat="43.68945" lon="1.47433">
        <ele>176.7998</ele>
        <time>2024-06-01T17:47:31+02:00</time>
      </trkpt>
      <trkpt lat="43.68942" lon="1.47432">
        <ele>176.7998</ele>
        <time>2024-06-01T17:47:32+02:00</time>
      </trkpt>
      <trkpt lat="43.68934" lon="1.47419">
        <ele>177.10059</ele>
        <time>2024-06-01T17:47:36+02:00</time>
      </trkpt>
      <trkpt lat="43.68932" lon="1.47415">
        <ele>177.10059</ele>
        <time>2024-06-01T17:47:37+02:00</time>
      </trkpt>
      <trkpt lat="43.68922" lon="1.47406">
        <ele>177.5</ele>
        <time>2024-06-01T17:47:41+02:00</time>
      </trkpt>
      <trkpt lat="43.6892" lon="1.47403">
        <ele>177.5</ele>
        <time>2024-06-01T17:47:42+02:00</time>
      </trkpt>
      <trkpt lat="43.6891" lon="1.47393">
        <ele>178.40039</ele>
        <time>2024-06-01T17:47:46+02:00</time>
      </trkpt>
      <trkpt lat="43.68907" lon="1.4739">
        <ele>178.40039</ele>
        <time>2024-06-01T17:47:47+02:00</time>
      </trkpt>
      <trkpt lat="43.68902" lon="1.47373">
        <ele>179.10059</ele>
        <time>2024-06-01T17:47:51+02:00</time>
      </trkpt>
      <trkpt lat="43.68903" lon="1.47368">
        <ele>179.2998</ele>
        <time>2024-06-01T17:47:52+02:00</time>
      </trkpt>
      <trkpt lat="43.68909" lon="1.47347">
        <ele>179.2002</ele>
        <time>2024-06-01T17:47:56+02:00</time>
      </trkpt>
      <trkpt lat="43.68911" lon="1.47342">
        <ele>178.7998</ele>
        <time>2024-06-01T17:47:57+02:00</time>
      </trkpt>
      <trkpt lat="43.68922" lon="1.47321">
        <ele>178.60059</ele>
        <time>2024-06-01T17:48:01+02:00</time>
      </trkpt>
      <trkpt lat="43.68924" lon="1.47315">
        <ele>178.2002</ele>
        <time>2024-06-01T17:48:02+02:00</time>
      </trkpt>
      <trkpt lat="43.68936" lon="1.47289">
        <ele>177.40039</ele>
        <time>2024-06-01T17:48:06+02:00</time>
      </trkpt>
      <trkpt lat="43.68939" lon="1.47282">
        <ele>177.40039</ele>
        <time>2024-06-01T17:48:07+02:00</time>
      </trkpt>
      <trkpt lat="43.68941" lon="1.47252">
        <ele>177.2002</ele>
        <time>2024-06-01T17:48:11+02:00</time>
      </trkpt>
      <trkpt lat="43.68938" lon="1.47244">
        <ele>177.10059</ele>
        <time>2024-06-01T17:48:12+02:00</time>
      </trkpt>
      <trkpt lat="43.68919" lon="1.47218">
        <ele>177.10059</ele>
        <time>2024-06-01T17:48:16+02:00</time>
      </trkpt>
      <trkpt lat="43.68914" lon="1.47212">
        <ele>176.90039</ele>
        <time>2024-06-01T17:48:17+02:00</time>
      </trkpt>
      <trkpt lat="43.68889" lon="1.47186">
        <ele>176.2998</ele>
        <time>2024-06-01T17:48:21+02:00</time>
      </trkpt>
      <trkpt lat="43.68882" lon="1.47178">
        <ele>176.10059</ele>
        <time>2024-06-01T17:48:22+02:00</time>
      </trkpt>
      <trkpt lat="43.68854" lon="1.47141">
        <ele>176.60059</ele>
        <time>2024-06-01T17:48:26+02:00</time>
      </trkpt>
      <trkpt lat="43.68847" lon="1.47133">
        <ele>176.90039</ele>
        <time>2024-06-01T17:48:27+02:00</time>
      </trkpt>
      <trkpt lat="43.68826" lon="1.47112">
        <ele>178.2002</ele>
        <time>2024-06-01T17:48:31+02:00</time>
      </trkpt>
      <trkpt lat="43.68822" lon="1.47108">
        <ele>178.5</ele>
        <time>2024-06-01T17:48:32+02:00</time>
      </trkpt>
      <trkpt lat="43.68811" lon="1.47088">
        <ele>180.10059</ele>
        <time>2024-06-01T17:48:36+02:00</time>
      </trkpt>
      <trkpt lat="43.68808" lon="1.47082">
        <ele>180.10059</ele>
        <time>2024-06-01T17:48:37+02:00</time>
      </trkpt>
      <trkpt lat="43.68794" lon="1.4706">
        <ele>181.2002</ele>
        <time>2024-06-01T17:48:41+02:00</time>
      </trkpt>
      <trkpt lat="43.6879" lon="1.47056">
        <ele>181.5</ele>
        <time>2024-06-01T17:48:42+02:00</time>
      </trkpt>
      <trkpt lat="43.68773" lon="1.47041">
        <ele>182.2998</ele>
        <time>2024-06-01T17:48:46+02:00</time>
      </trkpt>
      <trkpt lat="43.68769" lon="1.47038">
        <ele>182.2998</ele>
        <time>2024-06-01T17:48:47+02:00</time>
      </trkpt>
      <trkpt lat="43.68751" lon="1.47033">
        <ele>183</ele>
        <time>2024-06-01T17:48:51+02:00</time>
      </trkpt>
      <trkpt lat="43.68747" lon="1.47037">
        <ele>183.2998</ele>
        <time>2024-06-01T17:48:52+02:00</time>
      </trkpt>
      <trkpt lat="43.68735" lon="1.4706">
        <ele>183.90039</ele>
        <time>2024-06-01T17:48:56+02:00</time>
      </trkpt>
      <trkpt lat="43.68732" lon="1.47065">
        <ele>183.90039</ele>
        <time>2024-06-01T17:48:57+02:00</time>
      </trkpt>
      <trkpt lat="43.68721" lon="1.47085">
        <ele>184.5</ele>
        <time>2024-06-01T17:49:01+02:00</time>
      </trkpt>
      <trkpt lat="43.68718" lon="1.4709">
        <ele>184.60059</ele>
        <time>2024-06-01T17:49:02+02:00</time>
      </trkpt>
      <trkpt lat="43.68702" lon="1.47104">
        <ele>185.40039</ele>
        <time>2024-06-01T17:49:06+02:00</time>
      </trkpt>
      <trkpt lat="43.68697" lon="1.47103">
        <ele>185.60059</ele>
        <time>2024-06-01T17:49:07+02:00</time>
      </trkpt>
      <trkpt lat="43.68681" lon="1.47085">
        <ele>186.2002</ele>
        <time>2024-06-01T17:49:11+02:00</time>
      </trkpt>
      <trkpt lat="43.68678" lon="1.4708">
        <ele>186.5</ele>
        <time>2024-06-01T17:49:12+02:00</time>
      </trkpt>
      <trkpt lat="43.68664" lon="1.47061">
        <ele>187.10059</ele>
        <time>2024-06-01T17:49:16+02:00</time>
      </trkpt>
      <trkpt lat="43.6866" lon="1.47057">
        <ele>187.5</ele>
        <time>2024-06-01T17:49:17+02:00</time>
      </trkpt>
      <trkpt lat="43.68646" lon="1.47038">
        <ele>188.10059</ele>
        <time>2024-06-01T17:49:21+02:00</time>
      </trkpt>
      <trkpt lat="43.68643" lon="1.47033">
        <ele>188.40039</ele>
        <time>2024-06-01T17:49:22+02:00</time>
      </trkpt>
      <trkpt lat="43.68628" lon="1.47015">
        <ele>189.2002</ele>
        <time>2024-06-01T17:49:26+02:00</time>
      </trkpt>
      <trkpt lat="43.68625" lon="1.4701">
        <ele>189</ele>
        <time>2024-06-01T17:49:27+02:00</time>
      </trkpt>
      <trkpt lat="43.68612" lon="1.46991">
        <ele>190.40039</ele>
        <time>2024-06-01T17:49:31+02:00</time>
      </trkpt>
      <trkpt lat="43.68609" lon="1.46986">
        <ele>190.40039</ele>
        <time>2024-06-01T17:49:32+02:00</time>
      </trkpt>
      <trkpt lat="43.68596" lon="1.46968">
        <ele>191</ele>
        <time>2024-06-01T17:49:36+02:00</time>
      </trkpt>
      <trkpt lat="43.68593" lon="1.46963">
        <ele>191.60059</ele>
        <time>2024-06-01T17:49:37+02:00</time>
      </trkpt>
      <trkpt lat="43.68577" lon="1.46946">
        <ele>192.40039</ele>
        <time>2024-06-01T17:49:41+02:00</time>
      </trkpt>
      <trkpt lat="43.68574" lon="1.46941">
        <ele>192.7002</ele>
        <time>2024-06-01T17:49:42+02:00</time>
      </trkpt>
      <trkpt lat="43.68559" lon="1.46923">
        <ele>193.2002</ele>
        <time>2024-06-01T17:49:46+02:00</time>
      </trkpt>
      <trkpt lat="43.68555" lon="1.46917">
        <ele>193.5</ele>
        <time>2024-06-01T17:49:47+02:00</time>
      </trkpt>
      <trkpt lat="43.68556" lon="1.46884">
        <ele>192.7002</ele>
        <time>2024-06-01T17:49:51+02:00</time>
      </trkpt>
      <trkpt lat="43.68557" lon="1.46876">
        <ele>192.2998</ele>
        <time>2024-06-01T17:49:52+02:00</time>
      </trkpt>
      <trkpt lat="43.68544" lon="1.46841">
        <ele>191.40039</ele>
        <time>2024-06-01T17:49:56+02:00</time>
      </trkpt>
      <trkpt lat="43.6854" lon="1.46834">
        <ele>191</ele>
        <time>2024-06-01T17:49:57+02:00</time>
      </trkpt>
      <trkpt lat="43.68524" lon="1.46809">
        <ele>190.10059</ele>
        <time>2024-06-01T17:50:01+02:00</time>
      </trkpt>
      <trkpt lat="43.6852" lon="1.46804">
        <ele>189.60059</ele>
        <time>2024-06-01T17:50:02+02:00</time>
      </trkpt>
      <trkpt lat="43.68498" lon="1.46796">
        <ele>189.2998</ele>
        <time>2024-06-01T17:50:06+02:00</time>
      </trkpt>
      <trkpt lat="43.68492" lon="1.46796">
        <ele>189.2998</ele>
        <time>2024-06-01T17:50:07+02:00</time>
      </trkpt>
      <trkpt lat="43.68469" lon="1.46806">
        <ele>189.90039</ele>
        <time>2024-06-01T17:50:11+02:00</time>
      </trkpt>
      <trkpt lat="43.68464" lon="1.46811">
        <ele>189.90039</ele>
        <time>2024-06-01T17:50:12+02:00</time>
      </trkpt>
      <trkpt lat="43.68449" lon="1.46833">
        <ele>191</ele>
        <time>2024-06-01T17:50:16+02:00</time>
      </trkpt>
      <trkpt lat="43.68446" lon="1.46838">
        <ele>191</ele>
        <time>2024-06-01T17:50:17+02:00</time>
      </trkpt>
      <trkpt lat="43.68435" lon="1.46857">
        <ele>192.10059</ele>
        <time>2024-06-01T17:50:21+02:00</time>
      </trkpt>
      <trkpt lat="43.68432" lon="1.46862">
        <ele>192.10059</ele>
        <time>2024-06-01T17:50:22+02:00</time>
      </trkpt>
      <trkpt lat="43.68426" lon="1.46866">
        <ele>192.10059</ele>
        <time>2024-06-01T17:50:24+02:00</time>
      </trkpt>
      <trkpt lat="43.68418" lon="1.46857">
        <ele>191.5</ele>
        <time>2024-06-01T17:50:26+02:00</time>
      </trkpt>
      <trkpt lat="43.68414" lon="1.46851">
        <ele>191.10059</ele>
        <time>2024-06-01T17:50:27+02:00</time>
      </trkpt>
      <trkpt lat="43.68397" lon="1.46828">
        <ele>189</ele>
        <time>2024-06-01T17:50:31+02:00</time>
      </trkpt>
      <trkpt lat="43.68392" lon="1.46822">
        <ele>188.40039</ele>
        <time>2024-06-01T17:50:32+02:00</time>
      </trkpt>
      <trkpt lat="43.68372" lon="1.46796">
        <ele>186.7002</ele>
        <time>2024-06-01T17:50:36+02:00</time>
      </trkpt>
      <trkpt lat="43.68368" lon="1.46789">
        <ele>186.5</ele>
        <time>2024-06-01T17:50:37+02:00</time>
      </trkpt>
      <trkpt lat="43.68348" lon="1.46761">
        <ele>184.60059</ele>
        <time>2024-06-01T17:50:41+02:00</time>
      </trkpt>
      <trkpt lat="43.68343" lon="1.46754">
        <ele>184.40039</ele>
        <time>2024-06-01T17:50:42+02:00</time>
      </trkpt>
      <trkpt lat="43.68323" lon="1.46725">
        <ele>182.2998</ele>
        <time>2024-06-01T17:50:46+02:00</time>
      </trkpt>
      <trkpt lat="43.68318" lon="1.46718">
        <ele>181.5</ele>
        <time>2024-06-01T17:50:47+02:00</time>
      </trkpt>
      <trkpt lat="43.68298" lon="1.46693">
        <ele>178.7002</ele>
        <time>2024-06-01T17:50:51+02:00</time>
      </trkpt>
      <trkpt lat="43.68294" lon="1.46687">
        <ele>178.2002</ele>
        <time>2024-06-01T17:50:52+02:00</time>
      </trkpt>
      <trkpt lat="43.68288" lon="1.46661">
        <ele>175.7998</ele>
        <time>2024-06-01T17:50:56+02:00</time>
      </trkpt>
      <trkpt lat="43.68291" lon="1.46653">
        <ele>175.90039</ele>
        <time>2024-06-01T17:50:57+02:00</time>
      </trkpt>
      <trkpt lat="43.68299" lon="1.46623">
        <ele>174.5</ele>
        <time>2024-06-01T17:51:01+02:00</time>
      </trkpt>
      <trkpt lat="43.68301" lon="1.46615">
        <ele>174</ele>
        <time>2024-06-01T17:51:02+02:00</time>
      </trkpt>
      <trkpt lat="43.68311" lon="1.46583">
        <ele>173.2998</ele>
        <time>2024-06-01T17:51:06+02:00</time>
      </trkpt>
      <trkpt lat="43.68314" lon="1.46576">
        <ele>172.60059</ele>
        <time>2024-06-01T17:51:07+02:00</time>
      </trkpt>
      <trkpt lat="43.68326" lon="1.46545">
        <ele>171.10059</ele>
        <time>2024-06-01T17:51:11+02:00</time>
      </trkpt>
      <trkpt lat="43.68331" lon="1.46537">
        <ele>171</ele>
        <time>2024-06-01T17:51:12+02:00</time>
      </trkpt>
      <trkpt lat="43.68349" lon="1.46506">
        <ele>170.60059</ele>
        <time>2024-06-01T17:51:16+02:00</time>
      </trkpt>
      <trkpt lat="43.68354" lon="1.46498">
        <ele>170.2998</ele>
        <time>2024-06-01T17:51:17+02:00</time>
      </trkpt>
      <trkpt lat="43.68356" lon="1.46484">
        <ele>169.2002</ele>
        <time>2024-06-01T17:51:19+02:00</time>
      </trkpt>
      <trkpt lat="43.68348" lon="1.46474">
        <ele>168.10059</ele>
        <time>2024-06-01T17:51:21+02:00</time>
      </trkpt>
      <trkpt lat="43.68342" lon="1.46471">
        <ele>167.5</ele>
        <time>2024-06-01T17:51:22+02:00</time>
      </trkpt>
      <trkpt lat="43.68311" lon="1.46452">
        <ele>162.5</ele>
        <time>2024-06-01T17:51:26+02:00</time>
      </trkpt>
      <trkpt lat="43.68302" lon="1.46446">
        <ele>161.10059</ele>
        <time>2024-06-01T17:51:27+02:00</time>
      </trkpt>
      <trkpt lat="43.68257" lon="1.46423">
        <ele>155.40039</ele>
        <time>2024-06-01T17:51:31+02:00</time>
      </trkpt>
      <trkpt lat="43.68245" lon="1.46418">
        <ele>154.7002</ele>
        <time>2024-06-01T17:51:32+02:00</time>
      </trkpt>
      <trkpt lat="43.68208" lon="1.46395">
        <ele>154.2998</ele>
        <time>2024-06-01T17:51:36+02:00</time>
      </trkpt>
      <trkpt lat="43.682" lon="1.4639">
        <ele>154.10059</ele>
        <time>2024-06-01T17:51:37+02:00</time>
      </trkpt>
      <trkpt lat="43.68185" lon="1.46371">
        <ele>154.10059</ele>
        <time>2024-06-01T17:51:41+02:00</time>
      </trkpt>
      <trkpt lat="43.68186" lon="1.46366">
        <ele>154</ele>
        <time>2024-06-01T17:51:42+02:00</time>
      </trkpt>
      <trkpt lat="43.682" lon="1.46352">
        <ele>153.7002</ele>
        <time>2024-06-01T17:51:46+02:00</time>
      </trkpt>
      <trkpt lat="43.68203" lon="1.46347">
        <ele>153.5</ele>
        <time>2024-06-01T17:51:47+02:00</time>
      </trkpt>
      <trkpt lat="43.68218" lon="1.46326">
        <ele>153.2002</ele>
        <time>2024-06-01T17:51:51+02:00</time>
      </trkpt>
      <trkpt lat="43.68221" lon="1.46321">
        <ele>153.10059</ele>
        <time>2024-06-01T17:51:52+02:00</time>
      </trkpt>
      <trkpt lat="43.68235" lon="1.46298">
        <ele>152.7998</ele>
        <time>2024-06-01T17:51:56+02:00</time>
      </trkpt>
      <trkpt lat="43.68238" lon="1.46293">
        <ele>152.7998</ele>
        <time>2024-06-01T17:51:57+02:00</time>
      </trkpt>
      <trkpt lat="43.68249" lon="1.46268">
        <ele>152.7002</ele>
        <time>2024-06-01T17:52:01+02:00</time>
      </trkpt>
      <trkpt lat="43.68251" lon="1.46261">
        <ele>152.7002</ele>
        <time>2024-06-01T17:52:02+02:00</time>
      </trkpt>
      <trkpt lat="43.6826" lon="1.46234">
        <ele>152.2002</ele>
        <time>2024-06-01T17:52:06+02:00</time>
      </trkpt>
      <trkpt lat="43.68261" lon="1.46227">
        <ele>152.2002</ele>
        <time>2024-06-01T17:52:07+02:00</time>
      </trkpt>
      <trkpt lat="43.68269" lon="1.46201">
        <ele>151.90039</ele>
        <time>2024-06-01T17:52:11+02:00</time>
      </trkpt>
      <trkpt lat="43.68272" lon="1.46195">
        <ele>151.60059</ele>
        <time>2024-06-01T17:52:12+02:00</time>
      </trkpt>
      <trkpt lat="43.6828" lon="1.46169">
        <ele>151.2998</ele>
        <time>2024-06-01T17:52:16+02:00</time>
      </trkpt>
      <trkpt lat="43.68282" lon="1.46163">
        <ele>151.2998</ele>
        <time>2024-06-01T17:52:17+02:00</time>
      </trkpt>
      <trkpt lat="43.68285" lon="1.46136">
        <ele>151</ele>
        <time>2024-06-01T17:52:21+02:00</time>
      </trkpt>
      <trkpt lat="43.68285" lon="1.4613">
        <ele>150.90039</ele>
        <time>2024-06-01T17:52:22+02:00</time>
      </trkpt>
      <trkpt lat="43.68283" lon="1.46104">
        <ele>150.7002</ele>
        <time>2024-06-01T17:52:26+02:00</time>
      </trkpt>
      <trkpt lat="43.68282" lon="1.46097">
        <ele>150.5</ele>
        <time>2024-06-01T17:52:27+02:00</time>
      </trkpt>
      <trkpt lat="43.68281" lon="1.46063">
        <ele>149.5</ele>
        <time>2024-06-01T17:52:31+02:00</time>
      </trkpt>
      <trkpt lat="43.68279" lon="1.46054">
        <ele>149.2002</ele>
        <time>2024-06-01T17:52:32+02:00</time>
      </trkpt>
      <trkpt lat="43.6827" lon="1.46016">
        <ele>148.2998</ele>
        <time>2024-06-01T17:52:36+02:00</time>
      </trkpt>
      <trkpt lat="43.68267" lon="1.46005">
        <ele>147.60059</ele>
        <time>2024-06-01T17:52:37+02:00</time>
      </trkpt>
      <trkpt lat="43.68263" lon="1.45959">
        <ele>145.5</ele>
        <time>2024-06-01T17:52:41+02:00</time>
      </trkpt>
      <trkpt lat="43.68264" lon="1.45948">
        <ele>145</ele>
        <time>2024-06-01T17:52:42+02:00</time>
      </trkpt>
      <trkpt lat="43.6827" lon="1.4591">
        <ele>142.5</ele>
        <time>2024-06-01T17:52:46+02:00</time>
      </trkpt>
      <trkpt lat="43.68271" lon="1.45905">
        <ele>142.5</ele>
        <time>2024-06-01T17:52:47+02:00</time>
      </trkpt>
      <trkpt lat="43.68272" lon="1.45896">
        <ele>142.2002</ele>
        <time>2024-06-01T17:52:51+02:00</time>
      </trkpt>
      <trkpt lat="43.68272" lon="1.45894">
        <ele>141.90039</ele>
        <time>2024-06-01T17:52:52+02:00</time>
      </trkpt>
      <trkpt lat="43.68268" lon="1.45889">
        <ele>141.7998</ele>
        <time>2024-06-01T17:52:56+02:00</time>
      </trkpt>
      <trkpt lat="43.68268" lon="1.45887">
        <ele>141.7998</ele>
        <time>2024-06-01T17:52:57+02:00</time>
      </trkpt>
      <trkpt lat="43.68269" lon="1.45881">
        <ele>141.60059</ele>
        <time>2024-06-01T17:53:01+02:00</time>
      </trkpt>
      <trkpt lat="43.68269" lon="1.45881">
        <ele>141.60059</ele>
        <time>2024-06-01T17:53:02+02:00</time>
      </trkpt>
      <trkpt lat="43.68272" lon="1.45868">
        <ele>141.2002</ele>
        <time>2024-06-01T17:53:06+02:00</time>
      </trkpt>
      <trkpt lat="43.68271" lon="1.45863">
        <ele>141.2002</ele>
        <time>2024-06-01T17:53:07+02:00</time>
      </trkpt>
      <trkpt lat="43.68273" lon="1.45846">
        <ele>140.7998</ele>
        <time>2024-06-01T17:53:11+02:00</time>
      </trkpt>
      <trkpt lat="43.68273" lon="1.4584">
        <ele>140.60059</ele>
        <time>2024-06-01T17:53:12+02:00</time>
      </trkpt>
      <trkpt lat="43.68275" lon="1.45815">
        <ele>140</ele>
        <time>2024-06-01T17:53:16+02:00</time>
      </trkpt>
      <trkpt lat="43.68275" lon="1.45808">
        <ele>139.90039</ele>
        <time>2024-06-01T17:53:17+02:00</time>
      </trkpt>
      <trkpt lat="43.68276" lon="1.45781">
        <ele>139.2998</ele>
        <time>2024-06-01T17:53:21+02:00</time>
      </trkpt>
      <trkpt lat="43.68276" lon="1.45774">
        <ele>139.2002</ele>
        <time>2024-06-01T17:53:22+02:00</time>
      </trkpt>
      <trkpt lat="43.68278" lon="1.4575">
        <ele>139</ele>
        <time>2024-06-01T17:53:26+02:00</time>
      </trkpt>
      <trkpt lat="43.68278" lon="1.45743">
        <ele>138.90039</ele>
        <time>2024-06-01T17:53:27+02:00</time>
      </trkpt>
      <trkpt lat="43.6828" lon="1.45712">
        <ele>138.40039</ele>
        <time>2024-06-01T17:53:31+02:00</time>
      </trkpt>
      <trkpt lat="43.68281" lon="1.45704">
        <ele>138.2998</ele>
        <time>2024-06-01T17:53:32+02:00</time>
      </trkpt>
      <trkpt lat="43.68281" lon="1.45674">
        <ele>138</ele>
        <time>2024-06-01T17:53:36+02:00</time>
      </trkpt>
      <trkpt lat="43.68281" lon="1.45666">
        <ele>137.90039</ele>
        <time>2024-06-01T17:53:37+02:00</time>
      </trkpt>
      <trkpt lat="43.68278" lon="1.45637">
        <ele>137.40039</ele>
        <time>2024-06-01T17:53:41+02:00</time>
      </trkpt>
      <trkpt lat="43.68277" lon="1.4563">
        <ele>137.2002</ele>
        <time>2024-06-01T17:53:42+02:00</time>
      </trkpt>
      <trkpt lat="43.68271" lon="1.45601">
        <ele>136.7002</ele>
        <time>2024-06-01T17:53:46+02:00</time>
      </trkpt>
      <trkpt lat="43.68269" lon="1.45595">
        <ele>136.5</ele>
        <time>2024-06-01T17:53:47+02:00</time>
      </trkpt>
      <trkpt lat="43.68263" lon="1.45568">
        <ele>136</ele>
        <time>2024-06-01T17:53:51+02:00</time>
      </trkpt>
      <trkpt lat="43.68262" lon="1.45561">
        <ele>136</ele>
        <time>2024-06-01T17:53:52+02:00</time>
      </trkpt>
      <trkpt lat="43.68255" lon="1.45534">
        <ele>135.60059</ele>
        <time>2024-06-01T17:53:56+02:00</time>
      </trkpt>
      <trkpt lat="43.68253" lon="1.45527">
        <ele>135.60059</ele>
        <time>2024-06-01T17:53:57+02:00</time>
      </trkpt>
      <trkpt lat="43.68246" lon="1.45501">
        <ele>135.2998</ele>
        <time>2024-06-01T17:54:01+02:00</time>
      </trkpt>
      <trkpt lat="43.68245" lon="1.45496">
        <ele>135.2998</ele>
        <time>2024-06-01T17:54:02+02:00</time>
      </trkpt>
      <trkpt lat="43.68238" lon="1.45474">
        <ele>135.2998</ele>
        <time>2024-06-01T17:54:06+02:00</time>
      </trkpt>
      <trkpt lat="43.68236" lon="1.45467">
        <ele>135.2998</ele>
        <time>2024-06-01T17:54:07+02:00</time>
      </trkpt>
      <trkpt lat="43.68229" lon="1.45443">
        <ele>135.40039</ele>
        <time>2024-06-01T17:54:11+02:00</time>
      </trkpt>
      <trkpt lat="43.68226" lon="1.45437">
        <ele>135.5</ele>
        <time>2024-06-01T17:54:12+02:00</time>
      </trkpt>
      <trkpt lat="43.68218" lon="1.45409">
        <ele>135.60059</ele>
        <time>2024-06-01T17:54:16+02:00</time>
      </trkpt>
      <trkpt lat="43.68217" lon="1.45403">
        <ele>135.60059</ele>
        <time>2024-06-01T17:54:17+02:00</time>
      </trkpt>
      <trkpt lat="43.68209" lon="1.45374">
        <ele>135.60059</ele>
        <time>2024-06-01T17:54:21+02:00</time>
      </trkpt>
      <trkpt lat="43.68207" lon="1.45366">
        <ele>135.7002</ele>
        <time>2024-06-01T17:54:22+02:00</time>
      </trkpt>
      <trkpt lat="43.68199" lon="1.45334">
        <ele>135.60059</ele>
        <time>2024-06-01T17:54:26+02:00</time>
      </trkpt>
      <trkpt lat="43.68197" lon="1.45326">
        <ele>135.5</ele>
        <time>2024-06-01T17:54:27+02:00</time>
      </trkpt>
      <trkpt lat="43.6819" lon="1.45296">
        <ele>135.5</ele>
        <time>2024-06-01T17:54:31+02:00</time>
      </trkpt>
      <trkpt lat="43.68188" lon="1.45289">
        <ele>135.40039</ele>
        <time>2024-06-01T17:54:32+02:00</time>
      </trkpt>
      <trkpt lat="43.68181" lon="1.45261">
        <ele>135.40039</ele>
        <time>2024-06-01T17:54:36+02:00</time>
      </trkpt>
      <trkpt lat="43.68179" lon="1.45255">
        <ele>135.2998</ele>
        <time>2024-06-01T17:54:37+02:00</time>
      </trkpt>
      <trkpt lat="43.68172" lon="1.45229">
        <ele>135.10059</ele>
        <time>2024-06-01T17:54:41+02:00</time>
      </trkpt>
      <trkpt lat="43.6817" lon="1.45223">
        <ele>135.10059</ele>
        <time>2024-06-01T17:54:42+02:00</time>
      </trkpt>
      <trkpt lat="43.68163" lon="1.45204">
        <ele>134.7998</ele>
        <time>2024-06-01T17:54:46+02:00</time>
      </trkpt>
      <trkpt lat="43.6816" lon="1.45204">
        <ele>134.7998</ele>
        <time>2024-06-01T17:54:47+02:00</time>
      </trkpt>
      <trkpt lat="43.68149" lon="1.45214">
        <ele>135</ele>
        <time>2024-06-01T17:54:51+02:00</time>
      </trkpt>
      <trkpt lat="43.68147" lon="1.45217">
        <ele>135</ele>
        <time>2024-06-01T17:54:52+02:00</time>
      </trkpt>
      <trkpt lat="43.68134" lon="1.4523">
        <ele>135.2998</ele>
        <time>2024-06-01T17:54:56+02:00</time>
      </trkpt>
      <trkpt lat="43.6813" lon="1.45234">
        <ele>135.40039</ele>
        <time>2024-06-01T17:54:57+02:00</time>
      </trkpt>
      <trkpt lat="43.68114" lon="1.45249">
        <ele>135.40039</ele>
        <time>2024-06-01T17:55:01+02:00</time>
      </trkpt>
      <trkpt lat="43.68109" lon="1.45253">
        <ele>135.5</ele>
        <time>2024-06-01T17:55:02+02:00</time>
      </trkpt>
      <trkpt lat="43.68091" lon="1.45269">
        <ele>135.5</ele>
        <time>2024-06-01T17:55:06+02:00</time>
      </trkpt>
      <trkpt lat="43.68086" lon="1.45273">
        <ele>135.5</ele>
        <time>2024-06-01T17:55:07+02:00</time>
      </trkpt>
      <trkpt lat="43.68067" lon="1.45291">
        <ele>135.7002</ele>
        <time>2024-06-01T17:55:11+02:00</time>
      </trkpt>
      <trkpt lat="43.68062" lon="1.45295">
        <ele>135.7998</ele>
        <time>2024-06-01T17:55:12+02:00</time>
      </trkpt>
      <trkpt lat="43.68042" lon="1.45311">
        <ele>136.2002</ele>
        <time>2024-06-01T17:55:16+02:00</time>
      </trkpt>
      <trkpt lat="43.68037" lon="1.45316">
        <ele>136.2998</ele>
        <time>2024-06-01T17:55:17+02:00</time>
      </trkpt>
      <trkpt lat="43.68017" lon="1.45331">
        <ele>136.60059</ele>
        <time>2024-06-01T17:55:21+02:00</time>
      </trkpt>
      <trkpt lat="43.68013" lon="1.45334">
        <ele>136.60059</ele>
        <time>2024-06-01T17:55:22+02:00</time>
      </trkpt>
      <trkpt lat="43.67994" lon="1.45348">
        <ele>136.7002</ele>
        <time>2024-06-01T17:55:26+02:00</time>
      </trkpt>
      <trkpt lat="43.67989" lon="1.45351">
        <ele>136.60059</ele>
        <time>2024-06-01T17:55:27+02:00</time>
      </trkpt>
      <trkpt lat="43.6797" lon="1.45369">
        <ele>136.2998</ele>
        <time>2024-06-01T17:55:31+02:00</time>
      </trkpt>
      <trkpt lat="43.67965" lon="1.45371">
        <ele>136.10059</ele>
        <time>2024-06-01T17:55:32+02:00</time>
      </trkpt>
      <trkpt lat="43.67948" lon="1.45377">
        <ele>135.60059</ele>
        <time>2024-06-01T17:55:36+02:00</time>
      </trkpt>
      <trkpt lat="43.67945" lon="1.45377">
        <ele>135.60059</ele>
        <time>2024-06-01T17:55:37+02:00</time>
      </trkpt>
      <trkpt lat="43.67926" lon="1.45385">
        <ele>135.2002</ele>
        <time>2024-06-01T17:55:41+02:00</time>
      </trkpt>
      <trkpt lat="43.6792" lon="1.45389">
        <ele>135.2002</ele>
        <time>2024-06-01T17:55:42+02:00</time>
      </trkpt>
      <trkpt lat="43.67899" lon="1.45405">
        <ele>135.10059</ele>
        <time>2024-06-01T17:55:46+02:00</time>
      </trkpt>
      <trkpt lat="43.67893" lon="1.45409">
        <ele>135.2002</ele>
        <time>2024-06-01T17:55:47+02:00</time>
      </trkpt>
      <trkpt lat="43.67872" lon="1.45428">
        <ele>135.60059</ele>
        <time>2024-06-01T17:55:51+02:00</time>
      </trkpt>
      <trkpt lat="43.67866" lon="1.45432">
        <ele>135.7002</ele>
        <time>2024-06-01T17:55:52+02:00</time>
      </trkpt>
      <trkpt lat="43.67842" lon="1.45436">
        <ele>135.7998</ele>
        <time>2024-06-01T17:55:56+02:00</time>
      </trkpt>
      <trkpt lat="43.67836" lon="1.45431">
        <ele>135.7998</ele>
        <time>2024-06-01T17:55:57+02:00</time>
      </trkpt>
      <trkpt lat="43.67814" lon="1.45411">
        <ele>135.60059</ele>
        <time>2024-06-01T17:56:01+02:00</time>
      </trkpt>
      <trkpt lat="43.67809" lon="1.45406">
        <ele>135.5</ele>
        <time>2024-06-01T17:56:02+02:00</time>
      </trkpt>
      <trkpt lat="43.67787" lon="1.4539">
        <ele>135</ele>
        <time>2024-06-01T17:56:06+02:00</time>
      </trkpt>
      <trkpt lat="43.67781" lon="1.45386">
        <ele>134.7998</ele>
        <time>2024-06-01T17:56:07+02:00</time>
      </trkpt>
      <trkpt lat="43.67759" lon="1.45369">
        <ele>134.10059</ele>
        <time>2024-06-01T17:56:11+02:00</time>
      </trkpt>
      <trkpt lat="43.67753" lon="1.45364">
        <ele>134.10059</ele>
        <time>2024-06-01T17:56:12+02:00</time>
      </trkpt>
      <trkpt lat="43.67732" lon="1.45346">
        <ele>133.7002</ele>
        <time>2024-06-01T17:56:16+02:00</time>
      </trkpt>
      <trkpt lat="43.67727" lon="1.45341">
        <ele>133.5</ele>
        <time>2024-06-01T17:56:17+02:00</time>
      </trkpt>
      <trkpt lat="43.67703" lon="1.45327">
        <ele>133.40039</ele>
        <time>2024-06-01T17:56:21+02:00</time>
      </trkpt>
      <trkpt lat="43.67697" lon="1.45325">
        <ele>133.5</ele>
        <time>2024-06-01T17:56:22+02:00</time>
      </trkpt>
      <trkpt lat="43.67672" lon="1.4532">
        <ele>133.7998</ele>
        <time>2024-06-01T17:56:26+02:00</time>
      </trkpt>
      <trkpt lat="43.67666" lon="1.45319">
        <ele>133.7002</ele>
        <time>2024-06-01T17:56:27+02:00</time>
      </trkpt>
      <trkpt lat="43.6764" lon="1.45316">
        <ele>133.7998</ele>
        <time>2024-06-01T17:56:31+02:00</time>
      </trkpt>
      <trkpt lat="43.67634" lon="1.45317">
        <ele>133.7998</ele>
        <time>2024-06-01T17:56:32+02:00</time>
      </trkpt>
      <trkpt lat="43.67611" lon="1.45319">
        <ele>133.7002</ele>
        <time>2024-06-01T17:56:36+02:00</time>
      </trkpt>
      <trkpt lat="43.67605" lon="1.45319">
        <ele>133.60059</ele>
        <time>2024-06-01T17:56:37+02:00</time>
      </trkpt>
      <trkpt lat="43.67582" lon="1.4533">
        <ele>133.7998</ele>
        <time>2024-06-01T17:56:41+02:00</time>
      </trkpt>
      <trkpt lat="43.67577" lon="1.45334">
        <ele>133.7998</ele>
        <time>2024-06-01T17:56:42+02:00</time>
      </trkpt>
      <trkpt lat="43.67554" lon="1.4535">
        <ele>133.7002</ele>
        <time>2024-06-01T17:56:46+02:00</time>
      </trkpt>
      <trkpt lat="43.67548" lon="1.45354">
        <ele>133.7002</ele>
        <time>2024-06-01T17:56:47+02:00</time>
      </trkpt>
      <trkpt lat="43.67526" lon="1.45373">
        <ele>133.40039</ele>
        <time>2024-06-01T17:56:51+02:00</time>
      </trkpt>
      <trkpt lat="43.6752" lon="1.45378">
        <ele>133.40039</ele>
        <time>2024-06-01T17:56:52+02:00</time>
      </trkpt>
      <trkpt lat="43.67496" lon="1.45391">
        <ele>133.2998</ele>
        <time>2024-06-01T17:56:56+02:00</time>
      </trkpt>
      <trkpt lat="43.67489" lon="1.4539">
        <ele>133.2998</ele>
        <time>2024-06-01T17:56:57+02:00</time>
      </trkpt>
      <trkpt lat="43.67467" lon="1.45367">
        <ele>133.7002</ele>
        <time>2024-06-01T17:57:01+02:00</time>
      </trkpt>
      <trkpt lat="43.67463" lon="1.4536">
        <ele>133.7998</ele>
        <time>2024-06-01T17:57:02+02:00</time>
      </trkpt>
      <trkpt lat="43.67453" lon="1.45326">
        <ele>133.7998</ele>
        <time>2024-06-01T17:57:06+02:00</time>
      </trkpt>
      <trkpt lat="43.6745" lon="1.45317">
        <ele>133.7002</ele>
        <time>2024-06-01T17:57:07+02:00</time>
      </trkpt>
      <trkpt lat="43.67439" lon="1.45284">
        <ele>133</ele>
        <time>2024-06-01T17:57:11+02:00</time>
      </trkpt>
      <trkpt lat="43.67437" lon="1.45276">
        <ele>132.7998</ele>
        <time>2024-06-01T17:57:12+02:00</time>
      </trkpt>
      <trkpt lat="43.67431" lon="1.45266">
        <ele>132.60059</ele>
        <time>2024-06-01T17:57:14+02:00</time>
      </trkpt>
      <trkpt lat="43.67419" lon="1.45273">
        <ele>132.7002</ele>
        <time>2024-06-01T17:57:16+02:00</time>
      </trkpt>
      <trkpt lat="43.67412" lon="1.4528">
        <ele>132.90039</ele>
        <time>2024-06-01T17:57:17+02:00</time>
      </trkpt>
      <trkpt lat="43.67385" lon="1.453">
        <ele>133.2998</ele>
        <time>2024-06-01T17:57:21+02:00</time>
      </trkpt>
      <trkpt lat="43.67378" lon="1.45304">
        <ele>133.5</ele>
        <time>2024-06-01T17:57:22+02:00</time>
      </trkpt>
      <trkpt lat="43.67351" lon="1.45303">
        <ele>133.60059</ele>
        <time>2024-06-01T17:57:26+02:00</time>
      </trkpt>
      <trkpt lat="43.67345" lon="1.45301">
        <ele>133.5</ele>
        <time>2024-06-01T17:57:27+02:00</time>
      </trkpt>
      <trkpt lat="43.6732" lon="1.45296">
        <ele>133.60059</ele>
        <time>2024-06-01T17:57:31+02:00</time>
      </trkpt>
      <trkpt lat="43.67314" lon="1.45297">
        <ele>133.60059</ele>
        <time>2024-06-01T17:57:32+02:00</time>
      </trkpt>
      <trkpt lat="43.67291" lon="1.45309">
        <ele>133.7002</ele>
        <time>2024-06-01T17:57:36+02:00</time>
      </trkpt>
      <trkpt lat="43.67286" lon="1.45312">
        <ele>133.7998</ele>
        <time>2024-06-01T17:57:37+02:00</time>
      </trkpt>
      <trkpt lat="43.6727" lon="1.45318">
        <ele>133.7002</ele>
        <time>2024-06-01T17:57:41+02:00</time>
      </trkpt>
      <trkpt lat="43.67265" lon="1.45319">
        <ele>133.7002</ele>
        <time>2024-06-01T17:57:42+02:00</time>
      </trkpt>
      <trkpt lat="43.67247" lon="1.45346">
        <ele>133.2998</ele>
        <time>2024-06-01T17:57:46+02:00</time>
      </trkpt>
      <trkpt lat="43.67242" lon="1.45352">
        <ele>133.2002</ele>
        <time>2024-06-01T17:57:47+02:00</time>
      </trkpt>
      <trkpt lat="43.67218" lon="1.45372">
        <ele>131.90039</ele>
        <time>2024-06-01T17:57:51+02:00</time>
      </trkpt>
      <trkpt lat="43.67213" lon="1.45375">
        <ele>131.7998</ele>
        <time>2024-06-01T17:57:52+02:00</time>
      </trkpt>
      <trkpt lat="43.67205" lon="1.45378">
        <ele>131.60059</ele>
        <time>2024-06-01T17:57:56+02:00</time>
      </trkpt>
      <trkpt lat="43.67204" lon="1.45378">
        <ele>131.60059</ele>
        <time>2024-06-01T17:57:57+02:00</time>
      </trkpt>
      <trkpt lat="43.67199" lon="1.45376">
        <ele>131.5</ele>
        <time>2024-06-01T17:58:01+02:00</time>
      </trkpt>
      <trkpt lat="43.67197" lon="1.45377">
        <ele>131.2998</ele>
        <time>2024-06-01T17:58:02+02:00</time>
      </trkpt>
      <trkpt lat="43.67191" lon="1.45374">
        <ele>131.2998</ele>
        <time>2024-06-01T17:58:06+02:00</time>
      </trkpt>
      <trkpt lat="43.67189" lon="1.45371">
        <ele>131.2002</ele>
        <time>2024-06-01T17:58:07+02:00</time>
      </trkpt>
      <trkpt lat="43.6718" lon="1.45356">
        <ele>131.2002</ele>
        <time>2024-06-01T17:58:11+02:00</time>
      </trkpt>
      <trkpt lat="43.67178" lon="1.45352">
        <ele>131.2998</ele>
        <time>2024-06-01T17:58:12+02:00</time>
      </trkpt>
      <trkpt lat="43.67171" lon="1.45335">
        <ele>131.10059</ele>
        <time>2024-06-01T17:58:16+02:00</time>
      </trkpt>
      <trkpt lat="43.67169" lon="1.45331">
        <ele>131.10059</ele>
        <time>2024-06-01T17:58:17+02:00</time>
      </trkpt>
      <trkpt lat="43.6716" lon="1.45314">
        <ele>131.10059</ele>
        <time>2024-06-01T17:58:21+02:00</time>
      </trkpt>
      <trkpt lat="43.67159" lon="1.45309">
        <ele>131</ele>
        <time>2024-06-01T17:58:22+02:00</time>
      </trkpt>
      <trkpt lat="43.67151" lon="1.45292">
        <ele>130.90039</ele>
        <time>2024-06-01T17:58:26+02:00</time>
      </trkpt>
      <trkpt lat="43.67148" lon="1.45287">
        <ele>130.90039</ele>
        <time>2024-06-01T17:58:27+02:00</time>
      </trkpt>
      <trkpt lat="43.67137" lon="1.45266">
        <ele>130.7998</ele>
        <time>2024-06-01T17:58:31+02:00</time>
      </trkpt>
      <trkpt lat="43.67135" lon="1.45262">
        <ele>130.7002</ele>
        <time>2024-06-01T17:58:32+02:00</time>
      </trkpt>
      <trkpt lat="43.67126" lon="1.45243">
        <ele>130.90039</ele>
        <time>2024-06-01T17:58:36+02:00</time>
      </trkpt>
      <trkpt lat="43.67124" lon="1.45239">
        <ele>131.10059</ele>
        <time>2024-06-01T17:58:37+02:00</time>
      </trkpt>
      <trkpt lat="43.67115" lon="1.45219">
        <ele>131.5</ele>
        <time>2024-06-01T17:58:41+02:00</time>
      </trkpt>
      <trkpt lat="43.67113" lon="1.45215">
        <ele>131.7002</ele>
        <time>2024-06-01T17:58:42+02:00</time>
      </trkpt>
      <trkpt lat="43.67104" lon="1.45205">
        <ele>131.90039</ele>
        <time>2024-06-01T17:58:46+02:00</time>
      </trkpt>
      <trkpt lat="43.67103" lon="1.45201">
        <ele>131.7998</ele>
        <time>2024-06-01T17:58:47+02:00</time>
      </trkpt>
      <trkpt lat="43.67091" lon="1.45185">
        <ele>131.90039</ele>
        <time>2024-06-01T17:58:51+02:00</time>
      </trkpt>
      <trkpt lat="43.67089" lon="1.4518">
        <ele>132</ele>
        <time>2024-06-01T17:58:52+02:00</time>
      </trkpt>
      <trkpt lat="43.67079" lon="1.45161">
        <ele>131.90039</ele>
        <time>2024-06-01T17:58:56+02:00</time>
      </trkpt>
      <trkpt lat="43.67077" lon="1.45155">
        <ele>131.90039</ele>
        <time>2024-06-01T17:58:57+02:00</time>
      </trkpt>
      <trkpt lat="43.67063" lon="1.45137">
        <ele>131.7002</ele>
        <time>2024-06-01T17:59:01+02:00</time>
      </trkpt>
      <trkpt lat="43.67058" lon="1.45138">
        <ele>131.5</ele>
        <time>2024-06-01T17:59:02+02:00</time>
      </trkpt>
      <trkpt lat="43.67034" lon="1.45158">
        <ele>130.7998</ele>
        <time>2024-06-01T17:59:06+02:00</time>
      </trkpt>
      <trkpt lat="43.67027" lon="1.45161">
        <ele>130.7002</ele>
        <time>2024-06-01T17:59:07+02:00</time>
      </trkpt>
      <trkpt lat="43.67015" lon="1.45159">
        <ele>130.40039</ele>
        <time>2024-06-01T17:59:09+02:00</time>
      </trkpt>
      <trkpt lat="43.67008" lon="1.45142">
        <ele>130.2998</ele>
        <time>2024-06-01T17:59:11+02:00</time>
      </trkpt>
      <trkpt lat="43.67006" lon="1.45132">
        <ele>130.2998</ele>
        <time>2024-06-01T17:59:12+02:00</time>
      </trkpt>
      <trkpt lat="43.66992" lon="1.451">
        <ele>130.10059</ele>
        <time>2024-06-01T17:59:16+02:00</time>
      </trkpt>
      <trkpt lat="43.66988" lon="1.45092">
        <ele>130</ele>
        <time>2024-06-01T17:59:17+02:00</time>
      </trkpt>
      <trkpt lat="43.66974" lon="1.45063">
        <ele>129.7998</ele>
        <time>2024-06-01T17:59:21+02:00</time>
      </trkpt>
      <trkpt lat="43.6697" lon="1.45056">
        <ele>129.7002</ele>
        <time>2024-06-01T17:59:22+02:00</time>
      </trkpt>
      <trkpt lat="43.66957" lon="1.45027">
        <ele>129.5</ele>
        <time>2024-06-01T17:59:26+02:00</time>
      </trkpt>
      <trkpt lat="43.66954" lon="1.45019">
        <ele>129.5</ele>
        <time>2024-06-01T17:59:27+02:00</time>
      </trkpt>
      <trkpt lat="43.66942" lon="1.44987">
        <ele>129.5</ele>
        <time>2024-06-01T17:59:31+02:00</time>
      </trkpt>
      <trkpt lat="43.66939" lon="1.44979">
        <ele>129.5</ele>
        <time>2024-06-01T17:59:32+02:00</time>
      </trkpt>
      <trkpt lat="43.66925" lon="1.44948">
        <ele>129.7002</ele>
        <time>2024-06-01T17:59:36+02:00</time>
      </trkpt>
      <trkpt lat="43.66919" lon="1.44942">
        <ele>129.7002</ele>
        <time>2024-06-01T17:59:37+02:00</time>
      </trkpt>
      <trkpt lat="43.66892" lon="1.44935">
        <ele>129.7002</ele>
        <time>2024-06-01T17:59:41+02:00</time>
      </trkpt>
      <trkpt lat="43.66886" lon="1.44933">
        <ele>129.7002</ele>
        <time>2024-06-01T17:59:42+02:00</time>
      </trkpt>
      <trkpt lat="43.66859" lon="1.44927">
        <ele>129.7002</ele>
        <time>2024-06-01T17:59:46+02:00</time>
      </trkpt>
      <trkpt lat="43.66853" lon="1.44925">
        <ele>129.7002</ele>
        <time>2024-06-01T17:59:47+02:00</time>
      </trkpt>
      <trkpt lat="43.66828" lon="1.44917">
        <ele>129.7998</ele>
        <time>2024-06-01T17:59:51+02:00</time>
      </trkpt>
      <trkpt lat="43.66822" lon="1.44915">
        <ele>129.7998</ele>
        <time>2024-06-01T17:59:52+02:00</time>
      </trkpt>
      <trkpt lat="43.66797" lon="1.44904">
        <ele>129.90039</ele>
        <time>2024-06-01T17:59:56+02:00</time>
      </trkpt>
      <trkpt lat="43.66791" lon="1.449">
        <ele>129.90039</ele>
        <time>2024-06-01T17:59:57+02:00</time>
      </trkpt>
      <trkpt lat="43.66768" lon="1.44879">
        <ele>130.2002</ele>
        <time>2024-06-01T18:00:01+02:00</time>
      </trkpt>
      <trkpt lat="43.66764" lon="1.44873">
        <ele>130.2002</ele>
        <time>2024-06-01T18:00:02+02:00</time>
      </trkpt>
      <trkpt lat="43.66756" lon="1.44839">
        <ele>130.40039</ele>
        <time>2024-06-01T18:00:06+02:00</time>
      </trkpt>
      <trkpt lat="43.66755" lon="1.4483">
        <ele>130.60059</ele>
        <time>2024-06-01T18:00:07+02:00</time>
      </trkpt>
      <trkpt lat="43.66747" lon="1.44816">
        <ele>130.60059</ele>
        <time>2024-06-01T18:00:09+02:00</time>
      </trkpt>
      <trkpt lat="43.66734" lon="1.44815">
        <ele>130.60059</ele>
        <time>2024-06-01T18:00:11+02:00</time>
      </trkpt>
      <trkpt lat="43.66727" lon="1.4482">
        <ele>130.60059</ele>
        <time>2024-06-01T18:00:12+02:00</time>
      </trkpt>
      <trkpt lat="43.66703" lon="1.44845">
        <ele>130</ele>
        <time>2024-06-01T18:00:16+02:00</time>
      </trkpt>
      <trkpt lat="43.66697" lon="1.44849">
        <ele>129.90039</ele>
        <time>2024-06-01T18:00:17+02:00</time>
      </trkpt>
      <trkpt lat="43.66671" lon="1.44859">
        <ele>129.5</ele>
        <time>2024-06-01T18:00:21+02:00</time>
      </trkpt>
      <trkpt lat="43.66665" lon="1.4486">
        <ele>129.5</ele>
        <time>2024-06-01T18:00:22+02:00</time>
      </trkpt>
      <trkpt lat="43.6664" lon="1.44854">
        <ele>129.2002</ele>
        <time>2024-06-01T18:00:26+02:00</time>
      </trkpt>
      <trkpt lat="43.66634" lon="1.44851">
        <ele>129.2002</ele>
        <time>2024-06-01T18:00:27+02:00</time>
      </trkpt>
      <trkpt lat="43.66615" lon="1.44824">
        <ele>129.2002</ele>
        <time>2024-06-01T18:00:31+02:00</time>
      </trkpt>
      <trkpt lat="43.6661" lon="1.44817">
        <ele>129.2002</ele>
        <time>2024-06-01T18:00:32+02:00</time>
      </trkpt>
      <trkpt lat="43.66594" lon="1.44791">
        <ele>129.60059</ele>
        <time>2024-06-01T18:00:36+02:00</time>
      </trkpt>
      <trkpt lat="43.6659" lon="1.44784">
        <ele>129.7002</ele>
        <time>2024-06-01T18:00:37+02:00</time>
      </trkpt>
      <trkpt lat="43.66572" lon="1.44757">
        <ele>129.7998</ele>
        <time>2024-06-01T18:00:41+02:00</time>
      </trkpt>
      <trkpt lat="43.66567" lon="1.44751">
        <ele>129.7998</ele>
        <time>2024-06-01T18:00:42+02:00</time>
      </trkpt>
      <trkpt lat="43.6655" lon="1.4473">
        <ele>129.5</ele>
        <time>2024-06-01T18:00:46+02:00</time>
      </trkpt>
      <trkpt lat="43.66546" lon="1.44727">
        <ele>129.5</ele>
        <time>2024-06-01T18:00:47+02:00</time>
      </trkpt>
      <trkpt lat="43.66533" lon="1.44719">
        <ele>129.40039</ele>
        <time>2024-06-01T18:00:51+02:00</time>
      </trkpt>
      <trkpt lat="43.66531" lon="1.44717">
        <ele>129.40039</ele>
        <time>2024-06-01T18:00:52+02:00</time>
      </trkpt>
      <trkpt lat="43.66523" lon="1.44712">
        <ele>129.5</ele>
        <time>2024-06-01T18:00:56+02:00</time>
      </trkpt>
      <trkpt lat="43.6652" lon="1.44711">
        <ele>129.5</ele>
        <time>2024-06-01T18:00:57+02:00</time>
      </trkpt>
      <trkpt lat="43.66514" lon="1.44709">
        <ele>129.7998</ele>
        <time>2024-06-01T18:01:01+02:00</time>
      </trkpt>
      <trkpt lat="43.66512" lon="1.44711">
        <ele>129.7998</ele>
        <time>2024-06-01T18:01:02+02:00</time>
      </trkpt>
      <trkpt lat="43.66508" lon="1.44724">
        <ele>129.7002</ele>
        <time>2024-06-01T18:01:06+02:00</time>
      </trkpt>
      <trkpt lat="43.66506" lon="1.44728">
        <ele>129.7998</ele>
        <time>2024-06-01T18:01:07+02:00</time>
      </trkpt>
      <trkpt lat="43.66499" lon="1.44751">
        <ele>129.90039</ele>
        <time>2024-06-01T18:01:11+02:00</time>
      </trkpt>
      <trkpt lat="43.66496" lon="1.44758">
        <ele>129.90039</ele>
        <time>2024-06-01T18:01:12+02:00</time>
      </trkpt>
      <trkpt lat="43.66484" lon="1.44786">
        <ele>130.40039</ele>
        <time>2024-06-01T18:01:16+02:00</time>
      </trkpt>
      <trkpt lat="43.66481" lon="1.44794">
        <ele>130.5</ele>
        <time>2024-06-01T18:01:17+02:00</time>
      </trkpt>
      <trkpt lat="43.66468" lon="1.44822">
        <ele>130.5</ele>
        <time>2024-06-01T18:01:21+02:00</time>
      </trkpt>
      <trkpt lat="43.66465" lon="1.4483">
        <ele>130.5</ele>
        <time>2024-06-01T18:01:22+02:00</time>
      </trkpt>
      <trkpt lat="43.66456" lon="1.4486">
        <ele>130.60059</ele>
        <time>2024-06-01T18:01:26+02:00</time>
      </trkpt>
      <trkpt lat="43.66454" lon="1.44866">
        <ele>130.5</ele>
        <time>2024-06-01T18:01:27+02:00</time>
      </trkpt>
      <trkpt lat="43.66452" lon="1.44878">
        <ele>130.40039</ele>
        <time>2024-06-01T18:01:31+02:00</time>
      </trkpt>
      <trkpt lat="43.66452" lon="1.44881">
        <ele>130.60059</ele>
        <time>2024-06-01T18:01:32+02:00</time>
      </trkpt>
      <trkpt lat="43.66449" lon="1.44893">
        <ele>130.40039</ele>
        <time>2024-06-01T18:01:36+02:00</time>
      </trkpt>
      <trkpt lat="43.66447" lon="1.44897">
        <ele>130.40039</ele>
        <time>2024-06-01T18:01:37+02:00</time>
      </trkpt>
      <trkpt lat="43.66437" lon="1.44916">
        <ele>131</ele>
        <time>2024-06-01T18:01:41+02:00</time>
      </trkpt>
      <trkpt lat="43.66434" lon="1.44922">
        <ele>131</ele>
        <time>2024-06-01T18:01:42+02:00</time>
      </trkpt>
      <trkpt lat="43.66427" lon="1.44952">
        <ele>131.10059</ele>
        <time>2024-06-01T18:01:46+02:00</time>
      </trkpt>
      <trkpt lat="43.66424" lon="1.44959">
        <ele>131.40039</ele>
        <time>2024-06-01T18:01:47+02:00</time>
      </trkpt>
      <trkpt lat="43.66415" lon="1.4499">
        <ele>131.60059</ele>
        <time>2024-06-01T18:01:51+02:00</time>
      </trkpt>
      <trkpt lat="43.66413" lon="1.44998">
        <ele>132</ele>
        <time>2024-06-01T18:01:52+02:00</time>
      </trkpt>
      <trkpt lat="43.66402" lon="1.45027">
        <ele>132</ele>
        <time>2024-06-01T18:01:56+02:00</time>
      </trkpt>
      <trkpt lat="43.664" lon="1.45034">
        <ele>131.7998</ele>
        <time>2024-06-01T18:01:57+02:00</time>
      </trkpt>
      <trkpt lat="43.66393" lon="1.45064">
        <ele>131</ele>
        <time>2024-06-01T18:02:01+02:00</time>
      </trkpt>
      <trkpt lat="43.66392" lon="1.45072">
        <ele>130.7998</ele>
        <time>2024-06-01T18:02:02+02:00</time>
      </trkpt>
      <trkpt lat="43.66382" lon="1.45098">
        <ele>131.5</ele>
        <time>2024-06-01T18:02:06+02:00</time>
      </trkpt>
      <trkpt lat="43.6638" lon="1.45103">
        <ele>131.5</ele>
        <time>2024-06-01T18:02:07+02:00</time>
      </trkpt>
      <trkpt lat="43.66366" lon="1.45121">
        <ele>131.7002</ele>
        <time>2024-06-01T18:02:11+02:00</time>
      </trkpt>
      <trkpt lat="43.66363" lon="1.45126">
        <ele>131.7998</ele>
        <time>2024-06-01T18:02:12+02:00</time>
      </trkpt>
      <trkpt lat="43.66362" lon="1.45148">
        <ele>131.2998</ele>
        <time>2024-06-01T18:02:16+02:00</time>
      </trkpt>
      <trkpt lat="43.66362" lon="1.45152">
        <ele>131.10059</ele>
        <time>2024-06-01T18:02:17+02:00</time>
      </trkpt>
      <trkpt lat="43.66364" lon="1.4518">
        <ele>130</ele>
        <time>2024-06-01T18:02:21+02:00</time>
      </trkpt>
      <trkpt lat="43.66363" lon="1.45187">
        <ele>129.90039</ele>
        <time>2024-06-01T18:02:22+02:00</time>
      </trkpt>
      <trkpt lat="43.66354" lon="1.4521">
        <ele>130.10059</ele>
        <time>2024-06-01T18:02:26+02:00</time>
      </trkpt>
      <trkpt lat="43.66353" lon="1.45217">
        <ele>130.2002</ele>
        <time>2024-06-01T18:02:27+02:00</time>
      </trkpt>
      <trkpt lat="43.66342" lon="1.45249">
        <ele>129.90039</ele>
        <time>2024-06-01T18:02:31+02:00</time>
      </trkpt>
      <trkpt lat="43.66337" lon="1.45255">
        <ele>130.10059</ele>
        <time>2024-06-01T18:02:32+02:00</time>
      </trkpt>
      <trkpt lat="43.66327" lon="1.45275">
        <ele>130.2002</ele>
        <time>2024-06-01T18:02:36+02:00</time>
      </trkpt>
      <trkpt lat="43.66324" lon="1.45282">
        <ele>130</ele>
        <time>2024-06-01T18:02:37+02:00</time>
      </trkpt>
      <trkpt lat="43.66311" lon="1.45311">
        <ele>129.90039</ele>
        <time>2024-06-01T18:02:41+02:00</time>
      </trkpt>
      <trkpt lat="43.66307" lon="1.45318">
        <ele>129.7998</ele>
        <time>2024-06-01T18:02:42+02:00</time>
      </trkpt>
      <trkpt lat="43.66298" lon="1.4535">
        <ele>129.7002</ele>
        <time>2024-06-01T18:02:46+02:00</time>
      </trkpt>
      <trkpt lat="43.66297" lon="1.45357">
        <ele>129.7002</ele>
        <time>2024-06-01T18:02:47+02:00</time>
      </trkpt>
      <trkpt lat="43.66289" lon="1.45387">
        <ele>129.90039</ele>
        <time>2024-06-01T18:02:51+02:00</time>
      </trkpt>
      <trkpt lat="43.66286" lon="1.45393">
        <ele>129.90039</ele>
        <time>2024-06-01T18:02:52+02:00</time>
      </trkpt>
      <trkpt lat="43.6627" lon="1.45413">
        <ele>130.10059</ele>
        <time>2024-06-01T18:02:56+02:00</time>
      </trkpt>
      <trkpt lat="43.66268" lon="1.4542">
        <ele>130.10059</ele>
        <time>2024-06-01T18:02:57+02:00</time>
      </trkpt>
      <trkpt lat="43.6626" lon="1.45448">
        <ele>130.2002</ele>
        <time>2024-06-01T18:03:01+02:00</time>
      </trkpt>
      <trkpt lat="43.66259" lon="1.45455">
        <ele>130.2002</ele>
        <time>2024-06-01T18:03:02+02:00</time>
      </trkpt>
      <trkpt lat="43.66252" lon="1.45483">
        <ele>130.10059</ele>
        <time>2024-06-01T18:03:06+02:00</time>
      </trkpt>
      <trkpt lat="43.6625" lon="1.4549">
        <ele>130.10059</ele>
        <time>2024-06-01T18:03:07+02:00</time>
      </trkpt>
      <trkpt lat="43.66241" lon="1.4552">
        <ele>129.60059</ele>
        <time>2024-06-01T18:03:11+02:00</time>
      </trkpt>
      <trkpt lat="43.66238" lon="1.45528">
        <ele>129.40039</ele>
        <time>2024-06-01T18:03:12+02:00</time>
      </trkpt>
      <trkpt lat="43.66229" lon="1.45558">
        <ele>129</ele>
        <time>2024-06-01T18:03:16+02:00</time>
      </trkpt>
      <trkpt lat="43.66227" lon="1.45566">
        <ele>129</ele>
        <time>2024-06-01T18:03:17+02:00</time>
      </trkpt>
      <trkpt lat="43.66218" lon="1.45598">
        <ele>129</ele>
        <time>2024-06-01T18:03:21+02:00</time>
      </trkpt>
      <trkpt lat="43.66216" lon="1.45606">
        <ele>129.10059</ele>
        <time>2024-06-01T18:03:22+02:00</time>
      </trkpt>
      <trkpt lat="43.66204" lon="1.45632">
        <ele>129.2998</ele>
        <time>2024-06-01T18:03:26+02:00</time>
      </trkpt>
      <trkpt lat="43.66199" lon="1.45633">
        <ele>129.40039</ele>
        <time>2024-06-01T18:03:27+02:00</time>
      </trkpt>
      <trkpt lat="43.66179" lon="1.4561">
        <ele>129.90039</ele>
        <time>2024-06-01T18:03:31+02:00</time>
      </trkpt>
      <trkpt lat="43.66174" lon="1.45604">
        <ele>129.90039</ele>
        <time>2024-06-01T18:03:32+02:00</time>
      </trkpt>
      <trkpt lat="43.66162" lon="1.45586">
        <ele>130.40039</ele>
        <time>2024-06-01T18:03:36+02:00</time>
      </trkpt>
      <trkpt lat="43.66159" lon="1.45583">
        <ele>130.7002</ele>
        <time>2024-06-01T18:03:37+02:00</time>
      </trkpt>
      <trkpt lat="43.66146" lon="1.45572">
        <ele>131.40039</ele>
        <time>2024-06-01T18:03:41+02:00</time>
      </trkpt>
      <trkpt lat="43.66143" lon="1.4557">
        <ele>131.40039</ele>
        <time>2024-06-01T18:03:42+02:00</time>
      </trkpt>
      <trkpt lat="43.66128" lon="1.45556">
        <ele>132.7002</ele>
        <time>2024-06-01T18:03:46+02:00</time>
      </trkpt>
      <trkpt lat="43.66124" lon="1.45553">
        <ele>132.7002</ele>
        <time>2024-06-01T18:03:47+02:00</time>
      </trkpt>
      <trkpt lat="43.66109" lon="1.45543">
        <ele>133.7002</ele>
        <time>2024-06-01T18:03:51+02:00</time>
      </trkpt>
      <trkpt lat="43.66105" lon="1.4554">
        <ele>133.7002</ele>
        <time>2024-06-01T18:03:52+02:00</time>
      </trkpt>
      <trkpt lat="43.66088" lon="1.4553">
        <ele>134.2998</ele>
        <time>2024-06-01T18:03:56+02:00</time>
      </trkpt>
      <trkpt lat="43.66084" lon="1.4553">
        <ele>134.40039</ele>
        <time>2024-06-01T18:03:57+02:00</time>
      </trkpt>
      <trkpt lat="43.66069" lon="1.45535">
        <ele>134.5</ele>
        <time>2024-06-01T18:04:01+02:00</time>
      </trkpt>
      <trkpt lat="43.66065" lon="1.45534">
        <ele>134.7002</ele>
        <time>2024-06-01T18:04:02+02:00</time>
      </trkpt>
      <trkpt lat="43.66049" lon="1.45523">
        <ele>134.90039</ele>
        <time>2024-06-01T18:04:06+02:00</time>
      </trkpt>
      <trkpt lat="43.66045" lon="1.45521">
        <ele>135</ele>
        <time>2024-06-01T18:04:07+02:00</time>
      </trkpt>
      <trkpt lat="43.66027" lon="1.45506">
        <ele>135.40039</ele>
        <time>2024-06-01T18:04:11+02:00</time>
      </trkpt>
      <trkpt lat="43.66023" lon="1.45502">
        <ele>135.40039</ele>
        <time>2024-06-01T18:04:12+02:00</time>
      </trkpt>
      <trkpt lat="43.66005" lon="1.45485">
        <ele>135.7998</ele>
        <time>2024-06-01T18:04:16+02:00</time>
      </trkpt>
      <trkpt lat="43.66" lon="1.45483">
        <ele>135.90039</ele>
        <time>2024-06-01T18:04:17+02:00</time>
      </trkpt>
      <trkpt lat="43.6598" lon="1.45475">
        <ele>135.7998</ele>
        <time>2024-06-01T18:04:21+02:00</time>
      </trkpt>
      <trkpt lat="43.65976" lon="1.45471">
        <ele>135.90039</ele>
        <time>2024-06-01T18:04:22+02:00</time>
      </trkpt>
      <trkpt lat="43.65959" lon="1.4545">
        <ele>135.90039</ele>
        <time>2024-06-01T18:04:26+02:00</time>
      </trkpt>
      <trkpt lat="43.65952" lon="1.45449">
        <ele>135.7002</ele>
        <time>2024-06-01T18:04:27+02:00</time>
      </trkpt>
      <trkpt lat="43.65925" lon="1.45467">
        <ele>135</ele>
        <time>2024-06-01T18:04:31+02:00</time>
      </trkpt>
      <trkpt lat="43.65919" lon="1.45471">
        <ele>134.90039</ele>
        <time>2024-06-01T18:04:32+02:00</time>
      </trkpt>
      <trkpt lat="43.65894" lon="1.45475">
        <ele>134.7002</ele>
        <time>2024-06-01T18:04:36+02:00</time>
      </trkpt>
      <trkpt lat="43.65887" lon="1.45475">
        <ele>134.7998</ele>
        <time>2024-06-01T18:04:37+02:00</time>
      </trkpt>
      <trkpt lat="43.65862" lon="1.45477">
        <ele>135.10059</ele>
        <time>2024-06-01T18:04:41+02:00</time>
      </trkpt>
      <trkpt lat="43.65856" lon="1.45478">
        <ele>135.2998</ele>
        <time>2024-06-01T18:04:42+02:00</time>
      </trkpt>
      <trkpt lat="43.65829" lon="1.45487">
        <ele>135.60059</ele>
        <time>2024-06-01T18:04:46+02:00</time>
      </trkpt>
      <trkpt lat="43.65823" lon="1.45489">
        <ele>135.60059</ele>
        <time>2024-06-01T18:04:47+02:00</time>
      </trkpt>
      <trkpt lat="43.65798" lon="1.45496">
        <ele>135.7998</ele>
        <time>2024-06-01T18:04:51+02:00</time>
      </trkpt>
      <trkpt lat="43.65791" lon="1.45494">
        <ele>135.7998</ele>
        <time>2024-06-01T18:04:52+02:00</time>
      </trkpt>
      <trkpt lat="43.65765" lon="1.45483">
        <ele>135.7002</ele>
        <time>2024-06-01T18:04:56+02:00</time>
      </trkpt>
      <trkpt lat="43.65759" lon="1.45483">
        <ele>135.5</ele>
        <time>2024-06-01T18:04:57+02:00</time>
      </trkpt>
      <trkpt lat="43.65732" lon="1.45476">
        <ele>135.2002</ele>
        <time>2024-06-01T18:05:01+02:00</time>
      </trkpt>
      <trkpt lat="43.65725" lon="1.45474">
        <ele>135</ele>
        <time>2024-06-01T18:05:02+02:00</time>
      </trkpt>
      <trkpt lat="43.65698" lon="1.45462">
        <ele>134.5</ele>
        <time>2024-06-01T18:05:06+02:00</time>
      </trkpt>
      <trkpt lat="43.65691" lon="1.45459">
        <ele>134.40039</ele>
        <time>2024-06-01T18:05:07+02:00</time>
      </trkpt>
      <trkpt lat="43.65664" lon="1.45451">
        <ele>134</ele>
        <time>2024-06-01T18:05:11+02:00</time>
      </trkpt>
      <trkpt lat="43.65658" lon="1.45448">
        <ele>133.90039</ele>
        <time>2024-06-01T18:05:12+02:00</time>
      </trkpt>
      <trkpt lat="43.65633" lon="1.45434">
        <ele>133.7002</ele>
        <time>2024-06-01T18:05:16+02:00</time>
      </trkpt>
      <trkpt lat="43.65626" lon="1.45431">
        <ele>133.7002</ele>
        <time>2024-06-01T18:05:17+02:00</time>
      </trkpt>
      <trkpt lat="43.65601" lon="1.45421">
        <ele>133.40039</ele>
        <time>2024-06-01T18:05:21+02:00</time>
      </trkpt>
      <trkpt lat="43.65595" lon="1.45419">
        <ele>133.40039</ele>
        <time>2024-06-01T18:05:22+02:00</time>
      </trkpt>
      <trkpt lat="43.65569" lon="1.4541">
        <ele>133.2998</ele>
        <time>2024-06-01T18:05:26+02:00</time>
      </trkpt>
      <trkpt lat="43.65563" lon="1.45407">
        <ele>133.2002</ele>
        <time>2024-06-01T18:05:27+02:00</time>
      </trkpt>
      <trkpt lat="43.65539" lon="1.45399">
        <ele>133.2998</ele>
        <time>2024-06-01T18:05:31+02:00</time>
      </trkpt>
      <trkpt lat="43.65533" lon="1.45397">
        <ele>133.40039</ele>
        <time>2024-06-01T18:05:32+02:00</time>
      </trkpt>
      <trkpt lat="43.65509" lon="1.4539">
        <ele>133.2998</ele>
        <time>2024-06-01T18:05:36+02:00</time>
      </trkpt>
      <trkpt lat="43.65502" lon="1.45389">
        <ele>133.40039</ele>
        <time>2024-06-01T18:05:37+02:00</time>
      </trkpt>
      <trkpt lat="43.65477" lon="1.4538">
        <ele>133.7998</ele>
        <time>2024-06-01T18:05:41+02:00</time>
      </trkpt>
      <trkpt lat="43.65471" lon="1.45378">
        <ele>133.90039</ele>
        <time>2024-06-01T18:05:42+02:00</time>
      </trkpt>
      <trkpt lat="43.65447" lon="1.4537">
        <ele>134.5</ele>
        <time>2024-06-01T18:05:46+02:00</time>
      </trkpt>
      <trkpt lat="43.65442" lon="1.45368">
        <ele>134.7002</ele>
        <time>2024-06-01T18:05:47+02:00</time>
      </trkpt>
      <trkpt lat="43.65423" lon="1.45353">
        <ele>134.90039</ele>
        <time>2024-06-01T18:05:51+02:00</time>
      </trkpt>
      <trkpt lat="43.65417" lon="1.45352">
        <ele>135</ele>
        <time>2024-06-01T18:05:52+02:00</time>
      </trkpt>
      <trkpt lat="43.65398" lon="1.45336">
        <ele>135</ele>
        <time>2024-06-01T18:05:56+02:00</time>
      </trkpt>
      <trkpt lat="43.65395" lon="1.45328">
        <ele>135.10059</ele>
        <time>2024-06-01T18:05:57+02:00</time>
      </trkpt>
      <trkpt lat="43.65378" lon="1.45304">
        <ele>135.2002</ele>
        <time>2024-06-01T18:06:01+02:00</time>
      </trkpt>
      <trkpt lat="43.65374" lon="1.45299">
        <ele>135.2998</ele>
        <time>2024-06-01T18:06:02+02:00</time>
      </trkpt>
      <trkpt lat="43.65374" lon="1.45286">
        <ele>135.40039</ele>
        <time>2024-06-01T18:06:06+02:00</time>
      </trkpt>
      <trkpt lat="43.65377" lon="1.45281">
        <ele>135.5</ele>
        <time>2024-06-01T18:06:07+02:00</time>
      </trkpt>
      <trkpt lat="43.65389" lon="1.45261">
        <ele>135.7002</ele>
        <time>2024-06-01T18:06:11+02:00</time>
      </trkpt>
      <trkpt lat="43.65392" lon="1.45258">
        <ele>135.7998</ele>
        <time>2024-06-01T18:06:12+02:00</time>
      </trkpt>
      <trkpt lat="43.65409" lon="1.45239">
        <ele>136</ele>
        <time>2024-06-01T18:06:16+02:00</time>
      </trkpt>
      <trkpt lat="43.65414" lon="1.45238">
        <ele>136</ele>
        <time>2024-06-01T18:06:17+02:00</time>
      </trkpt>
      <trkpt lat="43.65426" lon="1.45235">
        <ele>136</ele>
        <time>2024-06-01T18:06:21+02:00</time>
      </trkpt>
      <trkpt lat="43.65429" lon="1.45233">
        <ele>136.10059</ele>
        <time>2024-06-01T18:06:22+02:00</time>
      </trkpt>
      <trkpt lat="43.65445" lon="1.45227">
        <ele>136.2002</ele>
        <time>2024-06-01T18:06:26+02:00</time>
      </trkpt>
      <trkpt lat="43.6545" lon="1.45223">
        <ele>136.2002</ele>
        <time>2024-06-01T18:06:27+02:00</time>
      </trkpt>
      <trkpt lat="43.65472" lon="1.45207">
        <ele>136.2998</ele>
        <time>2024-06-01T18:06:31+02:00</time>
      </trkpt>
      <trkpt lat="43.65477" lon="1.45202">
        <ele>136.2998</ele>
        <time>2024-06-01T18:06:32+02:00</time>
      </trkpt>
      <trkpt lat="43.65501" lon="1.45185">
        <ele>136</ele>
        <time>2024-06-01T18:06:36+02:00</time>
      </trkpt>
      <trkpt lat="43.65507" lon="1.45181">
        <ele>135.7998</ele>
        <time>2024-06-01T18:06:37+02:00</time>
      </trkpt>
      <trkpt lat="43.6553" lon="1.45165">
        <ele>135.10059</ele>
        <time>2024-06-01T18:06:41+02:00</time>
      </trkpt>
      <trkpt lat="43.65536" lon="1.45161">
        <ele>135</ele>
        <time>2024-06-01T18:06:42+02:00</time>
      </trkpt>
      <trkpt lat="43.65559" lon="1.45146">
        <ele>134.5</ele>
        <time>2024-06-01T18:06:46+02:00</time>
      </trkpt>
      <trkpt lat="43.65565" lon="1.45142">
        <ele>134.40039</ele>
        <time>2024-06-01T18:06:47+02:00</time>
      </trkpt>
      <trkpt lat="43.65585" lon="1.45126">
        <ele>134.10059</ele>
        <time>2024-06-01T18:06:51+02:00</time>
      </trkpt>
      <trkpt lat="43.6559" lon="1.45124">
        <ele>134</ele>
        <time>2024-06-01T18:06:52+02:00</time>
      </trkpt>
      <trkpt lat="43.65601" lon="1.45121">
        <ele>134</ele>
        <time>2024-06-01T18:06:56+02:00</time>
      </trkpt>
      <trkpt lat="43.656" lon="1.45119">
        <ele>134</ele>
        <time>2024-06-01T18:06:57+02:00</time>
      </trkpt>
      <trkpt lat="43.65587" lon="1.451">
        <ele>134.40039</ele>
        <time>2024-06-01T18:07:01+02:00</time>
      </trkpt>
      <trkpt lat="43.65584" lon="1.45096">
        <ele>134.5</ele>
        <time>2024-06-01T18:07:02+02:00</time>
      </trkpt>
      <trkpt lat="43.65572" lon="1.45079">
        <ele>134.7002</ele>
        <time>2024-06-01T18:07:06+02:00</time>
      </trkpt>
      <trkpt lat="43.6557" lon="1.45076">
        <ele>134.7002</ele>
        <time>2024-06-01T18:07:07+02:00</time>
      </trkpt>
      <trkpt lat="43.65563" lon="1.45071">
        <ele>134.7002</ele>
        <time>2024-06-01T18:07:11+02:00</time>
      </trkpt>
      <trkpt lat="43.65563" lon="1.45067">
        <ele>134.7002</ele>
        <time>2024-06-01T18:07:12+02:00</time>
      </trkpt>
      <trkpt lat="43.65554" lon="1.45052">
        <ele>134.7002</ele>
        <time>2024-06-01T18:07:16+02:00</time>
      </trkpt>
      <trkpt lat="43.65551" lon="1.45048">
        <ele>134.7002</ele>
        <time>2024-06-01T18:07:17+02:00</time>
      </trkpt>
      <trkpt lat="43.6554" lon="1.45033">
        <ele>134.7998</ele>
        <time>2024-06-01T18:07:21+02:00</time>
      </trkpt>
      <trkpt lat="43.65537" lon="1.45029">
        <ele>134.7002</ele>
        <time>2024-06-01T18:07:22+02:00</time>
      </trkpt>
      <trkpt lat="43.65525" lon="1.45014">
        <ele>134.7998</ele>
        <time>2024-06-01T18:07:26+02:00</time>
      </trkpt>
      <trkpt lat="43.65522" lon="1.4501">
        <ele>134.7998</ele>
        <time>2024-06-01T18:07:27+02:00</time>
      </trkpt>
      <trkpt lat="43.65509" lon="1.44989">
        <ele>135.40039</ele>
        <time>2024-06-01T18:07:31+02:00</time>
      </trkpt>
      <trkpt lat="43.65504" lon="1.44982">
        <ele>136</ele>
        <time>2024-06-01T18:07:32+02:00</time>
      </trkpt>
      <trkpt lat="43.65487" lon="1.44958">
        <ele>137.7998</ele>
        <time>2024-06-01T18:07:36+02:00</time>
      </trkpt>
      <trkpt lat="43.65483" lon="1.44951">
        <ele>138.40039</ele>
        <time>2024-06-01T18:07:37+02:00</time>
      </trkpt>
      <trkpt lat="43.65476" lon="1.44921">
        <ele>138.2998</ele>
        <time>2024-06-01T18:07:41+02:00</time>
      </trkpt>
      <trkpt lat="43.65479" lon="1.44913">
        <ele>137.5</ele>
        <time>2024-06-01T18:07:42+02:00</time>
      </trkpt>
      <trkpt lat="43.65494" lon="1.44885">
        <ele>135.7998</ele>
        <time>2024-06-01T18:07:46+02:00</time>
      </trkpt>
      <trkpt lat="43.65497" lon="1.44878">
        <ele>135.2998</ele>
        <time>2024-06-01T18:07:47+02:00</time>
      </trkpt>
      <trkpt lat="43.6551" lon="1.44849">
        <ele>134.90039</ele>
        <time>2024-06-01T18:07:51+02:00</time>
      </trkpt>
      <trkpt lat="43.65512" lon="1.44841">
        <ele>135</ele>
        <time>2024-06-01T18:07:52+02:00</time>
      </trkpt>
      <trkpt lat="43.65524" lon="1.44814">
        <ele>135.10059</ele>
        <time>2024-06-01T18:07:56+02:00</time>
      </trkpt>
      <trkpt lat="43.65529" lon="1.44808">
        <ele>135.10059</ele>
        <time>2024-06-01T18:07:57+02:00</time>
      </trkpt>
      <trkpt lat="43.65545" lon="1.44784">
        <ele>135.2002</ele>
        <time>2024-06-01T18:08:01+02:00</time>
      </trkpt>
      <trkpt lat="43.65548" lon="1.44777">
        <ele>135.2002</ele>
        <time>2024-06-01T18:08:02+02:00</time>
      </trkpt>
      <trkpt lat="43.65563" lon="1.44749">
        <ele>135.2002</ele>
        <time>2024-06-01T18:08:06+02:00</time>
      </trkpt>
      <trkpt lat="43.65566" lon="1.44742">
        <ele>135.2002</ele>
        <time>2024-06-01T18:08:07+02:00</time>
      </trkpt>
      <trkpt lat="43.65579" lon="1.44714">
        <ele>135.10059</ele>
        <time>2024-06-01T18:08:11+02:00</time>
      </trkpt>
      <trkpt lat="43.65583" lon="1.44708">
        <ele>135.10059</ele>
        <time>2024-06-01T18:08:12+02:00</time>
      </trkpt>
      <trkpt lat="43.65595" lon="1.44683">
        <ele>135</ele>
        <time>2024-06-01T18:08:16+02:00</time>
      </trkpt>
      <trkpt lat="43.65598" lon="1.44677">
        <ele>135</ele>
        <time>2024-06-01T18:08:17+02:00</time>
      </trkpt>
      <trkpt lat="43.65608" lon="1.44657">
        <ele>134.7002</ele>
        <time>2024-06-01T18:08:21+02:00</time>
      </trkpt>
      <trkpt lat="43.65608" lon="1.44653">
        <ele>134.7002</ele>
        <time>2024-06-01T18:08:22+02:00</time>
      </trkpt>
      <trkpt lat="43.65603" lon="1.44643">
        <ele>134.7002</ele>
        <time>2024-06-01T18:08:26+02:00</time>
      </trkpt>
      <trkpt lat="43.656" lon="1.44641">
        <ele>134.60059</ele>
        <time>2024-06-01T18:08:27+02:00</time>
      </trkpt>
      <trkpt lat="43.65588" lon="1.44635">
        <ele>134.7002</ele>
        <time>2024-06-01T18:08:31+02:00</time>
      </trkpt>
      <trkpt lat="43.65584" lon="1.44633">
        <ele>134.7002</ele>
        <time>2024-06-01T18:08:32+02:00</time>
      </trkpt>
      <trkpt lat="43.6557" lon="1.44626">
        <ele>134.7002</ele>
        <time>2024-06-01T18:08:36+02:00</time>
      </trkpt>
      <trkpt lat="43.65566" lon="1.44624">
        <ele>134.60059</ele>
        <time>2024-06-01T18:08:37+02:00</time>
      </trkpt>
      <trkpt lat="43.65553" lon="1.44617">
        <ele>134.7002</ele>
        <time>2024-06-01T18:08:41+02:00</time>
      </trkpt>
      <trkpt lat="43.6555" lon="1.44615">
        <ele>134.60059</ele>
        <time>2024-06-01T18:08:42+02:00</time>
      </trkpt>
      <trkpt lat="43.65542" lon="1.44602">
        <ele>134.40039</ele>
        <time>2024-06-01T18:08:46+02:00</time>
      </trkpt>
      <trkpt lat="43.6554" lon="1.44599">
        <ele>134.2998</ele>
        <time>2024-06-01T18:08:47+02:00</time>
      </trkpt>
      <trkpt lat="43.65531" lon="1.44593">
        <ele>134.2998</ele>
        <time>2024-06-01T18:08:51+02:00</time>
      </trkpt>
      <trkpt lat="43.65529" lon="1.44591">
        <ele>134.2998</ele>
        <time>2024-06-01T18:08:52+02:00</time>
      </trkpt>
      <trkpt lat="43.65518" lon="1.44585">
        <ele>134.10059</ele>
        <time>2024-06-01T18:08:56+02:00</time>
      </trkpt>
      <trkpt lat="43.65516" lon="1.44583">
        <ele>134.10059</ele>
        <time>2024-06-01T18:08:57+02:00</time>
      </trkpt>
      <trkpt lat="43.65521" lon="1.44569">
        <ele>133.7002</ele>
        <time>2024-06-01T18:09:01+02:00</time>
      </trkpt>
      <trkpt lat="43.65523" lon="1.44569">
        <ele>133.7002</ele>
        <time>2024-06-01T18:09:02+02:00</time>
      </trkpt>
      <trkpt lat="43.65523" lon="1.4457">
        <ele>133.7002</ele>
        <time>2024-06-01T18:09:06+02:00</time>
      </trkpt>
      <trkpt lat="43.65522" lon="1.44569">
        <ele>133.7002</ele>
        <time>2024-06-01T18:09:07+02:00</time>
      </trkpt>
      <trkpt lat="43.65522" lon="1.44569">
        <ele>133.7002</ele>
        <time>2024-06-01T18:09:11+02:00</time>
      </trkpt>
      <trkpt lat="43.65522" lon="1.44569">
        <ele>133.7002</ele>
        <time>2024-06-01T18:09:12+02:00</time>
      </trkpt>
      <trkpt lat="43.65522" lon="1.44569">
        <ele>133.7002</ele>
        <time>2024-06-01T18:09:16+02:00</time>
      </trkpt>
      <trkpt lat="43.65522" lon="1.44569">
        <ele>133.7002</ele>
        <time>2024-06-01T18:09:17+02:00</time>
      </trkpt>
      <trkpt lat="43.65522" lon="1.44569">
        <ele>133.7002</ele>
        <time>2024-06-01T18:09:21+02:00</time>
      </trkpt>
      <trkpt lat="43.65522" lon="1.44569">
        <ele>133.7002</ele>
        <time>2024-06-01T18:09:22+02:00</time>
      </trkpt>
      <trkpt lat="43.65522" lon="1.44569">
        <ele>133.7002</ele>
        <time>2024-06-01T18:09:26+02:00</time>
      </trkpt>
      <trkpt lat="43.65522" lon="1.44569">
        <ele>133.7002</ele>
        <time>2024-06-01T18:09:27+02:00</time>
      </trkpt>
      <trkpt lat="43.65526" lon="1.44572">
        <ele>133.7002</ele>
        <time>2024-06-01T18:09:31+02:00</time>
      </trkpt>
      <trkpt lat="43.65529" lon="1.44575">
        <ele>133.90039</ele>
        <time>2024-06-01T18:09:32+02:00</time>
      </trkpt>
      <trkpt lat="43.65537" lon="1.44581">
        <ele>133.90039</ele>
        <time>2024-06-01T18:09:36+02:00</time>
      </trkpt>
      <trkpt lat="43.65539" lon="1.44582">
        <ele>134.10059</ele>
        <time>2024-06-01T18:09:37+02:00</time>
      </trkpt>
      <trkpt lat="43.65546" lon="1.44588">
        <ele>134.10059</ele>
        <time>2024-06-01T18:09:41+02:00</time>
      </trkpt>
      <trkpt lat="43.65548" lon="1.44587">
        <ele>134.10059</ele>
        <time>2024-06-01T18:09:42+02:00</time>
      </trkpt>
      <trkpt lat="43.65555" lon="1.44575">
        <ele>133.90039</ele>
        <time>2024-06-01T18:09:46+02:00</time>
      </trkpt>
      <trkpt lat="43.65556" lon="1.44572">
        <ele>133.7998</ele>
        <time>2024-06-01T18:09:47+02:00</time>
      </trkpt>
      <trkpt lat="43.65559" lon="1.44566">
        <ele>133.7998</ele>
        <time>2024-06-01T18:09:51+02:00</time>
      </trkpt>
      <trkpt lat="43.65557" lon="1.44566">
        <ele>133.7998</ele>
        <time>2024-06-01T18:09:52+02:00</time>
      </trkpt>
      <trkpt lat="43.65554" lon="1.44577">
        <ele>133.90039</ele>
        <time>2024-06-01T18:09:56+02:00</time>
      </trkpt>
      <trkpt lat="43.65556" lon="1.44577">
        <ele>133.90039</ele>
        <time>2024-06-01T18:09:57+02:00</time>
      </trkpt>
      <trkpt lat="43.65564" lon="1.44571">
        <ele>133.7998</ele>
        <time>2024-06-01T18:10:01+02:00</time>
      </trkpt>
      <trkpt lat="43.65569" lon="1.44575">
        <ele>133.90039</ele>
        <time>2024-06-01T18:10:03+02:00</time>
      </trkpt>
      <trkpt lat="43.65572" lon="1.44582">
        <ele>133.90039</ele>
        <time>2024-06-01T18:10:07+02:00</time>
      </trkpt>
      <trkpt lat="43.65572" lon="1.44584">
        <ele>134</ele>
        <time>2024-06-01T18:10:08+02:00</time>
      </trkpt>
      <trkpt lat="43.65573" lon="1.44586">
        <ele>134</ele>
        <time>2024-06-01T18:10:12+02:00</time>
      </trkpt>
      <trkpt lat="43.65574" lon="1.44586">
        <ele>134</ele>
        <time>2024-06-01T18:10:13+02:00</time>
      </trkpt>
      <trkpt lat="43.65577" lon="1.4459">
        <ele>134</ele>
        <time>2024-06-01T18:10:17+02:00</time>
      </trkpt>
      <trkpt lat="43.65577" lon="1.4459">
        <ele>134</ele>
        <time>2024-06-01T18:10:18+02:00</time>
      </trkpt>
      <trkpt lat="43.65577" lon="1.44591">
        <ele>134.10059</ele>
        <time>2024-06-01T18:10:22+02:00</time>
      </trkpt>
      <trkpt lat="43.65577" lon="1.44591">
        <ele>134.10059</ele>
        <time>2024-06-01T18:10:23+02:00</time>
      </trkpt>
      <trkpt lat="43.65578" lon="1.44594">
        <ele>134.10059</ele>
        <time>2024-06-01T18:10:27+02:00</time>
      </trkpt>
      <trkpt lat="43.65579" lon="1.44594">
        <ele>134.10059</ele>
        <time>2024-06-01T18:10:28+02:00</time>
      </trkpt>
      <trkpt lat="43.6558" lon="1.44596">
        <ele>134.10059</ele>
        <time>2024-06-01T18:10:32+02:00</time>
      </trkpt>
      <trkpt lat="43.65581" lon="1.44596">
        <ele>134.10059</ele>
        <time>2024-06-01T18:10:33+02:00</time>
      </trkpt>
      <trkpt lat="43.65581" lon="1.44596">
        <ele>134.10059</ele>
        <time>2024-06-01T18:10:37+02:00</time>
      </trkpt>
      <trkpt lat="43.65581" lon="1.44596">
        <ele>134.10059</ele>
        <time>2024-06-01T18:10:38+02:00</time>
      </trkpt>
      <trkpt lat="43.65581" lon="1.44596">
        <ele>134.10059</ele>
        <time>2024-06-01T18:10:42+02:00</time>
      </trkpt>
      <trkpt lat="43.65581" lon="1.44596">
        <ele>134.10059</ele>
        <time>2024-06-01T18:10:43+02:00</time>
      </trkpt>
      <trkpt lat="43.65581" lon="1.44596">
        <ele>134.10059</ele>
        <time>2024-06-01T18:10:47+02:00</time>
      </trkpt>
      <trkpt lat="43.65581" lon="1.44596">
        <ele>134.10059</ele>
        <time>2024-06-01T18:10:48+02:00</time>
      </trkpt>
      <trkpt lat="43.65581" lon="1.44596">
        <ele>134.10059</ele>
        <time>2024-06-01T18:10:52+02:00</time>
      </trkpt>
      <trkpt lat="43.65581" lon="1.44596">
        <ele>134.10059</ele>
        <time>2024-06-01T18:10:53+02:00</time>
      </trkpt>
      <trkpt lat="43.65581" lon="1.44596">
        <ele>134.10059</ele>
        <time>2024-06-01T18:10:57+02:00</time>
      </trkpt>
      <trkpt lat="43.65581" lon="1.44596">
        <ele>134.10059</ele>
        <time>2024-06-01T18:10:58+02:00</time>
      </trkpt>
      <trkpt lat="43.65581" lon="1.44596">
        <ele>134.10059</ele>
        <time>2024-06-01T18:11:02+02:00</time>
      </trkpt>
      <trkpt lat="43.65581" lon="1.44596">
        <ele>134.10059</ele>
        <time>2024-06-01T18:11:03+02:00</time>
      </trkpt>
      <trkpt lat="43.65581" lon="1.44596">
        <ele>134.10059</ele>
        <time>2024-06-01T18:11:07+02:00</time>
      </trkpt>
      <trkpt lat="43.65581" lon="1.44596">
        <ele>134.10059</ele>
        <time>2024-06-01T18:11:08+02:00</time>
      </trkpt>
      <trkpt lat="43.65581" lon="1.44596">
        <ele>134.10059</ele>
        <time>2024-06-01T18:11:12+02:00</time>
      </trkpt>
      <trkpt lat="43.65581" lon="1.44596">
        <ele>134.10059</ele>
        <time>2024-06-01T18:11:13+02:00</time>
      </trkpt>
      <trkpt lat="43.65581" lon="1.44596">
        <ele>134.10059</ele>
        <time>2024-06-01T18:11:17+02:00</time>
      </trkpt>
      <trkpt lat="43.65581" lon="1.44596">
        <ele>134.10059</ele>
        <time>2024-06-01T18:11:18+02:00</time>
      </trkpt>
      <trkpt lat="43.65581" lon="1.44596">
        <ele>134.10059</ele>
        <time>2024-06-01T18:11:22+02:00</time>
      </trkpt>
      <trkpt lat="43.65581" lon="1.44596">
        <ele>134.10059</ele>
        <time>2024-06-01T18:11:23+02:00</time>
      </trkpt>
      <trkpt lat="43.65581" lon="1.44596">
        <ele>134.10059</ele>
        <time>2024-06-01T18:11:27+02:00</time>
      </trkpt>
      <trkpt lat="43.65581" lon="1.44596">
        <ele>134.10059</ele>
        <time>2024-06-01T18:11:28+02:00</time>
      </trkpt>
      <trkpt lat="43.65581" lon="1.44596">
        <ele>134.10059</ele>
        <time>2024-06-01T18:11:32+02:00</time>
      </trkpt>
      <trkpt lat="43.6558" lon="1.44595">
        <ele>134.10059</ele>
        <time>2024-06-01T18:11:33+02:00</time>
      </trkpt>
      <trkpt lat="43.6558" lon="1.44595">
        <ele>134.10059</ele>
        <time>2024-06-01T18:11:46+02:00</time>
      </trkpt>
      <trkpt lat="43.6558" lon="1.44595">
        <ele>134.10059</ele>
        <time>2024-06-01T18:11:47+02:00</time>
      </trkpt>
      <trkpt lat="43.6558" lon="1.44595">
        <ele>134.10059</ele>
        <time>2024-06-01T18:11:51+02:00</time>
      </trkpt>
      <trkpt lat="43.6558" lon="1.44595">
        <ele>134.10059</ele>
        <time>2024-06-01T18:11:52+02:00</time>
      </trkpt>
      <trkpt lat="43.6558" lon="1.44594">
        <ele>134.10059</ele>
        <time>2024-06-01T18:11:54+02:00</time>
      </trkpt>
    </trkseg>
  </trk>
</gpx>